<?xml version="1.0" encoding="UTF-8" standalone="no" ?>
<gpx xmlns="http://www.topografix.com/GPX/1/1" xmlns:xsi="http://www.w3.org/2001/XMLSchema-instance" xsi:schemaLocation="http://www.topografix.com/GPX/1/1 http://www.topografix.com/GPX/1/1/gpx.xsd" version="1.1" creator="VisuGPX - https://www.visugpx.com">
  <metadata>
    <name>Lalouvesc,</name>
    <desc><![CDATA[2009-08-12_Lalouvesc,Dist.134Km Asc.1568m 5h48.gpx]]></desc>
  </metadata>
  <trk>
    <name><![CDATA[Lalouvesc]]></name>
    <cmt><![CDATA[Exportation trafiquée]]></cmt>
    <trkseg>
      <trkpt lat="45.11566" lon="4.96477">
        <ele>201.49699401856</ele>
        <time>2009-08-12T11:38:34Z</time>
      </trkpt>
      <trkpt lat="45.11536" lon="4.96428">
        <ele>201.79600524902</ele>
        <time>2009-08-12T11:38:43Z</time>
      </trkpt>
      <trkpt lat="45.11517" lon="4.96398">
        <ele>201.58099365234</ele>
        <time>2009-08-12T11:38:48Z</time>
      </trkpt>
      <trkpt lat="45.11494" lon="4.96362">
        <ele>202.09300231934</ele>
        <time>2009-08-12T11:38:55Z</time>
      </trkpt>
      <trkpt lat="45.11449" lon="4.96291">
        <ele>204.29200744629</ele>
        <time>2009-08-12T11:39:07Z</time>
      </trkpt>
      <trkpt lat="45.11422" lon="4.96243">
        <ele>203.07200622559</ele>
        <time>2009-08-12T11:39:14Z</time>
      </trkpt>
      <trkpt lat="45.11357" lon="4.9611">
        <ele>201.61700439453</ele>
        <time>2009-08-12T11:39:31Z</time>
      </trkpt>
      <trkpt lat="45.11273" lon="4.95968">
        <ele>199.86700439453</ele>
        <time>2009-08-12T11:39:48Z</time>
      </trkpt>
      <trkpt lat="45.11181" lon="4.95825">
        <ele>199.04400634766</ele>
        <time>2009-08-12T11:40:06Z</time>
      </trkpt>
      <trkpt lat="45.11103" lon="4.95688">
        <ele>199.33299255371</ele>
        <time>2009-08-12T11:40:22Z</time>
      </trkpt>
      <trkpt lat="45.11019" lon="4.956">
        <ele>199.66999816894</ele>
        <time>2009-08-12T11:40:36Z</time>
      </trkpt>
      <trkpt lat="45.10955" lon="4.95474">
        <ele>197.05200195312</ele>
        <time>2009-08-12T11:40:50Z</time>
      </trkpt>
      <trkpt lat="45.10909" lon="4.95306">
        <ele>197.12399291992</ele>
        <time>2009-08-12T11:41:06Z</time>
      </trkpt>
      <trkpt lat="45.10883" lon="4.95232">
        <ele>197.99800109863</ele>
        <time>2009-08-12T11:41:14Z</time>
      </trkpt>
      <trkpt lat="45.10855" lon="4.95142">
        <ele>201.16600036621</ele>
        <time>2009-08-12T11:41:26Z</time>
      </trkpt>
      <trkpt lat="45.10854" lon="4.95135">
        <ele>201.46699523926</ele>
        <time>2009-08-12T11:41:27Z</time>
      </trkpt>
      <trkpt lat="45.10847" lon="4.95083">
        <ele>203.7140045166</ele>
        <time>2009-08-12T11:41:35Z</time>
      </trkpt>
      <trkpt lat="45.10849" lon="4.95026">
        <ele>206.59800720215</ele>
        <time>2009-08-12T11:41:45Z</time>
      </trkpt>
      <trkpt lat="45.10851" lon="4.94999">
        <ele>208.15199279785</ele>
        <time>2009-08-12T11:41:50Z</time>
      </trkpt>
      <trkpt lat="45.10853" lon="4.94963">
        <ele>209.60099792481</ele>
        <time>2009-08-12T11:41:57Z</time>
      </trkpt>
      <trkpt lat="45.10855" lon="4.94928">
        <ele>211.71699523926</ele>
        <time>2009-08-12T11:42:04Z</time>
      </trkpt>
      <trkpt lat="45.10866" lon="4.94841">
        <ele>214.89999389648</ele>
        <time>2009-08-12T11:42:22Z</time>
      </trkpt>
      <trkpt lat="45.10867" lon="4.94836">
        <ele>215.33999633789</ele>
        <time>2009-08-12T11:42:24Z</time>
      </trkpt>
      <trkpt lat="45.10871" lon="4.94817">
        <ele>215.22799682617</ele>
        <time>2009-08-12T11:42:30Z</time>
      </trkpt>
      <trkpt lat="45.10873" lon="4.94785">
        <ele>215.09300231934</ele>
        <time>2009-08-12T11:42:35Z</time>
      </trkpt>
      <trkpt lat="45.10915" lon="4.9464">
        <ele>215.39100646973</ele>
        <time>2009-08-12T11:42:55Z</time>
      </trkpt>
      <trkpt lat="45.10925" lon="4.94505">
        <ele>214.50300598144</ele>
        <time>2009-08-12T11:43:10Z</time>
      </trkpt>
      <trkpt lat="45.10915" lon="4.94339">
        <ele>214.61500549316</ele>
        <time>2009-08-12T11:43:27Z</time>
      </trkpt>
      <trkpt lat="45.109" lon="4.94296">
        <ele>214.60699462891</ele>
        <time>2009-08-12T11:43:32Z</time>
      </trkpt>
      <trkpt lat="45.1089" lon="4.9428">
        <ele>214.60400390625</ele>
        <time>2009-08-12T11:43:34Z</time>
      </trkpt>
      <trkpt lat="45.10775" lon="4.94144">
        <ele>213.83399963379</ele>
        <time>2009-08-12T11:43:53Z</time>
      </trkpt>
      <trkpt lat="45.10714" lon="4.94029">
        <ele>215.80299377441</ele>
        <time>2009-08-12T11:44:08Z</time>
      </trkpt>
      <trkpt lat="45.10683" lon="4.93874">
        <ele>218.24499511719</ele>
        <time>2009-08-12T11:44:26Z</time>
      </trkpt>
      <trkpt lat="45.10663" lon="4.93682">
        <ele>214.09800720215</ele>
        <time>2009-08-12T11:44:44Z</time>
      </trkpt>
      <trkpt lat="45.10637" lon="4.93521">
        <ele>203.98199462891</ele>
        <time>2009-08-12T11:44:55Z</time>
      </trkpt>
      <trkpt lat="45.10586" lon="4.93265">
        <ele>198.70199584961</ele>
        <time>2009-08-12T11:45:11Z</time>
      </trkpt>
      <trkpt lat="45.1054" lon="4.9303">
        <ele>196.71899414062</ele>
        <time>2009-08-12T11:45:28Z</time>
      </trkpt>
      <trkpt lat="45.10501" lon="4.92824">
        <ele>196.55999755859</ele>
        <time>2009-08-12T11:45:46Z</time>
      </trkpt>
      <trkpt lat="45.10492" lon="4.92775">
        <ele>196.24499511719</ele>
        <time>2009-08-12T11:45:51Z</time>
      </trkpt>
      <trkpt lat="45.10512" lon="4.92755">
        <ele>196.25500488281</ele>
        <time>2009-08-12T11:45:57Z</time>
      </trkpt>
      <trkpt lat="45.10518" lon="4.92755">
        <ele>196.03999328613</ele>
        <time>2009-08-12T11:45:58Z</time>
      </trkpt>
      <trkpt lat="45.10546" lon="4.92751">
        <ele>195.90199279785</ele>
        <time>2009-08-12T11:46:03Z</time>
      </trkpt>
      <trkpt lat="45.10574" lon="4.92748">
        <ele>196.77699279785</ele>
        <time>2009-08-12T11:46:08Z</time>
      </trkpt>
      <trkpt lat="45.10599" lon="4.92728">
        <ele>197.17999267578</ele>
        <time>2009-08-12T11:46:13Z</time>
      </trkpt>
      <trkpt lat="45.10606" lon="4.92714">
        <ele>197.28399658203</ele>
        <time>2009-08-12T11:46:15Z</time>
      </trkpt>
      <trkpt lat="45.10633" lon="4.92696">
        <ele>197.71800231934</ele>
        <time>2009-08-12T11:46:20Z</time>
      </trkpt>
      <trkpt lat="45.10652" lon="4.92696">
        <ele>197.58299255371</ele>
        <time>2009-08-12T11:46:23Z</time>
      </trkpt>
      <trkpt lat="45.10682" lon="4.92709">
        <ele>196.45799255371</ele>
        <time>2009-08-12T11:46:28Z</time>
      </trkpt>
      <trkpt lat="45.10719" lon="4.9274">
        <ele>198.11700439453</ele>
        <time>2009-08-12T11:46:35Z</time>
      </trkpt>
      <trkpt lat="45.10729" lon="4.92747">
        <ele>197.95100402832</ele>
        <time>2009-08-12T11:46:37Z</time>
      </trkpt>
      <trkpt lat="45.10804" lon="4.92754">
        <ele>199.61700439453</ele>
        <time>2009-08-12T11:46:50Z</time>
      </trkpt>
      <trkpt lat="45.1082" lon="4.92753">
        <ele>200.14199829102</ele>
        <time>2009-08-12T11:46:53Z</time>
      </trkpt>
      <trkpt lat="45.10842" lon="4.92736">
        <ele>201.28199768066</ele>
        <time>2009-08-12T11:46:58Z</time>
      </trkpt>
      <trkpt lat="45.10898" lon="4.92644">
        <ele>200.40299987793</ele>
        <time>2009-08-12T11:47:13Z</time>
      </trkpt>
      <trkpt lat="45.10992" lon="4.92553">
        <ele>200.59700012207</ele>
        <time>2009-08-12T11:47:32Z</time>
      </trkpt>
      <trkpt lat="45.11105" lon="4.92447">
        <ele>200.86199951172</ele>
        <time>2009-08-12T11:47:54Z</time>
      </trkpt>
      <trkpt lat="45.11171" lon="4.92382">
        <ele>202.52499389648</ele>
        <time>2009-08-12T11:48:07Z</time>
      </trkpt>
      <trkpt lat="45.11185" lon="4.92319">
        <ele>202.18800354004</ele>
        <time>2009-08-12T11:48:15Z</time>
      </trkpt>
      <trkpt lat="45.1118" lon="4.92292">
        <ele>201.44099426269</ele>
        <time>2009-08-12T11:48:18Z</time>
      </trkpt>
      <trkpt lat="45.11179" lon="4.92254">
        <ele>200.88999938965</ele>
        <time>2009-08-12T11:48:22Z</time>
      </trkpt>
      <trkpt lat="45.11203" lon="4.92104">
        <ele>200.22599792481</ele>
        <time>2009-08-12T11:48:38Z</time>
      </trkpt>
      <trkpt lat="45.11213" lon="4.92054">
        <ele>201.40899658203</ele>
        <time>2009-08-12T11:48:44Z</time>
      </trkpt>
      <trkpt lat="45.11217" lon="4.92038">
        <ele>201.40400695801</ele>
        <time>2009-08-12T11:48:46Z</time>
      </trkpt>
      <trkpt lat="45.11226" lon="4.92016">
        <ele>201.23100280762</ele>
        <time>2009-08-12T11:48:49Z</time>
      </trkpt>
      <trkpt lat="45.11302" lon="4.91924">
        <ele>202.60299682617</ele>
        <time>2009-08-12T11:49:06Z</time>
      </trkpt>
      <trkpt lat="45.11391" lon="4.91798">
        <ele>205.66700744629</ele>
        <time>2009-08-12T11:49:28Z</time>
      </trkpt>
      <trkpt lat="45.1142" lon="4.91749">
        <ele>207.07600402832</ele>
        <time>2009-08-12T11:49:36Z</time>
      </trkpt>
      <trkpt lat="45.11456" lon="4.91682">
        <ele>207.98300170898</ele>
        <time>2009-08-12T11:49:46Z</time>
      </trkpt>
      <trkpt lat="45.1153" lon="4.91527">
        <ele>210.83500671387</ele>
        <time>2009-08-12T11:50:09Z</time>
      </trkpt>
      <trkpt lat="45.11546" lon="4.91418">
        <ele>213.05499267578</ele>
        <time>2009-08-12T11:50:26Z</time>
      </trkpt>
      <trkpt lat="45.11554" lon="4.91357">
        <ele>216.99899291992</ele>
        <time>2009-08-12T11:50:36Z</time>
      </trkpt>
      <trkpt lat="45.11571" lon="4.9127">
        <ele>216.41000366211</ele>
        <time>2009-08-12T11:50:49Z</time>
      </trkpt>
      <trkpt lat="45.1162" lon="4.91167">
        <ele>215.69799804688</ele>
        <time>2009-08-12T11:51:03Z</time>
      </trkpt>
      <trkpt lat="45.1165" lon="4.91071">
        <ele>215.42500305176</ele>
        <time>2009-08-12T11:51:15Z</time>
      </trkpt>
      <trkpt lat="45.11676" lon="4.90956">
        <ele>216.0119934082</ele>
        <time>2009-08-12T11:51:30Z</time>
      </trkpt>
      <trkpt lat="45.11678" lon="4.90817">
        <ele>211.875</ele>
        <time>2009-08-12T11:51:44Z</time>
      </trkpt>
      <trkpt lat="45.11676" lon="4.90771">
        <ele>211.39399719238</ele>
        <time>2009-08-12T11:51:48Z</time>
      </trkpt>
      <trkpt lat="45.11689" lon="4.90723">
        <ele>211.17799377441</ele>
        <time>2009-08-12T11:51:53Z</time>
      </trkpt>
      <trkpt lat="45.1168" lon="4.90679">
        <ele>212.40199279785</ele>
        <time>2009-08-12T11:51:59Z</time>
      </trkpt>
      <trkpt lat="45.11675" lon="4.90651">
        <ele>211.90600585938</ele>
        <time>2009-08-12T11:52:03Z</time>
      </trkpt>
      <trkpt lat="45.11693" lon="4.90532">
        <ele>209.16200256348</ele>
        <time>2009-08-12T11:52:15Z</time>
      </trkpt>
      <trkpt lat="45.11705" lon="4.90481">
        <ele>207.49200439453</ele>
        <time>2009-08-12T11:52:20Z</time>
      </trkpt>
      <trkpt lat="45.11712" lon="4.90403">
        <ele>207.40199279785</ele>
        <time>2009-08-12T11:52:27Z</time>
      </trkpt>
      <trkpt lat="45.11716" lon="4.90381">
        <ele>205.25399780273</ele>
        <time>2009-08-12T11:52:29Z</time>
      </trkpt>
      <trkpt lat="45.1175" lon="4.90335">
        <ele>203.95599365234</ele>
        <time>2009-08-12T11:52:35Z</time>
      </trkpt>
      <trkpt lat="45.11882" lon="4.90245">
        <ele>202.53199768066</ele>
        <time>2009-08-12T11:52:54Z</time>
      </trkpt>
      <trkpt lat="45.11945" lon="4.90195">
        <ele>202.07099914551</ele>
        <time>2009-08-12T11:53:04Z</time>
      </trkpt>
      <trkpt lat="45.11996" lon="4.90143">
        <ele>202.43899536133</ele>
        <time>2009-08-12T11:53:13Z</time>
      </trkpt>
      <trkpt lat="45.12007" lon="4.90068">
        <ele>201.21600341797</ele>
        <time>2009-08-12T11:53:21Z</time>
      </trkpt>
      <trkpt lat="45.12003" lon="4.90058">
        <ele>201.00999450684</ele>
        <time>2009-08-12T11:53:22Z</time>
      </trkpt>
      <trkpt lat="45.11947" lon="4.89915">
        <ele>199.31300354004</ele>
        <time>2009-08-12T11:53:36Z</time>
      </trkpt>
      <trkpt lat="45.119" lon="4.89812">
        <ele>200.91000366211</ele>
        <time>2009-08-12T11:53:48Z</time>
      </trkpt>
      <trkpt lat="45.11889" lon="4.89792">
        <ele>201.38900756836</ele>
        <time>2009-08-12T11:53:51Z</time>
      </trkpt>
      <trkpt lat="45.11881" lon="4.89761">
        <ele>202.41799926758</ele>
        <time>2009-08-12T11:53:55Z</time>
      </trkpt>
      <trkpt lat="45.11878" lon="4.89706">
        <ele>203.09599304199</ele>
        <time>2009-08-12T11:54:02Z</time>
      </trkpt>
      <trkpt lat="45.11877" lon="4.89697">
        <ele>203.14199829102</ele>
        <time>2009-08-12T11:54:03Z</time>
      </trkpt>
      <trkpt lat="45.11876" lon="4.89655">
        <ele>204.19500732422</ele>
        <time>2009-08-12T11:54:09Z</time>
      </trkpt>
      <trkpt lat="45.11898" lon="4.89656">
        <ele>202.76699829102</ele>
        <time>2009-08-12T11:54:16Z</time>
      </trkpt>
      <trkpt lat="45.11984" lon="4.89685">
        <ele>201.71699523926</ele>
        <time>2009-08-12T11:54:29Z</time>
      </trkpt>
      <trkpt lat="45.12139" lon="4.89702">
        <ele>200.88000488281</ele>
        <time>2009-08-12T11:54:49Z</time>
      </trkpt>
      <trkpt lat="45.12233" lon="4.89732">
        <ele>201.46099853516</ele>
        <time>2009-08-12T11:55:03Z</time>
      </trkpt>
      <trkpt lat="45.12316" lon="4.89721">
        <ele>203.8690032959</ele>
        <time>2009-08-12T11:55:16Z</time>
      </trkpt>
      <trkpt lat="45.12423" lon="4.89734">
        <ele>203.86599731445</ele>
        <time>2009-08-12T11:55:32Z</time>
      </trkpt>
      <trkpt lat="45.12462" lon="4.89742">
        <ele>205.77499389648</ele>
        <time>2009-08-12T11:55:38Z</time>
      </trkpt>
      <trkpt lat="45.12571" lon="4.89763">
        <ele>207.14900207519</ele>
        <time>2009-08-12T11:55:55Z</time>
      </trkpt>
      <trkpt lat="45.12703" lon="4.89785">
        <ele>208.08299255371</ele>
        <time>2009-08-12T11:56:15Z</time>
      </trkpt>
      <trkpt lat="45.12789" lon="4.89762">
        <ele>209.52499389648</ele>
        <time>2009-08-12T11:56:31Z</time>
      </trkpt>
      <trkpt lat="45.1286" lon="4.89736">
        <ele>213.53300476074</ele>
        <time>2009-08-12T11:56:46Z</time>
      </trkpt>
      <trkpt lat="45.12919" lon="4.89697">
        <ele>213.18800354004</ele>
        <time>2009-08-12T11:56:59Z</time>
      </trkpt>
      <trkpt lat="45.12932" lon="4.89687">
        <ele>214.42799377441</ele>
        <time>2009-08-12T11:57:02Z</time>
      </trkpt>
      <trkpt lat="45.13025" lon="4.89603">
        <ele>217.30400085449</ele>
        <time>2009-08-12T11:57:24Z</time>
      </trkpt>
      <trkpt lat="45.13105" lon="4.89559">
        <ele>215.25100708008</ele>
        <time>2009-08-12T11:57:39Z</time>
      </trkpt>
      <trkpt lat="45.13118" lon="4.89555">
        <ele>214.30999755859</ele>
        <time>2009-08-12T11:57:41Z</time>
      </trkpt>
      <trkpt lat="45.13203" lon="4.89531">
        <ele>214.95799255371</ele>
        <time>2009-08-12T11:57:55Z</time>
      </trkpt>
      <trkpt lat="45.13286" lon="4.89528">
        <ele>216.88200378418</ele>
        <time>2009-08-12T11:58:11Z</time>
      </trkpt>
      <trkpt lat="45.13327" lon="4.89526">
        <ele>217.78900146484</ele>
        <time>2009-08-12T11:58:19Z</time>
      </trkpt>
      <trkpt lat="45.13355" lon="4.89497">
        <ele>218.69500732422</ele>
        <time>2009-08-12T11:58:26Z</time>
      </trkpt>
      <trkpt lat="45.13358" lon="4.8949">
        <ele>218.49000549316</ele>
        <time>2009-08-12T11:58:27Z</time>
      </trkpt>
      <trkpt lat="45.13362" lon="4.89477">
        <ele>218.67900085449</ele>
        <time>2009-08-12T11:58:29Z</time>
      </trkpt>
      <trkpt lat="45.13365" lon="4.89447">
        <ele>219.31199645996</ele>
        <time>2009-08-12T11:58:33Z</time>
      </trkpt>
      <trkpt lat="45.13361" lon="4.89416">
        <ele>220.02600097656</ele>
        <time>2009-08-12T11:58:37Z</time>
      </trkpt>
      <trkpt lat="45.13366" lon="4.89353">
        <ele>220.48699951172</ele>
        <time>2009-08-12T11:58:45Z</time>
      </trkpt>
      <trkpt lat="45.13405" lon="4.89304">
        <ele>222.00900268555</ele>
        <time>2009-08-12T11:58:55Z</time>
      </trkpt>
      <trkpt lat="45.13411" lon="4.89303">
        <ele>221.64199829102</ele>
        <time>2009-08-12T11:58:56Z</time>
      </trkpt>
      <trkpt lat="45.13488" lon="4.89294">
        <ele>223.83799743652</ele>
        <time>2009-08-12T11:59:10Z</time>
      </trkpt>
      <trkpt lat="45.13596" lon="4.89271">
        <ele>224.90199279785</ele>
        <time>2009-08-12T11:59:29Z</time>
      </trkpt>
      <trkpt lat="45.1363" lon="4.8926">
        <ele>226.19500732422</ele>
        <time>2009-08-12T11:59:35Z</time>
      </trkpt>
      <trkpt lat="45.13713" lon="4.89235">
        <ele>228.92900085449</ele>
        <time>2009-08-12T11:59:51Z</time>
      </trkpt>
      <trkpt lat="45.13811" lon="4.89209">
        <ele>232.62699890137</ele>
        <time>2009-08-12T12:00:11Z</time>
      </trkpt>
      <trkpt lat="45.13882" lon="4.89197">
        <ele>236.91600036621</ele>
        <time>2009-08-12T12:00:28Z</time>
      </trkpt>
      <trkpt lat="45.13918" lon="4.89184">
        <ele>239.19599914551</ele>
        <time>2009-08-12T12:00:38Z</time>
      </trkpt>
      <trkpt lat="45.13981" lon="4.89154">
        <ele>241.61000061035</ele>
        <time>2009-08-12T12:00:55Z</time>
      </trkpt>
      <trkpt lat="45.14081" lon="4.89104">
        <ele>243.79699707031</ele>
        <time>2009-08-12T12:01:16Z</time>
      </trkpt>
      <trkpt lat="45.14171" lon="4.89044">
        <ele>246.57899475098</ele>
        <time>2009-08-12T12:01:36Z</time>
      </trkpt>
      <trkpt lat="45.14262" lon="4.88979">
        <ele>248.30999755859</ele>
        <time>2009-08-12T12:01:56Z</time>
      </trkpt>
      <trkpt lat="45.14362" lon="4.88906">
        <ele>247.14399719238</ele>
        <time>2009-08-12T12:02:15Z</time>
      </trkpt>
      <trkpt lat="45.14462" lon="4.88839">
        <ele>244.88900756836</ele>
        <time>2009-08-12T12:02:32Z</time>
      </trkpt>
      <trkpt lat="45.14475" lon="4.88831">
        <ele>243.85499572754</ele>
        <time>2009-08-12T12:02:34Z</time>
      </trkpt>
      <trkpt lat="45.14521" lon="4.88814">
        <ele>241.15199279785</ele>
        <time>2009-08-12T12:02:40Z</time>
      </trkpt>
      <trkpt lat="45.14587" lon="4.88802">
        <ele>236.43499755859</ele>
        <time>2009-08-12T12:02:47Z</time>
      </trkpt>
      <trkpt lat="45.14629" lon="4.88798">
        <ele>232.92599487305</ele>
        <time>2009-08-12T12:02:51Z</time>
      </trkpt>
      <trkpt lat="45.14683" lon="4.88792">
        <ele>229.58999633789</ele>
        <time>2009-08-12T12:02:56Z</time>
      </trkpt>
      <trkpt lat="45.14705" lon="4.88788">
        <ele>227.78999328613</ele>
        <time>2009-08-12T12:02:58Z</time>
      </trkpt>
      <trkpt lat="45.14771" lon="4.88773">
        <ele>223.39700317383</ele>
        <time>2009-08-12T12:03:04Z</time>
      </trkpt>
      <trkpt lat="45.14846" lon="4.88755">
        <ele>221.23599243164</ele>
        <time>2009-08-12T12:03:11Z</time>
      </trkpt>
      <trkpt lat="45.14904" lon="4.88741">
        <ele>220.10499572754</ele>
        <time>2009-08-12T12:03:17Z</time>
      </trkpt>
      <trkpt lat="45.14944" lon="4.88774">
        <ele>221.99600219727</ele>
        <time>2009-08-12T12:03:23Z</time>
      </trkpt>
      <trkpt lat="45.14947" lon="4.88782">
        <ele>222.54699707031</ele>
        <time>2009-08-12T12:03:24Z</time>
      </trkpt>
      <trkpt lat="45.14952" lon="4.88805">
        <ele>223.51100158691</ele>
        <time>2009-08-12T12:03:27Z</time>
      </trkpt>
      <trkpt lat="45.14953" lon="4.88811">
        <ele>223.98300170898</ele>
        <time>2009-08-12T12:03:28Z</time>
      </trkpt>
      <trkpt lat="45.14952" lon="4.88829">
        <ele>224.49000549316</ele>
        <time>2009-08-12T12:03:30Z</time>
      </trkpt>
      <trkpt lat="45.14964" lon="4.88856">
        <ele>225.21600341797</ele>
        <time>2009-08-12T12:03:33Z</time>
      </trkpt>
      <trkpt lat="45.14977" lon="4.88873">
        <ele>225.13000488281</ele>
        <time>2009-08-12T12:03:36Z</time>
      </trkpt>
      <trkpt lat="45.15003" lon="4.88888">
        <ele>225.36700439453</ele>
        <time>2009-08-12T12:03:41Z</time>
      </trkpt>
      <trkpt lat="45.15026" lon="4.88895">
        <ele>224.20300292969</ele>
        <time>2009-08-12T12:03:45Z</time>
      </trkpt>
      <trkpt lat="45.1505" lon="4.88903">
        <ele>226.12199401856</ele>
        <time>2009-08-12T12:03:49Z</time>
      </trkpt>
      <trkpt lat="45.15055" lon="4.88904">
        <ele>226.21699523926</ele>
        <time>2009-08-12T12:03:50Z</time>
      </trkpt>
      <trkpt lat="45.15152" lon="4.88923">
        <ele>221.42700195312</ele>
        <time>2009-08-12T12:04:04Z</time>
      </trkpt>
      <trkpt lat="45.15193" lon="4.88924">
        <ele>219.78300476074</ele>
        <time>2009-08-12T12:04:09Z</time>
      </trkpt>
      <trkpt lat="45.15218" lon="4.88925">
        <ele>217.64900207519</ele>
        <time>2009-08-12T12:04:12Z</time>
      </trkpt>
      <trkpt lat="45.15318" lon="4.88925">
        <ele>217.97399902344</ele>
        <time>2009-08-12T12:04:25Z</time>
      </trkpt>
      <trkpt lat="45.1536" lon="4.88899">
        <ele>218.50900268555</ele>
        <time>2009-08-12T12:04:31Z</time>
      </trkpt>
      <trkpt lat="45.15406" lon="4.8888">
        <ele>217.30400085449</ele>
        <time>2009-08-12T12:04:37Z</time>
      </trkpt>
      <trkpt lat="45.15549" lon="4.88885">
        <ele>215.92999267578</ele>
        <time>2009-08-12T12:04:56Z</time>
      </trkpt>
      <trkpt lat="45.15709" lon="4.88892">
        <ele>209.17999267578</ele>
        <time>2009-08-12T12:05:16Z</time>
      </trkpt>
      <trkpt lat="45.15728" lon="4.88894">
        <ele>208.07000732422</ele>
        <time>2009-08-12T12:05:18Z</time>
      </trkpt>
      <trkpt lat="45.15757" lon="4.88896">
        <ele>206.36399841309</ele>
        <time>2009-08-12T12:05:21Z</time>
      </trkpt>
      <trkpt lat="45.15932" lon="4.8892">
        <ele>200.1190032959</ele>
        <time>2009-08-12T12:05:39Z</time>
      </trkpt>
      <trkpt lat="45.16094" lon="4.88924">
        <ele>198.34800720215</ele>
        <time>2009-08-12T12:05:58Z</time>
      </trkpt>
      <trkpt lat="45.16179" lon="4.88925">
        <ele>198.9640045166</ele>
        <time>2009-08-12T12:06:09Z</time>
      </trkpt>
      <trkpt lat="45.16324" lon="4.88928">
        <ele>199.83500671387</ele>
        <time>2009-08-12T12:06:29Z</time>
      </trkpt>
      <trkpt lat="45.16413" lon="4.88932">
        <ele>200.6130065918</ele>
        <time>2009-08-12T12:06:43Z</time>
      </trkpt>
      <trkpt lat="45.16465" lon="4.88945">
        <ele>201.88200378418</ele>
        <time>2009-08-12T12:06:51Z</time>
      </trkpt>
      <trkpt lat="45.16484" lon="4.88952">
        <ele>201.71000671387</ele>
        <time>2009-08-12T12:06:54Z</time>
      </trkpt>
      <trkpt lat="45.16633" lon="4.88995">
        <ele>198.34599304199</ele>
        <time>2009-08-12T12:07:16Z</time>
      </trkpt>
      <trkpt lat="45.16788" lon="4.89047">
        <ele>195.32000732422</ele>
        <time>2009-08-12T12:07:37Z</time>
      </trkpt>
      <trkpt lat="45.16839" lon="4.89058">
        <ele>196.31399536133</ele>
        <time>2009-08-12T12:07:46Z</time>
      </trkpt>
      <trkpt lat="45.16848" lon="4.89051">
        <ele>196.71800231934</ele>
        <time>2009-08-12T12:07:51Z</time>
      </trkpt>
      <trkpt lat="45.16867" lon="4.88961">
        <ele>195.57099914551</ele>
        <time>2009-08-12T12:08:02Z</time>
      </trkpt>
      <trkpt lat="45.1689" lon="4.88825">
        <ele>192.82800292969</ele>
        <time>2009-08-12T12:08:15Z</time>
      </trkpt>
      <trkpt lat="45.16919" lon="4.88662">
        <ele>185.29400634766</ele>
        <time>2009-08-12T12:08:27Z</time>
      </trkpt>
      <trkpt lat="45.16927" lon="4.88613">
        <ele>182.06300354004</ele>
        <time>2009-08-12T12:08:30Z</time>
      </trkpt>
      <trkpt lat="45.16963" lon="4.88409">
        <ele>178.27099609375</ele>
        <time>2009-08-12T12:08:43Z</time>
      </trkpt>
      <trkpt lat="45.16988" lon="4.88245">
        <ele>177.92300415039</ele>
        <time>2009-08-12T12:08:56Z</time>
      </trkpt>
      <trkpt lat="45.16974" lon="4.88055">
        <ele>176.29899597168</ele>
        <time>2009-08-12T12:09:11Z</time>
      </trkpt>
      <trkpt lat="45.16977" lon="4.87876">
        <ele>175.68299865723</ele>
        <time>2009-08-12T12:09:25Z</time>
      </trkpt>
      <trkpt lat="45.16993" lon="4.87797">
        <ele>173.71499633789</ele>
        <time>2009-08-12T12:09:32Z</time>
      </trkpt>
      <trkpt lat="45.16996" lon="4.87775">
        <ele>173.74000549316</ele>
        <time>2009-08-12T12:09:34Z</time>
      </trkpt>
      <trkpt lat="45.17005" lon="4.87744">
        <ele>173.48100280762</ele>
        <time>2009-08-12T12:09:37Z</time>
      </trkpt>
      <trkpt lat="45.17019" lon="4.87661">
        <ele>172.01400756836</ele>
        <time>2009-08-12T12:09:45Z</time>
      </trkpt>
      <trkpt lat="45.17029" lon="4.87583">
        <ele>171.84800720215</ele>
        <time>2009-08-12T12:09:53Z</time>
      </trkpt>
      <trkpt lat="45.17028" lon="4.87556">
        <ele>173.36999511719</ele>
        <time>2009-08-12T12:09:56Z</time>
      </trkpt>
      <trkpt lat="45.17017" lon="4.87432">
        <ele>172.3869934082</ele>
        <time>2009-08-12T12:10:09Z</time>
      </trkpt>
      <trkpt lat="45.17017" lon="4.87405">
        <ele>172.10299682617</ele>
        <time>2009-08-12T12:10:12Z</time>
      </trkpt>
      <trkpt lat="45.17015" lon="4.87379">
        <ele>174.44400024414</ele>
        <time>2009-08-12T12:10:15Z</time>
      </trkpt>
      <trkpt lat="45.17001" lon="4.87237">
        <ele>175.29600524902</ele>
        <time>2009-08-12T12:10:31Z</time>
      </trkpt>
      <trkpt lat="45.17" lon="4.87211">
        <ele>175.27200317383</ele>
        <time>2009-08-12T12:10:34Z</time>
      </trkpt>
      <trkpt lat="45.17009" lon="4.87171">
        <ele>175.31700134277</ele>
        <time>2009-08-12T12:10:39Z</time>
      </trkpt>
      <trkpt lat="45.17062" lon="4.87043">
        <ele>173.44299316406</ele>
        <time>2009-08-12T12:10:53Z</time>
      </trkpt>
      <trkpt lat="45.17131" lon="4.86882">
        <ele>174.64900207519</ele>
        <time>2009-08-12T12:11:11Z</time>
      </trkpt>
      <trkpt lat="45.17203" lon="4.86713">
        <ele>175.30400085449</ele>
        <time>2009-08-12T12:11:32Z</time>
      </trkpt>
      <trkpt lat="45.1728" lon="4.86531">
        <ele>173.10499572754</ele>
        <time>2009-08-12T12:11:52Z</time>
      </trkpt>
      <trkpt lat="45.1734" lon="4.86392">
        <ele>172.82299804688</ele>
        <time>2009-08-12T12:12:07Z</time>
      </trkpt>
      <trkpt lat="45.17402" lon="4.8624">
        <ele>171.82899475098</ele>
        <time>2009-08-12T12:12:24Z</time>
      </trkpt>
      <trkpt lat="45.17487" lon="4.86086">
        <ele>169.75300598144</ele>
        <time>2009-08-12T12:12:43Z</time>
      </trkpt>
      <trkpt lat="45.17578" lon="4.85886">
        <ele>166.30799865723</ele>
        <time>2009-08-12T12:13:04Z</time>
      </trkpt>
      <trkpt lat="45.17599" lon="4.85794">
        <ele>167.86999511719</ele>
        <time>2009-08-12T12:13:14Z</time>
      </trkpt>
      <trkpt lat="45.17609" lon="4.85772">
        <ele>168.33599853516</ele>
        <time>2009-08-12T12:13:17Z</time>
      </trkpt>
      <trkpt lat="45.17626" lon="4.85752">
        <ele>168.15299987793</ele>
        <time>2009-08-12T12:13:21Z</time>
      </trkpt>
      <trkpt lat="45.17656" lon="4.85734">
        <ele>170.00399780273</ele>
        <time>2009-08-12T12:13:27Z</time>
      </trkpt>
      <trkpt lat="45.17696" lon="4.85711">
        <ele>172.38800048828</ele>
        <time>2009-08-12T12:13:35Z</time>
      </trkpt>
      <trkpt lat="45.17725" lon="4.8569">
        <ele>172.63000488281</ele>
        <time>2009-08-12T12:13:41Z</time>
      </trkpt>
      <trkpt lat="45.17822" lon="4.85595">
        <ele>174.53799438477</ele>
        <time>2009-08-12T12:14:02Z</time>
      </trkpt>
      <trkpt lat="45.17872" lon="4.85502">
        <ele>177.49000549316</ele>
        <time>2009-08-12T12:14:19Z</time>
      </trkpt>
      <trkpt lat="45.17881" lon="4.85472">
        <ele>178.66400146484</ele>
        <time>2009-08-12T12:14:24Z</time>
      </trkpt>
      <trkpt lat="45.17883" lon="4.85452">
        <ele>179.625</ele>
        <time>2009-08-12T12:14:27Z</time>
      </trkpt>
      <trkpt lat="45.17867" lon="4.85358">
        <ele>178.9880065918</ele>
        <time>2009-08-12T12:14:39Z</time>
      </trkpt>
      <trkpt lat="45.17862" lon="4.85316">
        <ele>178.29600524902</ele>
        <time>2009-08-12T12:14:43Z</time>
      </trkpt>
      <trkpt lat="45.17871" lon="4.85229">
        <ele>175.88900756836</ele>
        <time>2009-08-12T12:14:50Z</time>
      </trkpt>
      <trkpt lat="45.17886" lon="4.85195">
        <ele>174.52400207519</ele>
        <time>2009-08-12T12:14:53Z</time>
      </trkpt>
      <trkpt lat="45.17892" lon="4.85185">
        <ele>174.28199768066</ele>
        <time>2009-08-12T12:14:54Z</time>
      </trkpt>
      <trkpt lat="45.1796" lon="4.85092">
        <ele>169.90299987793</ele>
        <time>2009-08-12T12:15:04Z</time>
      </trkpt>
      <trkpt lat="45.17966" lon="4.85082">
        <ele>169.69900512695</ele>
        <time>2009-08-12T12:15:05Z</time>
      </trkpt>
      <trkpt lat="45.1798" lon="4.85029">
        <ele>167.32600402832</ele>
        <time>2009-08-12T12:15:09Z</time>
      </trkpt>
      <trkpt lat="45.17981" lon="4.85014">
        <ele>167.14799499512</ele>
        <time>2009-08-12T12:15:10Z</time>
      </trkpt>
      <trkpt lat="45.17984" lon="4.84944">
        <ele>167.79100036621</ele>
        <time>2009-08-12T12:15:17Z</time>
      </trkpt>
      <trkpt lat="45.17986" lon="4.84935">
        <ele>167.97500610352</ele>
        <time>2009-08-12T12:15:22Z</time>
      </trkpt>
      <trkpt lat="45.17986" lon="4.8493">
        <ele>167.60099792481</ele>
        <time>2009-08-12T12:15:26Z</time>
      </trkpt>
      <trkpt lat="45.17988" lon="4.84925">
        <ele>167.75300598144</ele>
        <time>2009-08-12T12:15:35Z</time>
      </trkpt>
      <trkpt lat="45.17989" lon="4.84861">
        <ele>166.35200500488</ele>
        <time>2009-08-12T12:15:44Z</time>
      </trkpt>
      <trkpt lat="45.17987" lon="4.84764">
        <ele>165.36199951172</ele>
        <time>2009-08-12T12:15:53Z</time>
      </trkpt>
      <trkpt lat="45.17985" lon="4.8474">
        <ele>164.67599487305</ele>
        <time>2009-08-12T12:15:55Z</time>
      </trkpt>
      <trkpt lat="45.1793" lon="4.8458">
        <ele>162.10600280762</ele>
        <time>2009-08-12T12:16:09Z</time>
      </trkpt>
      <trkpt lat="45.17878" lon="4.84437">
        <ele>163.67999267578</ele>
        <time>2009-08-12T12:16:24Z</time>
      </trkpt>
      <trkpt lat="45.17859" lon="4.8431">
        <ele>163.89799499512</ele>
        <time>2009-08-12T12:16:37Z</time>
      </trkpt>
      <trkpt lat="45.17873" lon="4.84259">
        <ele>163.73300170898</ele>
        <time>2009-08-12T12:16:43Z</time>
      </trkpt>
      <trkpt lat="45.17901" lon="4.84197">
        <ele>161.79100036621</ele>
        <time>2009-08-12T12:16:50Z</time>
      </trkpt>
      <trkpt lat="45.17917" lon="4.8408">
        <ele>157.64300537109</ele>
        <time>2009-08-12T12:16:59Z</time>
      </trkpt>
      <trkpt lat="45.17909" lon="4.84049">
        <ele>155.88000488281</ele>
        <time>2009-08-12T12:17:02Z</time>
      </trkpt>
      <trkpt lat="45.17899" lon="4.84013">
        <ele>153.44700622559</ele>
        <time>2009-08-12T12:17:05Z</time>
      </trkpt>
      <trkpt lat="45.17897" lon="4.83961">
        <ele>151.13900756836</ele>
        <time>2009-08-12T12:17:09Z</time>
      </trkpt>
      <trkpt lat="45.17901" lon="4.83936">
        <ele>150.93099975586</ele>
        <time>2009-08-12T12:17:11Z</time>
      </trkpt>
      <trkpt lat="45.17952" lon="4.83731">
        <ele>148.02000427246</ele>
        <time>2009-08-12T12:17:27Z</time>
      </trkpt>
      <trkpt lat="45.18011" lon="4.83596">
        <ele>147.66000366211</ele>
        <time>2009-08-12T12:17:38Z</time>
      </trkpt>
      <trkpt lat="45.18087" lon="4.83514">
        <ele>147.02000427246</ele>
        <time>2009-08-12T12:17:48Z</time>
      </trkpt>
      <trkpt lat="45.18099" lon="4.83442">
        <ele>148.53799438477</ele>
        <time>2009-08-12T12:17:55Z</time>
      </trkpt>
      <trkpt lat="45.18082" lon="4.8341">
        <ele>149.45500183106</ele>
        <time>2009-08-12T12:17:59Z</time>
      </trkpt>
      <trkpt lat="45.18036" lon="4.83357">
        <ele>152.01499938965</ele>
        <time>2009-08-12T12:18:09Z</time>
      </trkpt>
      <trkpt lat="45.18006" lon="4.83311">
        <ele>153.5359954834</ele>
        <time>2009-08-12T12:18:16Z</time>
      </trkpt>
      <trkpt lat="45.17951" lon="4.83296">
        <ele>150.70700073242</ele>
        <time>2009-08-12T12:18:24Z</time>
      </trkpt>
      <trkpt lat="45.17936" lon="4.83303">
        <ele>149.94999694824</ele>
        <time>2009-08-12T12:18:26Z</time>
      </trkpt>
      <trkpt lat="45.17908" lon="4.83319">
        <ele>148.29200744629</ele>
        <time>2009-08-12T12:18:30Z</time>
      </trkpt>
      <trkpt lat="45.17821" lon="4.83331">
        <ele>146.41999816894</ele>
        <time>2009-08-12T12:18:41Z</time>
      </trkpt>
      <trkpt lat="45.17813" lon="4.8333">
        <ele>146.53100585938</ele>
        <time>2009-08-12T12:18:42Z</time>
      </trkpt>
      <trkpt lat="45.1778" lon="4.83304">
        <ele>146.51600646973</ele>
        <time>2009-08-12T12:18:47Z</time>
      </trkpt>
      <trkpt lat="45.17765" lon="4.83276">
        <ele>146.58599853516</ele>
        <time>2009-08-12T12:18:51Z</time>
      </trkpt>
      <trkpt lat="45.17754" lon="4.83246">
        <ele>146.72099304199</ele>
        <time>2009-08-12T12:18:56Z</time>
      </trkpt>
      <trkpt lat="45.17747" lon="4.83225">
        <ele>146.65199279785</ele>
        <time>2009-08-12T12:19:00Z</time>
      </trkpt>
      <trkpt lat="45.17744" lon="4.83213">
        <ele>146.43699645996</ele>
        <time>2009-08-12T12:19:05Z</time>
      </trkpt>
      <trkpt lat="45.17741" lon="4.83206">
        <ele>146.39900207519</ele>
        <time>2009-08-12T12:19:09Z</time>
      </trkpt>
      <trkpt lat="45.1774" lon="4.832">
        <ele>145.93099975586</ele>
        <time>2009-08-12T12:19:15Z</time>
      </trkpt>
      <trkpt lat="45.1774" lon="4.832">
        <ele>145.70100402832</ele>
        <time>2009-08-12T12:20:32Z</time>
      </trkpt>
      <trkpt lat="45.17739" lon="4.83198">
        <ele>145.74099731445</ele>
        <time>2009-08-12T12:20:33Z</time>
      </trkpt>
      <trkpt lat="45.17732" lon="4.8318">
        <ele>145.88999938965</ele>
        <time>2009-08-12T12:20:38Z</time>
      </trkpt>
      <trkpt lat="45.17727" lon="4.83164">
        <ele>145.28100585938</ele>
        <time>2009-08-12T12:20:41Z</time>
      </trkpt>
      <trkpt lat="45.17723" lon="4.83152">
        <ele>145.26899719238</ele>
        <time>2009-08-12T12:20:43Z</time>
      </trkpt>
      <trkpt lat="45.17706" lon="4.83042">
        <ele>145.84199523926</ele>
        <time>2009-08-12T12:20:57Z</time>
      </trkpt>
      <trkpt lat="45.17699" lon="4.83006">
        <ele>145.60200500488</ele>
        <time>2009-08-12T12:21:01Z</time>
      </trkpt>
      <trkpt lat="45.17649" lon="4.82959">
        <ele>145.6130065918</ele>
        <time>2009-08-12T12:21:10Z</time>
      </trkpt>
      <trkpt lat="45.17621" lon="4.82965">
        <ele>145.55700683594</ele>
        <time>2009-08-12T12:21:14Z</time>
      </trkpt>
      <trkpt lat="45.17519" lon="4.83003">
        <ele>146.84599304199</ele>
        <time>2009-08-12T12:21:29Z</time>
      </trkpt>
      <trkpt lat="45.17496" lon="4.83012">
        <ele>147.17199707031</ele>
        <time>2009-08-12T12:21:33Z</time>
      </trkpt>
      <trkpt lat="45.17425" lon="4.82987">
        <ele>147.73599243164</ele>
        <time>2009-08-12T12:21:45Z</time>
      </trkpt>
      <trkpt lat="45.17379" lon="4.82933">
        <ele>146.33500671387</ele>
        <time>2009-08-12T12:21:54Z</time>
      </trkpt>
      <trkpt lat="45.17367" lon="4.82849">
        <ele>144.1190032959</ele>
        <time>2009-08-12T12:22:02Z</time>
      </trkpt>
      <trkpt lat="45.17418" lon="4.82677">
        <ele>141.21099853516</ele>
        <time>2009-08-12T12:22:16Z</time>
      </trkpt>
      <trkpt lat="45.17411" lon="4.82576">
        <ele>138.62399291992</ele>
        <time>2009-08-12T12:22:23Z</time>
      </trkpt>
      <trkpt lat="45.17399" lon="4.82552">
        <ele>138.69500732422</ele>
        <time>2009-08-12T12:22:25Z</time>
      </trkpt>
      <trkpt lat="45.17321" lon="4.82411">
        <ele>138.61999511719</ele>
        <time>2009-08-12T12:22:38Z</time>
      </trkpt>
      <trkpt lat="45.17316" lon="4.82401">
        <ele>138.81799316406</ele>
        <time>2009-08-12T12:22:39Z</time>
      </trkpt>
      <trkpt lat="45.17306" lon="4.82345">
        <ele>139.41799926758</ele>
        <time>2009-08-12T12:22:44Z</time>
      </trkpt>
      <trkpt lat="45.17318" lon="4.82287">
        <ele>140.85899353027</ele>
        <time>2009-08-12T12:22:50Z</time>
      </trkpt>
      <trkpt lat="45.17413" lon="4.82204">
        <ele>137.89799499512</ele>
        <time>2009-08-12T12:23:05Z</time>
      </trkpt>
      <trkpt lat="45.17484" lon="4.82161">
        <ele>136.17300415039</ele>
        <time>2009-08-12T12:23:14Z</time>
      </trkpt>
      <trkpt lat="45.17506" lon="4.82142">
        <ele>136.79299926758</ele>
        <time>2009-08-12T12:23:17Z</time>
      </trkpt>
      <trkpt lat="45.17521" lon="4.82129">
        <ele>136.53700256348</ele>
        <time>2009-08-12T12:23:19Z</time>
      </trkpt>
      <trkpt lat="45.17542" lon="4.82105">
        <ele>135.27099609375</ele>
        <time>2009-08-12T12:23:22Z</time>
      </trkpt>
      <trkpt lat="45.17606" lon="4.82001">
        <ele>134.0119934082</ele>
        <time>2009-08-12T12:23:33Z</time>
      </trkpt>
      <trkpt lat="45.17627" lon="4.8196">
        <ele>135.00300598144</ele>
        <time>2009-08-12T12:23:37Z</time>
      </trkpt>
      <trkpt lat="45.17661" lon="4.81902">
        <ele>133.00399780273</ele>
        <time>2009-08-12T12:23:43Z</time>
      </trkpt>
      <trkpt lat="45.17691" lon="4.81817">
        <ele>132.86999511719</ele>
        <time>2009-08-12T12:23:50Z</time>
      </trkpt>
      <trkpt lat="45.1771" lon="4.81758">
        <ele>132.68299865723</ele>
        <time>2009-08-12T12:23:55Z</time>
      </trkpt>
      <trkpt lat="45.17716" lon="4.81638">
        <ele>131.09800720215</ele>
        <time>2009-08-12T12:24:05Z</time>
      </trkpt>
      <trkpt lat="45.17712" lon="4.81571">
        <ele>132.30099487305</ele>
        <time>2009-08-12T12:24:11Z</time>
      </trkpt>
      <trkpt lat="45.17733" lon="4.81484">
        <ele>132.7799987793</ele>
        <time>2009-08-12T12:24:20Z</time>
      </trkpt>
      <trkpt lat="45.17746" lon="4.81438">
        <ele>133.62600708008</ele>
        <time>2009-08-12T12:24:25Z</time>
      </trkpt>
      <trkpt lat="45.17761" lon="4.81418">
        <ele>133.75700378418</ele>
        <time>2009-08-12T12:24:28Z</time>
      </trkpt>
      <trkpt lat="45.17774" lon="4.81377">
        <ele>133.18400573731</ele>
        <time>2009-08-12T12:24:33Z</time>
      </trkpt>
      <trkpt lat="45.17787" lon="4.81327">
        <ele>132.13400268555</ele>
        <time>2009-08-12T12:24:40Z</time>
      </trkpt>
      <trkpt lat="45.17815" lon="4.81321">
        <ele>132.45599365234</ele>
        <time>2009-08-12T12:24:44Z</time>
      </trkpt>
      <trkpt lat="45.17886" lon="4.81341">
        <ele>132.33500671387</ele>
        <time>2009-08-12T12:24:54Z</time>
      </trkpt>
      <trkpt lat="45.18031" lon="4.81392">
        <ele>131.83799743652</ele>
        <time>2009-08-12T12:25:15Z</time>
      </trkpt>
      <trkpt lat="45.18157" lon="4.81402">
        <ele>131.85600280762</ele>
        <time>2009-08-12T12:25:33Z</time>
      </trkpt>
      <trkpt lat="45.18311" lon="4.81387">
        <ele>133.47999572754</ele>
        <time>2009-08-12T12:25:56Z</time>
      </trkpt>
      <trkpt lat="45.1837" lon="4.81381">
        <ele>136.45399475098</ele>
        <time>2009-08-12T12:26:08Z</time>
      </trkpt>
      <trkpt lat="45.18398" lon="4.8138">
        <ele>138.41900634766</ele>
        <time>2009-08-12T12:26:14Z</time>
      </trkpt>
      <trkpt lat="45.18411" lon="4.8138">
        <ele>139.55599975586</ele>
        <time>2009-08-12T12:26:17Z</time>
      </trkpt>
      <trkpt lat="45.1843" lon="4.81389">
        <ele>139.47599792481</ele>
        <time>2009-08-12T12:26:21Z</time>
      </trkpt>
      <trkpt lat="45.18442" lon="4.8136">
        <ele>139.92700195312</ele>
        <time>2009-08-12T12:26:27Z</time>
      </trkpt>
      <trkpt lat="45.18417" lon="4.81243">
        <ele>143.83500671387</ele>
        <time>2009-08-12T12:26:42Z</time>
      </trkpt>
      <trkpt lat="45.18385" lon="4.81071">
        <ele>144.27699279785</ele>
        <time>2009-08-12T12:27:02Z</time>
      </trkpt>
      <trkpt lat="45.18372" lon="4.81002">
        <ele>138.97999572754</ele>
        <time>2009-08-12T12:27:09Z</time>
      </trkpt>
      <trkpt lat="45.18369" lon="4.80886">
        <ele>134.63800048828</ele>
        <time>2009-08-12T12:27:19Z</time>
      </trkpt>
      <trkpt lat="45.18374" lon="4.8085">
        <ele>133.19599914551</ele>
        <time>2009-08-12T12:27:22Z</time>
      </trkpt>
      <trkpt lat="45.18387" lon="4.80806">
        <ele>133.12699890137</ele>
        <time>2009-08-12T12:27:26Z</time>
      </trkpt>
      <trkpt lat="45.18427" lon="4.80795">
        <ele>130.91299438477</ele>
        <time>2009-08-12T12:27:32Z</time>
      </trkpt>
      <trkpt lat="45.1845" lon="4.80811">
        <ele>129.43299865723</ele>
        <time>2009-08-12T12:27:35Z</time>
      </trkpt>
      <trkpt lat="45.18457" lon="4.80815">
        <ele>128.91400146484</ele>
        <time>2009-08-12T12:27:36Z</time>
      </trkpt>
      <trkpt lat="45.1853" lon="4.80812">
        <ele>130.22599792481</ele>
        <time>2009-08-12T12:27:45Z</time>
      </trkpt>
      <trkpt lat="45.18598" lon="4.80798">
        <ele>129.86999511719</ele>
        <time>2009-08-12T12:27:54Z</time>
      </trkpt>
      <trkpt lat="45.18626" lon="4.80781">
        <ele>130.03799438477</ele>
        <time>2009-08-12T12:27:58Z</time>
      </trkpt>
      <trkpt lat="45.18657" lon="4.80757">
        <ele>130.8869934082</ele>
        <time>2009-08-12T12:28:03Z</time>
      </trkpt>
      <trkpt lat="45.18668" lon="4.80745">
        <ele>130.38800048828</ele>
        <time>2009-08-12T12:28:05Z</time>
      </trkpt>
      <trkpt lat="45.18679" lon="4.80712">
        <ele>130.4640045166</ele>
        <time>2009-08-12T12:28:09Z</time>
      </trkpt>
      <trkpt lat="45.18676" lon="4.80635">
        <ele>130.30299377441</ele>
        <time>2009-08-12T12:28:17Z</time>
      </trkpt>
      <trkpt lat="45.18675" lon="4.80597">
        <ele>130.53300476074</ele>
        <time>2009-08-12T12:28:21Z</time>
      </trkpt>
      <trkpt lat="45.18675" lon="4.80587">
        <ele>130.22799682617</ele>
        <time>2009-08-12T12:28:22Z</time>
      </trkpt>
      <trkpt lat="45.18674" lon="4.80529">
        <ele>130.59100341797</ele>
        <time>2009-08-12T12:28:28Z</time>
      </trkpt>
      <trkpt lat="45.18672" lon="4.80408">
        <ele>130.90100097656</ele>
        <time>2009-08-12T12:28:41Z</time>
      </trkpt>
      <trkpt lat="45.1867" lon="4.80287">
        <ele>132.14999389648</ele>
        <time>2009-08-12T12:28:54Z</time>
      </trkpt>
      <trkpt lat="45.18666" lon="4.80151">
        <ele>133.64100646973</ele>
        <time>2009-08-12T12:29:09Z</time>
      </trkpt>
      <trkpt lat="45.18669" lon="4.80107">
        <ele>135.26600646973</ele>
        <time>2009-08-12T12:29:17Z</time>
      </trkpt>
      <trkpt lat="45.18669" lon="4.80081">
        <ele>134.89999389648</ele>
        <time>2009-08-12T12:29:21Z</time>
      </trkpt>
      <trkpt lat="45.18667" lon="4.79955">
        <ele>136.43299865723</ele>
        <time>2009-08-12T12:29:39Z</time>
      </trkpt>
      <trkpt lat="45.18666" lon="4.79935">
        <ele>136.57400512695</ele>
        <time>2009-08-12T12:29:48Z</time>
      </trkpt>
      <trkpt lat="45.18663" lon="4.79894">
        <ele>137.14599609375</ele>
        <time>2009-08-12T12:29:55Z</time>
      </trkpt>
      <trkpt lat="45.18661" lon="4.79818">
        <ele>138.56399536133</ele>
        <time>2009-08-12T12:30:05Z</time>
      </trkpt>
      <trkpt lat="45.1866" lon="4.79803">
        <ele>138.73699951172</ele>
        <time>2009-08-12T12:30:07Z</time>
      </trkpt>
      <trkpt lat="45.1866" lon="4.7978">
        <ele>139.47700500488</ele>
        <time>2009-08-12T12:30:10Z</time>
      </trkpt>
      <trkpt lat="45.18669" lon="4.79683">
        <ele>141.70199584961</ele>
        <time>2009-08-12T12:30:23Z</time>
      </trkpt>
      <trkpt lat="45.18674" lon="4.79632">
        <ele>143.03300476074</ele>
        <time>2009-08-12T12:30:30Z</time>
      </trkpt>
      <trkpt lat="45.18696" lon="4.79609">
        <ele>142.11000061035</ele>
        <time>2009-08-12T12:30:36Z</time>
      </trkpt>
      <trkpt lat="45.1881" lon="4.79614">
        <ele>141.0119934082</ele>
        <time>2009-08-12T12:30:54Z</time>
      </trkpt>
      <trkpt lat="45.18911" lon="4.79613">
        <ele>139.99499511719</ele>
        <time>2009-08-12T12:31:08Z</time>
      </trkpt>
      <trkpt lat="45.18998" lon="4.79608">
        <ele>140.00300598144</ele>
        <time>2009-08-12T12:31:21Z</time>
      </trkpt>
      <trkpt lat="45.19005" lon="4.79606">
        <ele>139.4049987793</ele>
        <time>2009-08-12T12:31:22Z</time>
      </trkpt>
      <trkpt lat="45.19027" lon="4.79589">
        <ele>140.12199401856</ele>
        <time>2009-08-12T12:31:26Z</time>
      </trkpt>
      <trkpt lat="45.19062" lon="4.79541">
        <ele>139.88200378418</ele>
        <time>2009-08-12T12:31:36Z</time>
      </trkpt>
      <trkpt lat="45.19069" lon="4.79527">
        <ele>141.69700622559</ele>
        <time>2009-08-12T12:31:39Z</time>
      </trkpt>
      <trkpt lat="45.19082" lon="4.79426">
        <ele>143.28300476074</ele>
        <time>2009-08-12T12:31:54Z</time>
      </trkpt>
      <trkpt lat="45.19101" lon="4.7934">
        <ele>145.25100708008</ele>
        <time>2009-08-12T12:32:08Z</time>
      </trkpt>
      <trkpt lat="45.19125" lon="4.79242">
        <ele>149.44500732422</ele>
        <time>2009-08-12T12:32:23Z</time>
      </trkpt>
      <trkpt lat="45.19129" lon="4.79199">
        <ele>151.50799560547</ele>
        <time>2009-08-12T12:32:29Z</time>
      </trkpt>
      <trkpt lat="45.19127" lon="4.79164">
        <ele>152.75300598144</ele>
        <time>2009-08-12T12:32:34Z</time>
      </trkpt>
      <trkpt lat="45.1913" lon="4.79136">
        <ele>153.06700134277</ele>
        <time>2009-08-12T12:32:38Z</time>
      </trkpt>
      <trkpt lat="45.19144" lon="4.79115">
        <ele>153.63200378418</ele>
        <time>2009-08-12T12:32:42Z</time>
      </trkpt>
      <trkpt lat="45.19158" lon="4.79095">
        <ele>153.97900390625</ele>
        <time>2009-08-12T12:32:46Z</time>
      </trkpt>
      <trkpt lat="45.19184" lon="4.78994">
        <ele>155.55900573731</ele>
        <time>2009-08-12T12:33:01Z</time>
      </trkpt>
      <trkpt lat="45.19214" lon="4.78897">
        <ele>157.95700073242</ele>
        <time>2009-08-12T12:33:17Z</time>
      </trkpt>
      <trkpt lat="45.192" lon="4.78791">
        <ele>160.21000671387</ele>
        <time>2009-08-12T12:33:33Z</time>
      </trkpt>
      <trkpt lat="45.19186" lon="4.78766">
        <ele>161.50399780273</ele>
        <time>2009-08-12T12:33:38Z</time>
      </trkpt>
      <trkpt lat="45.19156" lon="4.78728">
        <ele>162.10200500488</ele>
        <time>2009-08-12T12:33:47Z</time>
      </trkpt>
      <trkpt lat="45.19128" lon="4.78628">
        <ele>163.50300598144</ele>
        <time>2009-08-12T12:34:05Z</time>
      </trkpt>
      <trkpt lat="45.19127" lon="4.78512">
        <ele>167.37899780273</ele>
        <time>2009-08-12T12:34:23Z</time>
      </trkpt>
      <trkpt lat="45.19107" lon="4.7841">
        <ele>171.04699707031</ele>
        <time>2009-08-12T12:34:40Z</time>
      </trkpt>
      <trkpt lat="45.19106" lon="4.78385">
        <ele>172.2559967041</ele>
        <time>2009-08-12T12:34:44Z</time>
      </trkpt>
      <trkpt lat="45.19107" lon="4.78366">
        <ele>172.87800598144</ele>
        <time>2009-08-12T12:34:47Z</time>
      </trkpt>
      <trkpt lat="45.19119" lon="4.78346">
        <ele>173.34399414062</ele>
        <time>2009-08-12T12:34:51Z</time>
      </trkpt>
      <trkpt lat="45.19191" lon="4.78272">
        <ele>176.83599853516</ele>
        <time>2009-08-12T12:35:09Z</time>
      </trkpt>
      <trkpt lat="45.19246" lon="4.78228">
        <ele>180.79499816894</ele>
        <time>2009-08-12T12:35:21Z</time>
      </trkpt>
      <trkpt lat="45.19258" lon="4.78207">
        <ele>182.14199829102</ele>
        <time>2009-08-12T12:35:25Z</time>
      </trkpt>
      <trkpt lat="45.19279" lon="4.78121">
        <ele>186.03399658203</ele>
        <time>2009-08-12T12:35:39Z</time>
      </trkpt>
      <trkpt lat="45.1927" lon="4.78027">
        <ele>190.29200744629</ele>
        <time>2009-08-12T12:35:56Z</time>
      </trkpt>
      <trkpt lat="45.19267" lon="4.77954">
        <ele>193.72999572754</ele>
        <time>2009-08-12T12:36:11Z</time>
      </trkpt>
      <trkpt lat="45.19274" lon="4.77852">
        <ele>196.97200012207</ele>
        <time>2009-08-12T12:36:32Z</time>
      </trkpt>
      <trkpt lat="45.19256" lon="4.77775">
        <ele>200.59899902344</ele>
        <time>2009-08-12T12:36:49Z</time>
      </trkpt>
      <trkpt lat="45.19199" lon="4.77718">
        <ele>203.33599853516</ele>
        <time>2009-08-12T12:37:07Z</time>
      </trkpt>
      <trkpt lat="45.19154" lon="4.77644">
        <ele>206.73100280762</ele>
        <time>2009-08-12T12:37:24Z</time>
      </trkpt>
      <trkpt lat="45.19115" lon="4.77582">
        <ele>209.16200256348</ele>
        <time>2009-08-12T12:37:36Z</time>
      </trkpt>
      <trkpt lat="45.19104" lon="4.77543">
        <ele>210.45599365234</ele>
        <time>2009-08-12T12:37:42Z</time>
      </trkpt>
      <trkpt lat="45.19093" lon="4.7748">
        <ele>211.61000061035</ele>
        <time>2009-08-12T12:37:51Z</time>
      </trkpt>
      <trkpt lat="45.19099" lon="4.77399">
        <ele>213.88999938965</ele>
        <time>2009-08-12T12:38:02Z</time>
      </trkpt>
      <trkpt lat="45.19096" lon="4.77392">
        <ele>214.34100341797</ele>
        <time>2009-08-12T12:38:03Z</time>
      </trkpt>
      <trkpt lat="45.19075" lon="4.77335">
        <ele>215.08200073242</ele>
        <time>2009-08-12T12:38:11Z</time>
      </trkpt>
      <trkpt lat="45.19027" lon="4.77242">
        <ele>216.28900146484</ele>
        <time>2009-08-12T12:38:25Z</time>
      </trkpt>
      <trkpt lat="45.19024" lon="4.77187">
        <ele>217.17399597168</ele>
        <time>2009-08-12T12:38:32Z</time>
      </trkpt>
      <trkpt lat="45.19037" lon="4.77137">
        <ele>217.21600341797</ele>
        <time>2009-08-12T12:38:39Z</time>
      </trkpt>
      <trkpt lat="45.19074" lon="4.77093">
        <ele>218.98500061035</ele>
        <time>2009-08-12T12:38:48Z</time>
      </trkpt>
      <trkpt lat="45.19097" lon="4.77056">
        <ele>220.11799621582</ele>
        <time>2009-08-12T12:38:54Z</time>
      </trkpt>
      <trkpt lat="45.19125" lon="4.77034">
        <ele>221.46200561523</ele>
        <time>2009-08-12T12:39:00Z</time>
      </trkpt>
      <trkpt lat="45.19142" lon="4.77034">
        <ele>221.72099304199</ele>
        <time>2009-08-12T12:39:03Z</time>
      </trkpt>
      <trkpt lat="45.19164" lon="4.77015">
        <ele>222.72599792481</ele>
        <time>2009-08-12T12:39:08Z</time>
      </trkpt>
      <trkpt lat="45.19186" lon="4.76966">
        <ele>224.91000366211</ele>
        <time>2009-08-12T12:39:16Z</time>
      </trkpt>
      <trkpt lat="45.19227" lon="4.76885">
        <ele>228.02499389648</ele>
        <time>2009-08-12T12:39:29Z</time>
      </trkpt>
      <trkpt lat="45.19231" lon="4.76851">
        <ele>229.25</ele>
        <time>2009-08-12T12:39:34Z</time>
      </trkpt>
      <trkpt lat="45.19228" lon="4.76796">
        <ele>230.63800048828</ele>
        <time>2009-08-12T12:39:42Z</time>
      </trkpt>
      <trkpt lat="45.19208" lon="4.76755">
        <ele>232.4109954834</ele>
        <time>2009-08-12T12:39:49Z</time>
      </trkpt>
      <trkpt lat="45.19186" lon="4.76736">
        <ele>233.7799987793</ele>
        <time>2009-08-12T12:39:55Z</time>
      </trkpt>
      <trkpt lat="45.1915" lon="4.76715">
        <ele>236.02200317383</ele>
        <time>2009-08-12T12:40:04Z</time>
      </trkpt>
      <trkpt lat="45.19119" lon="4.76713">
        <ele>237.48599243164</ele>
        <time>2009-08-12T12:40:10Z</time>
      </trkpt>
      <trkpt lat="45.19109" lon="4.76715">
        <ele>237.71699523926</ele>
        <time>2009-08-12T12:40:12Z</time>
      </trkpt>
      <trkpt lat="45.19013" lon="4.76701">
        <ele>242.10000610352</ele>
        <time>2009-08-12T12:40:32Z</time>
      </trkpt>
      <trkpt lat="45.19008" lon="4.767">
        <ele>242.08200073242</ele>
        <time>2009-08-12T12:40:33Z</time>
      </trkpt>
      <trkpt lat="45.18985" lon="4.76674">
        <ele>245.00700378418</ele>
        <time>2009-08-12T12:40:40Z</time>
      </trkpt>
      <trkpt lat="45.18983" lon="4.76669">
        <ele>244.88200378418</ele>
        <time>2009-08-12T12:40:41Z</time>
      </trkpt>
      <trkpt lat="45.18991" lon="4.76616">
        <ele>247.37800598144</ele>
        <time>2009-08-12T12:40:51Z</time>
      </trkpt>
      <trkpt lat="45.19008" lon="4.76589">
        <ele>247.46800231934</ele>
        <time>2009-08-12T12:40:57Z</time>
      </trkpt>
      <trkpt lat="45.19016" lon="4.76568">
        <ele>248.46600341797</ele>
        <time>2009-08-12T12:41:01Z</time>
      </trkpt>
      <trkpt lat="45.19039" lon="4.7647">
        <ele>251.77299499512</ele>
        <time>2009-08-12T12:41:19Z</time>
      </trkpt>
      <trkpt lat="45.19043" lon="4.7646">
        <ele>252.16200256348</ele>
        <time>2009-08-12T12:41:21Z</time>
      </trkpt>
      <trkpt lat="45.19046" lon="4.76424">
        <ele>252.69900512695</ele>
        <time>2009-08-12T12:41:27Z</time>
      </trkpt>
      <trkpt lat="45.19041" lon="4.76386">
        <ele>253.97799682617</ele>
        <time>2009-08-12T12:41:33Z</time>
      </trkpt>
      <trkpt lat="45.19043" lon="4.76343">
        <ele>255.25500488281</ele>
        <time>2009-08-12T12:41:40Z</time>
      </trkpt>
      <trkpt lat="45.19039" lon="4.76325">
        <ele>255.65400695801</ele>
        <time>2009-08-12T12:41:43Z</time>
      </trkpt>
      <trkpt lat="45.19009" lon="4.76266">
        <ele>258.10699462891</ele>
        <time>2009-08-12T12:41:55Z</time>
      </trkpt>
      <trkpt lat="45.19003" lon="4.76244">
        <ele>259.13598632812</ele>
        <time>2009-08-12T12:41:59Z</time>
      </trkpt>
      <trkpt lat="45.18997" lon="4.76148">
        <ele>262.21301269531</ele>
        <time>2009-08-12T12:42:15Z</time>
      </trkpt>
      <trkpt lat="45.19013" lon="4.76062">
        <ele>264.26501464844</ele>
        <time>2009-08-12T12:42:29Z</time>
      </trkpt>
      <trkpt lat="45.19011" lon="4.76037">
        <ele>264.77700805664</ele>
        <time>2009-08-12T12:42:33Z</time>
      </trkpt>
      <trkpt lat="45.18983" lon="4.7597">
        <ele>266.70599365234</ele>
        <time>2009-08-12T12:42:45Z</time>
      </trkpt>
      <trkpt lat="45.18974" lon="4.75956">
        <ele>267.32800292969</ele>
        <time>2009-08-12T12:42:48Z</time>
      </trkpt>
      <trkpt lat="45.18983" lon="4.75926">
        <ele>268.86499023438</ele>
        <time>2009-08-12T12:42:55Z</time>
      </trkpt>
      <trkpt lat="45.19046" lon="4.75912">
        <ele>272.48400878906</ele>
        <time>2009-08-12T12:43:11Z</time>
      </trkpt>
      <trkpt lat="45.19097" lon="4.75857">
        <ele>275.39999389648</ele>
        <time>2009-08-12T12:43:26Z</time>
      </trkpt>
      <trkpt lat="45.19101" lon="4.75847">
        <ele>275.78298950195</ele>
        <time>2009-08-12T12:43:28Z</time>
      </trkpt>
      <trkpt lat="45.19098" lon="4.75757">
        <ele>278.03100585938</ele>
        <time>2009-08-12T12:43:44Z</time>
      </trkpt>
      <trkpt lat="45.19094" lon="4.75742">
        <ele>278.98098754883</ele>
        <time>2009-08-12T12:43:47Z</time>
      </trkpt>
      <trkpt lat="45.19053" lon="4.75694">
        <ele>279.07400512695</ele>
        <time>2009-08-12T12:44:01Z</time>
      </trkpt>
      <trkpt lat="45.19042" lon="4.75681">
        <ele>279.93099975586</ele>
        <time>2009-08-12T12:44:05Z</time>
      </trkpt>
      <trkpt lat="45.19056" lon="4.75658">
        <ele>282.59298706055</ele>
        <time>2009-08-12T12:44:13Z</time>
      </trkpt>
      <trkpt lat="45.19059" lon="4.75659">
        <ele>282.72399902344</ele>
        <time>2009-08-12T12:44:14Z</time>
      </trkpt>
      <trkpt lat="45.19062" lon="4.7566">
        <ele>282.85198974609</ele>
        <time>2009-08-12T12:44:15Z</time>
      </trkpt>
      <trkpt lat="45.19111" lon="4.7567">
        <ele>285.65899658203</ele>
        <time>2009-08-12T12:44:29Z</time>
      </trkpt>
      <trkpt lat="45.19188" lon="4.75699">
        <ele>290.22900390625</ele>
        <time>2009-08-12T12:44:50Z</time>
      </trkpt>
      <trkpt lat="45.19225" lon="4.75696">
        <ele>293.40899658203</ele>
        <time>2009-08-12T12:45:01Z</time>
      </trkpt>
      <trkpt lat="45.19238" lon="4.75656">
        <ele>294.5419921875</ele>
        <time>2009-08-12T12:45:09Z</time>
      </trkpt>
      <trkpt lat="45.19281" lon="4.75608">
        <ele>297.87298583984</ele>
        <time>2009-08-12T12:45:24Z</time>
      </trkpt>
      <trkpt lat="45.19305" lon="4.75554">
        <ele>299.70498657227</ele>
        <time>2009-08-12T12:45:37Z</time>
      </trkpt>
      <trkpt lat="45.19318" lon="4.75505">
        <ele>300.69000244141</ele>
        <time>2009-08-12T12:45:46Z</time>
      </trkpt>
      <trkpt lat="45.19319" lon="4.75452">
        <ele>301.47601318359</ele>
        <time>2009-08-12T12:45:54Z</time>
      </trkpt>
      <trkpt lat="45.1933" lon="4.75416">
        <ele>303.93499755859</ele>
        <time>2009-08-12T12:46:00Z</time>
      </trkpt>
      <trkpt lat="45.19323" lon="4.75367">
        <ele>305.11499023438</ele>
        <time>2009-08-12T12:46:08Z</time>
      </trkpt>
      <trkpt lat="45.19303" lon="4.75331">
        <ele>305.78201293945</ele>
        <time>2009-08-12T12:46:15Z</time>
      </trkpt>
      <trkpt lat="45.1928" lon="4.75241">
        <ele>308.90301513672</ele>
        <time>2009-08-12T12:46:31Z</time>
      </trkpt>
      <trkpt lat="45.19243" lon="4.75159">
        <ele>311.16198730469</ele>
        <time>2009-08-12T12:46:47Z</time>
      </trkpt>
      <trkpt lat="45.19239" lon="4.75148">
        <ele>311.46200561523</ele>
        <time>2009-08-12T12:46:49Z</time>
      </trkpt>
      <trkpt lat="45.19229" lon="4.75113">
        <ele>312.48300170898</ele>
        <time>2009-08-12T12:46:55Z</time>
      </trkpt>
      <trkpt lat="45.19201" lon="4.75092">
        <ele>314.1960144043</ele>
        <time>2009-08-12T12:47:03Z</time>
      </trkpt>
      <trkpt lat="45.19188" lon="4.75092">
        <ele>314.64700317383</ele>
        <time>2009-08-12T12:47:06Z</time>
      </trkpt>
      <trkpt lat="45.19171" lon="4.75082">
        <ele>315.57299804688</ele>
        <time>2009-08-12T12:47:10Z</time>
      </trkpt>
      <trkpt lat="45.1915" lon="4.75063">
        <ele>316.39401245117</ele>
        <time>2009-08-12T12:47:15Z</time>
      </trkpt>
      <trkpt lat="45.19081" lon="4.7502">
        <ele>319.68301391602</ele>
        <time>2009-08-12T12:47:30Z</time>
      </trkpt>
      <trkpt lat="45.19067" lon="4.7498">
        <ele>320.70098876953</ele>
        <time>2009-08-12T12:47:37Z</time>
      </trkpt>
      <trkpt lat="45.19073" lon="4.74854">
        <ele>324.61401367188</ele>
        <time>2009-08-12T12:47:56Z</time>
      </trkpt>
      <trkpt lat="45.19073" lon="4.74812">
        <ele>326.03399658203</ele>
        <time>2009-08-12T12:48:03Z</time>
      </trkpt>
      <trkpt lat="45.19078" lon="4.7479">
        <ele>326.89599609375</ele>
        <time>2009-08-12T12:48:07Z</time>
      </trkpt>
      <trkpt lat="45.191" lon="4.74764">
        <ele>328.06900024414</ele>
        <time>2009-08-12T12:48:14Z</time>
      </trkpt>
      <trkpt lat="45.19121" lon="4.74759">
        <ele>329.04598999023</ele>
        <time>2009-08-12T12:48:19Z</time>
      </trkpt>
      <trkpt lat="45.19145" lon="4.74743">
        <ele>330.31298828125</ele>
        <time>2009-08-12T12:48:25Z</time>
      </trkpt>
      <trkpt lat="45.1916" lon="4.74727">
        <ele>330.70300292969</ele>
        <time>2009-08-12T12:48:29Z</time>
      </trkpt>
      <trkpt lat="45.19179" lon="4.74673">
        <ele>332.66900634766</ele>
        <time>2009-08-12T12:48:38Z</time>
      </trkpt>
      <trkpt lat="45.19165" lon="4.74558">
        <ele>335.17999267578</ele>
        <time>2009-08-12T12:48:56Z</time>
      </trkpt>
      <trkpt lat="45.19158" lon="4.74526">
        <ele>337.48999023438</ele>
        <time>2009-08-12T12:49:01Z</time>
      </trkpt>
      <trkpt lat="45.19133" lon="4.74429">
        <ele>340.74600219727</ele>
        <time>2009-08-12T12:49:18Z</time>
      </trkpt>
      <trkpt lat="45.19098" lon="4.74326">
        <ele>343.91900634766</ele>
        <time>2009-08-12T12:49:37Z</time>
      </trkpt>
      <trkpt lat="45.19069" lon="4.74234">
        <ele>346.57598876953</ele>
        <time>2009-08-12T12:49:53Z</time>
      </trkpt>
      <trkpt lat="45.19048" lon="4.74131">
        <ele>349.47100830078</ele>
        <time>2009-08-12T12:50:10Z</time>
      </trkpt>
      <trkpt lat="45.19043" lon="4.73989">
        <ele>353.97500610352</ele>
        <time>2009-08-12T12:50:33Z</time>
      </trkpt>
      <trkpt lat="45.19045" lon="4.73934">
        <ele>355.88299560547</ele>
        <time>2009-08-12T12:50:42Z</time>
      </trkpt>
      <trkpt lat="45.19044" lon="4.7391">
        <ele>356.1960144043</ele>
        <time>2009-08-12T12:50:46Z</time>
      </trkpt>
      <trkpt lat="45.19025" lon="4.73842">
        <ele>358.78900146484</ele>
        <time>2009-08-12T12:50:58Z</time>
      </trkpt>
      <trkpt lat="45.19007" lon="4.73773">
        <ele>359.94400024414</ele>
        <time>2009-08-12T12:51:10Z</time>
      </trkpt>
      <trkpt lat="45.19004" lon="4.73729">
        <ele>361.00698852539</ele>
        <time>2009-08-12T12:51:17Z</time>
      </trkpt>
      <trkpt lat="45.18999" lon="4.7371">
        <ele>361.56399536133</ele>
        <time>2009-08-12T12:51:20Z</time>
      </trkpt>
      <trkpt lat="45.18978" lon="4.73681">
        <ele>363.46499633789</ele>
        <time>2009-08-12T12:51:27Z</time>
      </trkpt>
      <trkpt lat="45.1892" lon="4.73608">
        <ele>366.42700195312</ele>
        <time>2009-08-12T12:51:45Z</time>
      </trkpt>
      <trkpt lat="45.18908" lon="4.73597">
        <ele>367.00299072266</ele>
        <time>2009-08-12T12:51:48Z</time>
      </trkpt>
      <trkpt lat="45.18875" lon="4.73595">
        <ele>368.01300048828</ele>
        <time>2009-08-12T12:51:55Z</time>
      </trkpt>
      <trkpt lat="45.18828" lon="4.73622">
        <ele>368.92001342773</ele>
        <time>2009-08-12T12:52:05Z</time>
      </trkpt>
      <trkpt lat="45.18732" lon="4.7367">
        <ele>371.83999633789</ele>
        <time>2009-08-12T12:52:25Z</time>
      </trkpt>
      <trkpt lat="45.18712" lon="4.73671">
        <ele>372.60000610352</ele>
        <time>2009-08-12T12:52:29Z</time>
      </trkpt>
      <trkpt lat="45.18682" lon="4.73665">
        <ele>373.87200927734</ele>
        <time>2009-08-12T12:52:35Z</time>
      </trkpt>
      <trkpt lat="45.18666" lon="4.7364">
        <ele>374.40301513672</ele>
        <time>2009-08-12T12:52:40Z</time>
      </trkpt>
      <trkpt lat="45.18652" lon="4.7357">
        <ele>372.67199707031</ele>
        <time>2009-08-12T12:52:48Z</time>
      </trkpt>
      <trkpt lat="45.18629" lon="4.73452">
        <ele>370.41400146484</ele>
        <time>2009-08-12T12:52:59Z</time>
      </trkpt>
      <trkpt lat="45.18599" lon="4.73365">
        <ele>372.3450012207</ele>
        <time>2009-08-12T12:53:09Z</time>
      </trkpt>
      <trkpt lat="45.18563" lon="4.73303">
        <ele>372.6669921875</ele>
        <time>2009-08-12T12:53:17Z</time>
      </trkpt>
      <trkpt lat="45.18541" lon="4.7328">
        <ele>373.20300292969</ele>
        <time>2009-08-12T12:53:21Z</time>
      </trkpt>
      <trkpt lat="45.18454" lon="4.73239">
        <ele>374.69198608398</ele>
        <time>2009-08-12T12:53:34Z</time>
      </trkpt>
      <trkpt lat="45.18369" lon="4.73148">
        <ele>375.20001220703</ele>
        <time>2009-08-12T12:53:48Z</time>
      </trkpt>
      <trkpt lat="45.18349" lon="4.73102">
        <ele>375.65301513672</ele>
        <time>2009-08-12T12:53:53Z</time>
      </trkpt>
      <trkpt lat="45.18294" lon="4.73068">
        <ele>376.1369934082</ele>
        <time>2009-08-12T12:54:01Z</time>
      </trkpt>
      <trkpt lat="45.18278" lon="4.7307">
        <ele>376.03698730469</ele>
        <time>2009-08-12T12:54:03Z</time>
      </trkpt>
      <trkpt lat="45.18198" lon="4.73066">
        <ele>376.70199584961</ele>
        <time>2009-08-12T12:54:13Z</time>
      </trkpt>
      <trkpt lat="45.18168" lon="4.7305">
        <ele>376.92098999023</ele>
        <time>2009-08-12T12:54:17Z</time>
      </trkpt>
      <trkpt lat="45.18106" lon="4.72983">
        <ele>378.17700195312</ele>
        <time>2009-08-12T12:54:27Z</time>
      </trkpt>
      <trkpt lat="45.18042" lon="4.72862">
        <ele>377.87100219727</ele>
        <time>2009-08-12T12:54:41Z</time>
      </trkpt>
      <trkpt lat="45.17966" lon="4.72785">
        <ele>375.8330078125</ele>
        <time>2009-08-12T12:54:52Z</time>
      </trkpt>
      <trkpt lat="45.17897" lon="4.72737">
        <ele>374.79699707031</ele>
        <time>2009-08-12T12:55:01Z</time>
      </trkpt>
      <trkpt lat="45.17817" lon="4.72648">
        <ele>376.27899169922</ele>
        <time>2009-08-12T12:55:14Z</time>
      </trkpt>
      <trkpt lat="45.17753" lon="4.72519">
        <ele>378.26501464844</ele>
        <time>2009-08-12T12:55:30Z</time>
      </trkpt>
      <trkpt lat="45.17672" lon="4.72354">
        <ele>378.36199951172</ele>
        <time>2009-08-12T12:55:49Z</time>
      </trkpt>
      <trkpt lat="45.17593" lon="4.72191">
        <ele>380.09100341797</ele>
        <time>2009-08-12T12:56:08Z</time>
      </trkpt>
      <trkpt lat="45.17537" lon="4.72048">
        <ele>381.73599243164</ele>
        <time>2009-08-12T12:56:25Z</time>
      </trkpt>
      <trkpt lat="45.17517" lon="4.71945">
        <ele>384.33499145508</ele>
        <time>2009-08-12T12:56:36Z</time>
      </trkpt>
      <trkpt lat="45.17496" lon="4.71879">
        <ele>387.34600830078</ele>
        <time>2009-08-12T12:56:45Z</time>
      </trkpt>
      <trkpt lat="45.17471" lon="4.71805">
        <ele>389.50900268555</ele>
        <time>2009-08-12T12:56:56Z</time>
      </trkpt>
      <trkpt lat="45.17434" lon="4.71688">
        <ele>391.62899780273</ele>
        <time>2009-08-12T12:57:14Z</time>
      </trkpt>
      <trkpt lat="45.174" lon="4.71581">
        <ele>394.82998657227</ele>
        <time>2009-08-12T12:57:31Z</time>
      </trkpt>
      <trkpt lat="45.17353" lon="4.71437">
        <ele>397.23599243164</ele>
        <time>2009-08-12T12:57:52Z</time>
      </trkpt>
      <trkpt lat="45.17301" lon="4.71276">
        <ele>400.35800170898</ele>
        <time>2009-08-12T12:58:14Z</time>
      </trkpt>
      <trkpt lat="45.17255" lon="4.71135">
        <ele>400.3219909668</ele>
        <time>2009-08-12T12:58:32Z</time>
      </trkpt>
      <trkpt lat="45.17192" lon="4.70994">
        <ele>400.30499267578</ele>
        <time>2009-08-12T12:58:49Z</time>
      </trkpt>
      <trkpt lat="45.17147" lon="4.70896">
        <ele>404.59698486328</ele>
        <time>2009-08-12T12:59:05Z</time>
      </trkpt>
      <trkpt lat="45.17128" lon="4.7081">
        <ele>406.66198730469</ele>
        <time>2009-08-12T12:59:17Z</time>
      </trkpt>
      <trkpt lat="45.17102" lon="4.70663">
        <ele>406.30499267578</ele>
        <time>2009-08-12T12:59:34Z</time>
      </trkpt>
      <trkpt lat="45.17081" lon="4.70537">
        <ele>404.30899047852</ele>
        <time>2009-08-12T12:59:47Z</time>
      </trkpt>
      <trkpt lat="45.17058" lon="4.70416">
        <ele>403.83999633789</ele>
        <time>2009-08-12T12:59:58Z</time>
      </trkpt>
      <trkpt lat="45.17051" lon="4.70371">
        <ele>401.93399047852</ele>
        <time>2009-08-12T13:00:02Z</time>
      </trkpt>
      <trkpt lat="45.17041" lon="4.70312">
        <ele>401.4580078125</ele>
        <time>2009-08-12T13:00:07Z</time>
      </trkpt>
      <trkpt lat="45.16997" lon="4.70145">
        <ele>398.26400756836</ele>
        <time>2009-08-12T13:00:20Z</time>
      </trkpt>
      <trkpt lat="45.16983" lon="4.70095">
        <ele>398.06100463867</ele>
        <time>2009-08-12T13:00:24Z</time>
      </trkpt>
      <trkpt lat="45.16953" lon="4.69991">
        <ele>398.28100585938</ele>
        <time>2009-08-12T13:00:33Z</time>
      </trkpt>
      <trkpt lat="45.16919" lon="4.69827">
        <ele>398.22900390625</ele>
        <time>2009-08-12T13:00:48Z</time>
      </trkpt>
      <trkpt lat="45.16902" lon="4.69671">
        <ele>401.0950012207</ele>
        <time>2009-08-12T13:01:05Z</time>
      </trkpt>
      <trkpt lat="45.16892" lon="4.6963">
        <ele>402.53298950195</ele>
        <time>2009-08-12T13:01:10Z</time>
      </trkpt>
      <trkpt lat="45.16882" lon="4.69495">
        <ele>402.9580078125</ele>
        <time>2009-08-12T13:01:26Z</time>
      </trkpt>
      <trkpt lat="45.16882" lon="4.69456">
        <ele>403.58898925781</ele>
        <time>2009-08-12T13:01:34Z</time>
      </trkpt>
      <trkpt lat="45.16882" lon="4.69456">
        <ele>403.60400390625</ele>
        <time>2009-08-12T13:01:35Z</time>
      </trkpt>
      <trkpt lat="45.1688" lon="4.69452">
        <ele>403.42498779297</ele>
        <time>2009-08-12T13:01:54Z</time>
      </trkpt>
      <trkpt lat="45.16882" lon="4.69414">
        <ele>403.48199462891</ele>
        <time>2009-08-12T13:02:05Z</time>
      </trkpt>
      <trkpt lat="45.16882" lon="4.69386">
        <ele>403.79400634766</ele>
        <time>2009-08-12T13:02:12Z</time>
      </trkpt>
      <trkpt lat="45.1687" lon="4.69281">
        <ele>404.74200439453</ele>
        <time>2009-08-12T13:02:26Z</time>
      </trkpt>
      <trkpt lat="45.16864" lon="4.69164">
        <ele>405.67999267578</ele>
        <time>2009-08-12T13:02:40Z</time>
      </trkpt>
      <trkpt lat="45.16863" lon="4.69149">
        <ele>407.58999633789</ele>
        <time>2009-08-12T13:02:42Z</time>
      </trkpt>
      <trkpt lat="45.16863" lon="4.69119">
        <ele>408.50399780273</ele>
        <time>2009-08-12T13:02:46Z</time>
      </trkpt>
      <trkpt lat="45.16872" lon="4.69066">
        <ele>410.26300048828</ele>
        <time>2009-08-12T13:02:54Z</time>
      </trkpt>
      <trkpt lat="45.16874" lon="4.69059">
        <ele>410.5830078125</ele>
        <time>2009-08-12T13:02:58Z</time>
      </trkpt>
      <trkpt lat="45.16875" lon="4.69052">
        <ele>410.38400268555</ele>
        <time>2009-08-12T13:03:10Z</time>
      </trkpt>
      <trkpt lat="45.16886" lon="4.68996">
        <ele>411.81799316406</ele>
        <time>2009-08-12T13:03:21Z</time>
      </trkpt>
      <trkpt lat="45.16914" lon="4.68865">
        <ele>415.30801391602</ele>
        <time>2009-08-12T13:03:41Z</time>
      </trkpt>
      <trkpt lat="45.1694" lon="4.68803">
        <ele>418.76098632812</ele>
        <time>2009-08-12T13:03:52Z</time>
      </trkpt>
      <trkpt lat="45.16948" lon="4.68697">
        <ele>419.16400146484</ele>
        <time>2009-08-12T13:04:07Z</time>
      </trkpt>
      <trkpt lat="45.16949" lon="4.68581">
        <ele>419.88400268555</ele>
        <time>2009-08-12T13:04:22Z</time>
      </trkpt>
      <trkpt lat="45.16929" lon="4.68459">
        <ele>421.62799072266</ele>
        <time>2009-08-12T13:04:38Z</time>
      </trkpt>
      <trkpt lat="45.16914" lon="4.68398">
        <ele>423.06201171875</ele>
        <time>2009-08-12T13:04:47Z</time>
      </trkpt>
      <trkpt lat="45.16879" lon="4.68313">
        <ele>426.00900268555</ele>
        <time>2009-08-12T13:05:01Z</time>
      </trkpt>
      <trkpt lat="45.16846" lon="4.68204">
        <ele>429.49798583984</ele>
        <time>2009-08-12T13:05:19Z</time>
      </trkpt>
      <trkpt lat="45.1682" lon="4.68097">
        <ele>431.31600952148</ele>
        <time>2009-08-12T13:05:35Z</time>
      </trkpt>
      <trkpt lat="45.16813" lon="4.68009">
        <ele>434.24700927734</ele>
        <time>2009-08-12T13:05:48Z</time>
      </trkpt>
      <trkpt lat="45.16816" lon="4.67989">
        <ele>435.17599487305</ele>
        <time>2009-08-12T13:05:51Z</time>
      </trkpt>
      <trkpt lat="45.1682" lon="4.6797">
        <ele>435.31500244141</ele>
        <time>2009-08-12T13:05:54Z</time>
      </trkpt>
      <trkpt lat="45.16834" lon="4.67873">
        <ele>437.76998901367</ele>
        <time>2009-08-12T13:06:08Z</time>
      </trkpt>
      <trkpt lat="45.16828" lon="4.67846">
        <ele>438.45999145508</ele>
        <time>2009-08-12T13:06:12Z</time>
      </trkpt>
      <trkpt lat="45.16772" lon="4.67736">
        <ele>442.86499023438</ele>
        <time>2009-08-12T13:06:31Z</time>
      </trkpt>
      <trkpt lat="45.1672" lon="4.67643">
        <ele>444.14401245117</ele>
        <time>2009-08-12T13:06:46Z</time>
      </trkpt>
      <trkpt lat="45.16644" lon="4.67552">
        <ele>446.9880065918</ele>
        <time>2009-08-12T13:07:03Z</time>
      </trkpt>
      <trkpt lat="45.16579" lon="4.67489">
        <ele>450.42401123047</ele>
        <time>2009-08-12T13:07:18Z</time>
      </trkpt>
      <trkpt lat="45.16539" lon="4.67399">
        <ele>453.79800415039</ele>
        <time>2009-08-12T13:07:33Z</time>
      </trkpt>
      <trkpt lat="45.16503" lon="4.67284">
        <ele>453.71099853516</ele>
        <time>2009-08-12T13:07:49Z</time>
      </trkpt>
      <trkpt lat="45.16502" lon="4.67167">
        <ele>453.59698486328</ele>
        <time>2009-08-12T13:08:01Z</time>
      </trkpt>
      <trkpt lat="45.16496" lon="4.66958">
        <ele>451.45599365234</ele>
        <time>2009-08-12T13:08:19Z</time>
      </trkpt>
      <trkpt lat="45.16472" lon="4.66814">
        <ele>451.69799804688</ele>
        <time>2009-08-12T13:08:31Z</time>
      </trkpt>
      <trkpt lat="45.1647" lon="4.66804">
        <ele>452.05801391602</ele>
        <time>2009-08-12T13:08:32Z</time>
      </trkpt>
      <trkpt lat="45.16475" lon="4.66671">
        <ele>449.95401000977</ele>
        <time>2009-08-12T13:08:45Z</time>
      </trkpt>
      <trkpt lat="45.16476" lon="4.66647">
        <ele>449.28298950195</ele>
        <time>2009-08-12T13:08:47Z</time>
      </trkpt>
      <trkpt lat="45.16469" lon="4.6656">
        <ele>447.94799804688</ele>
        <time>2009-08-12T13:08:54Z</time>
      </trkpt>
      <trkpt lat="45.16455" lon="4.66457">
        <ele>447.53900146484</ele>
        <time>2009-08-12T13:09:03Z</time>
      </trkpt>
      <trkpt lat="45.16454" lon="4.66436">
        <ele>447.88198852539</ele>
        <time>2009-08-12T13:09:05Z</time>
      </trkpt>
      <trkpt lat="45.1645" lon="4.66284">
        <ele>447.14001464844</ele>
        <time>2009-08-12T13:09:19Z</time>
      </trkpt>
      <trkpt lat="45.16447" lon="4.66168">
        <ele>448.67498779297</ele>
        <time>2009-08-12T13:09:30Z</time>
      </trkpt>
      <trkpt lat="45.16439" lon="4.66104">
        <ele>450.38299560547</ele>
        <time>2009-08-12T13:09:37Z</time>
      </trkpt>
      <trkpt lat="45.16435" lon="4.66055">
        <ele>451.26901245117</ele>
        <time>2009-08-12T13:09:42Z</time>
      </trkpt>
      <trkpt lat="45.16435" lon="4.66036">
        <ele>452.47299194336</ele>
        <time>2009-08-12T13:09:44Z</time>
      </trkpt>
      <trkpt lat="45.16435" lon="4.66027">
        <ele>451.61700439453</ele>
        <time>2009-08-12T13:09:45Z</time>
      </trkpt>
      <trkpt lat="45.16467" lon="4.65894">
        <ele>448.10299682617</ele>
        <time>2009-08-12T13:09:58Z</time>
      </trkpt>
      <trkpt lat="45.16507" lon="4.65786">
        <ele>445.25299072266</ele>
        <time>2009-08-12T13:10:08Z</time>
      </trkpt>
      <trkpt lat="45.16525" lon="4.65741">
        <ele>444.85699462891</ele>
        <time>2009-08-12T13:10:12Z</time>
      </trkpt>
      <trkpt lat="45.16532" lon="4.65689">
        <ele>443.00900268555</ele>
        <time>2009-08-12T13:10:16Z</time>
      </trkpt>
      <trkpt lat="45.1653" lon="4.65662">
        <ele>442.16101074219</ele>
        <time>2009-08-12T13:10:18Z</time>
      </trkpt>
      <trkpt lat="45.16539" lon="4.65625">
        <ele>440.67498779297</ele>
        <time>2009-08-12T13:10:21Z</time>
      </trkpt>
      <trkpt lat="45.16546" lon="4.65615">
        <ele>440.48199462891</ele>
        <time>2009-08-12T13:10:22Z</time>
      </trkpt>
      <trkpt lat="45.16606" lon="4.65546">
        <ele>437.57299804688</ele>
        <time>2009-08-12T13:10:30Z</time>
      </trkpt>
      <trkpt lat="45.16613" lon="4.65477">
        <ele>437.07400512695</ele>
        <time>2009-08-12T13:10:36Z</time>
      </trkpt>
      <trkpt lat="45.16569" lon="4.65457">
        <ele>438.09201049805</ele>
        <time>2009-08-12T13:10:42Z</time>
      </trkpt>
      <trkpt lat="45.16536" lon="4.65458">
        <ele>437.3039855957</ele>
        <time>2009-08-12T13:10:46Z</time>
      </trkpt>
      <trkpt lat="45.16489" lon="4.65422">
        <ele>438.38500976562</ele>
        <time>2009-08-12T13:10:53Z</time>
      </trkpt>
      <trkpt lat="45.16431" lon="4.653">
        <ele>438.95401000977</ele>
        <time>2009-08-12T13:11:07Z</time>
      </trkpt>
      <trkpt lat="45.1638" lon="4.65197">
        <ele>439.61499023438</ele>
        <time>2009-08-12T13:11:20Z</time>
      </trkpt>
      <trkpt lat="45.16348" lon="4.65124">
        <ele>440.38598632812</ele>
        <time>2009-08-12T13:11:29Z</time>
      </trkpt>
      <trkpt lat="45.16343" lon="4.65065">
        <ele>440.86099243164</ele>
        <time>2009-08-12T13:11:35Z</time>
      </trkpt>
      <trkpt lat="45.16335" lon="4.6492">
        <ele>440.95001220703</ele>
        <time>2009-08-12T13:11:49Z</time>
      </trkpt>
      <trkpt lat="45.16327" lon="4.64868">
        <ele>441.82000732422</ele>
        <time>2009-08-12T13:11:54Z</time>
      </trkpt>
      <trkpt lat="45.16329" lon="4.64827">
        <ele>442.00900268555</ele>
        <time>2009-08-12T13:11:58Z</time>
      </trkpt>
      <trkpt lat="45.16336" lon="4.64788">
        <ele>441.86099243164</ele>
        <time>2009-08-12T13:12:02Z</time>
      </trkpt>
      <trkpt lat="45.16326" lon="4.64729">
        <ele>441.38900756836</ele>
        <time>2009-08-12T13:12:08Z</time>
      </trkpt>
      <trkpt lat="45.16314" lon="4.64701">
        <ele>441.47601318359</ele>
        <time>2009-08-12T13:12:11Z</time>
      </trkpt>
      <trkpt lat="45.16305" lon="4.64658">
        <ele>440.86499023438</ele>
        <time>2009-08-12T13:12:15Z</time>
      </trkpt>
      <trkpt lat="45.16298" lon="4.64578">
        <ele>439.67700195312</ele>
        <time>2009-08-12T13:12:22Z</time>
      </trkpt>
      <trkpt lat="45.16304" lon="4.64521">
        <ele>439.75</ele>
        <time>2009-08-12T13:12:27Z</time>
      </trkpt>
      <trkpt lat="45.16346" lon="4.64359">
        <ele>436.01300048828</ele>
        <time>2009-08-12T13:12:41Z</time>
      </trkpt>
      <trkpt lat="45.1636" lon="4.64212">
        <ele>437.62899780273</ele>
        <time>2009-08-12T13:12:54Z</time>
      </trkpt>
      <trkpt lat="45.16349" lon="4.6417">
        <ele>439.19299316406</ele>
        <time>2009-08-12T13:12:59Z</time>
      </trkpt>
      <trkpt lat="45.16336" lon="4.64147">
        <ele>440.85198974609</ele>
        <time>2009-08-12T13:13:03Z</time>
      </trkpt>
      <trkpt lat="45.16298" lon="4.64096">
        <ele>442.6960144043</ele>
        <time>2009-08-12T13:13:14Z</time>
      </trkpt>
      <trkpt lat="45.1627" lon="4.63997">
        <ele>443.74200439453</ele>
        <time>2009-08-12T13:13:27Z</time>
      </trkpt>
      <trkpt lat="45.16264" lon="4.63972">
        <ele>443.79901123047</ele>
        <time>2009-08-12T13:13:30Z</time>
      </trkpt>
      <trkpt lat="45.16258" lon="4.63944">
        <ele>443.96499633789</ele>
        <time>2009-08-12T13:13:33Z</time>
      </trkpt>
      <trkpt lat="45.16244" lon="4.6375">
        <ele>444.60598754883</ele>
        <time>2009-08-12T13:13:53Z</time>
      </trkpt>
      <trkpt lat="45.162" lon="4.63627">
        <ele>447.06100463867</ele>
        <time>2009-08-12T13:14:08Z</time>
      </trkpt>
      <trkpt lat="45.1619" lon="4.63606">
        <ele>447.02899169922</ele>
        <time>2009-08-12T13:14:11Z</time>
      </trkpt>
      <trkpt lat="45.16107" lon="4.63497">
        <ele>449.5710144043</ele>
        <time>2009-08-12T13:14:30Z</time>
      </trkpt>
      <trkpt lat="45.16028" lon="4.63391">
        <ele>452.5710144043</ele>
        <time>2009-08-12T13:14:48Z</time>
      </trkpt>
      <trkpt lat="45.16003" lon="4.63356">
        <ele>453.36599731445</ele>
        <time>2009-08-12T13:14:54Z</time>
      </trkpt>
      <trkpt lat="45.1595" lon="4.63304">
        <ele>454.72601318359</ele>
        <time>2009-08-12T13:15:05Z</time>
      </trkpt>
      <trkpt lat="45.15938" lon="4.63276">
        <ele>455.79901123047</ele>
        <time>2009-08-12T13:15:09Z</time>
      </trkpt>
      <trkpt lat="45.15931" lon="4.63247">
        <ele>456.38198852539</ele>
        <time>2009-08-12T13:15:13Z</time>
      </trkpt>
      <trkpt lat="45.1591" lon="4.63211">
        <ele>457.21701049805</ele>
        <time>2009-08-12T13:15:19Z</time>
      </trkpt>
      <trkpt lat="45.15887" lon="4.6319">
        <ele>458.04901123047</ele>
        <time>2009-08-12T13:15:24Z</time>
      </trkpt>
      <trkpt lat="45.15836" lon="4.63179">
        <ele>460.01901245117</ele>
        <time>2009-08-12T13:15:33Z</time>
      </trkpt>
      <trkpt lat="45.15819" lon="4.63141">
        <ele>460.79501342773</ele>
        <time>2009-08-12T13:15:40Z</time>
      </trkpt>
      <trkpt lat="45.1581" lon="4.63131">
        <ele>460.58700561523</ele>
        <time>2009-08-12T13:15:42Z</time>
      </trkpt>
      <trkpt lat="45.15778" lon="4.63103">
        <ele>460.04400634766</ele>
        <time>2009-08-12T13:15:48Z</time>
      </trkpt>
      <trkpt lat="45.15749" lon="4.63046">
        <ele>459.01800537109</ele>
        <time>2009-08-12T13:15:55Z</time>
      </trkpt>
      <trkpt lat="45.15746" lon="4.63024">
        <ele>459.04299926758</ele>
        <time>2009-08-12T13:15:57Z</time>
      </trkpt>
      <trkpt lat="45.15747" lon="4.62979">
        <ele>457.89099121094</ele>
        <time>2009-08-12T13:16:01Z</time>
      </trkpt>
      <trkpt lat="45.15761" lon="4.62901">
        <ele>456.32400512695</ele>
        <time>2009-08-12T13:16:08Z</time>
      </trkpt>
      <trkpt lat="45.15752" lon="4.62845">
        <ele>456.10900878906</ele>
        <time>2009-08-12T13:16:13Z</time>
      </trkpt>
      <trkpt lat="45.15691" lon="4.62723">
        <ele>459.91000366211</ele>
        <time>2009-08-12T13:16:28Z</time>
      </trkpt>
      <trkpt lat="45.1563" lon="4.62602">
        <ele>461.53298950195</ele>
        <time>2009-08-12T13:16:45Z</time>
      </trkpt>
      <trkpt lat="45.15603" lon="4.62546">
        <ele>461.91101074219</ele>
        <time>2009-08-12T13:16:52Z</time>
      </trkpt>
      <trkpt lat="45.15587" lon="4.62485">
        <ele>463.38900756836</ele>
        <time>2009-08-12T13:16:59Z</time>
      </trkpt>
      <trkpt lat="45.15542" lon="4.62405">
        <ele>465.85299682617</ele>
        <time>2009-08-12T13:17:12Z</time>
      </trkpt>
      <trkpt lat="45.15482" lon="4.62304">
        <ele>466.39599609375</ele>
        <time>2009-08-12T13:17:28Z</time>
      </trkpt>
      <trkpt lat="45.15415" lon="4.6219">
        <ele>467.12799072266</ele>
        <time>2009-08-12T13:17:44Z</time>
      </trkpt>
      <trkpt lat="45.15343" lon="4.62075">
        <ele>469.10400390625</ele>
        <time>2009-08-12T13:18:01Z</time>
      </trkpt>
      <trkpt lat="45.15279" lon="4.61963">
        <ele>471.09201049805</ele>
        <time>2009-08-12T13:18:17Z</time>
      </trkpt>
      <trkpt lat="45.15205" lon="4.61838">
        <ele>472.25201416016</ele>
        <time>2009-08-12T13:18:35Z</time>
      </trkpt>
      <trkpt lat="45.1517" lon="4.61784">
        <ele>473.3450012207</ele>
        <time>2009-08-12T13:18:43Z</time>
      </trkpt>
      <trkpt lat="45.15157" lon="4.61753">
        <ele>473.56399536133</ele>
        <time>2009-08-12T13:18:47Z</time>
      </trkpt>
      <trkpt lat="45.15145" lon="4.61701">
        <ele>474.17700195312</ele>
        <time>2009-08-12T13:18:53Z</time>
      </trkpt>
      <trkpt lat="45.15119" lon="4.61629">
        <ele>473.72698974609</ele>
        <time>2009-08-12T13:19:01Z</time>
      </trkpt>
      <trkpt lat="45.1511" lon="4.61584">
        <ele>474.60299682617</ele>
        <time>2009-08-12T13:19:06Z</time>
      </trkpt>
      <trkpt lat="45.15067" lon="4.61492">
        <ele>476.69900512695</ele>
        <time>2009-08-12T13:19:19Z</time>
      </trkpt>
      <trkpt lat="45.15051" lon="4.61452">
        <ele>479.40600585938</ele>
        <time>2009-08-12T13:19:25Z</time>
      </trkpt>
      <trkpt lat="45.15047" lon="4.61439">
        <ele>480.18701171875</ele>
        <time>2009-08-12T13:19:27Z</time>
      </trkpt>
      <trkpt lat="45.15041" lon="4.6142">
        <ele>480.79501342773</ele>
        <time>2009-08-12T13:19:30Z</time>
      </trkpt>
      <trkpt lat="45.15025" lon="4.61392">
        <ele>480.54400634766</ele>
        <time>2009-08-12T13:19:35Z</time>
      </trkpt>
      <trkpt lat="45.14991" lon="4.61354">
        <ele>477.62899780273</ele>
        <time>2009-08-12T13:19:41Z</time>
      </trkpt>
      <trkpt lat="45.14978" lon="4.61343">
        <ele>477.8869934082</ele>
        <time>2009-08-12T13:19:43Z</time>
      </trkpt>
      <trkpt lat="45.14967" lon="4.6133">
        <ele>478.75100708008</ele>
        <time>2009-08-12T13:19:45Z</time>
      </trkpt>
      <trkpt lat="45.14951" lon="4.61293">
        <ele>480.12799072266</ele>
        <time>2009-08-12T13:19:50Z</time>
      </trkpt>
      <trkpt lat="45.14925" lon="4.61255">
        <ele>481.93499755859</ele>
        <time>2009-08-12T13:19:57Z</time>
      </trkpt>
      <trkpt lat="45.14899" lon="4.6116">
        <ele>485.74301147461</ele>
        <time>2009-08-12T13:20:14Z</time>
      </trkpt>
      <trkpt lat="45.14879" lon="4.61079">
        <ele>490.35198974609</ele>
        <time>2009-08-12T13:20:32Z</time>
      </trkpt>
      <trkpt lat="45.1485" lon="4.61036">
        <ele>493.18899536133</ele>
        <time>2009-08-12T13:20:44Z</time>
      </trkpt>
      <trkpt lat="45.14821" lon="4.61007">
        <ele>494.52499389648</ele>
        <time>2009-08-12T13:20:54Z</time>
      </trkpt>
      <trkpt lat="45.14815" lon="4.60999">
        <ele>494.52600097656</ele>
        <time>2009-08-12T13:20:56Z</time>
      </trkpt>
      <trkpt lat="45.1481" lon="4.60989">
        <ele>495.01300048828</ele>
        <time>2009-08-12T13:20:58Z</time>
      </trkpt>
      <trkpt lat="45.14787" lon="4.60937">
        <ele>496.22100830078</ele>
        <time>2009-08-12T13:21:08Z</time>
      </trkpt>
      <trkpt lat="45.14735" lon="4.6083">
        <ele>499.09799194336</ele>
        <time>2009-08-12T13:21:28Z</time>
      </trkpt>
      <trkpt lat="45.14679" lon="4.60749">
        <ele>500.99700927734</ele>
        <time>2009-08-12T13:21:44Z</time>
      </trkpt>
      <trkpt lat="45.14616" lon="4.6066">
        <ele>501.63198852539</ele>
        <time>2009-08-12T13:22:00Z</time>
      </trkpt>
      <trkpt lat="45.14557" lon="4.60562">
        <ele>504.49798583984</ele>
        <time>2009-08-12T13:22:17Z</time>
      </trkpt>
      <trkpt lat="45.145" lon="4.60473">
        <ele>509.21899414062</ele>
        <time>2009-08-12T13:22:37Z</time>
      </trkpt>
      <trkpt lat="45.14477" lon="4.60431">
        <ele>510.8630065918</ele>
        <time>2009-08-12T13:22:47Z</time>
      </trkpt>
      <trkpt lat="45.14452" lon="4.60372">
        <ele>513.87298583984</ele>
        <time>2009-08-12T13:23:00Z</time>
      </trkpt>
      <trkpt lat="45.1442" lon="4.60297">
        <ele>517.63800048828</ele>
        <time>2009-08-12T13:23:17Z</time>
      </trkpt>
      <trkpt lat="45.14381" lon="4.60247">
        <ele>521.38702392578</ele>
        <time>2009-08-12T13:23:32Z</time>
      </trkpt>
      <trkpt lat="45.14348" lon="4.60208">
        <ele>523.916015625</ele>
        <time>2009-08-12T13:23:44Z</time>
      </trkpt>
      <trkpt lat="45.1432" lon="4.60136">
        <ele>527.77899169922</ele>
        <time>2009-08-12T13:24:00Z</time>
      </trkpt>
      <trkpt lat="45.14293" lon="4.60079">
        <ele>531.04699707031</ele>
        <time>2009-08-12T13:24:14Z</time>
      </trkpt>
      <trkpt lat="45.14277" lon="4.60002">
        <ele>534.78601074219</ele>
        <time>2009-08-12T13:24:30Z</time>
      </trkpt>
      <trkpt lat="45.14249" lon="4.59933">
        <ele>538.82000732422</ele>
        <time>2009-08-12T13:24:46Z</time>
      </trkpt>
      <trkpt lat="45.1423" lon="4.59857">
        <ele>542.51800537109</ele>
        <time>2009-08-12T13:25:03Z</time>
      </trkpt>
      <trkpt lat="45.14205" lon="4.59787">
        <ele>545.76599121094</ele>
        <time>2009-08-12T13:25:20Z</time>
      </trkpt>
      <trkpt lat="45.14177" lon="4.5971">
        <ele>549.78601074219</ele>
        <time>2009-08-12T13:25:38Z</time>
      </trkpt>
      <trkpt lat="45.14153" lon="4.59627">
        <ele>554.24102783203</ele>
        <time>2009-08-12T13:25:58Z</time>
      </trkpt>
      <trkpt lat="45.14156" lon="4.59589">
        <ele>557.55200195312</ele>
        <time>2009-08-12T13:26:10Z</time>
      </trkpt>
      <trkpt lat="45.14178" lon="4.59563">
        <ele>559.84002685547</ele>
        <time>2009-08-12T13:26:22Z</time>
      </trkpt>
      <trkpt lat="45.14216" lon="4.59519">
        <ele>562.69500732422</ele>
        <time>2009-08-12T13:26:39Z</time>
      </trkpt>
      <trkpt lat="45.14253" lon="4.59479">
        <ele>565.76397705078</ele>
        <time>2009-08-12T13:26:53Z</time>
      </trkpt>
      <trkpt lat="45.14305" lon="4.59446">
        <ele>569.30700683594</ele>
        <time>2009-08-12T13:27:11Z</time>
      </trkpt>
      <trkpt lat="45.14358" lon="4.59399">
        <ele>574.13397216797</ele>
        <time>2009-08-12T13:27:31Z</time>
      </trkpt>
      <trkpt lat="45.14396" lon="4.59344">
        <ele>577.95202636719</ele>
        <time>2009-08-12T13:27:49Z</time>
      </trkpt>
      <trkpt lat="45.14409" lon="4.59273">
        <ele>581.34497070312</ele>
        <time>2009-08-12T13:28:05Z</time>
      </trkpt>
      <trkpt lat="45.14387" lon="4.59257">
        <ele>582.44000244141</ele>
        <time>2009-08-12T13:28:14Z</time>
      </trkpt>
      <trkpt lat="45.14347" lon="4.59282">
        <ele>585.24102783203</ele>
        <time>2009-08-12T13:28:27Z</time>
      </trkpt>
      <trkpt lat="45.14293" lon="4.59281">
        <ele>588.2490234375</ele>
        <time>2009-08-12T13:28:44Z</time>
      </trkpt>
      <trkpt lat="45.14252" lon="4.59221">
        <ele>592.37097167969</ele>
        <time>2009-08-12T13:29:02Z</time>
      </trkpt>
      <trkpt lat="45.14234" lon="4.5916">
        <ele>595.03100585938</ele>
        <time>2009-08-12T13:29:16Z</time>
      </trkpt>
      <trkpt lat="45.1421" lon="4.59085">
        <ele>598.95098876953</ele>
        <time>2009-08-12T13:29:34Z</time>
      </trkpt>
      <trkpt lat="45.14196" lon="4.58984">
        <ele>603.67297363281</ele>
        <time>2009-08-12T13:29:55Z</time>
      </trkpt>
      <trkpt lat="45.14197" lon="4.58959">
        <ele>605.375</ele>
        <time>2009-08-12T13:30:00Z</time>
      </trkpt>
      <trkpt lat="45.14181" lon="4.58891">
        <ele>607.69702148438</ele>
        <time>2009-08-12T13:30:15Z</time>
      </trkpt>
      <trkpt lat="45.14143" lon="4.58837">
        <ele>611.916015625</ele>
        <time>2009-08-12T13:30:32Z</time>
      </trkpt>
      <trkpt lat="45.14132" lon="4.58761">
        <ele>616.18103027344</ele>
        <time>2009-08-12T13:30:49Z</time>
      </trkpt>
      <trkpt lat="45.1413" lon="4.58692">
        <ele>619.43499755859</ele>
        <time>2009-08-12T13:31:05Z</time>
      </trkpt>
      <trkpt lat="45.14127" lon="4.58644">
        <ele>621.86199951172</ele>
        <time>2009-08-12T13:31:16Z</time>
      </trkpt>
      <trkpt lat="45.14127" lon="4.58587">
        <ele>624.44299316406</ele>
        <time>2009-08-12T13:31:30Z</time>
      </trkpt>
      <trkpt lat="45.14127" lon="4.58531">
        <ele>626.32397460938</ele>
        <time>2009-08-12T13:31:43Z</time>
      </trkpt>
      <trkpt lat="45.1412" lon="4.58456">
        <ele>628.88800048828</ele>
        <time>2009-08-12T13:32:00Z</time>
      </trkpt>
      <trkpt lat="45.14128" lon="4.58405">
        <ele>630.81799316406</ele>
        <time>2009-08-12T13:32:12Z</time>
      </trkpt>
      <trkpt lat="45.1415" lon="4.58359">
        <ele>632.32000732422</ele>
        <time>2009-08-12T13:32:23Z</time>
      </trkpt>
      <trkpt lat="45.14174" lon="4.58295">
        <ele>634.22497558594</ele>
        <time>2009-08-12T13:32:37Z</time>
      </trkpt>
      <trkpt lat="45.14168" lon="4.58269">
        <ele>634.92498779297</ele>
        <time>2009-08-12T13:32:42Z</time>
      </trkpt>
      <trkpt lat="45.14141" lon="4.58255">
        <ele>635.26000976562</ele>
        <time>2009-08-12T13:32:49Z</time>
      </trkpt>
      <trkpt lat="45.14072" lon="4.58284">
        <ele>637.82000732422</ele>
        <time>2009-08-12T13:33:06Z</time>
      </trkpt>
      <trkpt lat="45.14016" lon="4.58286">
        <ele>641.916015625</ele>
        <time>2009-08-12T13:33:22Z</time>
      </trkpt>
      <trkpt lat="45.13982" lon="4.58264">
        <ele>644.41400146484</ele>
        <time>2009-08-12T13:33:32Z</time>
      </trkpt>
      <trkpt lat="45.13963" lon="4.58206">
        <ele>646.52301025391</ele>
        <time>2009-08-12T13:33:45Z</time>
      </trkpt>
      <trkpt lat="45.13962" lon="4.58171">
        <ele>649.84600830078</ele>
        <time>2009-08-12T13:33:52Z</time>
      </trkpt>
      <trkpt lat="45.13963" lon="4.5808">
        <ele>653.35101318359</ele>
        <time>2009-08-12T13:34:10Z</time>
      </trkpt>
      <trkpt lat="45.13973" lon="4.57985">
        <ele>658.04302978516</ele>
        <time>2009-08-12T13:34:30Z</time>
      </trkpt>
      <trkpt lat="45.13971" lon="4.57936">
        <ele>659.74597167969</ele>
        <time>2009-08-12T13:34:42Z</time>
      </trkpt>
      <trkpt lat="45.13947" lon="4.57923">
        <ele>661.84497070312</ele>
        <time>2009-08-12T13:34:50Z</time>
      </trkpt>
      <trkpt lat="45.139" lon="4.57895">
        <ele>664.84301757812</ele>
        <time>2009-08-12T13:35:05Z</time>
      </trkpt>
      <trkpt lat="45.13885" lon="4.57852">
        <ele>667.66802978516</ele>
        <time>2009-08-12T13:35:17Z</time>
      </trkpt>
      <trkpt lat="45.13898" lon="4.57795">
        <ele>670.35400390625</ele>
        <time>2009-08-12T13:35:31Z</time>
      </trkpt>
      <trkpt lat="45.13898" lon="4.57712">
        <ele>674.13299560547</ele>
        <time>2009-08-12T13:35:49Z</time>
      </trkpt>
      <trkpt lat="45.139" lon="4.57641">
        <ele>677.25799560547</ele>
        <time>2009-08-12T13:36:04Z</time>
      </trkpt>
      <trkpt lat="45.13899" lon="4.57555">
        <ele>681.52600097656</ele>
        <time>2009-08-12T13:36:22Z</time>
      </trkpt>
      <trkpt lat="45.139" lon="4.5746">
        <ele>684.48999023438</ele>
        <time>2009-08-12T13:36:41Z</time>
      </trkpt>
      <trkpt lat="45.13924" lon="4.57404">
        <ele>687.26098632812</ele>
        <time>2009-08-12T13:36:56Z</time>
      </trkpt>
      <trkpt lat="45.1395" lon="4.57344">
        <ele>690.88500976562</ele>
        <time>2009-08-12T13:37:13Z</time>
      </trkpt>
      <trkpt lat="45.13987" lon="4.57305">
        <ele>693.86700439453</ele>
        <time>2009-08-12T13:37:29Z</time>
      </trkpt>
      <trkpt lat="45.1402" lon="4.57283">
        <ele>696.69500732422</ele>
        <time>2009-08-12T13:37:43Z</time>
      </trkpt>
      <trkpt lat="45.14062" lon="4.57261">
        <ele>699.49200439453</ele>
        <time>2009-08-12T13:37:58Z</time>
      </trkpt>
      <trkpt lat="45.14115" lon="4.57241">
        <ele>702.80603027344</ele>
        <time>2009-08-12T13:38:16Z</time>
      </trkpt>
      <trkpt lat="45.14164" lon="4.57211">
        <ele>706.28198242188</ele>
        <time>2009-08-12T13:38:33Z</time>
      </trkpt>
      <trkpt lat="45.14191" lon="4.57187">
        <ele>708.40899658203</ele>
        <time>2009-08-12T13:38:43Z</time>
      </trkpt>
      <trkpt lat="45.14235" lon="4.57143">
        <ele>712.47100830078</ele>
        <time>2009-08-12T13:39:00Z</time>
      </trkpt>
      <trkpt lat="45.14264" lon="4.57078">
        <ele>716.03002929688</ele>
        <time>2009-08-12T13:39:15Z</time>
      </trkpt>
      <trkpt lat="45.1429" lon="4.57001">
        <ele>719.36700439453</ele>
        <time>2009-08-12T13:39:32Z</time>
      </trkpt>
      <trkpt lat="45.14317" lon="4.56946">
        <ele>722.69299316406</ele>
        <time>2009-08-12T13:39:46Z</time>
      </trkpt>
      <trkpt lat="45.14341" lon="4.56872">
        <ele>724.62298583984</ele>
        <time>2009-08-12T13:40:03Z</time>
      </trkpt>
      <trkpt lat="45.14315" lon="4.56838">
        <ele>725.17901611328</ele>
        <time>2009-08-12T13:40:13Z</time>
      </trkpt>
      <trkpt lat="45.14284" lon="4.56851">
        <ele>726.54901123047</ele>
        <time>2009-08-12T13:40:21Z</time>
      </trkpt>
      <trkpt lat="45.14228" lon="4.56905">
        <ele>729.83801269531</ele>
        <time>2009-08-12T13:40:38Z</time>
      </trkpt>
      <trkpt lat="45.14193" lon="4.56957">
        <ele>733.13397216797</ele>
        <time>2009-08-12T13:40:52Z</time>
      </trkpt>
      <trkpt lat="45.14163" lon="4.57007">
        <ele>736.02197265625</ele>
        <time>2009-08-12T13:41:06Z</time>
      </trkpt>
      <trkpt lat="45.14124" lon="4.57034">
        <ele>738.65399169922</ele>
        <time>2009-08-12T13:41:20Z</time>
      </trkpt>
      <trkpt lat="45.14086" lon="4.57015">
        <ele>741.45202636719</ele>
        <time>2009-08-12T13:41:34Z</time>
      </trkpt>
      <trkpt lat="45.14061" lon="4.56971">
        <ele>744.00598144531</ele>
        <time>2009-08-12T13:41:48Z</time>
      </trkpt>
      <trkpt lat="45.14015" lon="4.56952">
        <ele>748.46899414062</ele>
        <time>2009-08-12T13:42:04Z</time>
      </trkpt>
      <trkpt lat="45.13959" lon="4.56949">
        <ele>752.37097167969</ele>
        <time>2009-08-12T13:42:22Z</time>
      </trkpt>
      <trkpt lat="45.13913" lon="4.56945">
        <ele>755.02398681641</ele>
        <time>2009-08-12T13:42:36Z</time>
      </trkpt>
      <trkpt lat="45.13903" lon="4.56939">
        <ele>755.87799072266</ele>
        <time>2009-08-12T13:42:39Z</time>
      </trkpt>
      <trkpt lat="45.13875" lon="4.56904">
        <ele>758.83697509766</ele>
        <time>2009-08-12T13:42:51Z</time>
      </trkpt>
      <trkpt lat="45.13867" lon="4.56867">
        <ele>760.83099365234</ele>
        <time>2009-08-12T13:42:59Z</time>
      </trkpt>
      <trkpt lat="45.13854" lon="4.56787">
        <ele>765.13800048828</ele>
        <time>2009-08-12T13:43:16Z</time>
      </trkpt>
      <trkpt lat="45.13835" lon="4.56699">
        <ele>769.99102783203</ele>
        <time>2009-08-12T13:43:37Z</time>
      </trkpt>
      <trkpt lat="45.13804" lon="4.56634">
        <ele>773.27301025391</ele>
        <time>2009-08-12T13:43:56Z</time>
      </trkpt>
      <trkpt lat="45.13755" lon="4.56555">
        <ele>775.02801513672</ele>
        <time>2009-08-12T13:44:15Z</time>
      </trkpt>
      <trkpt lat="45.13701" lon="4.56493">
        <ele>778.92999267578</ele>
        <time>2009-08-12T13:44:34Z</time>
      </trkpt>
      <trkpt lat="45.13692" lon="4.56489">
        <ele>780.31500244141</ele>
        <time>2009-08-12T13:44:37Z</time>
      </trkpt>
      <trkpt lat="45.13646" lon="4.56468">
        <ele>784.12097167969</ele>
        <time>2009-08-12T13:44:53Z</time>
      </trkpt>
      <trkpt lat="45.13599" lon="4.56452">
        <ele>786.80200195312</ele>
        <time>2009-08-12T13:45:08Z</time>
      </trkpt>
      <trkpt lat="45.13595" lon="4.56451">
        <ele>786.80798339844</ele>
        <time>2009-08-12T13:45:09Z</time>
      </trkpt>
      <trkpt lat="45.13578" lon="4.56454">
        <ele>787.01501464844</ele>
        <time>2009-08-12T13:45:13Z</time>
      </trkpt>
      <trkpt lat="45.13556" lon="4.56501">
        <ele>787.56500244141</ele>
        <time>2009-08-12T13:45:23Z</time>
      </trkpt>
      <trkpt lat="45.1357" lon="4.56563">
        <ele>786.97302246094</ele>
        <time>2009-08-12T13:45:32Z</time>
      </trkpt>
      <trkpt lat="45.13575" lon="4.566">
        <ele>787.32598876953</ele>
        <time>2009-08-12T13:45:37Z</time>
      </trkpt>
      <trkpt lat="45.13573" lon="4.56644">
        <ele>787.67102050781</ele>
        <time>2009-08-12T13:45:43Z</time>
      </trkpt>
      <trkpt lat="45.13557" lon="4.56711">
        <ele>790.69000244141</ele>
        <time>2009-08-12T13:45:55Z</time>
      </trkpt>
      <trkpt lat="45.13547" lon="4.5673">
        <ele>791.24798583984</ele>
        <time>2009-08-12T13:45:59Z</time>
      </trkpt>
      <trkpt lat="45.13538" lon="4.56743">
        <ele>791.68200683594</ele>
        <time>2009-08-12T13:46:02Z</time>
      </trkpt>
      <trkpt lat="45.13488" lon="4.56783">
        <ele>795.38800048828</ele>
        <time>2009-08-12T13:46:17Z</time>
      </trkpt>
      <trkpt lat="45.13456" lon="4.56823">
        <ele>797.96600341797</ele>
        <time>2009-08-12T13:46:30Z</time>
      </trkpt>
      <trkpt lat="45.13432" lon="4.56862">
        <ele>800.42999267578</ele>
        <time>2009-08-12T13:46:41Z</time>
      </trkpt>
      <trkpt lat="45.13417" lon="4.56893">
        <ele>801.99499511719</ele>
        <time>2009-08-12T13:46:49Z</time>
      </trkpt>
      <trkpt lat="45.13387" lon="4.56948">
        <ele>805.54498291016</ele>
        <time>2009-08-12T13:47:02Z</time>
      </trkpt>
      <trkpt lat="45.13355" lon="4.57009">
        <ele>808.77398681641</ele>
        <time>2009-08-12T13:47:18Z</time>
      </trkpt>
      <trkpt lat="45.13319" lon="4.57063">
        <ele>812.85900878906</ele>
        <time>2009-08-12T13:47:34Z</time>
      </trkpt>
      <trkpt lat="45.13274" lon="4.57079">
        <ele>816.27301025391</ele>
        <time>2009-08-12T13:47:48Z</time>
      </trkpt>
      <trkpt lat="45.13244" lon="4.57039">
        <ele>819.65600585938</ele>
        <time>2009-08-12T13:48:03Z</time>
      </trkpt>
      <trkpt lat="45.13225" lon="4.56973">
        <ele>823.11199951172</ele>
        <time>2009-08-12T13:48:20Z</time>
      </trkpt>
      <trkpt lat="45.132" lon="4.56901">
        <ele>826.85400390625</ele>
        <time>2009-08-12T13:48:38Z</time>
      </trkpt>
      <trkpt lat="45.13184" lon="4.56826">
        <ele>830.84899902344</ele>
        <time>2009-08-12T13:48:55Z</time>
      </trkpt>
      <trkpt lat="45.13181" lon="4.5674">
        <ele>833.71002197266</ele>
        <time>2009-08-12T13:49:13Z</time>
      </trkpt>
      <trkpt lat="45.13202" lon="4.56663">
        <ele>837.57000732422</ele>
        <time>2009-08-12T13:49:31Z</time>
      </trkpt>
      <trkpt lat="45.13229" lon="4.56587">
        <ele>841.48797607422</ele>
        <time>2009-08-12T13:49:49Z</time>
      </trkpt>
      <trkpt lat="45.13238" lon="4.565">
        <ele>845.11297607422</ele>
        <time>2009-08-12T13:50:08Z</time>
      </trkpt>
      <trkpt lat="45.13212" lon="4.5641">
        <ele>849.80200195312</ele>
        <time>2009-08-12T13:50:29Z</time>
      </trkpt>
      <trkpt lat="45.13177" lon="4.56333">
        <ele>853.43103027344</ele>
        <time>2009-08-12T13:50:48Z</time>
      </trkpt>
      <trkpt lat="45.13139" lon="4.56253">
        <ele>858.291015625</ele>
        <time>2009-08-12T13:51:08Z</time>
      </trkpt>
      <trkpt lat="45.13129" lon="4.56189">
        <ele>861.82800292969</ele>
        <time>2009-08-12T13:51:22Z</time>
      </trkpt>
      <trkpt lat="45.13165" lon="4.56132">
        <ele>866.18103027344</ele>
        <time>2009-08-12T13:51:38Z</time>
      </trkpt>
      <trkpt lat="45.13205" lon="4.56052">
        <ele>870.333984375</ele>
        <time>2009-08-12T13:51:58Z</time>
      </trkpt>
      <trkpt lat="45.13229" lon="4.56006">
        <ele>872.94897460938</ele>
        <time>2009-08-12T13:52:09Z</time>
      </trkpt>
      <trkpt lat="45.13281" lon="4.55922">
        <ele>878.53698730469</ele>
        <time>2009-08-12T13:52:32Z</time>
      </trkpt>
      <trkpt lat="45.13319" lon="4.55845">
        <ele>883.57202148438</ele>
        <time>2009-08-12T13:52:51Z</time>
      </trkpt>
      <trkpt lat="45.13345" lon="4.55784">
        <ele>886.26599121094</ele>
        <time>2009-08-12T13:53:07Z</time>
      </trkpt>
      <trkpt lat="45.13375" lon="4.55719">
        <ele>890.33197021484</ele>
        <time>2009-08-12T13:53:25Z</time>
      </trkpt>
      <trkpt lat="45.13403" lon="4.55674">
        <ele>892.95697021484</ele>
        <time>2009-08-12T13:53:40Z</time>
      </trkpt>
      <trkpt lat="45.13435" lon="4.55618">
        <ele>895.96002197266</ele>
        <time>2009-08-12T13:53:57Z</time>
      </trkpt>
      <trkpt lat="45.13449" lon="4.5556">
        <ele>898.38598632812</ele>
        <time>2009-08-12T13:54:12Z</time>
      </trkpt>
      <trkpt lat="45.13429" lon="4.55511">
        <ele>900.56298828125</ele>
        <time>2009-08-12T13:54:24Z</time>
      </trkpt>
      <trkpt lat="45.1339" lon="4.55484">
        <ele>902.66998291016</ele>
        <time>2009-08-12T13:54:37Z</time>
      </trkpt>
      <trkpt lat="45.13334" lon="4.55479">
        <ele>906.60498046875</ele>
        <time>2009-08-12T13:54:53Z</time>
      </trkpt>
      <trkpt lat="45.1327" lon="4.55453">
        <ele>910.82897949219</ele>
        <time>2009-08-12T13:55:13Z</time>
      </trkpt>
      <trkpt lat="45.13234" lon="4.55406">
        <ele>914.05297851562</ele>
        <time>2009-08-12T13:55:29Z</time>
      </trkpt>
      <trkpt lat="45.13207" lon="4.55372">
        <ele>916.20697021484</ele>
        <time>2009-08-12T13:55:42Z</time>
      </trkpt>
      <trkpt lat="45.13179" lon="4.55342">
        <ele>918.53802490234</ele>
        <time>2009-08-12T13:55:54Z</time>
      </trkpt>
      <trkpt lat="45.13166" lon="4.55331">
        <ele>919.96398925781</ele>
        <time>2009-08-12T13:56:03Z</time>
      </trkpt>
      <trkpt lat="45.13162" lon="4.55337">
        <ele>920.84698486328</ele>
        <time>2009-08-12T13:56:44Z</time>
      </trkpt>
      <trkpt lat="45.13158" lon="4.55338">
        <ele>920.75500488281</ele>
        <time>2009-08-12T13:56:46Z</time>
      </trkpt>
      <trkpt lat="45.13127" lon="4.55362">
        <ele>922.80700683594</ele>
        <time>2009-08-12T13:56:58Z</time>
      </trkpt>
      <trkpt lat="45.13093" lon="4.55412">
        <ele>925.98602294922</ele>
        <time>2009-08-12T13:57:13Z</time>
      </trkpt>
      <trkpt lat="45.13063" lon="4.55451">
        <ele>928.78302001953</ele>
        <time>2009-08-12T13:57:25Z</time>
      </trkpt>
      <trkpt lat="45.13041" lon="4.55468">
        <ele>930.41400146484</ele>
        <time>2009-08-12T13:57:32Z</time>
      </trkpt>
      <trkpt lat="45.13005" lon="4.55478">
        <ele>933.02099609375</ele>
        <time>2009-08-12T13:57:43Z</time>
      </trkpt>
      <trkpt lat="45.12978" lon="4.5548">
        <ele>933.10198974609</ele>
        <time>2009-08-12T13:57:51Z</time>
      </trkpt>
      <trkpt lat="45.12923" lon="4.55469">
        <ele>938.96301269531</ele>
        <time>2009-08-12T13:58:08Z</time>
      </trkpt>
      <trkpt lat="45.12879" lon="4.55439">
        <ele>942.78198242188</ele>
        <time>2009-08-12T13:58:23Z</time>
      </trkpt>
      <trkpt lat="45.1284" lon="4.55391">
        <ele>946.10498046875</ele>
        <time>2009-08-12T13:58:39Z</time>
      </trkpt>
      <trkpt lat="45.12807" lon="4.55339">
        <ele>949.25402832031</ele>
        <time>2009-08-12T13:58:55Z</time>
      </trkpt>
      <trkpt lat="45.12779" lon="4.55289">
        <ele>952.19396972656</ele>
        <time>2009-08-12T13:59:09Z</time>
      </trkpt>
      <trkpt lat="45.12751" lon="4.55243">
        <ele>954.90698242188</ele>
        <time>2009-08-12T13:59:22Z</time>
      </trkpt>
      <trkpt lat="45.12719" lon="4.55191">
        <ele>958.34698486328</ele>
        <time>2009-08-12T13:59:37Z</time>
      </trkpt>
      <trkpt lat="45.12701" lon="4.55133">
        <ele>961.51300048828</ele>
        <time>2009-08-12T13:59:51Z</time>
      </trkpt>
      <trkpt lat="45.127" lon="4.55064">
        <ele>965.15997314453</ele>
        <time>2009-08-12T14:00:06Z</time>
      </trkpt>
      <trkpt lat="45.12696" lon="4.54997">
        <ele>967.93701171875</ele>
        <time>2009-08-12T14:00:21Z</time>
      </trkpt>
      <trkpt lat="45.12665" lon="4.54951">
        <ele>970.75</ele>
        <time>2009-08-12T14:00:35Z</time>
      </trkpt>
      <trkpt lat="45.12626" lon="4.54897">
        <ele>974.35498046875</ele>
        <time>2009-08-12T14:00:50Z</time>
      </trkpt>
      <trkpt lat="45.12602" lon="4.54838">
        <ele>977.53100585938</ele>
        <time>2009-08-12T14:01:05Z</time>
      </trkpt>
      <trkpt lat="45.12601" lon="4.54767">
        <ele>981.27001953125</ele>
        <time>2009-08-12T14:01:21Z</time>
      </trkpt>
      <trkpt lat="45.1261" lon="4.54715">
        <ele>983.93499755859</ele>
        <time>2009-08-12T14:01:33Z</time>
      </trkpt>
      <trkpt lat="45.12621" lon="4.54652">
        <ele>987.18103027344</ele>
        <time>2009-08-12T14:01:47Z</time>
      </trkpt>
      <trkpt lat="45.1263" lon="4.54591">
        <ele>990.31298828125</ele>
        <time>2009-08-12T14:02:02Z</time>
      </trkpt>
      <trkpt lat="45.1264" lon="4.54542">
        <ele>992.86102294922</ele>
        <time>2009-08-12T14:02:14Z</time>
      </trkpt>
      <trkpt lat="45.12617" lon="4.545">
        <ele>994.53601074219</ele>
        <time>2009-08-12T14:02:26Z</time>
      </trkpt>
      <trkpt lat="45.12579" lon="4.54484">
        <ele>997.11297607422</ele>
        <time>2009-08-12T14:02:40Z</time>
      </trkpt>
      <trkpt lat="45.12545" lon="4.54468">
        <ele>999.56500244141</ele>
        <time>2009-08-12T14:02:53Z</time>
      </trkpt>
      <trkpt lat="45.12511" lon="4.54442">
        <ele>1002.1220092773</ele>
        <time>2009-08-12T14:03:06Z</time>
      </trkpt>
      <trkpt lat="45.12493" lon="4.5439">
        <ele>1005.1270141602</ele>
        <time>2009-08-12T14:03:20Z</time>
      </trkpt>
      <trkpt lat="45.12491" lon="4.54328">
        <ele>1007.8530273438</ele>
        <time>2009-08-12T14:03:34Z</time>
      </trkpt>
      <trkpt lat="45.12497" lon="4.54271">
        <ele>1010.6060180664</ele>
        <time>2009-08-12T14:03:48Z</time>
      </trkpt>
      <trkpt lat="45.12506" lon="4.54224">
        <ele>1012.8540039062</ele>
        <time>2009-08-12T14:04:00Z</time>
      </trkpt>
      <trkpt lat="45.12522" lon="4.54163">
        <ele>1016.0269775391</ele>
        <time>2009-08-12T14:04:15Z</time>
      </trkpt>
      <trkpt lat="45.12505" lon="4.54112">
        <ele>1018.3859863281</ele>
        <time>2009-08-12T14:04:27Z</time>
      </trkpt>
      <trkpt lat="45.12488" lon="4.54048">
        <ele>1022.083984375</ele>
        <time>2009-08-12T14:04:43Z</time>
      </trkpt>
      <trkpt lat="45.12469" lon="4.54005">
        <ele>1022.9810180664</ele>
        <time>2009-08-12T14:04:53Z</time>
      </trkpt>
      <trkpt lat="45.12427" lon="4.53977">
        <ele>1025.833984375</ele>
        <time>2009-08-12T14:05:07Z</time>
      </trkpt>
      <trkpt lat="45.12398" lon="4.53921">
        <ele>1029.2650146484</ele>
        <time>2009-08-12T14:05:23Z</time>
      </trkpt>
      <trkpt lat="45.12358" lon="4.53899">
        <ele>1032.3759765625</ele>
        <time>2009-08-12T14:05:37Z</time>
      </trkpt>
      <trkpt lat="45.12302" lon="4.53932">
        <ele>1034.9689941406</ele>
        <time>2009-08-12T14:05:54Z</time>
      </trkpt>
      <trkpt lat="45.12289" lon="4.5394">
        <ele>1037.1979980469</ele>
        <time>2009-08-12T14:05:58Z</time>
      </trkpt>
      <trkpt lat="45.12242" lon="4.53955">
        <ele>1040.3060302734</ele>
        <time>2009-08-12T14:06:12Z</time>
      </trkpt>
      <trkpt lat="45.12209" lon="4.53913">
        <ele>1043.5639648438</ele>
        <time>2009-08-12T14:06:25Z</time>
      </trkpt>
      <trkpt lat="45.1217" lon="4.53842">
        <ele>1048.4689941406</ele>
        <time>2009-08-12T14:06:45Z</time>
      </trkpt>
      <trkpt lat="45.12125" lon="4.53835">
        <ele>1051.0949707031</ele>
        <time>2009-08-12T14:06:59Z</time>
      </trkpt>
      <trkpt lat="45.12087" lon="4.53796">
        <ele>1054.1409912109</ele>
        <time>2009-08-12T14:07:13Z</time>
      </trkpt>
      <trkpt lat="45.12043" lon="4.53732">
        <ele>1058.5030517578</ele>
        <time>2009-08-12T14:07:32Z</time>
      </trkpt>
      <trkpt lat="45.12001" lon="4.53678">
        <ele>1062.1750488281</ele>
        <time>2009-08-12T14:07:49Z</time>
      </trkpt>
      <trkpt lat="45.11952" lon="4.53644">
        <ele>1066.1190185547</ele>
        <time>2009-08-12T14:08:05Z</time>
      </trkpt>
      <trkpt lat="45.11916" lon="4.536">
        <ele>1069.0009765625</ele>
        <time>2009-08-12T14:08:19Z</time>
      </trkpt>
      <trkpt lat="45.11917" lon="4.53563">
        <ele>1070.0539550781</ele>
        <time>2009-08-12T14:08:26Z</time>
      </trkpt>
      <trkpt lat="45.11938" lon="4.53528">
        <ele>1068.3699951172</ele>
        <time>2009-08-12T14:08:33Z</time>
      </trkpt>
      <trkpt lat="45.11991" lon="4.53494">
        <ele>1068.9219970703</ele>
        <time>2009-08-12T14:08:45Z</time>
      </trkpt>
      <trkpt lat="45.11997" lon="4.53464">
        <ele>1068.0679931641</ele>
        <time>2009-08-12T14:08:50Z</time>
      </trkpt>
      <trkpt lat="45.11994" lon="4.53449">
        <ele>1066.9659423828</ele>
        <time>2009-08-12T14:08:52Z</time>
      </trkpt>
      <trkpt lat="45.11984" lon="4.53435">
        <ele>1066.9439697266</ele>
        <time>2009-08-12T14:08:58Z</time>
      </trkpt>
      <trkpt lat="45.1198" lon="4.5344">
        <ele>1067.4899902344</ele>
        <time>2009-08-12T14:09:05Z</time>
      </trkpt>
      <trkpt lat="45.11981" lon="4.53441">
        <ele>1067.5260009766</ele>
        <time>2009-08-12T14:09:07Z</time>
      </trkpt>
      <trkpt lat="45.1198" lon="4.53444">
        <ele>1067.7130126953</ele>
        <time>2009-08-12T14:09:52Z</time>
      </trkpt>
      <trkpt lat="45.11981" lon="4.53448">
        <ele>1067.5689697266</ele>
        <time>2009-08-12T14:10:03Z</time>
      </trkpt>
      <trkpt lat="45.11982" lon="4.53449">
        <ele>1067.6929931641</ele>
        <time>2009-08-12T14:10:06Z</time>
      </trkpt>
      <trkpt lat="45.11983" lon="4.53452">
        <ele>1067.5030517578</ele>
        <time>2009-08-12T14:10:14Z</time>
      </trkpt>
      <trkpt lat="45.11983" lon="4.53453">
        <ele>1067.4870605469</ele>
        <time>2009-08-12T14:10:16Z</time>
      </trkpt>
      <trkpt lat="45.11994" lon="4.53456">
        <ele>1068.001953125</ele>
        <time>2009-08-12T14:10:26Z</time>
      </trkpt>
      <trkpt lat="45.11998" lon="4.53481">
        <ele>1070.1710205078</ele>
        <time>2009-08-12T14:10:33Z</time>
      </trkpt>
      <trkpt lat="45.11997" lon="4.53487">
        <ele>1070.6569824219</ele>
        <time>2009-08-12T14:10:37Z</time>
      </trkpt>
      <trkpt lat="45.12004" lon="4.53491">
        <ele>1069.7860107422</ele>
        <time>2009-08-12T14:10:44Z</time>
      </trkpt>
      <trkpt lat="45.12031" lon="4.53464">
        <ele>1071.7349853516</ele>
        <time>2009-08-12T14:10:52Z</time>
      </trkpt>
      <trkpt lat="45.1204" lon="4.53456">
        <ele>1072.2010498047</ele>
        <time>2009-08-12T14:10:56Z</time>
      </trkpt>
      <trkpt lat="45.12043" lon="4.53459">
        <ele>1072.501953125</ele>
        <time>2009-08-12T14:11:01Z</time>
      </trkpt>
      <trkpt lat="45.12047" lon="4.53454">
        <ele>1075.8079833984</ele>
        <time>2009-08-12T14:17:40Z</time>
      </trkpt>
      <trkpt lat="45.12046" lon="4.53454">
        <ele>1076.0209960938</ele>
        <time>2009-08-12T14:17:41Z</time>
      </trkpt>
      <trkpt lat="45.12046" lon="4.53454">
        <ele>1076.1469726562</ele>
        <time>2009-08-12T14:17:43Z</time>
      </trkpt>
      <trkpt lat="45.12039" lon="4.53453">
        <ele>1075.6419677734</ele>
        <time>2009-08-12T14:17:48Z</time>
      </trkpt>
      <trkpt lat="45.12027" lon="4.53464">
        <ele>1075.4210205078</ele>
        <time>2009-08-12T14:17:52Z</time>
      </trkpt>
      <trkpt lat="45.12021" lon="4.53472">
        <ele>1074.66796875</ele>
        <time>2009-08-12T14:17:54Z</time>
      </trkpt>
      <trkpt lat="45.12003" lon="4.53485">
        <ele>1074.2810058594</ele>
        <time>2009-08-12T14:17:58Z</time>
      </trkpt>
      <trkpt lat="45.11946" lon="4.53518">
        <ele>1073.6879882812</ele>
        <time>2009-08-12T14:18:08Z</time>
      </trkpt>
      <trkpt lat="45.11928" lon="4.53538">
        <ele>1074.2290039062</ele>
        <time>2009-08-12T14:18:12Z</time>
      </trkpt>
      <trkpt lat="45.11899" lon="4.53578">
        <ele>1075.5660400391</ele>
        <time>2009-08-12T14:18:24Z</time>
      </trkpt>
      <trkpt lat="45.11858" lon="4.53601">
        <ele>1075.9909667969</ele>
        <time>2009-08-12T14:18:37Z</time>
      </trkpt>
      <trkpt lat="45.11818" lon="4.53613">
        <ele>1076.9730224609</ele>
        <time>2009-08-12T14:18:47Z</time>
      </trkpt>
      <trkpt lat="45.1179" lon="4.53617">
        <ele>1077.0279541016</ele>
        <time>2009-08-12T14:18:53Z</time>
      </trkpt>
      <trkpt lat="45.11772" lon="4.5362">
        <ele>1075.2320556641</ele>
        <time>2009-08-12T14:18:56Z</time>
      </trkpt>
      <trkpt lat="45.11766" lon="4.53622">
        <ele>1074.8439941406</ele>
        <time>2009-08-12T14:18:57Z</time>
      </trkpt>
      <trkpt lat="45.11739" lon="4.53632">
        <ele>1074.7829589844</ele>
        <time>2009-08-12T14:19:01Z</time>
      </trkpt>
      <trkpt lat="45.11713" lon="4.53653">
        <ele>1074.666015625</ele>
        <time>2009-08-12T14:19:05Z</time>
      </trkpt>
      <trkpt lat="45.11688" lon="4.53701">
        <ele>1075.1369628906</ele>
        <time>2009-08-12T14:19:10Z</time>
      </trkpt>
      <trkpt lat="45.11668" lon="4.53777">
        <ele>1074.0209960938</ele>
        <time>2009-08-12T14:19:16Z</time>
      </trkpt>
      <trkpt lat="45.11675" lon="4.53864">
        <ele>1073.4959716797</ele>
        <time>2009-08-12T14:19:22Z</time>
      </trkpt>
      <trkpt lat="45.11679" lon="4.53879">
        <ele>1073.1300048828</ele>
        <time>2009-08-12T14:19:23Z</time>
      </trkpt>
      <trkpt lat="45.11706" lon="4.53965">
        <ele>1072.66796875</ele>
        <time>2009-08-12T14:19:29Z</time>
      </trkpt>
      <trkpt lat="45.11715" lon="4.54024">
        <ele>1071.6330566406</ele>
        <time>2009-08-12T14:19:33Z</time>
      </trkpt>
      <trkpt lat="45.11718" lon="4.54234">
        <ele>1071.6440429688</ele>
        <time>2009-08-12T14:19:48Z</time>
      </trkpt>
      <trkpt lat="45.11679" lon="4.54281">
        <ele>1071.6750488281</ele>
        <time>2009-08-12T14:19:54Z</time>
      </trkpt>
      <trkpt lat="45.11631" lon="4.54288">
        <ele>1070.4940185547</ele>
        <time>2009-08-12T14:19:59Z</time>
      </trkpt>
      <trkpt lat="45.11593" lon="4.54311">
        <ele>1068.1090087891</ele>
        <time>2009-08-12T14:20:03Z</time>
      </trkpt>
      <trkpt lat="45.11568" lon="4.54337">
        <ele>1066.8000488281</ele>
        <time>2009-08-12T14:20:06Z</time>
      </trkpt>
      <trkpt lat="45.11543" lon="4.54367">
        <ele>1065.5579833984</ele>
        <time>2009-08-12T14:20:09Z</time>
      </trkpt>
      <trkpt lat="45.11475" lon="4.54378">
        <ele>1062.3640136719</ele>
        <time>2009-08-12T14:20:15Z</time>
      </trkpt>
      <trkpt lat="45.11452" lon="4.54366">
        <ele>1061.7080078125</ele>
        <time>2009-08-12T14:20:17Z</time>
      </trkpt>
      <trkpt lat="45.11404" lon="4.54361">
        <ele>1060.1099853516</ele>
        <time>2009-08-12T14:20:21Z</time>
      </trkpt>
      <trkpt lat="45.11343" lon="4.54386">
        <ele>1057.5679931641</ele>
        <time>2009-08-12T14:20:26Z</time>
      </trkpt>
      <trkpt lat="45.1132" lon="4.54404">
        <ele>1056.2700195312</ele>
        <time>2009-08-12T14:20:28Z</time>
      </trkpt>
      <trkpt lat="45.1129" lon="4.5444">
        <ele>1054.2800292969</ele>
        <time>2009-08-12T14:20:31Z</time>
      </trkpt>
      <trkpt lat="45.11263" lon="4.54483">
        <ele>1051.0629882812</ele>
        <time>2009-08-12T14:20:34Z</time>
      </trkpt>
      <trkpt lat="45.11208" lon="4.54478">
        <ele>1049.7609863281</ele>
        <time>2009-08-12T14:20:39Z</time>
      </trkpt>
      <trkpt lat="45.11195" lon="4.54435">
        <ele>1050.3890380859</ele>
        <time>2009-08-12T14:20:42Z</time>
      </trkpt>
      <trkpt lat="45.1117" lon="4.54336">
        <ele>1049.5579833984</ele>
        <time>2009-08-12T14:20:49Z</time>
      </trkpt>
      <trkpt lat="45.1116" lon="4.54277">
        <ele>1048.91796875</ele>
        <time>2009-08-12T14:20:53Z</time>
      </trkpt>
      <trkpt lat="45.11161" lon="4.542">
        <ele>1046.5150146484</ele>
        <time>2009-08-12T14:20:58Z</time>
      </trkpt>
      <trkpt lat="45.11142" lon="4.5416">
        <ele>1045.1390380859</ele>
        <time>2009-08-12T14:21:02Z</time>
      </trkpt>
      <trkpt lat="45.11113" lon="4.54167">
        <ele>1043.9479980469</ele>
        <time>2009-08-12T14:21:05Z</time>
      </trkpt>
      <trkpt lat="45.10992" lon="4.5423">
        <ele>1041.0100097656</ele>
        <time>2009-08-12T14:21:16Z</time>
      </trkpt>
      <trkpt lat="45.10934" lon="4.54285">
        <ele>1038.9840087891</ele>
        <time>2009-08-12T14:21:22Z</time>
      </trkpt>
      <trkpt lat="45.10902" lon="4.54308">
        <ele>1037.9150390625</ele>
        <time>2009-08-12T14:21:25Z</time>
      </trkpt>
      <trkpt lat="45.10872" lon="4.54337">
        <ele>1035.2199707031</ele>
        <time>2009-08-12T14:21:28Z</time>
      </trkpt>
      <trkpt lat="45.10817" lon="4.54336">
        <ele>1030.1130371094</ele>
        <time>2009-08-12T14:21:33Z</time>
      </trkpt>
      <trkpt lat="45.10795" lon="4.54321">
        <ele>1028.8859863281</ele>
        <time>2009-08-12T14:21:35Z</time>
      </trkpt>
      <trkpt lat="45.107" lon="4.54246">
        <ele>1017.5310058594</ele>
        <time>2009-08-12T14:21:43Z</time>
      </trkpt>
      <trkpt lat="45.10686" lon="4.54239">
        <ele>1017.4210205078</ele>
        <time>2009-08-12T14:21:44Z</time>
      </trkpt>
      <trkpt lat="45.10645" lon="4.54219">
        <ele>1015.9810180664</ele>
        <time>2009-08-12T14:21:47Z</time>
      </trkpt>
      <trkpt lat="45.1054" lon="4.5419">
        <ele>1013.9730224609</ele>
        <time>2009-08-12T14:21:55Z</time>
      </trkpt>
      <trkpt lat="45.10516" lon="4.54189">
        <ele>1012.7030029297</ele>
        <time>2009-08-12T14:21:57Z</time>
      </trkpt>
      <trkpt lat="45.1048" lon="4.54188">
        <ele>1012.3319702148</ele>
        <time>2009-08-12T14:22:00Z</time>
      </trkpt>
      <trkpt lat="45.10437" lon="4.54192">
        <ele>1013.2680053711</ele>
        <time>2009-08-12T14:22:04Z</time>
      </trkpt>
      <trkpt lat="45.10402" lon="4.54217">
        <ele>1012.5380249023</ele>
        <time>2009-08-12T14:22:08Z</time>
      </trkpt>
      <trkpt lat="45.10381" lon="4.54242">
        <ele>1013.3419799805</ele>
        <time>2009-08-12T14:22:11Z</time>
      </trkpt>
      <trkpt lat="45.10357" lon="4.5426">
        <ele>1013.8079833984</ele>
        <time>2009-08-12T14:22:14Z</time>
      </trkpt>
      <trkpt lat="45.10312" lon="4.54247">
        <ele>1014.6140136719</ele>
        <time>2009-08-12T14:22:19Z</time>
      </trkpt>
      <trkpt lat="45.10246" lon="4.54191">
        <ele>1014.1859741211</ele>
        <time>2009-08-12T14:22:27Z</time>
      </trkpt>
      <trkpt lat="45.10206" lon="4.54154">
        <ele>1013.8499755859</ele>
        <time>2009-08-12T14:22:32Z</time>
      </trkpt>
      <trkpt lat="45.10168" lon="4.54143">
        <ele>1016.2299804688</ele>
        <time>2009-08-12T14:22:37Z</time>
      </trkpt>
      <trkpt lat="45.10138" lon="4.54139">
        <ele>1018.9210205078</ele>
        <time>2009-08-12T14:22:43Z</time>
      </trkpt>
      <trkpt lat="45.10128" lon="4.54136">
        <ele>1019.3560180664</ele>
        <time>2009-08-12T14:22:45Z</time>
      </trkpt>
      <trkpt lat="45.10084" lon="4.54103">
        <ele>1022.4949951172</ele>
        <time>2009-08-12T14:22:58Z</time>
      </trkpt>
      <trkpt lat="45.10082" lon="4.54108">
        <ele>1021.7769775391</ele>
        <time>2009-08-12T14:23:04Z</time>
      </trkpt>
      <trkpt lat="45.10086" lon="4.54105">
        <ele>1022.3129882812</ele>
        <time>2009-08-12T14:23:54Z</time>
      </trkpt>
      <trkpt lat="45.10075" lon="4.54096">
        <ele>1022.0380249023</ele>
        <time>2009-08-12T14:24:01Z</time>
      </trkpt>
      <trkpt lat="45.10047" lon="4.54089">
        <ele>1022.0219726562</ele>
        <time>2009-08-12T14:24:09Z</time>
      </trkpt>
      <trkpt lat="45.09985" lon="4.54062">
        <ele>1019.5009765625</ele>
        <time>2009-08-12T14:24:20Z</time>
      </trkpt>
      <trkpt lat="45.09964" lon="4.54034">
        <ele>1018.0729980469</ele>
        <time>2009-08-12T14:24:24Z</time>
      </trkpt>
      <trkpt lat="45.09896" lon="4.53904">
        <ele>1014.5330200195</ele>
        <time>2009-08-12T14:24:37Z</time>
      </trkpt>
      <trkpt lat="45.0987" lon="4.53866">
        <ele>1014.3720092773</ele>
        <time>2009-08-12T14:24:44Z</time>
      </trkpt>
      <trkpt lat="45.09859" lon="4.53853">
        <ele>1013.8900146484</ele>
        <time>2009-08-12T14:24:56Z</time>
      </trkpt>
      <trkpt lat="45.09847" lon="4.53838">
        <ele>1012.9219970703</ele>
        <time>2009-08-12T14:24:59Z</time>
      </trkpt>
      <trkpt lat="45.09803" lon="4.53791">
        <ele>1010.7379760742</ele>
        <time>2009-08-12T14:25:06Z</time>
      </trkpt>
      <trkpt lat="45.09772" lon="4.53763">
        <ele>1008.7490234375</ele>
        <time>2009-08-12T14:25:10Z</time>
      </trkpt>
      <trkpt lat="45.09725" lon="4.53743">
        <ele>1006.6229858398</ele>
        <time>2009-08-12T14:25:15Z</time>
      </trkpt>
      <trkpt lat="45.09621" lon="4.53741">
        <ele>1003.1690063477</ele>
        <time>2009-08-12T14:25:25Z</time>
      </trkpt>
      <trkpt lat="45.09611" lon="4.5374">
        <ele>1003.1710205078</ele>
        <time>2009-08-12T14:25:26Z</time>
      </trkpt>
      <trkpt lat="45.09562" lon="4.53717">
        <ele>1000.9310302734</ele>
        <time>2009-08-12T14:25:31Z</time>
      </trkpt>
      <trkpt lat="45.09529" lon="4.53648">
        <ele>999.56896972656</ele>
        <time>2009-08-12T14:25:37Z</time>
      </trkpt>
      <trkpt lat="45.09521" lon="4.53573">
        <ele>997.81298828125</ele>
        <time>2009-08-12T14:25:42Z</time>
      </trkpt>
      <trkpt lat="45.09464" lon="4.53483">
        <ele>995.35998535156</ele>
        <time>2009-08-12T14:25:50Z</time>
      </trkpt>
      <trkpt lat="45.09453" lon="4.53476">
        <ele>995.36700439453</ele>
        <time>2009-08-12T14:25:51Z</time>
      </trkpt>
      <trkpt lat="45.09379" lon="4.53444">
        <ele>992.12799072266</ele>
        <time>2009-08-12T14:25:58Z</time>
      </trkpt>
      <trkpt lat="45.09349" lon="4.53431">
        <ele>991.21899414062</ele>
        <time>2009-08-12T14:26:01Z</time>
      </trkpt>
      <trkpt lat="45.09324" lon="4.53381">
        <ele>989.86199951172</ele>
        <time>2009-08-12T14:26:06Z</time>
      </trkpt>
      <trkpt lat="45.09299" lon="4.53226">
        <ele>986.90802001953</ele>
        <time>2009-08-12T14:26:17Z</time>
      </trkpt>
      <trkpt lat="45.09249" lon="4.53089">
        <ele>983.73602294922</ele>
        <time>2009-08-12T14:26:27Z</time>
      </trkpt>
      <trkpt lat="45.09211" lon="4.53034">
        <ele>981.69897460938</ele>
        <time>2009-08-12T14:26:32Z</time>
      </trkpt>
      <trkpt lat="45.09204" lon="4.52969">
        <ele>979.48101806641</ele>
        <time>2009-08-12T14:26:37Z</time>
      </trkpt>
      <trkpt lat="45.09252" lon="4.52917">
        <ele>978.07202148438</ele>
        <time>2009-08-12T14:26:43Z</time>
      </trkpt>
      <trkpt lat="45.09283" lon="4.52912">
        <ele>976.34399414062</ele>
        <time>2009-08-12T14:26:46Z</time>
      </trkpt>
      <trkpt lat="45.09317" lon="4.52898">
        <ele>977.06402587891</ele>
        <time>2009-08-12T14:26:50Z</time>
      </trkpt>
      <trkpt lat="45.0932" lon="4.52885">
        <ele>977.38397216797</ele>
        <time>2009-08-12T14:26:51Z</time>
      </trkpt>
      <trkpt lat="45.0931" lon="4.52849">
        <ele>976.15698242188</ele>
        <time>2009-08-12T14:26:54Z</time>
      </trkpt>
      <trkpt lat="45.09292" lon="4.52813">
        <ele>974.54400634766</ele>
        <time>2009-08-12T14:26:57Z</time>
      </trkpt>
      <trkpt lat="45.09285" lon="4.52801">
        <ele>974.10198974609</ele>
        <time>2009-08-12T14:26:58Z</time>
      </trkpt>
      <trkpt lat="45.09236" lon="4.52762">
        <ele>971.74597167969</ele>
        <time>2009-08-12T14:27:03Z</time>
      </trkpt>
      <trkpt lat="45.09213" lon="4.52753">
        <ele>970.15197753906</ele>
        <time>2009-08-12T14:27:05Z</time>
      </trkpt>
      <trkpt lat="45.09169" lon="4.52698">
        <ele>966.63800048828</ele>
        <time>2009-08-12T14:27:10Z</time>
      </trkpt>
      <trkpt lat="45.09151" lon="4.52656">
        <ele>965.33898925781</ele>
        <time>2009-08-12T14:27:13Z</time>
      </trkpt>
      <trkpt lat="45.09144" lon="4.52594">
        <ele>965.93798828125</ele>
        <time>2009-08-12T14:27:17Z</time>
      </trkpt>
      <trkpt lat="45.09143" lon="4.52533">
        <ele>966.00402832031</ele>
        <time>2009-08-12T14:27:21Z</time>
      </trkpt>
      <trkpt lat="45.09141" lon="4.52434">
        <ele>965.28997802734</ele>
        <time>2009-08-12T14:27:28Z</time>
      </trkpt>
      <trkpt lat="45.09114" lon="4.52394">
        <ele>965.92297363281</ele>
        <time>2009-08-12T14:27:33Z</time>
      </trkpt>
      <trkpt lat="45.09101" lon="4.52427">
        <ele>965.38800048828</ele>
        <time>2009-08-12T14:27:36Z</time>
      </trkpt>
      <trkpt lat="45.09061" lon="4.52525">
        <ele>965.56500244141</ele>
        <time>2009-08-12T14:27:45Z</time>
      </trkpt>
      <trkpt lat="45.09056" lon="4.52535">
        <ele>965.09600830078</ele>
        <time>2009-08-12T14:27:46Z</time>
      </trkpt>
      <trkpt lat="45.09015" lon="4.52569">
        <ele>964.80902099609</ele>
        <time>2009-08-12T14:27:51Z</time>
      </trkpt>
      <trkpt lat="45.08962" lon="4.52577">
        <ele>964.45599365234</ele>
        <time>2009-08-12T14:27:57Z</time>
      </trkpt>
      <trkpt lat="45.08922" lon="4.52562">
        <ele>963.88702392578</ele>
        <time>2009-08-12T14:28:02Z</time>
      </trkpt>
      <trkpt lat="45.08826" lon="4.52529">
        <ele>962.84899902344</ele>
        <time>2009-08-12T14:28:14Z</time>
      </trkpt>
      <trkpt lat="45.08781" lon="4.52502">
        <ele>962.60699462891</ele>
        <time>2009-08-12T14:28:20Z</time>
      </trkpt>
      <trkpt lat="45.08723" lon="4.52488">
        <ele>962.39697265625</ele>
        <time>2009-08-12T14:28:27Z</time>
      </trkpt>
      <trkpt lat="45.08613" lon="4.52477">
        <ele>961.28997802734</ele>
        <time>2009-08-12T14:28:40Z</time>
      </trkpt>
      <trkpt lat="45.08511" lon="4.52438">
        <ele>960.67199707031</ele>
        <time>2009-08-12T14:28:53Z</time>
      </trkpt>
      <trkpt lat="45.0848" lon="4.5239">
        <ele>959.64202880859</ele>
        <time>2009-08-12T14:28:59Z</time>
      </trkpt>
      <trkpt lat="45.08479" lon="4.52378">
        <ele>959.51898193359</ele>
        <time>2009-08-12T14:29:00Z</time>
      </trkpt>
      <trkpt lat="45.08478" lon="4.52293">
        <ele>959.55102539062</ele>
        <time>2009-08-12T14:29:07Z</time>
      </trkpt>
      <trkpt lat="45.08452" lon="4.52264">
        <ele>960.19000244141</ele>
        <time>2009-08-12T14:29:11Z</time>
      </trkpt>
      <trkpt lat="45.0835" lon="4.52226">
        <ele>959.69299316406</ele>
        <time>2009-08-12T14:29:23Z</time>
      </trkpt>
      <trkpt lat="45.08316" lon="4.52229">
        <ele>959.51202392578</ele>
        <time>2009-08-12T14:29:27Z</time>
      </trkpt>
      <trkpt lat="45.08231" lon="4.52319">
        <ele>958.64300537109</ele>
        <time>2009-08-12T14:29:40Z</time>
      </trkpt>
      <trkpt lat="45.08211" lon="4.52342">
        <ele>958.17700195312</ele>
        <time>2009-08-12T14:29:43Z</time>
      </trkpt>
      <trkpt lat="45.08133" lon="4.52363">
        <ele>957.94396972656</ele>
        <time>2009-08-12T14:29:53Z</time>
      </trkpt>
      <trkpt lat="45.08079" lon="4.52371">
        <ele>957.39202880859</ele>
        <time>2009-08-12T14:30:00Z</time>
      </trkpt>
      <trkpt lat="45.08059" lon="4.52414">
        <ele>957.61199951172</ele>
        <time>2009-08-12T14:30:06Z</time>
      </trkpt>
      <trkpt lat="45.08093" lon="4.52452">
        <ele>956.66998291016</ele>
        <time>2009-08-12T14:30:13Z</time>
      </trkpt>
      <trkpt lat="45.08108" lon="4.52453">
        <ele>957.36901855469</ele>
        <time>2009-08-12T14:30:15Z</time>
      </trkpt>
      <trkpt lat="45.08136" lon="4.52462">
        <ele>957.86602783203</ele>
        <time>2009-08-12T14:30:19Z</time>
      </trkpt>
      <trkpt lat="45.08161" lon="4.52507">
        <ele>957.56201171875</ele>
        <time>2009-08-12T14:30:26Z</time>
      </trkpt>
      <trkpt lat="45.08151" lon="4.52514">
        <ele>957.43200683594</ele>
        <time>2009-08-12T14:30:28Z</time>
      </trkpt>
      <trkpt lat="45.08136" lon="4.52523">
        <ele>957.31597900391</ele>
        <time>2009-08-12T14:30:30Z</time>
      </trkpt>
      <trkpt lat="45.0805" lon="4.52623">
        <ele>956.21197509766</ele>
        <time>2009-08-12T14:30:44Z</time>
      </trkpt>
      <trkpt lat="45.08038" lon="4.52636">
        <ele>956.02398681641</ele>
        <time>2009-08-12T14:30:46Z</time>
      </trkpt>
      <trkpt lat="45.07998" lon="4.52707">
        <ele>956.62097167969</ele>
        <time>2009-08-12T14:30:55Z</time>
      </trkpt>
      <trkpt lat="45.07977" lon="4.52698">
        <ele>956.46697998047</ele>
        <time>2009-08-12T14:30:58Z</time>
      </trkpt>
      <trkpt lat="45.07964" lon="4.52687">
        <ele>956.22497558594</ele>
        <time>2009-08-12T14:31:00Z</time>
      </trkpt>
      <trkpt lat="45.07951" lon="4.52677">
        <ele>955.85198974609</ele>
        <time>2009-08-12T14:31:02Z</time>
      </trkpt>
      <trkpt lat="45.07914" lon="4.52672">
        <ele>955.30102539062</ele>
        <time>2009-08-12T14:31:07Z</time>
      </trkpt>
      <trkpt lat="45.07839" lon="4.52694">
        <ele>955.07397460938</ele>
        <time>2009-08-12T14:31:17Z</time>
      </trkpt>
      <trkpt lat="45.07794" lon="4.52677">
        <ele>954.44500732422</ele>
        <time>2009-08-12T14:31:24Z</time>
      </trkpt>
      <trkpt lat="45.07792" lon="4.526">
        <ele>954.40002441406</ele>
        <time>2009-08-12T14:31:31Z</time>
      </trkpt>
      <trkpt lat="45.07779" lon="4.52536">
        <ele>954.25500488281</ele>
        <time>2009-08-12T14:31:37Z</time>
      </trkpt>
      <trkpt lat="45.07744" lon="4.52485">
        <ele>953.94299316406</ele>
        <time>2009-08-12T14:31:43Z</time>
      </trkpt>
      <trkpt lat="45.07657" lon="4.52442">
        <ele>953.51898193359</ele>
        <time>2009-08-12T14:31:54Z</time>
      </trkpt>
      <trkpt lat="45.07634" lon="4.52452">
        <ele>954.08099365234</ele>
        <time>2009-08-12T14:31:57Z</time>
      </trkpt>
      <trkpt lat="45.07607" lon="4.52427">
        <ele>952.67199707031</ele>
        <time>2009-08-12T14:32:02Z</time>
      </trkpt>
      <trkpt lat="45.07592" lon="4.52385">
        <ele>953.66400146484</ele>
        <time>2009-08-12T14:32:06Z</time>
      </trkpt>
      <trkpt lat="45.0755" lon="4.52323">
        <ele>953.45501708984</ele>
        <time>2009-08-12T14:32:13Z</time>
      </trkpt>
      <trkpt lat="45.07494" lon="4.523">
        <ele>952.91802978516</ele>
        <time>2009-08-12T14:32:20Z</time>
      </trkpt>
      <trkpt lat="45.07439" lon="4.52342">
        <ele>952.916015625</ele>
        <time>2009-08-12T14:32:27Z</time>
      </trkpt>
      <trkpt lat="45.07402" lon="4.52376">
        <ele>952.58801269531</ele>
        <time>2009-08-12T14:32:32Z</time>
      </trkpt>
      <trkpt lat="45.07386" lon="4.52383">
        <ele>952.38201904297</ele>
        <time>2009-08-12T14:32:34Z</time>
      </trkpt>
      <trkpt lat="45.07328" lon="4.52424">
        <ele>952.10101318359</ele>
        <time>2009-08-12T14:32:42Z</time>
      </trkpt>
      <trkpt lat="45.0729" lon="4.52392">
        <ele>952.083984375</ele>
        <time>2009-08-12T14:32:48Z</time>
      </trkpt>
      <trkpt lat="45.07275" lon="4.52336">
        <ele>951.33898925781</ele>
        <time>2009-08-12T14:32:53Z</time>
      </trkpt>
      <trkpt lat="45.07258" lon="4.52134">
        <ele>951.55499267578</ele>
        <time>2009-08-12T14:33:10Z</time>
      </trkpt>
      <trkpt lat="45.07259" lon="4.52104">
        <ele>951.43103027344</ele>
        <time>2009-08-12T14:33:13Z</time>
      </trkpt>
      <trkpt lat="45.07269" lon="4.52025">
        <ele>951.83599853516</ele>
        <time>2009-08-12T14:33:23Z</time>
      </trkpt>
      <trkpt lat="45.07269" lon="4.52021">
        <ele>951.73699951172</ele>
        <time>2009-08-12T14:33:24Z</time>
      </trkpt>
      <trkpt lat="45.07272" lon="4.52017">
        <ele>951.75201416016</ele>
        <time>2009-08-12T14:33:28Z</time>
      </trkpt>
      <trkpt lat="45.07273" lon="4.52013">
        <ele>951.90502929688</ele>
        <time>2009-08-12T14:34:29Z</time>
      </trkpt>
      <trkpt lat="45.07276" lon="4.5199">
        <ele>951.20599365234</ele>
        <time>2009-08-12T14:34:34Z</time>
      </trkpt>
      <trkpt lat="45.07277" lon="4.51967">
        <ele>950.89001464844</ele>
        <time>2009-08-12T14:34:37Z</time>
      </trkpt>
      <trkpt lat="45.07276" lon="4.51919">
        <ele>951.22601318359</ele>
        <time>2009-08-12T14:34:43Z</time>
      </trkpt>
      <trkpt lat="45.07257" lon="4.51743">
        <ele>950.40399169922</ele>
        <time>2009-08-12T14:35:01Z</time>
      </trkpt>
      <trkpt lat="45.07236" lon="4.51674">
        <ele>950.55102539062</ele>
        <time>2009-08-12T14:35:08Z</time>
      </trkpt>
      <trkpt lat="45.07203" lon="4.51585">
        <ele>949.82000732422</ele>
        <time>2009-08-12T14:35:17Z</time>
      </trkpt>
      <trkpt lat="45.07178" lon="4.51419">
        <ele>949.67901611328</ele>
        <time>2009-08-12T14:35:32Z</time>
      </trkpt>
      <trkpt lat="45.07175" lon="4.51407">
        <ele>949.87097167969</ele>
        <time>2009-08-12T14:35:33Z</time>
      </trkpt>
      <trkpt lat="45.0713" lon="4.51357">
        <ele>950.08502197266</ele>
        <time>2009-08-12T14:35:41Z</time>
      </trkpt>
      <trkpt lat="45.07125" lon="4.5136">
        <ele>950.375</ele>
        <time>2009-08-12T14:35:42Z</time>
      </trkpt>
      <trkpt lat="45.07113" lon="4.51369">
        <ele>950.75201416016</ele>
        <time>2009-08-12T14:35:48Z</time>
      </trkpt>
      <trkpt lat="45.0711" lon="4.51378">
        <ele>950.52697753906</ele>
        <time>2009-08-12T14:36:24Z</time>
      </trkpt>
      <trkpt lat="45.07105" lon="4.51384">
        <ele>950.26702880859</ele>
        <time>2009-08-12T14:36:26Z</time>
      </trkpt>
      <trkpt lat="45.07098" lon="4.51391">
        <ele>950.32202148438</ele>
        <time>2009-08-12T14:36:28Z</time>
      </trkpt>
      <trkpt lat="45.07067" lon="4.51442">
        <ele>949.33801269531</ele>
        <time>2009-08-12T14:36:36Z</time>
      </trkpt>
      <trkpt lat="45.07059" lon="4.51456">
        <ele>949.31896972656</ele>
        <time>2009-08-12T14:36:38Z</time>
      </trkpt>
      <trkpt lat="45.07059" lon="4.51513">
        <ele>949.13098144531</ele>
        <time>2009-08-12T14:36:44Z</time>
      </trkpt>
      <trkpt lat="45.07068" lon="4.51656">
        <ele>948.21099853516</ele>
        <time>2009-08-12T14:36:57Z</time>
      </trkpt>
      <trkpt lat="45.07035" lon="4.51763">
        <ele>948.07702636719</ele>
        <time>2009-08-12T14:37:07Z</time>
      </trkpt>
      <trkpt lat="45.06987" lon="4.51859">
        <ele>946.86102294922</ele>
        <time>2009-08-12T14:37:17Z</time>
      </trkpt>
      <trkpt lat="45.06959" lon="4.51904">
        <ele>946.74200439453</ele>
        <time>2009-08-12T14:37:22Z</time>
      </trkpt>
      <trkpt lat="45.06939" lon="4.51982">
        <ele>946.00500488281</ele>
        <time>2009-08-12T14:37:29Z</time>
      </trkpt>
      <trkpt lat="45.06945" lon="4.52163">
        <ele>943.71697998047</ele>
        <time>2009-08-12T14:37:44Z</time>
      </trkpt>
      <trkpt lat="45.06952" lon="4.52233">
        <ele>943.46600341797</ele>
        <time>2009-08-12T14:37:50Z</time>
      </trkpt>
      <trkpt lat="45.06927" lon="4.52402">
        <ele>942.33801269531</ele>
        <time>2009-08-12T14:38:05Z</time>
      </trkpt>
      <trkpt lat="45.06898" lon="4.52499">
        <ele>941.76800537109</ele>
        <time>2009-08-12T14:38:14Z</time>
      </trkpt>
      <trkpt lat="45.06849" lon="4.52538">
        <ele>941.16302490234</ele>
        <time>2009-08-12T14:38:21Z</time>
      </trkpt>
      <trkpt lat="45.0682" lon="4.52516">
        <ele>940.97698974609</ele>
        <time>2009-08-12T14:38:25Z</time>
      </trkpt>
      <trkpt lat="45.06712" lon="4.52363">
        <ele>938.46801757812</ele>
        <time>2009-08-12T14:38:42Z</time>
      </trkpt>
      <trkpt lat="45.06637" lon="4.52264">
        <ele>937.44000244141</ele>
        <time>2009-08-12T14:38:53Z</time>
      </trkpt>
      <trkpt lat="45.06576" lon="4.52242">
        <ele>937.07299804688</ele>
        <time>2009-08-12T14:39:00Z</time>
      </trkpt>
      <trkpt lat="45.06558" lon="4.52248">
        <ele>936.74102783203</ele>
        <time>2009-08-12T14:39:02Z</time>
      </trkpt>
      <trkpt lat="45.06506" lon="4.52275">
        <ele>936.02600097656</ele>
        <time>2009-08-12T14:39:08Z</time>
      </trkpt>
      <trkpt lat="45.06474" lon="4.52316">
        <ele>935.90197753906</ele>
        <time>2009-08-12T14:39:13Z</time>
      </trkpt>
      <trkpt lat="45.06442" lon="4.52389">
        <ele>935.15997314453</ele>
        <time>2009-08-12T14:39:20Z</time>
      </trkpt>
      <trkpt lat="45.06402" lon="4.5241">
        <ele>935.69097900391</ele>
        <time>2009-08-12T14:39:26Z</time>
      </trkpt>
      <trkpt lat="45.06395" lon="4.52403">
        <ele>935.41802978516</ele>
        <time>2009-08-12T14:39:27Z</time>
      </trkpt>
      <trkpt lat="45.0632" lon="4.52306">
        <ele>933.64300537109</ele>
        <time>2009-08-12T14:39:39Z</time>
      </trkpt>
      <trkpt lat="45.0629" lon="4.52284">
        <ele>933.5009765625</ele>
        <time>2009-08-12T14:39:43Z</time>
      </trkpt>
      <trkpt lat="45.06273" lon="4.52281">
        <ele>932.90399169922</ele>
        <time>2009-08-12T14:39:45Z</time>
      </trkpt>
      <trkpt lat="45.06223" lon="4.52317">
        <ele>932.31201171875</ele>
        <time>2009-08-12T14:39:52Z</time>
      </trkpt>
      <trkpt lat="45.06201" lon="4.52356">
        <ele>932.00897216797</ele>
        <time>2009-08-12T14:39:56Z</time>
      </trkpt>
      <trkpt lat="45.0619" lon="4.52389">
        <ele>932.19000244141</ele>
        <time>2009-08-12T14:39:59Z</time>
      </trkpt>
      <trkpt lat="45.06155" lon="4.5244">
        <ele>930.6259765625</ele>
        <time>2009-08-12T14:40:05Z</time>
      </trkpt>
      <trkpt lat="45.06118" lon="4.52468">
        <ele>930.75500488281</ele>
        <time>2009-08-12T14:40:10Z</time>
      </trkpt>
      <trkpt lat="45.06055" lon="4.52493">
        <ele>929.81097412109</ele>
        <time>2009-08-12T14:40:18Z</time>
      </trkpt>
      <trkpt lat="45.06048" lon="4.52499">
        <ele>930.02001953125</ele>
        <time>2009-08-12T14:40:19Z</time>
      </trkpt>
      <trkpt lat="45.0595" lon="4.52608">
        <ele>930.22601318359</ele>
        <time>2009-08-12T14:40:34Z</time>
      </trkpt>
      <trkpt lat="45.05946" lon="4.52674">
        <ele>929.07000732422</ele>
        <time>2009-08-12T14:40:40Z</time>
      </trkpt>
      <trkpt lat="45.05958" lon="4.52692">
        <ele>928.47601318359</ele>
        <time>2009-08-12T14:40:42Z</time>
      </trkpt>
      <trkpt lat="45.06003" lon="4.52811">
        <ele>928.70501708984</ele>
        <time>2009-08-12T14:40:53Z</time>
      </trkpt>
      <trkpt lat="45.06015" lon="4.52909">
        <ele>927.83502197266</ele>
        <time>2009-08-12T14:41:01Z</time>
      </trkpt>
      <trkpt lat="45.05994" lon="4.53023">
        <ele>926.14099121094</ele>
        <time>2009-08-12T14:41:10Z</time>
      </trkpt>
      <trkpt lat="45.05993" lon="4.5305">
        <ele>925.50598144531</ele>
        <time>2009-08-12T14:41:12Z</time>
      </trkpt>
      <trkpt lat="45.05981" lon="4.531">
        <ele>924.65899658203</ele>
        <time>2009-08-12T14:41:16Z</time>
      </trkpt>
      <trkpt lat="45.05941" lon="4.53169">
        <ele>924.04602050781</ele>
        <time>2009-08-12T14:41:23Z</time>
      </trkpt>
      <trkpt lat="45.05904" lon="4.53271">
        <ele>922.90698242188</ele>
        <time>2009-08-12T14:41:33Z</time>
      </trkpt>
      <trkpt lat="45.05903" lon="4.53277">
        <ele>922.66101074219</ele>
        <time>2009-08-12T14:41:34Z</time>
      </trkpt>
      <trkpt lat="45.05909" lon="4.53285">
        <ele>923.74200439453</ele>
        <time>2009-08-12T14:41:39Z</time>
      </trkpt>
      <trkpt lat="45.05909" lon="4.53285">
        <ele>922.96801757812</ele>
        <time>2009-08-12T14:42:20Z</time>
      </trkpt>
      <trkpt lat="45.05909" lon="4.53285">
        <ele>922.82397460938</ele>
        <time>2009-08-12T14:42:21Z</time>
      </trkpt>
      <trkpt lat="45.05925" lon="4.53309">
        <ele>921.56201171875</ele>
        <time>2009-08-12T14:43:44Z</time>
      </trkpt>
      <trkpt lat="45.0593" lon="4.53311">
        <ele>920.97698974609</ele>
        <time>2009-08-12T14:43:45Z</time>
      </trkpt>
      <trkpt lat="45.05999" lon="4.53327">
        <ele>920.73602294922</ele>
        <time>2009-08-12T14:43:58Z</time>
      </trkpt>
      <trkpt lat="45.06052" lon="4.53335">
        <ele>920.14300537109</ele>
        <time>2009-08-12T14:44:08Z</time>
      </trkpt>
      <trkpt lat="45.06096" lon="4.53366">
        <ele>917.95501708984</ele>
        <time>2009-08-12T14:44:16Z</time>
      </trkpt>
      <trkpt lat="45.06138" lon="4.5343">
        <ele>914.9169921875</ele>
        <time>2009-08-12T14:44:24Z</time>
      </trkpt>
      <trkpt lat="45.06162" lon="4.53463">
        <ele>915.06402587891</ele>
        <time>2009-08-12T14:44:31Z</time>
      </trkpt>
      <trkpt lat="45.06163" lon="4.53465">
        <ele>914.72497558594</ele>
        <time>2009-08-12T14:44:43Z</time>
      </trkpt>
      <trkpt lat="45.06165" lon="4.53466">
        <ele>914.35601806641</ele>
        <time>2009-08-12T14:44:44Z</time>
      </trkpt>
      <trkpt lat="45.06172" lon="4.53471">
        <ele>913.85601806641</ele>
        <time>2009-08-12T14:44:46Z</time>
      </trkpt>
      <trkpt lat="45.06218" lon="4.53512">
        <ele>910.30297851562</ele>
        <time>2009-08-12T14:44:53Z</time>
      </trkpt>
      <trkpt lat="45.06257" lon="4.53552">
        <ele>906.83197021484</ele>
        <time>2009-08-12T14:44:58Z</time>
      </trkpt>
      <trkpt lat="45.06289" lon="4.53586">
        <ele>904.80499267578</ele>
        <time>2009-08-12T14:45:02Z</time>
      </trkpt>
      <trkpt lat="45.06344" lon="4.53642">
        <ele>902.81701660156</ele>
        <time>2009-08-12T14:45:09Z</time>
      </trkpt>
      <trkpt lat="45.0637" lon="4.53654">
        <ele>900.96398925781</ele>
        <time>2009-08-12T14:45:12Z</time>
      </trkpt>
      <trkpt lat="45.06397" lon="4.53631">
        <ele>900.17999267578</ele>
        <time>2009-08-12T14:45:15Z</time>
      </trkpt>
      <trkpt lat="45.06446" lon="4.53561">
        <ele>897.35797119141</ele>
        <time>2009-08-12T14:45:22Z</time>
      </trkpt>
      <trkpt lat="45.06478" lon="4.53506">
        <ele>894.625</ele>
        <time>2009-08-12T14:45:27Z</time>
      </trkpt>
      <trkpt lat="45.0652" lon="4.53444">
        <ele>892.58801269531</ele>
        <time>2009-08-12T14:45:34Z</time>
      </trkpt>
      <trkpt lat="45.06534" lon="4.53461">
        <ele>890.93902587891</ele>
        <time>2009-08-12T14:45:36Z</time>
      </trkpt>
      <trkpt lat="45.06578" lon="4.53503">
        <ele>888.05200195312</ele>
        <time>2009-08-12T14:45:41Z</time>
      </trkpt>
      <trkpt lat="45.06586" lon="4.53512">
        <ele>887.67498779297</ele>
        <time>2009-08-12T14:45:42Z</time>
      </trkpt>
      <trkpt lat="45.06613" lon="4.53579">
        <ele>885.25402832031</ele>
        <time>2009-08-12T14:45:47Z</time>
      </trkpt>
      <trkpt lat="45.06664" lon="4.53676">
        <ele>881.69897460938</ele>
        <time>2009-08-12T14:45:55Z</time>
      </trkpt>
      <trkpt lat="45.06686" lon="4.5371">
        <ele>880.12200927734</ele>
        <time>2009-08-12T14:45:58Z</time>
      </trkpt>
      <trkpt lat="45.06711" lon="4.53762">
        <ele>877.52899169922</ele>
        <time>2009-08-12T14:46:02Z</time>
      </trkpt>
      <trkpt lat="45.06741" lon="4.53805">
        <ele>875.99798583984</ele>
        <time>2009-08-12T14:46:06Z</time>
      </trkpt>
      <trkpt lat="45.06793" lon="4.53803">
        <ele>874.42401123047</ele>
        <time>2009-08-12T14:46:11Z</time>
      </trkpt>
      <trkpt lat="45.0682" lon="4.53778">
        <ele>873.41302490234</ele>
        <time>2009-08-12T14:46:14Z</time>
      </trkpt>
      <trkpt lat="45.06858" lon="4.53754">
        <ele>871.61297607422</ele>
        <time>2009-08-12T14:46:18Z</time>
      </trkpt>
      <trkpt lat="45.06898" lon="4.53771">
        <ele>870.89099121094</ele>
        <time>2009-08-12T14:46:22Z</time>
      </trkpt>
      <trkpt lat="45.06927" lon="4.5376">
        <ele>869.43499755859</ele>
        <time>2009-08-12T14:46:25Z</time>
      </trkpt>
      <trkpt lat="45.06993" lon="4.53716">
        <ele>866.63500976562</ele>
        <time>2009-08-12T14:46:32Z</time>
      </trkpt>
      <trkpt lat="45.07002" lon="4.53708">
        <ele>866.33599853516</ele>
        <time>2009-08-12T14:46:33Z</time>
      </trkpt>
      <trkpt lat="45.07054" lon="4.53656">
        <ele>864.33099365234</ele>
        <time>2009-08-12T14:46:39Z</time>
      </trkpt>
      <trkpt lat="45.07094" lon="4.536">
        <ele>861.80603027344</ele>
        <time>2009-08-12T14:46:45Z</time>
      </trkpt>
      <trkpt lat="45.07126" lon="4.5363">
        <ele>860.53399658203</ele>
        <time>2009-08-12T14:46:51Z</time>
      </trkpt>
      <trkpt lat="45.07123" lon="4.53658">
        <ele>858.68701171875</ele>
        <time>2009-08-12T14:46:53Z</time>
      </trkpt>
      <trkpt lat="45.07124" lon="4.53733">
        <ele>856.80499267578</ele>
        <time>2009-08-12T14:46:58Z</time>
      </trkpt>
      <trkpt lat="45.07119" lon="4.53809">
        <ele>854.0419921875</ele>
        <time>2009-08-12T14:47:03Z</time>
      </trkpt>
      <trkpt lat="45.07098" lon="4.53883">
        <ele>851.77697753906</ele>
        <time>2009-08-12T14:47:08Z</time>
      </trkpt>
      <trkpt lat="45.07075" lon="4.53917">
        <ele>850.72302246094</ele>
        <time>2009-08-12T14:47:11Z</time>
      </trkpt>
      <trkpt lat="45.07042" lon="4.53959">
        <ele>847.8330078125</ele>
        <time>2009-08-12T14:47:15Z</time>
      </trkpt>
      <trkpt lat="45.07029" lon="4.53985">
        <ele>846.83099365234</ele>
        <time>2009-08-12T14:47:17Z</time>
      </trkpt>
      <trkpt lat="45.07009" lon="4.54057">
        <ele>844.67999267578</ele>
        <time>2009-08-12T14:47:22Z</time>
      </trkpt>
      <trkpt lat="45.06982" lon="4.54106">
        <ele>842.23901367188</ele>
        <time>2009-08-12T14:47:26Z</time>
      </trkpt>
      <trkpt lat="45.06921" lon="4.54193">
        <ele>840.53100585938</ele>
        <time>2009-08-12T14:47:34Z</time>
      </trkpt>
      <trkpt lat="45.06908" lon="4.5426">
        <ele>839.46697998047</ele>
        <time>2009-08-12T14:47:39Z</time>
      </trkpt>
      <trkpt lat="45.06927" lon="4.5434">
        <ele>837.68902587891</ele>
        <time>2009-08-12T14:47:45Z</time>
      </trkpt>
      <trkpt lat="45.06948" lon="4.54372">
        <ele>835.89099121094</ele>
        <time>2009-08-12T14:47:48Z</time>
      </trkpt>
      <trkpt lat="45.07006" lon="4.54436">
        <ele>832.78698730469</ele>
        <time>2009-08-12T14:47:55Z</time>
      </trkpt>
      <trkpt lat="45.07038" lon="4.54471">
        <ele>831.17199707031</ele>
        <time>2009-08-12T14:47:59Z</time>
      </trkpt>
      <trkpt lat="45.07112" lon="4.54569">
        <ele>827.76202392578</ele>
        <time>2009-08-12T14:48:09Z</time>
      </trkpt>
      <trkpt lat="45.07156" lon="4.54604">
        <ele>826.07299804688</ele>
        <time>2009-08-12T14:48:14Z</time>
      </trkpt>
      <trkpt lat="45.07208" lon="4.546">
        <ele>824.0009765625</ele>
        <time>2009-08-12T14:48:20Z</time>
      </trkpt>
      <trkpt lat="45.07222" lon="4.54539">
        <ele>821.78601074219</ele>
        <time>2009-08-12T14:48:25Z</time>
      </trkpt>
      <trkpt lat="45.07223" lon="4.54512">
        <ele>820.82397460938</ele>
        <time>2009-08-12T14:48:27Z</time>
      </trkpt>
      <trkpt lat="45.07243" lon="4.54399">
        <ele>817.69799804688</ele>
        <time>2009-08-12T14:48:35Z</time>
      </trkpt>
      <trkpt lat="45.07279" lon="4.54351">
        <ele>815.59399414062</ele>
        <time>2009-08-12T14:48:40Z</time>
      </trkpt>
      <trkpt lat="45.07309" lon="4.54346">
        <ele>814.90197753906</ele>
        <time>2009-08-12T14:48:43Z</time>
      </trkpt>
      <trkpt lat="45.07364" lon="4.54288">
        <ele>812.79998779297</ele>
        <time>2009-08-12T14:48:50Z</time>
      </trkpt>
      <trkpt lat="45.07377" lon="4.54248">
        <ele>811.68798828125</ele>
        <time>2009-08-12T14:48:53Z</time>
      </trkpt>
      <trkpt lat="45.0738" lon="4.54234">
        <ele>811.36297607422</ele>
        <time>2009-08-12T14:48:54Z</time>
      </trkpt>
      <trkpt lat="45.07384" lon="4.54221">
        <ele>810.82598876953</ele>
        <time>2009-08-12T14:48:55Z</time>
      </trkpt>
      <trkpt lat="45.07416" lon="4.54205">
        <ele>809.97497558594</ele>
        <time>2009-08-12T14:49:00Z</time>
      </trkpt>
      <trkpt lat="45.07423" lon="4.54241">
        <ele>808.41900634766</ele>
        <time>2009-08-12T14:49:03Z</time>
      </trkpt>
      <trkpt lat="45.0743" lon="4.5428">
        <ele>806.60198974609</ele>
        <time>2009-08-12T14:49:06Z</time>
      </trkpt>
      <trkpt lat="45.07435" lon="4.54321">
        <ele>805.51397705078</ele>
        <time>2009-08-12T14:49:09Z</time>
      </trkpt>
      <trkpt lat="45.07439" lon="4.54377">
        <ele>803.06500244141</ele>
        <time>2009-08-12T14:49:13Z</time>
      </trkpt>
      <trkpt lat="45.07441" lon="4.54432">
        <ele>801.49401855469</ele>
        <time>2009-08-12T14:49:17Z</time>
      </trkpt>
      <trkpt lat="45.07479" lon="4.54476">
        <ele>798.22900390625</ele>
        <time>2009-08-12T14:49:23Z</time>
      </trkpt>
      <trkpt lat="45.07488" lon="4.54476">
        <ele>798.43402099609</ele>
        <time>2009-08-12T14:49:24Z</time>
      </trkpt>
      <trkpt lat="45.07541" lon="4.54466">
        <ele>797.61901855469</ele>
        <time>2009-08-12T14:49:30Z</time>
      </trkpt>
      <trkpt lat="45.07568" lon="4.54458">
        <ele>797.29400634766</ele>
        <time>2009-08-12T14:49:33Z</time>
      </trkpt>
      <trkpt lat="45.07596" lon="4.54472">
        <ele>796.15301513672</ele>
        <time>2009-08-12T14:49:37Z</time>
      </trkpt>
      <trkpt lat="45.07586" lon="4.54504">
        <ele>795.01599121094</ele>
        <time>2009-08-12T14:49:40Z</time>
      </trkpt>
      <trkpt lat="45.07567" lon="4.54536">
        <ele>793.78198242188</ele>
        <time>2009-08-12T14:49:43Z</time>
      </trkpt>
      <trkpt lat="45.07548" lon="4.54567">
        <ele>792.56097412109</ele>
        <time>2009-08-12T14:49:46Z</time>
      </trkpt>
      <trkpt lat="45.07541" lon="4.54577">
        <ele>791.91198730469</ele>
        <time>2009-08-12T14:49:47Z</time>
      </trkpt>
      <trkpt lat="45.07516" lon="4.54621">
        <ele>789.93200683594</ele>
        <time>2009-08-12T14:49:51Z</time>
      </trkpt>
      <trkpt lat="45.07497" lon="4.54687">
        <ele>788.51702880859</ele>
        <time>2009-08-12T14:49:56Z</time>
      </trkpt>
      <trkpt lat="45.07495" lon="4.54716">
        <ele>787.47900390625</ele>
        <time>2009-08-12T14:49:58Z</time>
      </trkpt>
      <trkpt lat="45.07499" lon="4.54801">
        <ele>786.14697265625</ele>
        <time>2009-08-12T14:50:04Z</time>
      </trkpt>
      <trkpt lat="45.07531" lon="4.54889">
        <ele>782.0009765625</ele>
        <time>2009-08-12T14:50:11Z</time>
      </trkpt>
      <trkpt lat="45.07583" lon="4.54909">
        <ele>780.29998779297</ele>
        <time>2009-08-12T14:50:17Z</time>
      </trkpt>
      <trkpt lat="45.07593" lon="4.54903">
        <ele>779.44299316406</ele>
        <time>2009-08-12T14:50:18Z</time>
      </trkpt>
      <trkpt lat="45.0769" lon="4.54835">
        <ele>776.51800537109</ele>
        <time>2009-08-12T14:50:29Z</time>
      </trkpt>
      <trkpt lat="45.07708" lon="4.54826">
        <ele>776.38201904297</ele>
        <time>2009-08-12T14:50:31Z</time>
      </trkpt>
      <trkpt lat="45.07749" lon="4.54822">
        <ele>774.51300048828</ele>
        <time>2009-08-12T14:50:35Z</time>
      </trkpt>
      <trkpt lat="45.07779" lon="4.54826">
        <ele>773.19000244141</ele>
        <time>2009-08-12T14:50:38Z</time>
      </trkpt>
      <trkpt lat="45.07792" lon="4.54828">
        <ele>772.78198242188</ele>
        <time>2009-08-12T14:50:39Z</time>
      </trkpt>
      <trkpt lat="45.07822" lon="4.54827">
        <ele>772.89898681641</ele>
        <time>2009-08-12T14:50:42Z</time>
      </trkpt>
      <trkpt lat="45.07838" lon="4.54858">
        <ele>770.46002197266</ele>
        <time>2009-08-12T14:50:47Z</time>
      </trkpt>
      <trkpt lat="45.07741" lon="4.54949">
        <ele>764.99700927734</ele>
        <time>2009-08-12T14:50:59Z</time>
      </trkpt>
      <trkpt lat="45.077" lon="4.5502">
        <ele>762.39099121094</ele>
        <time>2009-08-12T14:51:05Z</time>
      </trkpt>
      <trkpt lat="45.07638" lon="4.55124">
        <ele>757.65100097656</ele>
        <time>2009-08-12T14:51:14Z</time>
      </trkpt>
      <trkpt lat="45.07613" lon="4.55186">
        <ele>756.40802001953</ele>
        <time>2009-08-12T14:51:19Z</time>
      </trkpt>
      <trkpt lat="45.07604" lon="4.55314">
        <ele>752.79901123047</ele>
        <time>2009-08-12T14:51:28Z</time>
      </trkpt>
      <trkpt lat="45.07596" lon="4.55367">
        <ele>752.33502197266</ele>
        <time>2009-08-12T14:51:32Z</time>
      </trkpt>
      <trkpt lat="45.07589" lon="4.55393">
        <ele>751.91802978516</ele>
        <time>2009-08-12T14:51:34Z</time>
      </trkpt>
      <trkpt lat="45.07589" lon="4.55446">
        <ele>750.57897949219</ele>
        <time>2009-08-12T14:51:38Z</time>
      </trkpt>
      <trkpt lat="45.07595" lon="4.55474">
        <ele>749.42700195312</ele>
        <time>2009-08-12T14:51:40Z</time>
      </trkpt>
      <trkpt lat="45.07609" lon="4.55511">
        <ele>748.02001953125</ele>
        <time>2009-08-12T14:51:43Z</time>
      </trkpt>
      <trkpt lat="45.07665" lon="4.55564">
        <ele>746.05297851562</ele>
        <time>2009-08-12T14:51:50Z</time>
      </trkpt>
      <trkpt lat="45.07775" lon="4.55587">
        <ele>741.78900146484</ele>
        <time>2009-08-12T14:52:01Z</time>
      </trkpt>
      <trkpt lat="45.07786" lon="4.55588">
        <ele>741.71197509766</ele>
        <time>2009-08-12T14:52:02Z</time>
      </trkpt>
      <trkpt lat="45.07833" lon="4.55602">
        <ele>740.73999023438</ele>
        <time>2009-08-12T14:52:07Z</time>
      </trkpt>
      <trkpt lat="45.07803" lon="4.55634">
        <ele>738.83197021484</ele>
        <time>2009-08-12T14:52:12Z</time>
      </trkpt>
      <trkpt lat="45.07794" lon="4.55641">
        <ele>738.69000244141</ele>
        <time>2009-08-12T14:52:13Z</time>
      </trkpt>
      <trkpt lat="45.07777" lon="4.55656">
        <ele>736.93298339844</ele>
        <time>2009-08-12T14:52:15Z</time>
      </trkpt>
      <trkpt lat="45.07676" lon="4.55776">
        <ele>731.67498779297</ele>
        <time>2009-08-12T14:52:28Z</time>
      </trkpt>
      <trkpt lat="45.07664" lon="4.55823">
        <ele>728.93597412109</ele>
        <time>2009-08-12T14:52:31Z</time>
      </trkpt>
      <trkpt lat="45.07676" lon="4.55863">
        <ele>728.03198242188</ele>
        <time>2009-08-12T14:52:34Z</time>
      </trkpt>
      <trkpt lat="45.077" lon="4.55924">
        <ele>726.91198730469</ele>
        <time>2009-08-12T14:52:39Z</time>
      </trkpt>
      <trkpt lat="45.07751" lon="4.55983">
        <ele>723.55499267578</ele>
        <time>2009-08-12T14:52:46Z</time>
      </trkpt>
      <trkpt lat="45.07761" lon="4.55986">
        <ele>722.78802490234</ele>
        <time>2009-08-12T14:52:47Z</time>
      </trkpt>
      <trkpt lat="45.07841" lon="4.55993">
        <ele>721.54400634766</ele>
        <time>2009-08-12T14:52:55Z</time>
      </trkpt>
      <trkpt lat="45.07858" lon="4.56038">
        <ele>718.85900878906</ele>
        <time>2009-08-12T14:53:00Z</time>
      </trkpt>
      <trkpt lat="45.0785" lon="4.56078">
        <ele>717.43701171875</ele>
        <time>2009-08-12T14:53:03Z</time>
      </trkpt>
      <trkpt lat="45.07846" lon="4.5612">
        <ele>715.19299316406</ele>
        <time>2009-08-12T14:53:06Z</time>
      </trkpt>
      <trkpt lat="45.07851" lon="4.56189">
        <ele>713.14202880859</ele>
        <time>2009-08-12T14:53:11Z</time>
      </trkpt>
      <trkpt lat="45.07901" lon="4.56364">
        <ele>709.99798583984</ele>
        <time>2009-08-12T14:53:25Z</time>
      </trkpt>
      <trkpt lat="45.07902" lon="4.56415">
        <ele>708.52099609375</ele>
        <time>2009-08-12T14:53:29Z</time>
      </trkpt>
      <trkpt lat="45.07898" lon="4.56439">
        <ele>707.41302490234</ele>
        <time>2009-08-12T14:53:31Z</time>
      </trkpt>
      <trkpt lat="45.07896" lon="4.56452">
        <ele>706.49298095703</ele>
        <time>2009-08-12T14:53:32Z</time>
      </trkpt>
      <trkpt lat="45.07871" lon="4.5653">
        <ele>705.26000976562</ele>
        <time>2009-08-12T14:53:39Z</time>
      </trkpt>
      <trkpt lat="45.07866" lon="4.56546">
        <ele>705.80401611328</ele>
        <time>2009-08-12T14:53:41Z</time>
      </trkpt>
      <trkpt lat="45.07875" lon="4.56568">
        <ele>705.93701171875</ele>
        <time>2009-08-12T14:53:46Z</time>
      </trkpt>
      <trkpt lat="45.07888" lon="4.56568">
        <ele>706.59301757812</ele>
        <time>2009-08-12T14:53:49Z</time>
      </trkpt>
      <trkpt lat="45.07942" lon="4.56566">
        <ele>709.03698730469</ele>
        <time>2009-08-12T14:54:01Z</time>
      </trkpt>
      <trkpt lat="45.07947" lon="4.56566">
        <ele>709.25500488281</ele>
        <time>2009-08-12T14:54:02Z</time>
      </trkpt>
      <trkpt lat="45.0798" lon="4.56563">
        <ele>710.46301269531</ele>
        <time>2009-08-12T14:54:08Z</time>
      </trkpt>
      <trkpt lat="45.08022" lon="4.5657">
        <ele>711.64300537109</ele>
        <time>2009-08-12T14:54:16Z</time>
      </trkpt>
      <trkpt lat="45.08048" lon="4.56578">
        <ele>713.36602783203</ele>
        <time>2009-08-12T14:54:21Z</time>
      </trkpt>
      <trkpt lat="45.08066" lon="4.56588">
        <ele>714.72100830078</ele>
        <time>2009-08-12T14:54:25Z</time>
      </trkpt>
      <trkpt lat="45.08075" lon="4.56594">
        <ele>715.27600097656</ele>
        <time>2009-08-12T14:54:27Z</time>
      </trkpt>
      <trkpt lat="45.08088" lon="4.56598">
        <ele>715.78399658203</ele>
        <time>2009-08-12T14:54:30Z</time>
      </trkpt>
      <trkpt lat="45.08139" lon="4.56583">
        <ele>719.08898925781</ele>
        <time>2009-08-12T14:54:43Z</time>
      </trkpt>
      <trkpt lat="45.08189" lon="4.56588">
        <ele>721.15997314453</ele>
        <time>2009-08-12T14:54:56Z</time>
      </trkpt>
      <trkpt lat="45.08244" lon="4.5662">
        <ele>724.34301757812</ele>
        <time>2009-08-12T14:55:11Z</time>
      </trkpt>
      <trkpt lat="45.08276" lon="4.56644">
        <ele>725.45001220703</ele>
        <time>2009-08-12T14:55:20Z</time>
      </trkpt>
      <trkpt lat="45.08282" lon="4.56652">
        <ele>725.67498779297</ele>
        <time>2009-08-12T14:55:22Z</time>
      </trkpt>
      <trkpt lat="45.08323" lon="4.56724">
        <ele>725.98498535156</ele>
        <time>2009-08-12T14:55:36Z</time>
      </trkpt>
      <trkpt lat="45.08353" lon="4.56793">
        <ele>727.1240234375</ele>
        <time>2009-08-12T14:55:47Z</time>
      </trkpt>
      <trkpt lat="45.08381" lon="4.56817">
        <ele>728.09100341797</ele>
        <time>2009-08-12T14:55:54Z</time>
      </trkpt>
      <trkpt lat="45.08397" lon="4.56825">
        <ele>728.30200195312</ele>
        <time>2009-08-12T14:55:58Z</time>
      </trkpt>
      <trkpt lat="45.08406" lon="4.56826">
        <ele>728.97601318359</ele>
        <time>2009-08-12T14:56:00Z</time>
      </trkpt>
      <trkpt lat="45.08445" lon="4.56834">
        <ele>729.29901123047</ele>
        <time>2009-08-12T14:56:09Z</time>
      </trkpt>
      <trkpt lat="45.08471" lon="4.56837">
        <ele>729.53900146484</ele>
        <time>2009-08-12T14:56:14Z</time>
      </trkpt>
      <trkpt lat="45.08482" lon="4.56837">
        <ele>729.40802001953</ele>
        <time>2009-08-12T14:56:16Z</time>
      </trkpt>
      <trkpt lat="45.08498" lon="4.56832">
        <ele>729.56201171875</ele>
        <time>2009-08-12T14:56:19Z</time>
      </trkpt>
      <trkpt lat="45.08522" lon="4.56799">
        <ele>731.50500488281</ele>
        <time>2009-08-12T14:56:25Z</time>
      </trkpt>
      <trkpt lat="45.08529" lon="4.56779">
        <ele>731.78802490234</ele>
        <time>2009-08-12T14:56:28Z</time>
      </trkpt>
      <trkpt lat="45.08548" lon="4.5672">
        <ele>732.24499511719</ele>
        <time>2009-08-12T14:56:37Z</time>
      </trkpt>
      <trkpt lat="45.08557" lon="4.56681">
        <ele>732.2080078125</ele>
        <time>2009-08-12T14:56:43Z</time>
      </trkpt>
      <trkpt lat="45.08559" lon="4.56667">
        <ele>733.458984375</ele>
        <time>2009-08-12T14:56:45Z</time>
      </trkpt>
      <trkpt lat="45.08559" lon="4.56652">
        <ele>734.19396972656</ele>
        <time>2009-08-12T14:56:47Z</time>
      </trkpt>
      <trkpt lat="45.08551" lon="4.56617">
        <ele>734.73498535156</ele>
        <time>2009-08-12T14:56:52Z</time>
      </trkpt>
      <trkpt lat="45.0854" lon="4.56592">
        <ele>734.83099365234</ele>
        <time>2009-08-12T14:56:56Z</time>
      </trkpt>
      <trkpt lat="45.0853" lon="4.56575">
        <ele>734.81701660156</ele>
        <time>2009-08-12T14:56:59Z</time>
      </trkpt>
      <trkpt lat="45.08521" lon="4.56557">
        <ele>735.75</ele>
        <time>2009-08-12T14:57:02Z</time>
      </trkpt>
      <trkpt lat="45.08514" lon="4.56521">
        <ele>736.83197021484</ele>
        <time>2009-08-12T14:57:07Z</time>
      </trkpt>
      <trkpt lat="45.08506" lon="4.56484">
        <ele>737.07501220703</ele>
        <time>2009-08-12T14:57:12Z</time>
      </trkpt>
      <trkpt lat="45.08495" lon="4.5645">
        <ele>738.25402832031</ele>
        <time>2009-08-12T14:57:17Z</time>
      </trkpt>
      <trkpt lat="45.08491" lon="4.56429">
        <ele>738.70599365234</ele>
        <time>2009-08-12T14:57:20Z</time>
      </trkpt>
      <trkpt lat="45.08488" lon="4.56394">
        <ele>739.91998291016</ele>
        <time>2009-08-12T14:57:25Z</time>
      </trkpt>
      <trkpt lat="45.08477" lon="4.56317">
        <ele>742.32598876953</ele>
        <time>2009-08-12T14:57:37Z</time>
      </trkpt>
      <trkpt lat="45.08488" lon="4.56255">
        <ele>744.46600341797</ele>
        <time>2009-08-12T14:57:48Z</time>
      </trkpt>
      <trkpt lat="45.0852" lon="4.56202">
        <ele>746.55700683594</ele>
        <time>2009-08-12T14:58:00Z</time>
      </trkpt>
      <trkpt lat="45.0854" lon="4.56142">
        <ele>749.00299072266</ele>
        <time>2009-08-12T14:58:11Z</time>
      </trkpt>
      <trkpt lat="45.08549" lon="4.56116">
        <ele>750.05999755859</ele>
        <time>2009-08-12T14:58:16Z</time>
      </trkpt>
      <trkpt lat="45.0858" lon="4.56102">
        <ele>751.27001953125</ele>
        <time>2009-08-12T14:58:25Z</time>
      </trkpt>
      <trkpt lat="45.08585" lon="4.56134">
        <ele>751.67901611328</ele>
        <time>2009-08-12T14:58:30Z</time>
      </trkpt>
      <trkpt lat="45.08589" lon="4.56196">
        <ele>753.99102783203</ele>
        <time>2009-08-12T14:58:40Z</time>
      </trkpt>
      <trkpt lat="45.08594" lon="4.56233">
        <ele>754.92901611328</ele>
        <time>2009-08-12T14:58:45Z</time>
      </trkpt>
      <trkpt lat="45.08602" lon="4.56258">
        <ele>755.59301757812</ele>
        <time>2009-08-12T14:58:49Z</time>
      </trkpt>
      <trkpt lat="45.08615" lon="4.56291">
        <ele>756.93402099609</ele>
        <time>2009-08-12T14:58:55Z</time>
      </trkpt>
      <trkpt lat="45.08623" lon="4.56319">
        <ele>757.60302734375</ele>
        <time>2009-08-12T14:59:00Z</time>
      </trkpt>
      <trkpt lat="45.08654" lon="4.56386">
        <ele>760.4169921875</ele>
        <time>2009-08-12T14:59:13Z</time>
      </trkpt>
      <trkpt lat="45.08679" lon="4.56417">
        <ele>762.35400390625</ele>
        <time>2009-08-12T14:59:21Z</time>
      </trkpt>
      <trkpt lat="45.08694" lon="4.56429">
        <ele>763.41497802734</ele>
        <time>2009-08-12T14:59:25Z</time>
      </trkpt>
      <trkpt lat="45.08711" lon="4.5644">
        <ele>763.78900146484</ele>
        <time>2009-08-12T14:59:29Z</time>
      </trkpt>
      <trkpt lat="45.0873" lon="4.56455">
        <ele>765.19097900391</ele>
        <time>2009-08-12T14:59:34Z</time>
      </trkpt>
      <trkpt lat="45.08778" lon="4.56496">
        <ele>766.92199707031</ele>
        <time>2009-08-12T14:59:46Z</time>
      </trkpt>
      <trkpt lat="45.08783" lon="4.56498">
        <ele>767.27197265625</ele>
        <time>2009-08-12T14:59:47Z</time>
      </trkpt>
      <trkpt lat="45.08809" lon="4.56487">
        <ele>768.6240234375</ele>
        <time>2009-08-12T14:59:53Z</time>
      </trkpt>
      <trkpt lat="45.0886" lon="4.56426">
        <ele>771.32501220703</ele>
        <time>2009-08-12T15:00:09Z</time>
      </trkpt>
      <trkpt lat="45.08886" lon="4.56393">
        <ele>773.57202148438</ele>
        <time>2009-08-12T15:00:18Z</time>
      </trkpt>
      <trkpt lat="45.08942" lon="4.56357">
        <ele>775.71899414062</ele>
        <time>2009-08-12T15:00:32Z</time>
      </trkpt>
      <trkpt lat="45.08979" lon="4.56321">
        <ele>777.97497558594</ele>
        <time>2009-08-12T15:00:44Z</time>
      </trkpt>
      <trkpt lat="45.08992" lon="4.56345">
        <ele>778.79998779297</ele>
        <time>2009-08-12T15:00:50Z</time>
      </trkpt>
      <trkpt lat="45.08984" lon="4.56406">
        <ele>779.92999267578</ele>
        <time>2009-08-12T15:01:00Z</time>
      </trkpt>
      <trkpt lat="45.08981" lon="4.5643">
        <ele>780.84698486328</ele>
        <time>2009-08-12T15:01:04Z</time>
      </trkpt>
      <trkpt lat="45.08978" lon="4.56449">
        <ele>781.50201416016</ele>
        <time>2009-08-12T15:01:07Z</time>
      </trkpt>
      <trkpt lat="45.08968" lon="4.56476">
        <ele>781.98999023438</ele>
        <time>2009-08-12T15:01:12Z</time>
      </trkpt>
      <trkpt lat="45.08965" lon="4.56488">
        <ele>782.14697265625</ele>
        <time>2009-08-12T15:01:14Z</time>
      </trkpt>
      <trkpt lat="45.08958" lon="4.56532">
        <ele>783.72698974609</ele>
        <time>2009-08-12T15:01:21Z</time>
      </trkpt>
      <trkpt lat="45.08964" lon="4.56621">
        <ele>786.70501708984</ele>
        <time>2009-08-12T15:01:36Z</time>
      </trkpt>
      <trkpt lat="45.08968" lon="4.56638">
        <ele>787.35699462891</ele>
        <time>2009-08-12T15:01:39Z</time>
      </trkpt>
      <trkpt lat="45.08979" lon="4.56707">
        <ele>789.16900634766</ele>
        <time>2009-08-12T15:01:52Z</time>
      </trkpt>
      <trkpt lat="45.09" lon="4.56794">
        <ele>791.76800537109</ele>
        <time>2009-08-12T15:02:07Z</time>
      </trkpt>
      <trkpt lat="45.09023" lon="4.56893">
        <ele>795.77301025391</ele>
        <time>2009-08-12T15:02:24Z</time>
      </trkpt>
      <trkpt lat="45.09034" lon="4.56964">
        <ele>798.05902099609</ele>
        <time>2009-08-12T15:02:36Z</time>
      </trkpt>
      <trkpt lat="45.0902" lon="4.56994">
        <ele>800.08599853516</ele>
        <time>2009-08-12T15:02:43Z</time>
      </trkpt>
      <trkpt lat="45.09012" lon="4.56996">
        <ele>800.12799072266</ele>
        <time>2009-08-12T15:02:45Z</time>
      </trkpt>
      <trkpt lat="45.08977" lon="4.56998">
        <ele>801.11901855469</ele>
        <time>2009-08-12T15:02:53Z</time>
      </trkpt>
      <trkpt lat="45.08958" lon="4.56999">
        <ele>801.65698242188</ele>
        <time>2009-08-12T15:02:57Z</time>
      </trkpt>
      <trkpt lat="45.08937" lon="4.57004">
        <ele>802.68798828125</ele>
        <time>2009-08-12T15:03:02Z</time>
      </trkpt>
      <trkpt lat="45.08926" lon="4.57014">
        <ele>803.0419921875</ele>
        <time>2009-08-12T15:03:05Z</time>
      </trkpt>
      <trkpt lat="45.0891" lon="4.57075">
        <ele>805.13299560547</ele>
        <time>2009-08-12T15:03:16Z</time>
      </trkpt>
      <trkpt lat="45.08917" lon="4.57091">
        <ele>805.00299072266</ele>
        <time>2009-08-12T15:03:19Z</time>
      </trkpt>
      <trkpt lat="45.0896" lon="4.57154">
        <ele>808.47601318359</ele>
        <time>2009-08-12T15:03:34Z</time>
      </trkpt>
      <trkpt lat="45.08974" lon="4.57179">
        <ele>809.13000488281</ele>
        <time>2009-08-12T15:03:39Z</time>
      </trkpt>
      <trkpt lat="45.09036" lon="4.57258">
        <ele>813.14099121094</ele>
        <time>2009-08-12T15:03:59Z</time>
      </trkpt>
      <trkpt lat="45.09056" lon="4.57282">
        <ele>813.12902832031</ele>
        <time>2009-08-12T15:04:05Z</time>
      </trkpt>
      <trkpt lat="45.09063" lon="4.5729">
        <ele>815.09802246094</ele>
        <time>2009-08-12T15:04:07Z</time>
      </trkpt>
      <trkpt lat="45.09077" lon="4.57306">
        <ele>815.63299560547</ele>
        <time>2009-08-12T15:04:11Z</time>
      </trkpt>
      <trkpt lat="45.09088" lon="4.57316">
        <ele>815.88201904297</ele>
        <time>2009-08-12T15:04:14Z</time>
      </trkpt>
      <trkpt lat="45.09104" lon="4.57322">
        <ele>816.59197998047</ele>
        <time>2009-08-12T15:04:18Z</time>
      </trkpt>
      <trkpt lat="45.0914" lon="4.57327">
        <ele>818.45697021484</ele>
        <time>2009-08-12T15:04:27Z</time>
      </trkpt>
      <trkpt lat="45.09159" lon="4.57319">
        <ele>819.47802734375</ele>
        <time>2009-08-12T15:04:32Z</time>
      </trkpt>
      <trkpt lat="45.09166" lon="4.57312">
        <ele>819.35400390625</ele>
        <time>2009-08-12T15:04:34Z</time>
      </trkpt>
      <trkpt lat="45.09181" lon="4.57292">
        <ele>820.48498535156</ele>
        <time>2009-08-12T15:04:39Z</time>
      </trkpt>
      <trkpt lat="45.0922" lon="4.57224">
        <ele>822.99200439453</ele>
        <time>2009-08-12T15:04:54Z</time>
      </trkpt>
      <trkpt lat="45.09231" lon="4.57214">
        <ele>823.59399414062</ele>
        <time>2009-08-12T15:04:57Z</time>
      </trkpt>
      <trkpt lat="45.09248" lon="4.57197">
        <ele>823.92401123047</ele>
        <time>2009-08-12T15:05:02Z</time>
      </trkpt>
      <trkpt lat="45.09264" lon="4.5718">
        <ele>824.66802978516</ele>
        <time>2009-08-12T15:05:07Z</time>
      </trkpt>
      <trkpt lat="45.09305" lon="4.57129">
        <ele>826.95501708984</ele>
        <time>2009-08-12T15:05:21Z</time>
      </trkpt>
      <trkpt lat="45.09334" lon="4.571">
        <ele>828.86297607422</ele>
        <time>2009-08-12T15:05:32Z</time>
      </trkpt>
      <trkpt lat="45.09366" lon="4.57073">
        <ele>831.22900390625</ele>
        <time>2009-08-12T15:05:43Z</time>
      </trkpt>
      <trkpt lat="45.09402" lon="4.57052">
        <ele>833.17901611328</ele>
        <time>2009-08-12T15:05:52Z</time>
      </trkpt>
      <trkpt lat="45.09439" lon="4.57042">
        <ele>834.66198730469</ele>
        <time>2009-08-12T15:06:01Z</time>
      </trkpt>
      <trkpt lat="45.09476" lon="4.57036">
        <ele>836.23699951172</ele>
        <time>2009-08-12T15:06:11Z</time>
      </trkpt>
      <trkpt lat="45.09522" lon="4.57024">
        <ele>838.33001708984</ele>
        <time>2009-08-12T15:06:21Z</time>
      </trkpt>
      <trkpt lat="45.0956" lon="4.57018">
        <ele>840.32501220703</ele>
        <time>2009-08-12T15:06:31Z</time>
      </trkpt>
      <trkpt lat="45.09607" lon="4.5698">
        <ele>842.33801269531</ele>
        <time>2009-08-12T15:06:43Z</time>
      </trkpt>
      <trkpt lat="45.09614" lon="4.56973">
        <ele>842.79498291016</ele>
        <time>2009-08-12T15:06:45Z</time>
      </trkpt>
      <trkpt lat="45.09631" lon="4.56953">
        <ele>843.85900878906</ele>
        <time>2009-08-12T15:06:50Z</time>
      </trkpt>
      <trkpt lat="45.09661" lon="4.56906">
        <ele>845.73602294922</ele>
        <time>2009-08-12T15:07:02Z</time>
      </trkpt>
      <trkpt lat="45.09674" lon="4.56882">
        <ele>845.95501708984</ele>
        <time>2009-08-12T15:07:07Z</time>
      </trkpt>
      <trkpt lat="45.09706" lon="4.56819">
        <ele>847.98400878906</ele>
        <time>2009-08-12T15:07:20Z</time>
      </trkpt>
      <trkpt lat="45.09726" lon="4.56766">
        <ele>850.416015625</ele>
        <time>2009-08-12T15:07:30Z</time>
      </trkpt>
      <trkpt lat="45.09732" lon="4.56748">
        <ele>850.85302734375</ele>
        <time>2009-08-12T15:07:33Z</time>
      </trkpt>
      <trkpt lat="45.09742" lon="4.56728">
        <ele>852.02301025391</ele>
        <time>2009-08-12T15:07:37Z</time>
      </trkpt>
      <trkpt lat="45.09753" lon="4.5671">
        <ele>852.91101074219</ele>
        <time>2009-08-12T15:07:41Z</time>
      </trkpt>
      <trkpt lat="45.09758" lon="4.56657">
        <ele>854.39300537109</ele>
        <time>2009-08-12T15:07:50Z</time>
      </trkpt>
      <trkpt lat="45.09753" lon="4.56624">
        <ele>855.75701904297</ele>
        <time>2009-08-12T15:07:56Z</time>
      </trkpt>
      <trkpt lat="45.09751" lon="4.56611">
        <ele>855.74102783203</ele>
        <time>2009-08-12T15:07:58Z</time>
      </trkpt>
      <trkpt lat="45.09751" lon="4.56578">
        <ele>856.13500976562</ele>
        <time>2009-08-12T15:08:03Z</time>
      </trkpt>
      <trkpt lat="45.0975" lon="4.56566">
        <ele>856.47198486328</ele>
        <time>2009-08-12T15:08:05Z</time>
      </trkpt>
      <trkpt lat="45.09745" lon="4.56502">
        <ele>859.14001464844</ele>
        <time>2009-08-12T15:08:17Z</time>
      </trkpt>
      <trkpt lat="45.09774" lon="4.56481">
        <ele>860.89001464844</ele>
        <time>2009-08-12T15:08:26Z</time>
      </trkpt>
      <trkpt lat="45.09814" lon="4.56481">
        <ele>862.75201416016</ele>
        <time>2009-08-12T15:08:37Z</time>
      </trkpt>
      <trkpt lat="45.09818" lon="4.56482">
        <ele>863.06701660156</ele>
        <time>2009-08-12T15:08:38Z</time>
      </trkpt>
      <trkpt lat="45.09833" lon="4.56484">
        <ele>864.05401611328</ele>
        <time>2009-08-12T15:08:42Z</time>
      </trkpt>
      <trkpt lat="45.09857" lon="4.56485">
        <ele>865.88702392578</ele>
        <time>2009-08-12T15:08:48Z</time>
      </trkpt>
      <trkpt lat="45.0988" lon="4.56484">
        <ele>867.02502441406</ele>
        <time>2009-08-12T15:08:53Z</time>
      </trkpt>
      <trkpt lat="45.09901" lon="4.56482">
        <ele>867.69799804688</ele>
        <time>2009-08-12T15:08:57Z</time>
      </trkpt>
      <trkpt lat="45.09949" lon="4.56464">
        <ele>869.41400146484</ele>
        <time>2009-08-12T15:09:08Z</time>
      </trkpt>
      <trkpt lat="45.09976" lon="4.56422">
        <ele>870.41101074219</ele>
        <time>2009-08-12T15:09:18Z</time>
      </trkpt>
      <trkpt lat="45.09999" lon="4.56384">
        <ele>871.59698486328</ele>
        <time>2009-08-12T15:09:28Z</time>
      </trkpt>
      <trkpt lat="45.10026" lon="4.56346">
        <ele>873.01300048828</ele>
        <time>2009-08-12T15:09:38Z</time>
      </trkpt>
      <trkpt lat="45.10038" lon="4.56328">
        <ele>874.29901123047</ele>
        <time>2009-08-12T15:09:43Z</time>
      </trkpt>
      <trkpt lat="45.10059" lon="4.56293">
        <ele>876.10900878906</ele>
        <time>2009-08-12T15:09:52Z</time>
      </trkpt>
      <trkpt lat="45.10079" lon="4.56254">
        <ele>877.54797363281</ele>
        <time>2009-08-12T15:10:01Z</time>
      </trkpt>
      <trkpt lat="45.10084" lon="4.56244">
        <ele>877.84698486328</ele>
        <time>2009-08-12T15:10:03Z</time>
      </trkpt>
      <trkpt lat="45.10097" lon="4.56218">
        <ele>878.89099121094</ele>
        <time>2009-08-12T15:10:08Z</time>
      </trkpt>
      <trkpt lat="45.10104" lon="4.56201">
        <ele>879.50402832031</ele>
        <time>2009-08-12T15:10:11Z</time>
      </trkpt>
      <trkpt lat="45.1011" lon="4.56178">
        <ele>880.30401611328</ele>
        <time>2009-08-12T15:10:15Z</time>
      </trkpt>
      <trkpt lat="45.10122" lon="4.56138">
        <ele>881.09100341797</ele>
        <time>2009-08-12T15:10:22Z</time>
      </trkpt>
      <trkpt lat="45.10126" lon="4.56126">
        <ele>882.22698974609</ele>
        <time>2009-08-12T15:10:24Z</time>
      </trkpt>
      <trkpt lat="45.1013" lon="4.56114">
        <ele>882.97900390625</ele>
        <time>2009-08-12T15:10:26Z</time>
      </trkpt>
      <trkpt lat="45.10137" lon="4.56088">
        <ele>883.75299072266</ele>
        <time>2009-08-12T15:10:30Z</time>
      </trkpt>
      <trkpt lat="45.10142" lon="4.5607">
        <ele>883.75598144531</ele>
        <time>2009-08-12T15:10:33Z</time>
      </trkpt>
      <trkpt lat="45.10144" lon="4.56057">
        <ele>885.19598388672</ele>
        <time>2009-08-12T15:10:35Z</time>
      </trkpt>
      <trkpt lat="45.10146" lon="4.56044">
        <ele>885.69299316406</ele>
        <time>2009-08-12T15:10:37Z</time>
      </trkpt>
      <trkpt lat="45.10167" lon="4.56023">
        <ele>886.57000732422</ele>
        <time>2009-08-12T15:10:44Z</time>
      </trkpt>
      <trkpt lat="45.10202" lon="4.56054">
        <ele>889.34802246094</ele>
        <time>2009-08-12T15:10:57Z</time>
      </trkpt>
      <trkpt lat="45.10217" lon="4.56076">
        <ele>889.78302001953</ele>
        <time>2009-08-12T15:11:02Z</time>
      </trkpt>
      <trkpt lat="45.10236" lon="4.56104">
        <ele>891.10302734375</ele>
        <time>2009-08-12T15:11:08Z</time>
      </trkpt>
      <trkpt lat="45.10241" lon="4.56115">
        <ele>891.63000488281</ele>
        <time>2009-08-12T15:11:10Z</time>
      </trkpt>
      <trkpt lat="45.10255" lon="4.56158">
        <ele>892.52801513672</ele>
        <time>2009-08-12T15:11:17Z</time>
      </trkpt>
      <trkpt lat="45.10288" lon="4.56234">
        <ele>895.37902832031</ele>
        <time>2009-08-12T15:11:30Z</time>
      </trkpt>
      <trkpt lat="45.10314" lon="4.56259">
        <ele>895.60601806641</ele>
        <time>2009-08-12T15:11:37Z</time>
      </trkpt>
      <trkpt lat="45.10387" lon="4.56256">
        <ele>899.17602539062</ele>
        <time>2009-08-12T15:11:53Z</time>
      </trkpt>
      <trkpt lat="45.10415" lon="4.56257">
        <ele>901.13299560547</ele>
        <time>2009-08-12T15:11:59Z</time>
      </trkpt>
      <trkpt lat="45.10485" lon="4.56262">
        <ele>903.49597167969</ele>
        <time>2009-08-12T15:12:14Z</time>
      </trkpt>
      <trkpt lat="45.10513" lon="4.56263">
        <ele>905.47100830078</ele>
        <time>2009-08-12T15:12:22Z</time>
      </trkpt>
      <trkpt lat="45.10523" lon="4.56245">
        <ele>904.875</ele>
        <time>2009-08-12T15:12:28Z</time>
      </trkpt>
      <trkpt lat="45.10524" lon="4.56237">
        <ele>906.8740234375</ele>
        <time>2009-08-12T15:12:33Z</time>
      </trkpt>
      <trkpt lat="45.10526" lon="4.56238">
        <ele>906.6669921875</ele>
        <time>2009-08-12T15:13:21Z</time>
      </trkpt>
      <trkpt lat="45.10526" lon="4.56239">
        <ele>906.21899414062</ele>
        <time>2009-08-12T15:13:24Z</time>
      </trkpt>
      <trkpt lat="45.10526" lon="4.56239">
        <ele>906.11199951172</ele>
        <time>2009-08-12T15:13:25Z</time>
      </trkpt>
      <trkpt lat="45.10514" lon="4.56304">
        <ele>904.05102539062</ele>
        <time>2009-08-12T15:13:43Z</time>
      </trkpt>
      <trkpt lat="45.10506" lon="4.56353">
        <ele>901.97802734375</ele>
        <time>2009-08-12T15:13:48Z</time>
      </trkpt>
      <trkpt lat="45.10503" lon="4.56375">
        <ele>901.22601318359</ele>
        <time>2009-08-12T15:13:50Z</time>
      </trkpt>
      <trkpt lat="45.10481" lon="4.56469">
        <ele>898.46398925781</ele>
        <time>2009-08-12T15:13:58Z</time>
      </trkpt>
      <trkpt lat="45.10436" lon="4.56588">
        <ele>893.67901611328</ele>
        <time>2009-08-12T15:14:08Z</time>
      </trkpt>
      <trkpt lat="45.1039" lon="4.56774">
        <ele>886.89697265625</ele>
        <time>2009-08-12T15:14:21Z</time>
      </trkpt>
      <trkpt lat="45.10379" lon="4.56839">
        <ele>883.60302734375</ele>
        <time>2009-08-12T15:14:25Z</time>
      </trkpt>
      <trkpt lat="45.10361" lon="4.56918">
        <ele>881.03100585938</ele>
        <time>2009-08-12T15:14:30Z</time>
      </trkpt>
      <trkpt lat="45.10343" lon="4.5704">
        <ele>876.74700927734</ele>
        <time>2009-08-12T15:14:38Z</time>
      </trkpt>
      <trkpt lat="45.10334" lon="4.57069">
        <ele>875.87298583984</ele>
        <time>2009-08-12T15:14:40Z</time>
      </trkpt>
      <trkpt lat="45.10323" lon="4.57125">
        <ele>874.99499511719</ele>
        <time>2009-08-12T15:14:44Z</time>
      </trkpt>
      <trkpt lat="45.10321" lon="4.57181">
        <ele>874.1669921875</ele>
        <time>2009-08-12T15:14:48Z</time>
      </trkpt>
      <trkpt lat="45.1032" lon="4.57195">
        <ele>874.07897949219</ele>
        <time>2009-08-12T15:14:49Z</time>
      </trkpt>
      <trkpt lat="45.10313" lon="4.57235">
        <ele>873.55499267578</ele>
        <time>2009-08-12T15:14:52Z</time>
      </trkpt>
      <trkpt lat="45.10309" lon="4.57248">
        <ele>873.45697021484</ele>
        <time>2009-08-12T15:14:53Z</time>
      </trkpt>
      <trkpt lat="45.10284" lon="4.57362">
        <ele>871.22698974609</ele>
        <time>2009-08-12T15:15:02Z</time>
      </trkpt>
      <trkpt lat="45.10247" lon="4.57412">
        <ele>870.95501708984</ele>
        <time>2009-08-12T15:15:08Z</time>
      </trkpt>
      <trkpt lat="45.102" lon="4.57411">
        <ele>869.38500976562</ele>
        <time>2009-08-12T15:15:13Z</time>
      </trkpt>
      <trkpt lat="45.10132" lon="4.57447">
        <ele>866.90600585938</ele>
        <time>2009-08-12T15:15:21Z</time>
      </trkpt>
      <trkpt lat="45.10077" lon="4.57561">
        <ele>863.93200683594</ele>
        <time>2009-08-12T15:15:31Z</time>
      </trkpt>
      <trkpt lat="45.10049" lon="4.57605">
        <ele>860.77801513672</ele>
        <time>2009-08-12T15:15:35Z</time>
      </trkpt>
      <trkpt lat="45.09987" lon="4.57684">
        <ele>857.72302246094</ele>
        <time>2009-08-12T15:15:43Z</time>
      </trkpt>
      <trkpt lat="45.09968" lon="4.57739">
        <ele>855.375</ele>
        <time>2009-08-12T15:15:47Z</time>
      </trkpt>
      <trkpt lat="45.09977" lon="4.57807">
        <ele>851.65802001953</ele>
        <time>2009-08-12T15:15:51Z</time>
      </trkpt>
      <trkpt lat="45.09985" lon="4.57855">
        <ele>849.63500976562</ele>
        <time>2009-08-12T15:15:54Z</time>
      </trkpt>
      <trkpt lat="45.10006" lon="4.57931">
        <ele>846.62902832031</ele>
        <time>2009-08-12T15:15:59Z</time>
      </trkpt>
      <trkpt lat="45.10012" lon="4.57962">
        <ele>845.73602294922</ele>
        <time>2009-08-12T15:16:01Z</time>
      </trkpt>
      <trkpt lat="45.10009" lon="4.5801">
        <ele>843.72698974609</ele>
        <time>2009-08-12T15:16:04Z</time>
      </trkpt>
      <trkpt lat="45.10003" lon="4.58041">
        <ele>842.40899658203</ele>
        <time>2009-08-12T15:16:06Z</time>
      </trkpt>
      <trkpt lat="45.09994" lon="4.58068">
        <ele>841.51599121094</ele>
        <time>2009-08-12T15:16:08Z</time>
      </trkpt>
      <trkpt lat="45.09966" lon="4.58135">
        <ele>838.73297119141</ele>
        <time>2009-08-12T15:16:13Z</time>
      </trkpt>
      <trkpt lat="45.09939" lon="4.58191">
        <ele>836.39898681641</ele>
        <time>2009-08-12T15:16:17Z</time>
      </trkpt>
      <trkpt lat="45.099" lon="4.58275">
        <ele>831.90600585938</ele>
        <time>2009-08-12T15:16:23Z</time>
      </trkpt>
      <trkpt lat="45.0983" lon="4.5835">
        <ele>827.33898925781</ele>
        <time>2009-08-12T15:16:30Z</time>
      </trkpt>
      <trkpt lat="45.09831" lon="4.58398">
        <ele>824.79498291016</ele>
        <time>2009-08-12T15:16:33Z</time>
      </trkpt>
      <trkpt lat="45.09829" lon="4.5851">
        <ele>821.24700927734</ele>
        <time>2009-08-12T15:16:40Z</time>
      </trkpt>
      <trkpt lat="45.09821" lon="4.58533">
        <ele>820.13500976562</ele>
        <time>2009-08-12T15:16:42Z</time>
      </trkpt>
      <trkpt lat="45.0978" lon="4.5858">
        <ele>817.31402587891</ele>
        <time>2009-08-12T15:16:46Z</time>
      </trkpt>
      <trkpt lat="45.09691" lon="4.58628">
        <ele>812.19897460938</ele>
        <time>2009-08-12T15:16:54Z</time>
      </trkpt>
      <trkpt lat="45.09648" lon="4.58624">
        <ele>809.84802246094</ele>
        <time>2009-08-12T15:16:58Z</time>
      </trkpt>
      <trkpt lat="45.09612" lon="4.58597">
        <ele>807.94396972656</ele>
        <time>2009-08-12T15:17:02Z</time>
      </trkpt>
      <trkpt lat="45.09557" lon="4.5855">
        <ele>805.03698730469</ele>
        <time>2009-08-12T15:17:08Z</time>
      </trkpt>
      <trkpt lat="45.0951" lon="4.5852">
        <ele>802.19799804688</ele>
        <time>2009-08-12T15:17:13Z</time>
      </trkpt>
      <trkpt lat="45.09479" lon="4.58517">
        <ele>800.90100097656</ele>
        <time>2009-08-12T15:17:16Z</time>
      </trkpt>
      <trkpt lat="45.09452" lon="4.5854">
        <ele>799.53497314453</ele>
        <time>2009-08-12T15:17:19Z</time>
      </trkpt>
      <trkpt lat="45.09429" lon="4.58572">
        <ele>798.00897216797</ele>
        <time>2009-08-12T15:17:22Z</time>
      </trkpt>
      <trkpt lat="45.09407" lon="4.58607">
        <ele>796.09002685547</ele>
        <time>2009-08-12T15:17:25Z</time>
      </trkpt>
      <trkpt lat="45.09382" lon="4.5868">
        <ele>792.57397460938</ele>
        <time>2009-08-12T15:17:30Z</time>
      </trkpt>
      <trkpt lat="45.09379" lon="4.58713">
        <ele>791.25201416016</ele>
        <time>2009-08-12T15:17:32Z</time>
      </trkpt>
      <trkpt lat="45.09384" lon="4.5876">
        <ele>789.50402832031</ele>
        <time>2009-08-12T15:17:35Z</time>
      </trkpt>
      <trkpt lat="45.09399" lon="4.58877">
        <ele>785.49597167969</ele>
        <time>2009-08-12T15:17:42Z</time>
      </trkpt>
      <trkpt lat="45.09408" lon="4.58981">
        <ele>781.99499511719</ele>
        <time>2009-08-12T15:17:48Z</time>
      </trkpt>
      <trkpt lat="45.09411" lon="4.59014">
        <ele>780.67999267578</ele>
        <time>2009-08-12T15:17:50Z</time>
      </trkpt>
      <trkpt lat="45.09416" lon="4.59065">
        <ele>778.33697509766</ele>
        <time>2009-08-12T15:17:53Z</time>
      </trkpt>
      <trkpt lat="45.09425" lon="4.59131">
        <ele>778.35900878906</ele>
        <time>2009-08-12T15:17:57Z</time>
      </trkpt>
      <trkpt lat="45.09424" lon="4.59233">
        <ele>772.92901611328</ele>
        <time>2009-08-12T15:18:03Z</time>
      </trkpt>
      <trkpt lat="45.0943" lon="4.59284">
        <ele>770.83801269531</ele>
        <time>2009-08-12T15:18:06Z</time>
      </trkpt>
      <trkpt lat="45.09471" lon="4.59367">
        <ele>768.15197753906</ele>
        <time>2009-08-12T15:18:12Z</time>
      </trkpt>
      <trkpt lat="45.09481" lon="4.59377">
        <ele>767.95300292969</ele>
        <time>2009-08-12T15:18:13Z</time>
      </trkpt>
      <trkpt lat="45.0953" lon="4.59426">
        <ele>765.33697509766</ele>
        <time>2009-08-12T15:18:18Z</time>
      </trkpt>
      <trkpt lat="45.09547" lon="4.5945">
        <ele>764.27801513672</ele>
        <time>2009-08-12T15:18:20Z</time>
      </trkpt>
      <trkpt lat="45.09574" lon="4.59525">
        <ele>762.07202148438</ele>
        <time>2009-08-12T15:18:25Z</time>
      </trkpt>
      <trkpt lat="45.09586" lon="4.59586">
        <ele>759.95202636719</ele>
        <time>2009-08-12T15:18:29Z</time>
      </trkpt>
      <trkpt lat="45.09625" lon="4.59666">
        <ele>757.78302001953</ele>
        <time>2009-08-12T15:18:35Z</time>
      </trkpt>
      <trkpt lat="45.09633" lon="4.59678">
        <ele>757.54602050781</ele>
        <time>2009-08-12T15:18:36Z</time>
      </trkpt>
      <trkpt lat="45.09658" lon="4.59802">
        <ele>752.72698974609</ele>
        <time>2009-08-12T15:18:44Z</time>
      </trkpt>
      <trkpt lat="45.0966" lon="4.59818">
        <ele>752.25500488281</ele>
        <time>2009-08-12T15:18:45Z</time>
      </trkpt>
      <trkpt lat="45.09668" lon="4.59917">
        <ele>748.67498779297</ele>
        <time>2009-08-12T15:18:51Z</time>
      </trkpt>
      <trkpt lat="45.09663" lon="4.59972">
        <ele>748.51800537109</ele>
        <time>2009-08-12T15:18:55Z</time>
      </trkpt>
      <trkpt lat="45.09661" lon="4.59981">
        <ele>748.90997314453</ele>
        <time>2009-08-12T15:18:59Z</time>
      </trkpt>
      <trkpt lat="45.0966" lon="4.59978">
        <ele>747.97900390625</ele>
        <time>2009-08-12T15:19:35Z</time>
      </trkpt>
      <trkpt lat="45.0965" lon="4.60029">
        <ele>745.80999755859</ele>
        <time>2009-08-12T15:19:45Z</time>
      </trkpt>
      <trkpt lat="45.09638" lon="4.60133">
        <ele>742.42797851562</ele>
        <time>2009-08-12T15:19:54Z</time>
      </trkpt>
      <trkpt lat="45.09615" lon="4.60213">
        <ele>738.57800292969</ele>
        <time>2009-08-12T15:20:00Z</time>
      </trkpt>
      <trkpt lat="45.09591" lon="4.60262">
        <ele>735.73498535156</ele>
        <time>2009-08-12T15:20:04Z</time>
      </trkpt>
      <trkpt lat="45.09585" lon="4.60274">
        <ele>735.20202636719</ele>
        <time>2009-08-12T15:20:05Z</time>
      </trkpt>
      <trkpt lat="45.0957" lon="4.60295">
        <ele>733.93597412109</ele>
        <time>2009-08-12T15:20:07Z</time>
      </trkpt>
      <trkpt lat="45.09541" lon="4.60334">
        <ele>731.97900390625</ele>
        <time>2009-08-12T15:20:11Z</time>
      </trkpt>
      <trkpt lat="45.09545" lon="4.60364">
        <ele>731.41497802734</ele>
        <time>2009-08-12T15:20:13Z</time>
      </trkpt>
      <trkpt lat="45.09559" lon="4.60435">
        <ele>728.71099853516</ele>
        <time>2009-08-12T15:20:18Z</time>
      </trkpt>
      <trkpt lat="45.09568" lon="4.60523">
        <ele>725.23797607422</ele>
        <time>2009-08-12T15:20:24Z</time>
      </trkpt>
      <trkpt lat="45.09573" lon="4.60593">
        <ele>722.68402099609</ele>
        <time>2009-08-12T15:20:29Z</time>
      </trkpt>
      <trkpt lat="45.09607" lon="4.60779">
        <ele>717.93597412109</ele>
        <time>2009-08-12T15:20:43Z</time>
      </trkpt>
      <trkpt lat="45.09636" lon="4.60873">
        <ele>720.90600585938</ele>
        <time>2009-08-12T15:20:52Z</time>
      </trkpt>
      <trkpt lat="45.09661" lon="4.60936">
        <ele>722.33599853516</ele>
        <time>2009-08-12T15:21:01Z</time>
      </trkpt>
      <trkpt lat="45.09699" lon="4.60991">
        <ele>721.61901855469</ele>
        <time>2009-08-12T15:21:12Z</time>
      </trkpt>
      <trkpt lat="45.09704" lon="4.60995">
        <ele>721.52301025391</ele>
        <time>2009-08-12T15:21:13Z</time>
      </trkpt>
      <trkpt lat="45.09719" lon="4.61017">
        <ele>719.78601074219</ele>
        <time>2009-08-12T15:21:19Z</time>
      </trkpt>
      <trkpt lat="45.09727" lon="4.61058">
        <ele>716.19201660156</ele>
        <time>2009-08-12T15:21:24Z</time>
      </trkpt>
      <trkpt lat="45.09734" lon="4.61099">
        <ele>714.19598388672</ele>
        <time>2009-08-12T15:21:28Z</time>
      </trkpt>
      <trkpt lat="45.09758" lon="4.61141">
        <ele>713.39099121094</ele>
        <time>2009-08-12T15:21:33Z</time>
      </trkpt>
      <trkpt lat="45.09786" lon="4.61297">
        <ele>710.31201171875</ele>
        <time>2009-08-12T15:21:47Z</time>
      </trkpt>
      <trkpt lat="45.09798" lon="4.61393">
        <ele>704.60998535156</ele>
        <time>2009-08-12T15:21:54Z</time>
      </trkpt>
      <trkpt lat="45.09815" lon="4.6143">
        <ele>703.20397949219</ele>
        <time>2009-08-12T15:21:57Z</time>
      </trkpt>
      <trkpt lat="45.0983" lon="4.6145">
        <ele>702.92797851562</ele>
        <time>2009-08-12T15:21:59Z</time>
      </trkpt>
      <trkpt lat="45.0987" lon="4.61485">
        <ele>702.98297119141</ele>
        <time>2009-08-12T15:22:04Z</time>
      </trkpt>
      <trkpt lat="45.09897" lon="4.6154">
        <ele>703.96801757812</ele>
        <time>2009-08-12T15:22:10Z</time>
      </trkpt>
      <trkpt lat="45.09912" lon="4.61635">
        <ele>703.92602539062</ele>
        <time>2009-08-12T15:22:19Z</time>
      </trkpt>
      <trkpt lat="45.09914" lon="4.61658">
        <ele>702.57501220703</ele>
        <time>2009-08-12T15:22:21Z</time>
      </trkpt>
      <trkpt lat="45.09911" lon="4.61702">
        <ele>702.22198486328</ele>
        <time>2009-08-12T15:22:25Z</time>
      </trkpt>
      <trkpt lat="45.09873" lon="4.61768">
        <ele>697.07800292969</ele>
        <time>2009-08-12T15:22:32Z</time>
      </trkpt>
      <trkpt lat="45.09856" lon="4.61785">
        <ele>695.3759765625</ele>
        <time>2009-08-12T15:22:34Z</time>
      </trkpt>
      <trkpt lat="45.098" lon="4.61843">
        <ele>693.98602294922</ele>
        <time>2009-08-12T15:22:41Z</time>
      </trkpt>
      <trkpt lat="45.09764" lon="4.61871">
        <ele>690.70001220703</ele>
        <time>2009-08-12T15:22:45Z</time>
      </trkpt>
      <trkpt lat="45.09725" lon="4.61907">
        <ele>686.89300537109</ele>
        <time>2009-08-12T15:22:50Z</time>
      </trkpt>
      <trkpt lat="45.09696" lon="4.61905">
        <ele>684.08197021484</ele>
        <time>2009-08-12T15:22:54Z</time>
      </trkpt>
      <trkpt lat="45.09657" lon="4.61906">
        <ele>679.64599609375</ele>
        <time>2009-08-12T15:22:58Z</time>
      </trkpt>
      <trkpt lat="45.09639" lon="4.61912">
        <ele>678.85601806641</ele>
        <time>2009-08-12T15:23:00Z</time>
      </trkpt>
      <trkpt lat="45.09611" lon="4.61942">
        <ele>678.65698242188</ele>
        <time>2009-08-12T15:23:05Z</time>
      </trkpt>
      <trkpt lat="45.09599" lon="4.61964">
        <ele>678.20202636719</ele>
        <time>2009-08-12T15:23:08Z</time>
      </trkpt>
      <trkpt lat="45.09574" lon="4.61989">
        <ele>676.38500976562</ele>
        <time>2009-08-12T15:23:12Z</time>
      </trkpt>
      <trkpt lat="45.09538" lon="4.62027">
        <ele>673.08599853516</ele>
        <time>2009-08-12T15:23:17Z</time>
      </trkpt>
      <trkpt lat="45.09533" lon="4.62035">
        <ele>672.51300048828</ele>
        <time>2009-08-12T15:23:18Z</time>
      </trkpt>
      <trkpt lat="45.09507" lon="4.62048">
        <ele>674.15502929688</ele>
        <time>2009-08-12T15:23:22Z</time>
      </trkpt>
      <trkpt lat="45.09495" lon="4.62043">
        <ele>674.68402099609</ele>
        <time>2009-08-12T15:23:24Z</time>
      </trkpt>
      <trkpt lat="45.0947" lon="4.62019">
        <ele>677.59399414062</ele>
        <time>2009-08-12T15:23:29Z</time>
      </trkpt>
      <trkpt lat="45.09456" lon="4.62003">
        <ele>679.07098388672</ele>
        <time>2009-08-12T15:23:33Z</time>
      </trkpt>
      <trkpt lat="45.09451" lon="4.6199">
        <ele>680.64898681641</ele>
        <time>2009-08-12T15:23:36Z</time>
      </trkpt>
      <trkpt lat="45.09445" lon="4.61977">
        <ele>683.29699707031</ele>
        <time>2009-08-12T15:23:40Z</time>
      </trkpt>
      <trkpt lat="45.09431" lon="4.61961">
        <ele>684.22998046875</ele>
        <time>2009-08-12T15:23:46Z</time>
      </trkpt>
      <trkpt lat="45.09427" lon="4.61959">
        <ele>684.01098632812</ele>
        <time>2009-08-12T15:23:47Z</time>
      </trkpt>
      <trkpt lat="45.09407" lon="4.61964">
        <ele>683.39697265625</ele>
        <time>2009-08-12T15:23:52Z</time>
      </trkpt>
      <trkpt lat="45.09375" lon="4.62018">
        <ele>684.38299560547</ele>
        <time>2009-08-12T15:24:04Z</time>
      </trkpt>
      <trkpt lat="45.09368" lon="4.62032">
        <ele>685.24700927734</ele>
        <time>2009-08-12T15:24:07Z</time>
      </trkpt>
      <trkpt lat="45.09362" lon="4.62058">
        <ele>684.45397949219</ele>
        <time>2009-08-12T15:24:11Z</time>
      </trkpt>
      <trkpt lat="45.0936" lon="4.62073">
        <ele>684.07800292969</ele>
        <time>2009-08-12T15:24:13Z</time>
      </trkpt>
      <trkpt lat="45.09357" lon="4.6213">
        <ele>682.75897216797</ele>
        <time>2009-08-12T15:24:20Z</time>
      </trkpt>
      <trkpt lat="45.09354" lon="4.62146">
        <ele>683.42602539062</ele>
        <time>2009-08-12T15:24:22Z</time>
      </trkpt>
      <trkpt lat="45.09337" lon="4.62184">
        <ele>683.53100585938</ele>
        <time>2009-08-12T15:24:28Z</time>
      </trkpt>
      <trkpt lat="45.09291" lon="4.62244">
        <ele>683.8759765625</ele>
        <time>2009-08-12T15:24:40Z</time>
      </trkpt>
      <trkpt lat="45.09248" lon="4.6229">
        <ele>687.81201171875</ele>
        <time>2009-08-12T15:24:53Z</time>
      </trkpt>
      <trkpt lat="45.09238" lon="4.62301">
        <ele>687.98400878906</ele>
        <time>2009-08-12T15:24:56Z</time>
      </trkpt>
      <trkpt lat="45.09184" lon="4.6236">
        <ele>686.94201660156</ele>
        <time>2009-08-12T15:25:09Z</time>
      </trkpt>
      <trkpt lat="45.09154" lon="4.6237">
        <ele>681.80499267578</ele>
        <time>2009-08-12T15:25:14Z</time>
      </trkpt>
      <trkpt lat="45.09123" lon="4.62364">
        <ele>675.69396972656</ele>
        <time>2009-08-12T15:25:18Z</time>
      </trkpt>
      <trkpt lat="45.09106" lon="4.62359">
        <ele>674.54901123047</ele>
        <time>2009-08-12T15:25:20Z</time>
      </trkpt>
      <trkpt lat="45.0909" lon="4.62324">
        <ele>673.69201660156</ele>
        <time>2009-08-12T15:25:24Z</time>
      </trkpt>
      <trkpt lat="45.09086" lon="4.62303">
        <ele>673.08697509766</ele>
        <time>2009-08-12T15:25:26Z</time>
      </trkpt>
      <trkpt lat="45.0906" lon="4.62233">
        <ele>668.54302978516</ele>
        <time>2009-08-12T15:25:33Z</time>
      </trkpt>
      <trkpt lat="45.09049" lon="4.62219">
        <ele>667.77301025391</ele>
        <time>2009-08-12T15:25:35Z</time>
      </trkpt>
      <trkpt lat="45.09015" lon="4.62176">
        <ele>664.40399169922</ele>
        <time>2009-08-12T15:25:41Z</time>
      </trkpt>
      <trkpt lat="45.08983" lon="4.62115">
        <ele>662.40997314453</ele>
        <time>2009-08-12T15:25:47Z</time>
      </trkpt>
      <trkpt lat="45.08933" lon="4.62061">
        <ele>654.20300292969</ele>
        <time>2009-08-12T15:25:56Z</time>
      </trkpt>
      <trkpt lat="45.08929" lon="4.62056">
        <ele>654.19000244141</ele>
        <time>2009-08-12T15:25:57Z</time>
      </trkpt>
      <trkpt lat="45.08893" lon="4.62064">
        <ele>647.94598388672</ele>
        <time>2009-08-12T15:26:04Z</time>
      </trkpt>
      <trkpt lat="45.08852" lon="4.62081">
        <ele>640.41802978516</ele>
        <time>2009-08-12T15:26:10Z</time>
      </trkpt>
      <trkpt lat="45.08846" lon="4.62092">
        <ele>636.87298583984</ele>
        <time>2009-08-12T15:26:11Z</time>
      </trkpt>
      <trkpt lat="45.08825" lon="4.62136">
        <ele>628.97100830078</ele>
        <time>2009-08-12T15:26:14Z</time>
      </trkpt>
      <trkpt lat="45.08765" lon="4.62201">
        <ele>622.99102783203</ele>
        <time>2009-08-12T15:26:20Z</time>
      </trkpt>
      <trkpt lat="45.08756" lon="4.62208">
        <ele>622.36199951172</ele>
        <time>2009-08-12T15:26:21Z</time>
      </trkpt>
      <trkpt lat="45.08733" lon="4.62221">
        <ele>619.16497802734</ele>
        <time>2009-08-12T15:26:24Z</time>
      </trkpt>
      <trkpt lat="45.08724" lon="4.62265">
        <ele>611.64202880859</ele>
        <time>2009-08-12T15:26:30Z</time>
      </trkpt>
      <trkpt lat="45.08729" lon="4.6228">
        <ele>609.81597900391</ele>
        <time>2009-08-12T15:26:32Z</time>
      </trkpt>
      <trkpt lat="45.08727" lon="4.62322">
        <ele>602.60797119141</ele>
        <time>2009-08-12T15:26:36Z</time>
      </trkpt>
      <trkpt lat="45.0872" lon="4.62381">
        <ele>593.2919921875</ele>
        <time>2009-08-12T15:26:40Z</time>
      </trkpt>
      <trkpt lat="45.08713" lon="4.6241">
        <ele>589.02197265625</ele>
        <time>2009-08-12T15:26:42Z</time>
      </trkpt>
      <trkpt lat="45.087" lon="4.62493">
        <ele>580.79699707031</ele>
        <time>2009-08-12T15:26:48Z</time>
      </trkpt>
      <trkpt lat="45.08673" lon="4.6258">
        <ele>569.83001708984</ele>
        <time>2009-08-12T15:26:56Z</time>
      </trkpt>
      <trkpt lat="45.08666" lon="4.62596">
        <ele>568.71002197266</ele>
        <time>2009-08-12T15:26:58Z</time>
      </trkpt>
      <trkpt lat="45.08661" lon="4.62608">
        <ele>567.43701171875</ele>
        <time>2009-08-12T15:27:01Z</time>
      </trkpt>
      <trkpt lat="45.08659" lon="4.62638">
        <ele>564.89300537109</ele>
        <time>2009-08-12T15:27:05Z</time>
      </trkpt>
      <trkpt lat="45.08659" lon="4.62677">
        <ele>563.07202148438</ele>
        <time>2009-08-12T15:27:09Z</time>
      </trkpt>
      <trkpt lat="45.08649" lon="4.62703">
        <ele>561.90100097656</ele>
        <time>2009-08-12T15:27:17Z</time>
      </trkpt>
      <trkpt lat="45.08632" lon="4.62735">
        <ele>561.89697265625</ele>
        <time>2009-08-12T15:27:23Z</time>
      </trkpt>
      <trkpt lat="45.08633" lon="4.62745">
        <ele>561.53497314453</ele>
        <time>2009-08-12T15:27:24Z</time>
      </trkpt>
      <trkpt lat="45.0861" lon="4.62785">
        <ele>559.22100830078</ele>
        <time>2009-08-12T15:27:34Z</time>
      </trkpt>
      <trkpt lat="45.08606" lon="4.62796">
        <ele>558.37097167969</ele>
        <time>2009-08-12T15:27:38Z</time>
      </trkpt>
      <trkpt lat="45.08626" lon="4.62819">
        <ele>557.76800537109</ele>
        <time>2009-08-12T15:27:43Z</time>
      </trkpt>
      <trkpt lat="45.08656" lon="4.62826">
        <ele>556.90997314453</ele>
        <time>2009-08-12T15:27:48Z</time>
      </trkpt>
      <trkpt lat="45.08673" lon="4.62797">
        <ele>556.65899658203</ele>
        <time>2009-08-12T15:27:56Z</time>
      </trkpt>
      <trkpt lat="45.0867" lon="4.62793">
        <ele>556.83599853516</ele>
        <time>2009-08-12T15:27:58Z</time>
      </trkpt>
      <trkpt lat="45.0867" lon="4.62791">
        <ele>557.31896972656</ele>
        <time>2009-08-12T15:28:01Z</time>
      </trkpt>
      <trkpt lat="45.08698" lon="4.62787">
        <ele>554.84100341797</ele>
        <time>2009-08-12T15:28:53Z</time>
      </trkpt>
      <trkpt lat="45.08707" lon="4.62764">
        <ele>554.16198730469</ele>
        <time>2009-08-12T15:28:56Z</time>
      </trkpt>
      <trkpt lat="45.08715" lon="4.62736">
        <ele>553.25402832031</ele>
        <time>2009-08-12T15:28:59Z</time>
      </trkpt>
      <trkpt lat="45.08728" lon="4.62698">
        <ele>553.26300048828</ele>
        <time>2009-08-12T15:29:03Z</time>
      </trkpt>
      <trkpt lat="45.08734" lon="4.62678">
        <ele>552.79797363281</ele>
        <time>2009-08-12T15:29:05Z</time>
      </trkpt>
      <trkpt lat="45.08766" lon="4.62668">
        <ele>552.03198242188</ele>
        <time>2009-08-12T15:29:10Z</time>
      </trkpt>
      <trkpt lat="45.08778" lon="4.62724">
        <ele>550.19299316406</ele>
        <time>2009-08-12T15:29:15Z</time>
      </trkpt>
      <trkpt lat="45.08786" lon="4.62786">
        <ele>550.15502929688</ele>
        <time>2009-08-12T15:29:20Z</time>
      </trkpt>
      <trkpt lat="45.08852" lon="4.62871">
        <ele>548.36499023438</ele>
        <time>2009-08-12T15:29:31Z</time>
      </trkpt>
      <trkpt lat="45.08906" lon="4.62909">
        <ele>547.81799316406</ele>
        <time>2009-08-12T15:29:38Z</time>
      </trkpt>
      <trkpt lat="45.0898" lon="4.62972">
        <ele>545.23602294922</ele>
        <time>2009-08-12T15:29:48Z</time>
      </trkpt>
      <trkpt lat="45.09043" lon="4.63028">
        <ele>542.61199951172</ele>
        <time>2009-08-12T15:29:56Z</time>
      </trkpt>
      <trkpt lat="45.09057" lon="4.63046">
        <ele>541.97100830078</ele>
        <time>2009-08-12T15:29:58Z</time>
      </trkpt>
      <trkpt lat="45.09091" lon="4.63095">
        <ele>540.27697753906</ele>
        <time>2009-08-12T15:30:03Z</time>
      </trkpt>
      <trkpt lat="45.09139" lon="4.63234">
        <ele>537.16302490234</ele>
        <time>2009-08-12T15:30:14Z</time>
      </trkpt>
      <trkpt lat="45.09141" lon="4.63249">
        <ele>536.2080078125</ele>
        <time>2009-08-12T15:30:15Z</time>
      </trkpt>
      <trkpt lat="45.09137" lon="4.63374">
        <ele>535.46197509766</ele>
        <time>2009-08-12T15:30:24Z</time>
      </trkpt>
      <trkpt lat="45.09162" lon="4.63454">
        <ele>535.84301757812</ele>
        <time>2009-08-12T15:30:31Z</time>
      </trkpt>
      <trkpt lat="45.09205" lon="4.63473">
        <ele>534.92199707031</ele>
        <time>2009-08-12T15:30:37Z</time>
      </trkpt>
      <trkpt lat="45.09233" lon="4.63443">
        <ele>534.75500488281</ele>
        <time>2009-08-12T15:30:41Z</time>
      </trkpt>
      <trkpt lat="45.09245" lon="4.63422">
        <ele>534.08197021484</ele>
        <time>2009-08-12T15:30:43Z</time>
      </trkpt>
      <trkpt lat="45.09309" lon="4.63354">
        <ele>532.59698486328</ele>
        <time>2009-08-12T15:30:51Z</time>
      </trkpt>
      <trkpt lat="45.09407" lon="4.63281">
        <ele>528.72497558594</ele>
        <time>2009-08-12T15:31:01Z</time>
      </trkpt>
      <trkpt lat="45.09439" lon="4.63265">
        <ele>527.36798095703</ele>
        <time>2009-08-12T15:31:04Z</time>
      </trkpt>
      <trkpt lat="45.0947" lon="4.63273">
        <ele>525.69396972656</ele>
        <time>2009-08-12T15:31:07Z</time>
      </trkpt>
      <trkpt lat="45.09476" lon="4.63334">
        <ele>528.10797119141</ele>
        <time>2009-08-12T15:31:12Z</time>
      </trkpt>
      <trkpt lat="45.09457" lon="4.6335">
        <ele>529.79602050781</ele>
        <time>2009-08-12T15:31:15Z</time>
      </trkpt>
      <trkpt lat="45.09446" lon="4.63357">
        <ele>530.20300292969</ele>
        <time>2009-08-12T15:31:17Z</time>
      </trkpt>
      <trkpt lat="45.0943" lon="4.63381">
        <ele>531.6669921875</ele>
        <time>2009-08-12T15:31:21Z</time>
      </trkpt>
      <trkpt lat="45.09426" lon="4.63405">
        <ele>533.01397705078</ele>
        <time>2009-08-12T15:31:24Z</time>
      </trkpt>
      <trkpt lat="45.09425" lon="4.6342">
        <ele>533.42401123047</ele>
        <time>2009-08-12T15:31:26Z</time>
      </trkpt>
      <trkpt lat="45.09422" lon="4.6345">
        <ele>534.39697265625</ele>
        <time>2009-08-12T15:31:30Z</time>
      </trkpt>
      <trkpt lat="45.09402" lon="4.63551">
        <ele>538.04400634766</ele>
        <time>2009-08-12T15:31:46Z</time>
      </trkpt>
      <trkpt lat="45.09423" lon="4.63643">
        <ele>541.59002685547</ele>
        <time>2009-08-12T15:32:01Z</time>
      </trkpt>
      <trkpt lat="45.0946" lon="4.6374">
        <ele>545.95001220703</ele>
        <time>2009-08-12T15:32:20Z</time>
      </trkpt>
      <trkpt lat="45.09463" lon="4.63751">
        <ele>546.33502197266</ele>
        <time>2009-08-12T15:32:22Z</time>
      </trkpt>
      <trkpt lat="45.09448" lon="4.63797">
        <ele>548.42102050781</ele>
        <time>2009-08-12T15:32:32Z</time>
      </trkpt>
      <trkpt lat="45.09429" lon="4.63786">
        <ele>550.25201416016</ele>
        <time>2009-08-12T15:32:37Z</time>
      </trkpt>
      <trkpt lat="45.09412" lon="4.63765">
        <ele>551.31201171875</ele>
        <time>2009-08-12T15:32:42Z</time>
      </trkpt>
      <trkpt lat="45.09367" lon="4.63754">
        <ele>553.75897216797</ele>
        <time>2009-08-12T15:32:51Z</time>
      </trkpt>
      <trkpt lat="45.09301" lon="4.63812">
        <ele>556.55798339844</ele>
        <time>2009-08-12T15:33:07Z</time>
      </trkpt>
      <trkpt lat="45.0925" lon="4.6386">
        <ele>560.14300537109</ele>
        <time>2009-08-12T15:33:22Z</time>
      </trkpt>
      <trkpt lat="45.09214" lon="4.63899">
        <ele>562.28497314453</ele>
        <time>2009-08-12T15:33:34Z</time>
      </trkpt>
      <trkpt lat="45.09203" lon="4.63977">
        <ele>565.27001953125</ele>
        <time>2009-08-12T15:33:47Z</time>
      </trkpt>
      <trkpt lat="45.0918" lon="4.64024">
        <ele>566.11700439453</ele>
        <time>2009-08-12T15:33:57Z</time>
      </trkpt>
      <trkpt lat="45.09163" lon="4.64041">
        <ele>567.88397216797</ele>
        <time>2009-08-12T15:34:02Z</time>
      </trkpt>
      <trkpt lat="45.09125" lon="4.64026">
        <ele>571.98699951172</ele>
        <time>2009-08-12T15:34:13Z</time>
      </trkpt>
      <trkpt lat="45.09084" lon="4.63995">
        <ele>574.06500244141</ele>
        <time>2009-08-12T15:34:25Z</time>
      </trkpt>
      <trkpt lat="45.09001" lon="4.63998">
        <ele>578.15698242188</ele>
        <time>2009-08-12T15:34:44Z</time>
      </trkpt>
      <trkpt lat="45.08977" lon="4.64032">
        <ele>578.93902587891</ele>
        <time>2009-08-12T15:34:52Z</time>
      </trkpt>
      <trkpt lat="45.0899" lon="4.64061">
        <ele>580.42199707031</ele>
        <time>2009-08-12T15:34:58Z</time>
      </trkpt>
      <trkpt lat="45.09054" lon="4.64097">
        <ele>582.71899414062</ele>
        <time>2009-08-12T15:35:16Z</time>
      </trkpt>
      <trkpt lat="45.09069" lon="4.64109">
        <ele>584.32800292969</ele>
        <time>2009-08-12T15:35:20Z</time>
      </trkpt>
      <trkpt lat="45.09125" lon="4.64154">
        <ele>586.73602294922</ele>
        <time>2009-08-12T15:35:37Z</time>
      </trkpt>
      <trkpt lat="45.09154" lon="4.64157">
        <ele>589.40100097656</ele>
        <time>2009-08-12T15:35:44Z</time>
      </trkpt>
      <trkpt lat="45.0924" lon="4.64157">
        <ele>593.17901611328</ele>
        <time>2009-08-12T15:36:05Z</time>
      </trkpt>
      <trkpt lat="45.09307" lon="4.64178">
        <ele>596.68200683594</ele>
        <time>2009-08-12T15:36:23Z</time>
      </trkpt>
      <trkpt lat="45.09341" lon="4.64218">
        <ele>599.54602050781</ele>
        <time>2009-08-12T15:36:35Z</time>
      </trkpt>
      <trkpt lat="45.09364" lon="4.64263">
        <ele>601.34301757812</ele>
        <time>2009-08-12T15:36:46Z</time>
      </trkpt>
      <trkpt lat="45.09385" lon="4.64316">
        <ele>603.93902587891</ele>
        <time>2009-08-12T15:36:58Z</time>
      </trkpt>
      <trkpt lat="45.09418" lon="4.64374">
        <ele>607.10699462891</ele>
        <time>2009-08-12T15:37:12Z</time>
      </trkpt>
      <trkpt lat="45.09472" lon="4.64423">
        <ele>609.69598388672</ele>
        <time>2009-08-12T15:37:29Z</time>
      </trkpt>
      <trkpt lat="45.09526" lon="4.64485">
        <ele>613.29498291016</ele>
        <time>2009-08-12T15:37:49Z</time>
      </trkpt>
      <trkpt lat="45.09582" lon="4.64522">
        <ele>616.84600830078</ele>
        <time>2009-08-12T15:38:05Z</time>
      </trkpt>
      <trkpt lat="45.09597" lon="4.64533">
        <ele>616.79998779297</ele>
        <time>2009-08-12T15:38:09Z</time>
      </trkpt>
      <trkpt lat="45.09607" lon="4.64544">
        <ele>616.78399658203</ele>
        <time>2009-08-12T15:38:12Z</time>
      </trkpt>
      <trkpt lat="45.09614" lon="4.64551">
        <ele>618.90899658203</ele>
        <time>2009-08-12T15:38:14Z</time>
      </trkpt>
      <trkpt lat="45.09646" lon="4.64594">
        <ele>621.12200927734</ele>
        <time>2009-08-12T15:38:25Z</time>
      </trkpt>
      <trkpt lat="45.09664" lon="4.64664">
        <ele>624.25299072266</ele>
        <time>2009-08-12T15:38:40Z</time>
      </trkpt>
      <trkpt lat="45.09681" lon="4.64765">
        <ele>624.66900634766</ele>
        <time>2009-08-12T15:38:59Z</time>
      </trkpt>
      <trkpt lat="45.09683" lon="4.64831">
        <ele>621.46502685547</ele>
        <time>2009-08-12T15:39:08Z</time>
      </trkpt>
      <trkpt lat="45.09684" lon="4.64869">
        <ele>617.48498535156</ele>
        <time>2009-08-12T15:39:13Z</time>
      </trkpt>
      <trkpt lat="45.09681" lon="4.64892">
        <ele>619.47399902344</ele>
        <time>2009-08-12T15:39:20Z</time>
      </trkpt>
      <trkpt lat="45.09681" lon="4.64894">
        <ele>619.74102783203</ele>
        <time>2009-08-12T15:39:27Z</time>
      </trkpt>
      <trkpt lat="45.09689" lon="4.6489">
        <ele>619.93701171875</ele>
        <time>2009-08-12T15:39:51Z</time>
      </trkpt>
      <trkpt lat="45.09689" lon="4.64881">
        <ele>620.09002685547</ele>
        <time>2009-08-12T15:39:53Z</time>
      </trkpt>
      <trkpt lat="45.09687" lon="4.64832">
        <ele>621.52398681641</ele>
        <time>2009-08-12T15:40:01Z</time>
      </trkpt>
      <trkpt lat="45.09687" lon="4.648">
        <ele>622.95501708984</ele>
        <time>2009-08-12T15:40:06Z</time>
      </trkpt>
      <trkpt lat="45.09686" lon="4.64781">
        <ele>623.32299804688</ele>
        <time>2009-08-12T15:40:09Z</time>
      </trkpt>
      <trkpt lat="45.09685" lon="4.64761">
        <ele>623.84802246094</ele>
        <time>2009-08-12T15:40:12Z</time>
      </trkpt>
      <trkpt lat="45.09681" lon="4.64712">
        <ele>625.50897216797</ele>
        <time>2009-08-12T15:40:24Z</time>
      </trkpt>
      <trkpt lat="45.09673" lon="4.64676">
        <ele>624.12298583984</ele>
        <time>2009-08-12T15:41:00Z</time>
      </trkpt>
      <trkpt lat="45.09665" lon="4.64643">
        <ele>623.02001953125</ele>
        <time>2009-08-12T15:41:05Z</time>
      </trkpt>
      <trkpt lat="45.09662" lon="4.64629">
        <ele>623.00701904297</ele>
        <time>2009-08-12T15:41:07Z</time>
      </trkpt>
      <trkpt lat="45.0966" lon="4.64617">
        <ele>621.98101806641</ele>
        <time>2009-08-12T15:41:09Z</time>
      </trkpt>
      <trkpt lat="45.09655" lon="4.646">
        <ele>621.88201904297</ele>
        <time>2009-08-12T15:41:12Z</time>
      </trkpt>
      <trkpt lat="45.0965" lon="4.64529">
        <ele>616.20501708984</ele>
        <time>2009-08-12T15:41:20Z</time>
      </trkpt>
      <trkpt lat="45.09668" lon="4.64458">
        <ele>615.15899658203</ele>
        <time>2009-08-12T15:41:28Z</time>
      </trkpt>
      <trkpt lat="45.09678" lon="4.6443">
        <ele>612.82501220703</ele>
        <time>2009-08-12T15:41:31Z</time>
      </trkpt>
      <trkpt lat="45.097" lon="4.64382">
        <ele>610.21600341797</ele>
        <time>2009-08-12T15:41:37Z</time>
      </trkpt>
      <trkpt lat="45.09698" lon="4.64316">
        <ele>606.35699462891</ele>
        <time>2009-08-12T15:41:43Z</time>
      </trkpt>
      <trkpt lat="45.09668" lon="4.64245">
        <ele>602.32098388672</ele>
        <time>2009-08-12T15:41:49Z</time>
      </trkpt>
      <trkpt lat="45.09662" lon="4.64202">
        <ele>600.166015625</ele>
        <time>2009-08-12T15:41:53Z</time>
      </trkpt>
      <trkpt lat="45.09674" lon="4.64177">
        <ele>598.84600830078</ele>
        <time>2009-08-12T15:41:56Z</time>
      </trkpt>
      <trkpt lat="45.09686" lon="4.64165">
        <ele>598.2509765625</ele>
        <time>2009-08-12T15:41:58Z</time>
      </trkpt>
      <trkpt lat="45.0971" lon="4.64133">
        <ele>596.09899902344</ele>
        <time>2009-08-12T15:42:03Z</time>
      </trkpt>
      <trkpt lat="45.09718" lon="4.64117">
        <ele>595.00799560547</ele>
        <time>2009-08-12T15:42:05Z</time>
      </trkpt>
      <trkpt lat="45.09725" lon="4.6407">
        <ele>592.72198486328</ele>
        <time>2009-08-12T15:42:10Z</time>
      </trkpt>
      <trkpt lat="45.09723" lon="4.64051">
        <ele>591.59002685547</ele>
        <time>2009-08-12T15:42:12Z</time>
      </trkpt>
      <trkpt lat="45.09721" lon="4.6403">
        <ele>590.71002197266</ele>
        <time>2009-08-12T15:42:14Z</time>
      </trkpt>
      <trkpt lat="45.0969" lon="4.63978">
        <ele>587.48602294922</ele>
        <time>2009-08-12T15:42:20Z</time>
      </trkpt>
      <trkpt lat="45.09685" lon="4.63969">
        <ele>586.98999023438</ele>
        <time>2009-08-12T15:42:21Z</time>
      </trkpt>
      <trkpt lat="45.09676" lon="4.6395">
        <ele>586.14501953125</ele>
        <time>2009-08-12T15:42:23Z</time>
      </trkpt>
      <trkpt lat="45.09662" lon="4.63904">
        <ele>583.49298095703</ele>
        <time>2009-08-12T15:42:27Z</time>
      </trkpt>
      <trkpt lat="45.0965" lon="4.63782">
        <ele>577.6240234375</ele>
        <time>2009-08-12T15:42:36Z</time>
      </trkpt>
      <trkpt lat="45.09649" lon="4.63764">
        <ele>577.05200195312</ele>
        <time>2009-08-12T15:42:38Z</time>
      </trkpt>
      <trkpt lat="45.09635" lon="4.63776">
        <ele>575.51397705078</ele>
        <time>2009-08-12T15:42:44Z</time>
      </trkpt>
      <trkpt lat="45.09628" lon="4.63807">
        <ele>572.99798583984</ele>
        <time>2009-08-12T15:42:48Z</time>
      </trkpt>
      <trkpt lat="45.09615" lon="4.63831">
        <ele>570.98199462891</ele>
        <time>2009-08-12T15:42:51Z</time>
      </trkpt>
      <trkpt lat="45.09596" lon="4.63867">
        <ele>568.96899414062</ele>
        <time>2009-08-12T15:42:55Z</time>
      </trkpt>
      <trkpt lat="45.09584" lon="4.63916">
        <ele>564.94897460938</ele>
        <time>2009-08-12T15:42:59Z</time>
      </trkpt>
      <trkpt lat="45.09584" lon="4.63939">
        <ele>565.40399169922</ele>
        <time>2009-08-12T15:43:01Z</time>
      </trkpt>
      <trkpt lat="45.09563" lon="4.63944">
        <ele>562.44299316406</ele>
        <time>2009-08-12T15:43:07Z</time>
      </trkpt>
      <trkpt lat="45.09548" lon="4.63917">
        <ele>560.42901611328</ele>
        <time>2009-08-12T15:43:10Z</time>
      </trkpt>
      <trkpt lat="45.09511" lon="4.63853">
        <ele>555.6259765625</ele>
        <time>2009-08-12T15:43:16Z</time>
      </trkpt>
      <trkpt lat="45.09505" lon="4.6384">
        <ele>554.52197265625</ele>
        <time>2009-08-12T15:43:17Z</time>
      </trkpt>
      <trkpt lat="45.09491" lon="4.63721">
        <ele>548.76800537109</ele>
        <time>2009-08-12T15:43:25Z</time>
      </trkpt>
      <trkpt lat="45.09486" lon="4.63689">
        <ele>546.95098876953</ele>
        <time>2009-08-12T15:43:28Z</time>
      </trkpt>
      <trkpt lat="45.0947" lon="4.63677">
        <ele>544.93200683594</ele>
        <time>2009-08-12T15:43:31Z</time>
      </trkpt>
      <trkpt lat="45.09428" lon="4.63641">
        <ele>538.32800292969</ele>
        <time>2009-08-12T15:43:38Z</time>
      </trkpt>
      <trkpt lat="45.09416" lon="4.63608">
        <ele>536.21600341797</ele>
        <time>2009-08-12T15:43:41Z</time>
      </trkpt>
      <trkpt lat="45.09407" lon="4.63569">
        <ele>533.97100830078</ele>
        <time>2009-08-12T15:43:44Z</time>
      </trkpt>
      <trkpt lat="45.09415" lon="4.63481">
        <ele>531.25299072266</ele>
        <time>2009-08-12T15:43:50Z</time>
      </trkpt>
      <trkpt lat="45.09426" lon="4.63435">
        <ele>528.75500488281</ele>
        <time>2009-08-12T15:43:53Z</time>
      </trkpt>
      <trkpt lat="45.0943" lon="4.63403">
        <ele>527.15802001953</ele>
        <time>2009-08-12T15:43:55Z</time>
      </trkpt>
      <trkpt lat="45.09476" lon="4.63336">
        <ele>523.33197021484</ele>
        <time>2009-08-12T15:44:01Z</time>
      </trkpt>
      <trkpt lat="45.09483" lon="4.63277">
        <ele>521.65899658203</ele>
        <time>2009-08-12T15:44:05Z</time>
      </trkpt>
      <trkpt lat="45.09441" lon="4.6325">
        <ele>523.55902099609</ele>
        <time>2009-08-12T15:44:10Z</time>
      </trkpt>
      <trkpt lat="45.09434" lon="4.63256">
        <ele>523.55999755859</ele>
        <time>2009-08-12T15:44:11Z</time>
      </trkpt>
      <trkpt lat="45.09357" lon="4.63303">
        <ele>526.54998779297</ele>
        <time>2009-08-12T15:44:23Z</time>
      </trkpt>
      <trkpt lat="45.09336" lon="4.63322">
        <ele>526.88800048828</ele>
        <time>2009-08-12T15:44:27Z</time>
      </trkpt>
      <trkpt lat="45.09301" lon="4.63349">
        <ele>528.29998779297</ele>
        <time>2009-08-12T15:44:34Z</time>
      </trkpt>
      <trkpt lat="45.09278" lon="4.63368">
        <ele>529.30200195312</ele>
        <time>2009-08-12T15:44:39Z</time>
      </trkpt>
      <trkpt lat="45.09245" lon="4.63403">
        <ele>531.34899902344</ele>
        <time>2009-08-12T15:44:47Z</time>
      </trkpt>
      <trkpt lat="45.09221" lon="4.63447">
        <ele>531.79400634766</ele>
        <time>2009-08-12T15:44:54Z</time>
      </trkpt>
      <trkpt lat="45.09174" lon="4.63463">
        <ele>532.0419921875</ele>
        <time>2009-08-12T15:45:03Z</time>
      </trkpt>
      <trkpt lat="45.09159" lon="4.63444">
        <ele>532.41400146484</ele>
        <time>2009-08-12T15:45:06Z</time>
      </trkpt>
      <trkpt lat="45.0914" lon="4.63391">
        <ele>531.75</ele>
        <time>2009-08-12T15:45:12Z</time>
      </trkpt>
      <trkpt lat="45.09136" lon="4.63341">
        <ele>532.34100341797</ele>
        <time>2009-08-12T15:45:17Z</time>
      </trkpt>
      <trkpt lat="45.09143" lon="4.63263">
        <ele>533.48101806641</ele>
        <time>2009-08-12T15:45:25Z</time>
      </trkpt>
      <trkpt lat="45.09117" lon="4.63142">
        <ele>535.19000244141</ele>
        <time>2009-08-12T15:45:39Z</time>
      </trkpt>
      <trkpt lat="45.09082" lon="4.6307">
        <ele>537.32800292969</ele>
        <time>2009-08-12T15:45:50Z</time>
      </trkpt>
      <trkpt lat="45.09041" lon="4.63015">
        <ele>538.36602783203</ele>
        <time>2009-08-12T15:46:00Z</time>
      </trkpt>
      <trkpt lat="45.08973" lon="4.62956">
        <ele>541.42901611328</ele>
        <time>2009-08-12T15:46:14Z</time>
      </trkpt>
      <trkpt lat="45.0889" lon="4.62888">
        <ele>542.88299560547</ele>
        <time>2009-08-12T15:46:30Z</time>
      </trkpt>
      <trkpt lat="45.08879" lon="4.62881">
        <ele>543.66802978516</ele>
        <time>2009-08-12T15:46:32Z</time>
      </trkpt>
      <trkpt lat="45.0885" lon="4.62862">
        <ele>544.96301269531</ele>
        <time>2009-08-12T15:46:38Z</time>
      </trkpt>
      <trkpt lat="45.08854" lon="4.62843">
        <ele>546.21801757812</ele>
        <time>2009-08-12T15:46:44Z</time>
      </trkpt>
      <trkpt lat="45.0886" lon="4.62848">
        <ele>546.48297119141</ele>
        <time>2009-08-12T15:46:46Z</time>
      </trkpt>
      <trkpt lat="45.08913" lon="4.62879">
        <ele>547.27001953125</ele>
        <time>2009-08-12T15:46:58Z</time>
      </trkpt>
      <trkpt lat="45.0899" lon="4.62932">
        <ele>547.59197998047</ele>
        <time>2009-08-12T15:47:13Z</time>
      </trkpt>
      <trkpt lat="45.09078" lon="4.62995">
        <ele>550.12799072266</ele>
        <time>2009-08-12T15:47:29Z</time>
      </trkpt>
      <trkpt lat="45.09166" lon="4.63062">
        <ele>551.38800048828</ele>
        <time>2009-08-12T15:47:45Z</time>
      </trkpt>
      <trkpt lat="45.09181" lon="4.63091">
        <ele>551.15698242188</ele>
        <time>2009-08-12T15:47:49Z</time>
      </trkpt>
      <trkpt lat="45.09187" lon="4.63106">
        <ele>551.85400390625</ele>
        <time>2009-08-12T15:47:51Z</time>
      </trkpt>
      <trkpt lat="45.09198" lon="4.63143">
        <ele>552.75799560547</ele>
        <time>2009-08-12T15:47:56Z</time>
      </trkpt>
      <trkpt lat="45.09228" lon="4.63178">
        <ele>553.47802734375</ele>
        <time>2009-08-12T15:48:03Z</time>
      </trkpt>
      <trkpt lat="45.09278" lon="4.63196">
        <ele>554.57098388672</ele>
        <time>2009-08-12T15:48:12Z</time>
      </trkpt>
      <trkpt lat="45.09327" lon="4.63166">
        <ele>555.19799804688</ele>
        <time>2009-08-12T15:48:21Z</time>
      </trkpt>
      <trkpt lat="45.09374" lon="4.63083">
        <ele>556.21697998047</ele>
        <time>2009-08-12T15:48:33Z</time>
      </trkpt>
      <trkpt lat="45.09383" lon="4.63051">
        <ele>557.333984375</ele>
        <time>2009-08-12T15:48:37Z</time>
      </trkpt>
      <trkpt lat="45.09385" lon="4.62891">
        <ele>557.25701904297</ele>
        <time>2009-08-12T15:48:54Z</time>
      </trkpt>
      <trkpt lat="45.09393" lon="4.62856">
        <ele>558.37097167969</ele>
        <time>2009-08-12T15:48:58Z</time>
      </trkpt>
      <trkpt lat="45.09422" lon="4.62839">
        <ele>556.19897460938</ele>
        <time>2009-08-12T15:49:04Z</time>
      </trkpt>
      <trkpt lat="45.09447" lon="4.62872">
        <ele>558.50201416016</ele>
        <time>2009-08-12T15:49:10Z</time>
      </trkpt>
      <trkpt lat="45.09505" lon="4.62963">
        <ele>560.19702148438</ele>
        <time>2009-08-12T15:49:25Z</time>
      </trkpt>
      <trkpt lat="45.09552" lon="4.62973">
        <ele>562.12298583984</ele>
        <time>2009-08-12T15:49:34Z</time>
      </trkpt>
      <trkpt lat="45.09623" lon="4.62939">
        <ele>562.42199707031</ele>
        <time>2009-08-12T15:49:48Z</time>
      </trkpt>
      <trkpt lat="45.09644" lon="4.62915">
        <ele>563.33898925781</ele>
        <time>2009-08-12T15:49:54Z</time>
      </trkpt>
      <trkpt lat="45.09649" lon="4.62905">
        <ele>563.96099853516</ele>
        <time>2009-08-12T15:49:56Z</time>
      </trkpt>
      <trkpt lat="45.09657" lon="4.62874">
        <ele>565.38800048828</ele>
        <time>2009-08-12T15:50:01Z</time>
      </trkpt>
      <trkpt lat="45.09667" lon="4.62798">
        <ele>566.56799316406</ele>
        <time>2009-08-12T15:50:12Z</time>
      </trkpt>
      <trkpt lat="45.09671" lon="4.6276">
        <ele>567.56500244141</ele>
        <time>2009-08-12T15:50:17Z</time>
      </trkpt>
      <trkpt lat="45.09677" lon="4.62732">
        <ele>568.54602050781</ele>
        <time>2009-08-12T15:50:21Z</time>
      </trkpt>
      <trkpt lat="45.09698" lon="4.62676">
        <ele>569.92602539062</ele>
        <time>2009-08-12T15:50:29Z</time>
      </trkpt>
      <trkpt lat="45.09723" lon="4.62605">
        <ele>570.89300537109</ele>
        <time>2009-08-12T15:50:39Z</time>
      </trkpt>
      <trkpt lat="45.09727" lon="4.62583">
        <ele>571.49499511719</ele>
        <time>2009-08-12T15:50:42Z</time>
      </trkpt>
      <trkpt lat="45.09728" lon="4.62554">
        <ele>571.61297607422</ele>
        <time>2009-08-12T15:50:46Z</time>
      </trkpt>
      <trkpt lat="45.09725" lon="4.62474">
        <ele>573.62799072266</ele>
        <time>2009-08-12T15:50:56Z</time>
      </trkpt>
      <trkpt lat="45.09753" lon="4.62439">
        <ele>574.61199951172</ele>
        <time>2009-08-12T15:51:04Z</time>
      </trkpt>
      <trkpt lat="45.09763" lon="4.62442">
        <ele>574.99401855469</ele>
        <time>2009-08-12T15:51:06Z</time>
      </trkpt>
      <trkpt lat="45.09772" lon="4.62444">
        <ele>574.94598388672</ele>
        <time>2009-08-12T15:51:08Z</time>
      </trkpt>
      <trkpt lat="45.09785" lon="4.62443">
        <ele>575.39099121094</ele>
        <time>2009-08-12T15:51:11Z</time>
      </trkpt>
      <trkpt lat="45.09803" lon="4.6243">
        <ele>576.29998779297</ele>
        <time>2009-08-12T15:51:15Z</time>
      </trkpt>
      <trkpt lat="45.09816" lon="4.62408">
        <ele>576.90399169922</ele>
        <time>2009-08-12T15:51:19Z</time>
      </trkpt>
      <trkpt lat="45.09823" lon="4.62399">
        <ele>577.37298583984</ele>
        <time>2009-08-12T15:51:21Z</time>
      </trkpt>
      <trkpt lat="45.0984" lon="4.6237">
        <ele>577.23901367188</ele>
        <time>2009-08-12T15:51:26Z</time>
      </trkpt>
      <trkpt lat="45.09852" lon="4.62354">
        <ele>577.37097167969</ele>
        <time>2009-08-12T15:51:29Z</time>
      </trkpt>
      <trkpt lat="45.09861" lon="4.62346">
        <ele>577.88201904297</ele>
        <time>2009-08-12T15:51:31Z</time>
      </trkpt>
      <trkpt lat="45.09884" lon="4.62337">
        <ele>579.69897460938</ele>
        <time>2009-08-12T15:51:35Z</time>
      </trkpt>
      <trkpt lat="45.09895" lon="4.62334">
        <ele>579.90802001953</ele>
        <time>2009-08-12T15:51:37Z</time>
      </trkpt>
      <trkpt lat="45.09907" lon="4.62331">
        <ele>579.65802001953</ele>
        <time>2009-08-12T15:51:39Z</time>
      </trkpt>
      <trkpt lat="45.09934" lon="4.62311">
        <ele>580.24401855469</ele>
        <time>2009-08-12T15:51:44Z</time>
      </trkpt>
      <trkpt lat="45.09949" lon="4.62294">
        <ele>580.95599365234</ele>
        <time>2009-08-12T15:51:47Z</time>
      </trkpt>
      <trkpt lat="45.09973" lon="4.62245">
        <ele>582.53997802734</ele>
        <time>2009-08-12T15:51:54Z</time>
      </trkpt>
      <trkpt lat="45.10012" lon="4.62226">
        <ele>584.26202392578</ele>
        <time>2009-08-12T15:52:01Z</time>
      </trkpt>
      <trkpt lat="45.10023" lon="4.62227">
        <ele>584.37902832031</ele>
        <time>2009-08-12T15:52:03Z</time>
      </trkpt>
      <trkpt lat="45.10069" lon="4.62204">
        <ele>584.87298583984</ele>
        <time>2009-08-12T15:52:13Z</time>
      </trkpt>
      <trkpt lat="45.10094" lon="4.62156">
        <ele>587.32000732422</ele>
        <time>2009-08-12T15:52:22Z</time>
      </trkpt>
      <trkpt lat="45.10109" lon="4.62121">
        <ele>588.91998291016</ele>
        <time>2009-08-12T15:52:28Z</time>
      </trkpt>
      <trkpt lat="45.10126" lon="4.62083">
        <ele>589.54998779297</ele>
        <time>2009-08-12T15:52:35Z</time>
      </trkpt>
      <trkpt lat="45.10141" lon="4.62057">
        <ele>590.29400634766</ele>
        <time>2009-08-12T15:52:40Z</time>
      </trkpt>
      <trkpt lat="45.10151" lon="4.62044">
        <ele>590.96002197266</ele>
        <time>2009-08-12T15:52:43Z</time>
      </trkpt>
      <trkpt lat="45.10167" lon="4.6203">
        <ele>591.43798828125</ele>
        <time>2009-08-12T15:52:47Z</time>
      </trkpt>
      <trkpt lat="45.1023" lon="4.61972">
        <ele>593.55798339844</ele>
        <time>2009-08-12T15:53:04Z</time>
      </trkpt>
      <trkpt lat="45.10241" lon="4.61963">
        <ele>592.42401123047</ele>
        <time>2009-08-12T15:53:08Z</time>
      </trkpt>
      <trkpt lat="45.10262" lon="4.61944">
        <ele>594.64801025391</ele>
        <time>2009-08-12T15:53:15Z</time>
      </trkpt>
      <trkpt lat="45.10315" lon="4.61936">
        <ele>597.80297851562</ele>
        <time>2009-08-12T15:53:27Z</time>
      </trkpt>
      <trkpt lat="45.10365" lon="4.61931">
        <ele>600.08099365234</ele>
        <time>2009-08-12T15:53:39Z</time>
      </trkpt>
      <trkpt lat="45.10372" lon="4.61928">
        <ele>600.47698974609</ele>
        <time>2009-08-12T15:53:41Z</time>
      </trkpt>
      <trkpt lat="45.10385" lon="4.61912">
        <ele>601.56097412109</ele>
        <time>2009-08-12T15:53:45Z</time>
      </trkpt>
      <trkpt lat="45.10392" lon="4.61895">
        <ele>602.34698486328</ele>
        <time>2009-08-12T15:53:48Z</time>
      </trkpt>
      <trkpt lat="45.10396" lon="4.61885">
        <ele>602.4580078125</ele>
        <time>2009-08-12T15:53:50Z</time>
      </trkpt>
      <trkpt lat="45.10399" lon="4.6186">
        <ele>601.13397216797</ele>
        <time>2009-08-12T15:53:54Z</time>
      </trkpt>
      <trkpt lat="45.10403" lon="4.61824">
        <ele>598.49597167969</ele>
        <time>2009-08-12T15:53:58Z</time>
      </trkpt>
      <trkpt lat="45.10394" lon="4.61752">
        <ele>594.36999511719</ele>
        <time>2009-08-12T15:54:04Z</time>
      </trkpt>
      <trkpt lat="45.10394" lon="4.61726">
        <ele>593.62200927734</ele>
        <time>2009-08-12T15:54:06Z</time>
      </trkpt>
      <trkpt lat="45.10401" lon="4.61661">
        <ele>591.94799804688</ele>
        <time>2009-08-12T15:54:11Z</time>
      </trkpt>
      <trkpt lat="45.10393" lon="4.61596">
        <ele>590.10699462891</ele>
        <time>2009-08-12T15:54:16Z</time>
      </trkpt>
      <trkpt lat="45.10386" lon="4.6156">
        <ele>589.24499511719</ele>
        <time>2009-08-12T15:54:19Z</time>
      </trkpt>
      <trkpt lat="45.10411" lon="4.61525">
        <ele>587.39001464844</ele>
        <time>2009-08-12T15:54:24Z</time>
      </trkpt>
      <trkpt lat="45.10427" lon="4.61531">
        <ele>586.46002197266</ele>
        <time>2009-08-12T15:54:26Z</time>
      </trkpt>
      <trkpt lat="45.10447" lon="4.61545">
        <ele>586.13299560547</ele>
        <time>2009-08-12T15:54:29Z</time>
      </trkpt>
      <trkpt lat="45.1049" lon="4.61537">
        <ele>586.54400634766</ele>
        <time>2009-08-12T15:54:36Z</time>
      </trkpt>
      <trkpt lat="45.10527" lon="4.61507">
        <ele>584.72198486328</ele>
        <time>2009-08-12T15:54:42Z</time>
      </trkpt>
      <trkpt lat="45.10558" lon="4.61522">
        <ele>584.39001464844</ele>
        <time>2009-08-12T15:54:48Z</time>
      </trkpt>
      <trkpt lat="45.10557" lon="4.61544">
        <ele>585.48797607422</ele>
        <time>2009-08-12T15:54:51Z</time>
      </trkpt>
      <trkpt lat="45.10541" lon="4.61601">
        <ele>588.25799560547</ele>
        <time>2009-08-12T15:55:03Z</time>
      </trkpt>
      <trkpt lat="45.10543" lon="4.6164">
        <ele>589.81500244141</ele>
        <time>2009-08-12T15:55:11Z</time>
      </trkpt>
      <trkpt lat="45.1055" lon="4.61684">
        <ele>591.78997802734</ele>
        <time>2009-08-12T15:55:22Z</time>
      </trkpt>
      <trkpt lat="45.10576" lon="4.61759">
        <ele>595.61199951172</ele>
        <time>2009-08-12T15:55:39Z</time>
      </trkpt>
      <trkpt lat="45.10598" lon="4.61794">
        <ele>595.75701904297</ele>
        <time>2009-08-12T15:55:48Z</time>
      </trkpt>
      <trkpt lat="45.1063" lon="4.61816">
        <ele>597.65100097656</ele>
        <time>2009-08-12T15:55:57Z</time>
      </trkpt>
      <trkpt lat="45.10683" lon="4.61842">
        <ele>601.11901855469</ele>
        <time>2009-08-12T15:56:13Z</time>
      </trkpt>
      <trkpt lat="45.10744" lon="4.6187">
        <ele>602.80999755859</ele>
        <time>2009-08-12T15:56:31Z</time>
      </trkpt>
      <trkpt lat="45.10794" lon="4.61905">
        <ele>606.21099853516</ele>
        <time>2009-08-12T15:56:47Z</time>
      </trkpt>
      <trkpt lat="45.10852" lon="4.61956">
        <ele>609.14501953125</ele>
        <time>2009-08-12T15:57:06Z</time>
      </trkpt>
      <trkpt lat="45.10899" lon="4.61993">
        <ele>611.54699707031</ele>
        <time>2009-08-12T15:57:21Z</time>
      </trkpt>
      <trkpt lat="45.10962" lon="4.62044">
        <ele>615.53698730469</ele>
        <time>2009-08-12T15:57:41Z</time>
      </trkpt>
      <trkpt lat="45.11022" lon="4.62073">
        <ele>617.80603027344</ele>
        <time>2009-08-12T15:57:58Z</time>
      </trkpt>
      <trkpt lat="45.11035" lon="4.62123">
        <ele>619.78198242188</ele>
        <time>2009-08-12T15:58:10Z</time>
      </trkpt>
      <trkpt lat="45.11058" lon="4.6217">
        <ele>622.57397460938</ele>
        <time>2009-08-12T15:58:24Z</time>
      </trkpt>
      <trkpt lat="45.11089" lon="4.6222">
        <ele>624.61901855469</ele>
        <time>2009-08-12T15:58:39Z</time>
      </trkpt>
      <trkpt lat="45.11137" lon="4.62291">
        <ele>627.5830078125</ele>
        <time>2009-08-12T15:59:00Z</time>
      </trkpt>
      <trkpt lat="45.11145" lon="4.62348">
        <ele>630.43298339844</ele>
        <time>2009-08-12T15:59:14Z</time>
      </trkpt>
      <trkpt lat="45.11166" lon="4.62408">
        <ele>632.78399658203</ele>
        <time>2009-08-12T15:59:29Z</time>
      </trkpt>
      <trkpt lat="45.11187" lon="4.62433">
        <ele>634.69598388672</ele>
        <time>2009-08-12T15:59:37Z</time>
      </trkpt>
      <trkpt lat="45.11237" lon="4.62455">
        <ele>637.76800537109</ele>
        <time>2009-08-12T15:59:52Z</time>
      </trkpt>
      <trkpt lat="45.11271" lon="4.62481">
        <ele>639.67498779297</ele>
        <time>2009-08-12T16:00:03Z</time>
      </trkpt>
      <trkpt lat="45.11271" lon="4.62517">
        <ele>642.18798828125</ele>
        <time>2009-08-12T16:00:13Z</time>
      </trkpt>
      <trkpt lat="45.11258" lon="4.62566">
        <ele>643.96600341797</ele>
        <time>2009-08-12T16:00:27Z</time>
      </trkpt>
      <trkpt lat="45.11256" lon="4.62623">
        <ele>646.10699462891</ele>
        <time>2009-08-12T16:00:40Z</time>
      </trkpt>
      <trkpt lat="45.11277" lon="4.62693">
        <ele>648.52801513672</ele>
        <time>2009-08-12T16:00:55Z</time>
      </trkpt>
      <trkpt lat="45.11301" lon="4.62773">
        <ele>651.54602050781</ele>
        <time>2009-08-12T16:01:12Z</time>
      </trkpt>
      <trkpt lat="45.11348" lon="4.62848">
        <ele>655.70599365234</ele>
        <time>2009-08-12T16:01:32Z</time>
      </trkpt>
      <trkpt lat="45.11394" lon="4.62874">
        <ele>658.12902832031</ele>
        <time>2009-08-12T16:01:47Z</time>
      </trkpt>
      <trkpt lat="45.11421" lon="4.62899">
        <ele>660.00500488281</ele>
        <time>2009-08-12T16:01:57Z</time>
      </trkpt>
      <trkpt lat="45.11411" lon="4.62956">
        <ele>662.67401123047</ele>
        <time>2009-08-12T16:02:10Z</time>
      </trkpt>
      <trkpt lat="45.11418" lon="4.63024">
        <ele>665.05700683594</ele>
        <time>2009-08-12T16:02:23Z</time>
      </trkpt>
      <trkpt lat="45.11439" lon="4.63097">
        <ele>667.88800048828</ele>
        <time>2009-08-12T16:02:38Z</time>
      </trkpt>
      <trkpt lat="45.11474" lon="4.63188">
        <ele>671.20697021484</ele>
        <time>2009-08-12T16:02:58Z</time>
      </trkpt>
      <trkpt lat="45.11506" lon="4.63268">
        <ele>674.71398925781</ele>
        <time>2009-08-12T16:03:16Z</time>
      </trkpt>
      <trkpt lat="45.11521" lon="4.63343">
        <ele>678.38000488281</ele>
        <time>2009-08-12T16:03:33Z</time>
      </trkpt>
      <trkpt lat="45.11525" lon="4.63368">
        <ele>680.48999023438</ele>
        <time>2009-08-12T16:03:42Z</time>
      </trkpt>
      <trkpt lat="45.11533" lon="4.63385">
        <ele>680.30700683594</ele>
        <time>2009-08-12T16:04:16Z</time>
      </trkpt>
      <trkpt lat="45.11544" lon="4.63408">
        <ele>680.38201904297</ele>
        <time>2009-08-12T16:04:22Z</time>
      </trkpt>
      <trkpt lat="45.11551" lon="4.6342">
        <ele>681.63098144531</ele>
        <time>2009-08-12T16:04:28Z</time>
      </trkpt>
      <trkpt lat="45.11574" lon="4.63429">
        <ele>681.22198486328</ele>
        <time>2009-08-12T16:05:04Z</time>
      </trkpt>
      <trkpt lat="45.11604" lon="4.63434">
        <ele>680.17199707031</ele>
        <time>2009-08-12T16:05:11Z</time>
      </trkpt>
      <trkpt lat="45.11618" lon="4.63429">
        <ele>679.53900146484</ele>
        <time>2009-08-12T16:05:14Z</time>
      </trkpt>
      <trkpt lat="45.11624" lon="4.63427">
        <ele>679.48602294922</ele>
        <time>2009-08-12T16:05:15Z</time>
      </trkpt>
      <trkpt lat="45.11663" lon="4.63455">
        <ele>676.95098876953</ele>
        <time>2009-08-12T16:05:23Z</time>
      </trkpt>
      <trkpt lat="45.1168" lon="4.63519">
        <ele>676.1240234375</ele>
        <time>2009-08-12T16:05:31Z</time>
      </trkpt>
      <trkpt lat="45.11695" lon="4.63543">
        <ele>675.96502685547</ele>
        <time>2009-08-12T16:05:35Z</time>
      </trkpt>
      <trkpt lat="45.11704" lon="4.63553">
        <ele>674.36102294922</ele>
        <time>2009-08-12T16:05:37Z</time>
      </trkpt>
      <trkpt lat="45.11718" lon="4.63568">
        <ele>674.74298095703</ele>
        <time>2009-08-12T16:05:40Z</time>
      </trkpt>
      <trkpt lat="45.11749" lon="4.63587">
        <ele>673.14202880859</ele>
        <time>2009-08-12T16:05:45Z</time>
      </trkpt>
      <trkpt lat="45.11763" lon="4.63589">
        <ele>672.84899902344</ele>
        <time>2009-08-12T16:05:47Z</time>
      </trkpt>
      <trkpt lat="45.11784" lon="4.636">
        <ele>671.22497558594</ele>
        <time>2009-08-12T16:05:50Z</time>
      </trkpt>
      <trkpt lat="45.11795" lon="4.63616">
        <ele>671.03100585938</ele>
        <time>2009-08-12T16:05:52Z</time>
      </trkpt>
      <trkpt lat="45.11853" lon="4.63668">
        <ele>666.96997070312</ele>
        <time>2009-08-12T16:06:00Z</time>
      </trkpt>
      <trkpt lat="45.11894" lon="4.63638">
        <ele>664.85797119141</ele>
        <time>2009-08-12T16:06:05Z</time>
      </trkpt>
      <trkpt lat="45.11934" lon="4.63611">
        <ele>663.10797119141</ele>
        <time>2009-08-12T16:06:10Z</time>
      </trkpt>
      <trkpt lat="45.11956" lon="4.63641">
        <ele>660.65802001953</ele>
        <time>2009-08-12T16:06:13Z</time>
      </trkpt>
      <trkpt lat="45.11995" lon="4.63725">
        <ele>657.17700195312</ele>
        <time>2009-08-12T16:06:20Z</time>
      </trkpt>
      <trkpt lat="45.12068" lon="4.63778">
        <ele>653.56597900391</ele>
        <time>2009-08-12T16:06:28Z</time>
      </trkpt>
      <trkpt lat="45.12078" lon="4.63783">
        <ele>653.33001708984</ele>
        <time>2009-08-12T16:06:29Z</time>
      </trkpt>
      <trkpt lat="45.12088" lon="4.63788">
        <ele>652.69897460938</ele>
        <time>2009-08-12T16:06:30Z</time>
      </trkpt>
      <trkpt lat="45.1212" lon="4.63793">
        <ele>651.35900878906</ele>
        <time>2009-08-12T16:06:33Z</time>
      </trkpt>
      <trkpt lat="45.12152" lon="4.63841">
        <ele>650.18402099609</ele>
        <time>2009-08-12T16:06:38Z</time>
      </trkpt>
      <trkpt lat="45.12152" lon="4.63856">
        <ele>649.48999023438</ele>
        <time>2009-08-12T16:06:39Z</time>
      </trkpt>
      <trkpt lat="45.12152" lon="4.63949">
        <ele>645.20397949219</ele>
        <time>2009-08-12T16:06:45Z</time>
      </trkpt>
      <trkpt lat="45.12166" lon="4.63991">
        <ele>643.42901611328</ele>
        <time>2009-08-12T16:06:48Z</time>
      </trkpt>
      <trkpt lat="45.12191" lon="4.64021">
        <ele>641.99102783203</ele>
        <time>2009-08-12T16:06:51Z</time>
      </trkpt>
      <trkpt lat="45.1223" lon="4.64072">
        <ele>640.33898925781</ele>
        <time>2009-08-12T16:06:56Z</time>
      </trkpt>
      <trkpt lat="45.12306" lon="4.64131">
        <ele>636.18701171875</ele>
        <time>2009-08-12T16:07:04Z</time>
      </trkpt>
      <trkpt lat="45.12331" lon="4.64163">
        <ele>635.80401611328</ele>
        <time>2009-08-12T16:07:07Z</time>
      </trkpt>
      <trkpt lat="45.1235" lon="4.64204">
        <ele>634.02001953125</ele>
        <time>2009-08-12T16:07:10Z</time>
      </trkpt>
      <trkpt lat="45.12383" lon="4.64243">
        <ele>631.56701660156</ele>
        <time>2009-08-12T16:07:14Z</time>
      </trkpt>
      <trkpt lat="45.12438" lon="4.64272">
        <ele>629.39898681641</ele>
        <time>2009-08-12T16:07:19Z</time>
      </trkpt>
      <trkpt lat="45.12489" lon="4.64321">
        <ele>626.42401123047</ele>
        <time>2009-08-12T16:07:24Z</time>
      </trkpt>
      <trkpt lat="45.12503" lon="4.64398">
        <ele>624.33697509766</ele>
        <time>2009-08-12T16:07:29Z</time>
      </trkpt>
      <trkpt lat="45.12505" lon="4.64414">
        <ele>623.87799072266</ele>
        <time>2009-08-12T16:07:30Z</time>
      </trkpt>
      <trkpt lat="45.12555" lon="4.64473">
        <ele>620.95397949219</ele>
        <time>2009-08-12T16:07:36Z</time>
      </trkpt>
      <trkpt lat="45.12611" lon="4.64458">
        <ele>618.22900390625</ele>
        <time>2009-08-12T16:07:41Z</time>
      </trkpt>
      <trkpt lat="45.12629" lon="4.64438">
        <ele>617.44097900391</ele>
        <time>2009-08-12T16:07:43Z</time>
      </trkpt>
      <trkpt lat="45.12637" lon="4.64426">
        <ele>617.15502929688</ele>
        <time>2009-08-12T16:07:44Z</time>
      </trkpt>
      <trkpt lat="45.12661" lon="4.6439">
        <ele>615.51098632812</ele>
        <time>2009-08-12T16:07:47Z</time>
      </trkpt>
      <trkpt lat="45.12669" lon="4.64378">
        <ele>614.84100341797</ele>
        <time>2009-08-12T16:07:48Z</time>
      </trkpt>
      <trkpt lat="45.12731" lon="4.6435">
        <ele>609.38000488281</ele>
        <time>2009-08-12T16:07:54Z</time>
      </trkpt>
      <trkpt lat="45.12762" lon="4.6437">
        <ele>607.05102539062</ele>
        <time>2009-08-12T16:07:57Z</time>
      </trkpt>
      <trkpt lat="45.1278" lon="4.64392">
        <ele>607.15802001953</ele>
        <time>2009-08-12T16:07:59Z</time>
      </trkpt>
      <trkpt lat="45.12795" lon="4.64416">
        <ele>605.70098876953</ele>
        <time>2009-08-12T16:08:01Z</time>
      </trkpt>
      <trkpt lat="45.12814" lon="4.64436">
        <ele>604.66101074219</ele>
        <time>2009-08-12T16:08:03Z</time>
      </trkpt>
      <trkpt lat="45.12836" lon="4.64449">
        <ele>602.05297851562</ele>
        <time>2009-08-12T16:08:05Z</time>
      </trkpt>
      <trkpt lat="45.12871" lon="4.64467">
        <ele>600.45300292969</ele>
        <time>2009-08-12T16:08:08Z</time>
      </trkpt>
      <trkpt lat="45.12918" lon="4.64518">
        <ele>594.70001220703</ele>
        <time>2009-08-12T16:08:13Z</time>
      </trkpt>
      <trkpt lat="45.12924" lon="4.64531">
        <ele>594.19299316406</ele>
        <time>2009-08-12T16:08:14Z</time>
      </trkpt>
      <trkpt lat="45.12941" lon="4.6457">
        <ele>592.75701904297</ele>
        <time>2009-08-12T16:08:17Z</time>
      </trkpt>
      <trkpt lat="45.12955" lon="4.6461">
        <ele>590.29699707031</ele>
        <time>2009-08-12T16:08:20Z</time>
      </trkpt>
      <trkpt lat="45.12961" lon="4.64623">
        <ele>590.15002441406</ele>
        <time>2009-08-12T16:08:21Z</time>
      </trkpt>
      <trkpt lat="45.13005" lon="4.64686">
        <ele>586.12701416016</ele>
        <time>2009-08-12T16:08:27Z</time>
      </trkpt>
      <trkpt lat="45.1305" lon="4.64772">
        <ele>581.6669921875</ele>
        <time>2009-08-12T16:08:34Z</time>
      </trkpt>
      <trkpt lat="45.13059" lon="4.64782">
        <ele>581.22998046875</ele>
        <time>2009-08-12T16:08:35Z</time>
      </trkpt>
      <trkpt lat="45.13116" lon="4.64821">
        <ele>579.31402587891</ele>
        <time>2009-08-12T16:08:41Z</time>
      </trkpt>
      <trkpt lat="45.13167" lon="4.6484">
        <ele>575.79400634766</ele>
        <time>2009-08-12T16:08:46Z</time>
      </trkpt>
      <trkpt lat="45.13202" lon="4.64875">
        <ele>573.77697753906</ele>
        <time>2009-08-12T16:08:50Z</time>
      </trkpt>
      <trkpt lat="45.13223" lon="4.64912">
        <ele>572.06701660156</ele>
        <time>2009-08-12T16:08:53Z</time>
      </trkpt>
      <trkpt lat="45.13241" lon="4.64929">
        <ele>570.76000976562</ele>
        <time>2009-08-12T16:08:55Z</time>
      </trkpt>
      <trkpt lat="45.13261" lon="4.64938">
        <ele>570.24798583984</ele>
        <time>2009-08-12T16:08:57Z</time>
      </trkpt>
      <trkpt lat="45.13282" lon="4.64945">
        <ele>568.97601318359</ele>
        <time>2009-08-12T16:08:59Z</time>
      </trkpt>
      <trkpt lat="45.13335" lon="4.64961">
        <ele>567.38500976562</ele>
        <time>2009-08-12T16:09:04Z</time>
      </trkpt>
      <trkpt lat="45.13458" lon="4.65029">
        <ele>560.83001708984</ele>
        <time>2009-08-12T16:09:16Z</time>
      </trkpt>
      <trkpt lat="45.13467" lon="4.65037">
        <ele>560.59399414062</ele>
        <time>2009-08-12T16:09:17Z</time>
      </trkpt>
      <trkpt lat="45.13492" lon="4.65066">
        <ele>559.20599365234</ele>
        <time>2009-08-12T16:09:20Z</time>
      </trkpt>
      <trkpt lat="45.1358" lon="4.65173">
        <ele>556.73699951172</ele>
        <time>2009-08-12T16:09:32Z</time>
      </trkpt>
      <trkpt lat="45.1371" lon="4.65336">
        <ele>550.24200439453</ele>
        <time>2009-08-12T16:09:51Z</time>
      </trkpt>
      <trkpt lat="45.13717" lon="4.65345">
        <ele>549.98797607422</ele>
        <time>2009-08-12T16:09:52Z</time>
      </trkpt>
      <trkpt lat="45.13829" lon="4.65492">
        <ele>547.85198974609</ele>
        <time>2009-08-12T16:10:10Z</time>
      </trkpt>
      <trkpt lat="45.13917" lon="4.65607">
        <ele>544.68597412109</ele>
        <time>2009-08-12T16:10:25Z</time>
      </trkpt>
      <trkpt lat="45.13948" lon="4.6565">
        <ele>542.56201171875</ele>
        <time>2009-08-12T16:10:30Z</time>
      </trkpt>
      <trkpt lat="45.13969" lon="4.65691">
        <ele>541.09100341797</ele>
        <time>2009-08-12T16:10:34Z</time>
      </trkpt>
      <trkpt lat="45.13994" lon="4.65802">
        <ele>538.36798095703</ele>
        <time>2009-08-12T16:10:43Z</time>
      </trkpt>
      <trkpt lat="45.14002" lon="4.65872">
        <ele>535.15197753906</ele>
        <time>2009-08-12T16:10:48Z</time>
      </trkpt>
      <trkpt lat="45.14036" lon="4.66047">
        <ele>531.26800537109</ele>
        <time>2009-08-12T16:11:01Z</time>
      </trkpt>
      <trkpt lat="45.14091" lon="4.66156">
        <ele>527.45697021484</ele>
        <time>2009-08-12T16:11:11Z</time>
      </trkpt>
      <trkpt lat="45.1412" lon="4.66189">
        <ele>525.89099121094</ele>
        <time>2009-08-12T16:11:15Z</time>
      </trkpt>
      <trkpt lat="45.14146" lon="4.6624">
        <ele>525.74700927734</ele>
        <time>2009-08-12T16:11:20Z</time>
      </trkpt>
      <trkpt lat="45.1416" lon="4.66298">
        <ele>524.87902832031</ele>
        <time>2009-08-12T16:11:25Z</time>
      </trkpt>
      <trkpt lat="45.14186" lon="4.66331">
        <ele>523.06500244141</ele>
        <time>2009-08-12T16:11:29Z</time>
      </trkpt>
      <trkpt lat="45.14254" lon="4.66395">
        <ele>523.18103027344</ele>
        <time>2009-08-12T16:11:39Z</time>
      </trkpt>
      <trkpt lat="45.14268" lon="4.66413">
        <ele>523.38098144531</ele>
        <time>2009-08-12T16:11:42Z</time>
      </trkpt>
      <trkpt lat="45.14292" lon="4.66424">
        <ele>524.3740234375</ele>
        <time>2009-08-12T16:11:46Z</time>
      </trkpt>
      <trkpt lat="45.14318" lon="4.66447">
        <ele>523.58197021484</ele>
        <time>2009-08-12T16:11:52Z</time>
      </trkpt>
      <trkpt lat="45.14331" lon="4.6646">
        <ele>524.09698486328</ele>
        <time>2009-08-12T16:11:57Z</time>
      </trkpt>
      <trkpt lat="45.14331" lon="4.6645">
        <ele>524.0419921875</ele>
        <time>2009-08-12T16:13:20Z</time>
      </trkpt>
      <trkpt lat="45.1433" lon="4.66452">
        <ele>524.18902587891</ele>
        <time>2009-08-12T16:13:21Z</time>
      </trkpt>
      <trkpt lat="45.14333" lon="4.66464">
        <ele>522.75201416016</ele>
        <time>2009-08-12T16:13:24Z</time>
      </trkpt>
      <trkpt lat="45.14339" lon="4.66474">
        <ele>522.89801025391</ele>
        <time>2009-08-12T16:13:26Z</time>
      </trkpt>
      <trkpt lat="45.14342" lon="4.66496">
        <ele>522.44500732422</ele>
        <time>2009-08-12T16:13:29Z</time>
      </trkpt>
      <trkpt lat="45.14347" lon="4.6654">
        <ele>520.07202148438</ele>
        <time>2009-08-12T16:13:34Z</time>
      </trkpt>
      <trkpt lat="45.14349" lon="4.6655">
        <ele>519.42199707031</ele>
        <time>2009-08-12T16:13:35Z</time>
      </trkpt>
      <trkpt lat="45.1437" lon="4.6668">
        <ele>509.95999145508</ele>
        <time>2009-08-12T16:13:45Z</time>
      </trkpt>
      <trkpt lat="45.14376" lon="4.66724">
        <ele>507.77899169922</ele>
        <time>2009-08-12T16:13:48Z</time>
      </trkpt>
      <trkpt lat="45.1436" lon="4.66789">
        <ele>506.7919921875</ele>
        <time>2009-08-12T16:13:53Z</time>
      </trkpt>
      <trkpt lat="45.14352" lon="4.66797">
        <ele>506.43399047852</ele>
        <time>2009-08-12T16:13:54Z</time>
      </trkpt>
      <trkpt lat="45.14327" lon="4.66824">
        <ele>504.39801025391</ele>
        <time>2009-08-12T16:13:57Z</time>
      </trkpt>
      <trkpt lat="45.14301" lon="4.66901">
        <ele>500.24499511719</ele>
        <time>2009-08-12T16:14:03Z</time>
      </trkpt>
      <trkpt lat="45.1432" lon="4.66986">
        <ele>495.71600341797</ele>
        <time>2009-08-12T16:14:09Z</time>
      </trkpt>
      <trkpt lat="45.14334" lon="4.6701">
        <ele>494.65200805664</ele>
        <time>2009-08-12T16:14:11Z</time>
      </trkpt>
      <trkpt lat="45.14363" lon="4.67056">
        <ele>493.07501220703</ele>
        <time>2009-08-12T16:14:15Z</time>
      </trkpt>
      <trkpt lat="45.14392" lon="4.67102">
        <ele>490.46600341797</ele>
        <time>2009-08-12T16:14:19Z</time>
      </trkpt>
      <trkpt lat="45.14399" lon="4.67114">
        <ele>490.21301269531</ele>
        <time>2009-08-12T16:14:20Z</time>
      </trkpt>
      <trkpt lat="45.14433" lon="4.67177">
        <ele>485.21398925781</ele>
        <time>2009-08-12T16:14:25Z</time>
      </trkpt>
      <trkpt lat="45.14458" lon="4.67286">
        <ele>480.52899169922</ele>
        <time>2009-08-12T16:14:32Z</time>
      </trkpt>
      <trkpt lat="45.14471" lon="4.67333">
        <ele>478.61599731445</ele>
        <time>2009-08-12T16:14:35Z</time>
      </trkpt>
      <trkpt lat="45.14501" lon="4.6743">
        <ele>477.69100952148</ele>
        <time>2009-08-12T16:14:42Z</time>
      </trkpt>
      <trkpt lat="45.14534" lon="4.67511">
        <ele>477.60699462891</ele>
        <time>2009-08-12T16:14:49Z</time>
      </trkpt>
      <trkpt lat="45.14568" lon="4.67545">
        <ele>478.26501464844</ele>
        <time>2009-08-12T16:14:54Z</time>
      </trkpt>
      <trkpt lat="45.14685" lon="4.67587">
        <ele>474.67999267578</ele>
        <time>2009-08-12T16:15:09Z</time>
      </trkpt>
      <trkpt lat="45.14762" lon="4.67611">
        <ele>472.07000732422</ele>
        <time>2009-08-12T16:15:18Z</time>
      </trkpt>
      <trkpt lat="45.14854" lon="4.6764">
        <ele>465.74600219727</ele>
        <time>2009-08-12T16:15:27Z</time>
      </trkpt>
      <trkpt lat="45.14912" lon="4.67684">
        <ele>462.12799072266</ele>
        <time>2009-08-12T16:15:33Z</time>
      </trkpt>
      <trkpt lat="45.14986" lon="4.67792">
        <ele>453.63400268555</ele>
        <time>2009-08-12T16:15:42Z</time>
      </trkpt>
      <trkpt lat="45.1501" lon="4.67849">
        <ele>450.56298828125</ele>
        <time>2009-08-12T16:15:46Z</time>
      </trkpt>
      <trkpt lat="45.15017" lon="4.67882">
        <ele>449.29699707031</ele>
        <time>2009-08-12T16:15:48Z</time>
      </trkpt>
      <trkpt lat="45.15027" lon="4.67929">
        <ele>445.71701049805</ele>
        <time>2009-08-12T16:15:51Z</time>
      </trkpt>
      <trkpt lat="45.15058" lon="4.67998">
        <ele>443.24499511719</ele>
        <time>2009-08-12T16:15:56Z</time>
      </trkpt>
      <trkpt lat="45.15114" lon="4.68151">
        <ele>435.40798950195</ele>
        <time>2009-08-12T16:16:06Z</time>
      </trkpt>
      <trkpt lat="45.15192" lon="4.68316">
        <ele>424.80599975586</ele>
        <time>2009-08-12T16:16:17Z</time>
      </trkpt>
      <trkpt lat="45.15258" lon="4.68419">
        <ele>418.68798828125</ele>
        <time>2009-08-12T16:16:25Z</time>
      </trkpt>
      <trkpt lat="45.15264" lon="4.68434">
        <ele>419.00299072266</ele>
        <time>2009-08-12T16:16:26Z</time>
      </trkpt>
      <trkpt lat="45.15289" lon="4.68467">
        <ele>415.84399414062</ele>
        <time>2009-08-12T16:16:29Z</time>
      </trkpt>
      <trkpt lat="45.153" lon="4.68474">
        <ele>414.96600341797</ele>
        <time>2009-08-12T16:16:30Z</time>
      </trkpt>
      <trkpt lat="45.15332" lon="4.6849">
        <ele>413.36401367188</ele>
        <time>2009-08-12T16:16:33Z</time>
      </trkpt>
      <trkpt lat="45.15362" lon="4.68516">
        <ele>412.07299804688</ele>
        <time>2009-08-12T16:16:36Z</time>
      </trkpt>
      <trkpt lat="45.1541" lon="4.68568">
        <ele>407.10800170898</ele>
        <time>2009-08-12T16:16:41Z</time>
      </trkpt>
      <trkpt lat="45.15442" lon="4.68595">
        <ele>405.38198852539</ele>
        <time>2009-08-12T16:16:44Z</time>
      </trkpt>
      <trkpt lat="45.15463" lon="4.68612">
        <ele>403.75399780273</ele>
        <time>2009-08-12T16:16:46Z</time>
      </trkpt>
      <trkpt lat="45.15491" lon="4.68684">
        <ele>399.16400146484</ele>
        <time>2009-08-12T16:16:51Z</time>
      </trkpt>
      <trkpt lat="45.1545" lon="4.68773">
        <ele>394.22198486328</ele>
        <time>2009-08-12T16:16:57Z</time>
      </trkpt>
      <trkpt lat="45.15415" lon="4.688">
        <ele>390.78601074219</ele>
        <time>2009-08-12T16:17:00Z</time>
      </trkpt>
      <trkpt lat="45.15403" lon="4.68837">
        <ele>389.25201416016</ele>
        <time>2009-08-12T16:17:06Z</time>
      </trkpt>
      <trkpt lat="45.15443" lon="4.68809">
        <ele>385.09399414062</ele>
        <time>2009-08-12T16:17:11Z</time>
      </trkpt>
      <trkpt lat="45.15453" lon="4.68805">
        <ele>384.30700683594</ele>
        <time>2009-08-12T16:17:12Z</time>
      </trkpt>
      <trkpt lat="45.15533" lon="4.68747">
        <ele>379.47399902344</ele>
        <time>2009-08-12T16:17:20Z</time>
      </trkpt>
      <trkpt lat="45.15562" lon="4.68727">
        <ele>377.59399414062</ele>
        <time>2009-08-12T16:17:23Z</time>
      </trkpt>
      <trkpt lat="45.15588" lon="4.68762">
        <ele>377.57598876953</ele>
        <time>2009-08-12T16:17:27Z</time>
      </trkpt>
      <trkpt lat="45.15604" lon="4.68805">
        <ele>377.49099731445</ele>
        <time>2009-08-12T16:17:31Z</time>
      </trkpt>
      <trkpt lat="45.15597" lon="4.68866">
        <ele>379.48300170898</ele>
        <time>2009-08-12T16:17:37Z</time>
      </trkpt>
      <trkpt lat="45.15568" lon="4.68923">
        <ele>381.05099487305</ele>
        <time>2009-08-12T16:17:46Z</time>
      </trkpt>
      <trkpt lat="45.15558" lon="4.68975">
        <ele>385.77499389648</ele>
        <time>2009-08-12T16:17:56Z</time>
      </trkpt>
      <trkpt lat="45.15552" lon="4.69044">
        <ele>388.51098632812</ele>
        <time>2009-08-12T16:18:12Z</time>
      </trkpt>
      <trkpt lat="45.15554" lon="4.6908">
        <ele>389.9460144043</ele>
        <time>2009-08-12T16:18:20Z</time>
      </trkpt>
      <trkpt lat="45.15563" lon="4.69103">
        <ele>389.80801391602</ele>
        <time>2009-08-12T16:18:24Z</time>
      </trkpt>
      <trkpt lat="45.15566" lon="4.69118">
        <ele>388.89099121094</ele>
        <time>2009-08-12T16:18:26Z</time>
      </trkpt>
      <trkpt lat="45.15578" lon="4.69202">
        <ele>383.06298828125</ele>
        <time>2009-08-12T16:18:34Z</time>
      </trkpt>
      <trkpt lat="45.15596" lon="4.69318">
        <ele>377.64999389648</ele>
        <time>2009-08-12T16:18:43Z</time>
      </trkpt>
      <trkpt lat="45.156" lon="4.69346">
        <ele>376.27600097656</ele>
        <time>2009-08-12T16:18:45Z</time>
      </trkpt>
      <trkpt lat="45.15606" lon="4.69375">
        <ele>373.82400512695</ele>
        <time>2009-08-12T16:18:47Z</time>
      </trkpt>
      <trkpt lat="45.15628" lon="4.69427">
        <ele>370.75100708008</ele>
        <time>2009-08-12T16:18:51Z</time>
      </trkpt>
      <trkpt lat="45.15633" lon="4.6944">
        <ele>370.5710144043</ele>
        <time>2009-08-12T16:18:52Z</time>
      </trkpt>
      <trkpt lat="45.15651" lon="4.69514">
        <ele>367.04000854492</ele>
        <time>2009-08-12T16:18:57Z</time>
      </trkpt>
      <trkpt lat="45.15648" lon="4.69577">
        <ele>364.72198486328</ele>
        <time>2009-08-12T16:19:01Z</time>
      </trkpt>
      <trkpt lat="45.15637" lon="4.69605">
        <ele>364.01800537109</ele>
        <time>2009-08-12T16:19:03Z</time>
      </trkpt>
      <trkpt lat="45.15602" lon="4.69676">
        <ele>361.28900146484</ele>
        <time>2009-08-12T16:19:09Z</time>
      </trkpt>
      <trkpt lat="45.15605" lon="4.69714">
        <ele>364.9049987793</ele>
        <time>2009-08-12T16:19:13Z</time>
      </trkpt>
      <trkpt lat="45.15609" lon="4.69721">
        <ele>365.21499633789</ele>
        <time>2009-08-12T16:19:14Z</time>
      </trkpt>
      <trkpt lat="45.1563" lon="4.69748">
        <ele>367.64599609375</ele>
        <time>2009-08-12T16:19:20Z</time>
      </trkpt>
      <trkpt lat="45.15648" lon="4.69772">
        <ele>369.05200195312</ele>
        <time>2009-08-12T16:19:26Z</time>
      </trkpt>
      <trkpt lat="45.15665" lon="4.69809">
        <ele>370.82901000977</ele>
        <time>2009-08-12T16:19:33Z</time>
      </trkpt>
      <trkpt lat="45.15676" lon="4.69848">
        <ele>372.78799438477</ele>
        <time>2009-08-12T16:19:40Z</time>
      </trkpt>
      <trkpt lat="45.15688" lon="4.69879">
        <ele>374.07998657227</ele>
        <time>2009-08-12T16:19:46Z</time>
      </trkpt>
      <trkpt lat="45.15713" lon="4.69919">
        <ele>376.69400024414</ele>
        <time>2009-08-12T16:19:55Z</time>
      </trkpt>
      <trkpt lat="45.15733" lon="4.6997">
        <ele>379.42700195312</ele>
        <time>2009-08-12T16:20:07Z</time>
      </trkpt>
      <trkpt lat="45.15723" lon="4.70025">
        <ele>382.06500244141</ele>
        <time>2009-08-12T16:20:21Z</time>
      </trkpt>
      <trkpt lat="45.15686" lon="4.70073">
        <ele>386.06399536133</ele>
        <time>2009-08-12T16:20:38Z</time>
      </trkpt>
      <trkpt lat="45.15633" lon="4.70083">
        <ele>389.30200195312</ele>
        <time>2009-08-12T16:20:56Z</time>
      </trkpt>
      <trkpt lat="45.15615" lon="4.70075">
        <ele>390.44198608398</ele>
        <time>2009-08-12T16:21:02Z</time>
      </trkpt>
      <trkpt lat="45.1562" lon="4.70091">
        <ele>389.78698730469</ele>
        <time>2009-08-12T16:21:09Z</time>
      </trkpt>
      <trkpt lat="45.15612" lon="4.70101">
        <ele>390.55700683594</ele>
        <time>2009-08-12T16:21:12Z</time>
      </trkpt>
      <trkpt lat="45.15595" lon="4.70125">
        <ele>391.57400512695</ele>
        <time>2009-08-12T16:21:18Z</time>
      </trkpt>
      <trkpt lat="45.15581" lon="4.70139">
        <ele>392.30200195312</ele>
        <time>2009-08-12T16:21:22Z</time>
      </trkpt>
      <trkpt lat="45.15572" lon="4.70145">
        <ele>391.66900634766</ele>
        <time>2009-08-12T16:21:24Z</time>
      </trkpt>
      <trkpt lat="45.15562" lon="4.70195">
        <ele>390.52899169922</ele>
        <time>2009-08-12T16:21:31Z</time>
      </trkpt>
      <trkpt lat="45.15554" lon="4.70253">
        <ele>392.19299316406</ele>
        <time>2009-08-12T16:21:39Z</time>
      </trkpt>
      <trkpt lat="45.15543" lon="4.70258">
        <ele>392.11199951172</ele>
        <time>2009-08-12T16:21:41Z</time>
      </trkpt>
      <trkpt lat="45.15525" lon="4.70286">
        <ele>393.16101074219</ele>
        <time>2009-08-12T16:21:47Z</time>
      </trkpt>
      <trkpt lat="45.15532" lon="4.70302">
        <ele>393.72601318359</ele>
        <time>2009-08-12T16:21:50Z</time>
      </trkpt>
      <trkpt lat="45.15522" lon="4.70339">
        <ele>395.28500366211</ele>
        <time>2009-08-12T16:21:57Z</time>
      </trkpt>
      <trkpt lat="45.15516" lon="4.70347">
        <ele>395.73699951172</ele>
        <time>2009-08-12T16:21:59Z</time>
      </trkpt>
      <trkpt lat="45.15482" lon="4.70356">
        <ele>396.99499511719</ele>
        <time>2009-08-12T16:22:07Z</time>
      </trkpt>
      <trkpt lat="45.15483" lon="4.70387">
        <ele>398.37701416016</ele>
        <time>2009-08-12T16:22:12Z</time>
      </trkpt>
      <trkpt lat="45.15491" lon="4.70401">
        <ele>398.56600952148</ele>
        <time>2009-08-12T16:22:15Z</time>
      </trkpt>
      <trkpt lat="45.15508" lon="4.70414">
        <ele>399.04901123047</ele>
        <time>2009-08-12T16:22:19Z</time>
      </trkpt>
      <trkpt lat="45.1552" lon="4.70421">
        <ele>399.95001220703</ele>
        <time>2009-08-12T16:22:22Z</time>
      </trkpt>
      <trkpt lat="45.15536" lon="4.70453">
        <ele>401.97100830078</ele>
        <time>2009-08-12T16:22:30Z</time>
      </trkpt>
      <trkpt lat="45.15536" lon="4.70476">
        <ele>402.93499755859</ele>
        <time>2009-08-12T16:22:35Z</time>
      </trkpt>
      <trkpt lat="45.15564" lon="4.70498">
        <ele>404.06500244141</ele>
        <time>2009-08-12T16:22:43Z</time>
      </trkpt>
      <trkpt lat="45.15591" lon="4.70549">
        <ele>406.68701171875</ele>
        <time>2009-08-12T16:22:56Z</time>
      </trkpt>
      <trkpt lat="45.15627" lon="4.70599">
        <ele>409.61199951172</ele>
        <time>2009-08-12T16:23:11Z</time>
      </trkpt>
      <trkpt lat="45.1563" lon="4.70642">
        <ele>411.20300292969</ele>
        <time>2009-08-12T16:23:20Z</time>
      </trkpt>
      <trkpt lat="45.15592" lon="4.70739">
        <ele>415.15798950195</ele>
        <time>2009-08-12T16:23:38Z</time>
      </trkpt>
      <trkpt lat="45.15589" lon="4.70743">
        <ele>415.30801391602</ele>
        <time>2009-08-12T16:23:39Z</time>
      </trkpt>
      <trkpt lat="45.15574" lon="4.70752">
        <ele>415.96798706055</ele>
        <time>2009-08-12T16:23:43Z</time>
      </trkpt>
      <trkpt lat="45.15522" lon="4.70768">
        <ele>419.26998901367</ele>
        <time>2009-08-12T16:23:57Z</time>
      </trkpt>
      <trkpt lat="45.15486" lon="4.70766">
        <ele>421.59201049805</ele>
        <time>2009-08-12T16:24:08Z</time>
      </trkpt>
      <trkpt lat="45.15466" lon="4.70767">
        <ele>422.64999389648</ele>
        <time>2009-08-12T16:24:15Z</time>
      </trkpt>
      <trkpt lat="45.15459" lon="4.70792">
        <ele>424.32299804688</ele>
        <time>2009-08-12T16:24:23Z</time>
      </trkpt>
      <trkpt lat="45.15471" lon="4.70858">
        <ele>426.0530090332</ele>
        <time>2009-08-12T16:24:38Z</time>
      </trkpt>
      <trkpt lat="45.15476" lon="4.70926">
        <ele>429.33898925781</ele>
        <time>2009-08-12T16:24:52Z</time>
      </trkpt>
      <trkpt lat="45.1548" lon="4.70968">
        <ele>430.98098754883</ele>
        <time>2009-08-12T16:25:03Z</time>
      </trkpt>
      <trkpt lat="45.15487" lon="4.71025">
        <ele>433.67300415039</ele>
        <time>2009-08-12T16:25:17Z</time>
      </trkpt>
      <trkpt lat="45.15504" lon="4.71094">
        <ele>436.51000976562</ele>
        <time>2009-08-12T16:25:33Z</time>
      </trkpt>
      <trkpt lat="45.15525" lon="4.71171">
        <ele>438.19198608398</ele>
        <time>2009-08-12T16:25:47Z</time>
      </trkpt>
      <trkpt lat="45.15553" lon="4.7127">
        <ele>440.57598876953</ele>
        <time>2009-08-12T16:26:03Z</time>
      </trkpt>
      <trkpt lat="45.15561" lon="4.71292">
        <ele>441.23699951172</ele>
        <time>2009-08-12T16:26:07Z</time>
      </trkpt>
      <trkpt lat="45.15584" lon="4.71328">
        <ele>439.58999633789</ele>
        <time>2009-08-12T16:26:14Z</time>
      </trkpt>
      <trkpt lat="45.15592" lon="4.7134">
        <ele>438.8210144043</ele>
        <time>2009-08-12T16:26:16Z</time>
      </trkpt>
      <trkpt lat="45.15643" lon="4.71392">
        <ele>435.5710144043</ele>
        <time>2009-08-12T16:26:25Z</time>
      </trkpt>
      <trkpt lat="45.15681" lon="4.71418">
        <ele>435.39700317383</ele>
        <time>2009-08-12T16:26:31Z</time>
      </trkpt>
      <trkpt lat="45.15702" lon="4.71455">
        <ele>434.93301391602</ele>
        <time>2009-08-12T16:26:36Z</time>
      </trkpt>
      <trkpt lat="45.15723" lon="4.71497">
        <ele>437.18399047852</ele>
        <time>2009-08-12T16:26:43Z</time>
      </trkpt>
      <trkpt lat="45.15755" lon="4.71556">
        <ele>437.57998657227</ele>
        <time>2009-08-12T16:26:53Z</time>
      </trkpt>
      <trkpt lat="45.15764" lon="4.71587">
        <ele>437.84100341797</ele>
        <time>2009-08-12T16:26:57Z</time>
      </trkpt>
      <trkpt lat="45.15767" lon="4.71603">
        <ele>437.63598632812</ele>
        <time>2009-08-12T16:26:59Z</time>
      </trkpt>
      <trkpt lat="45.15789" lon="4.71748">
        <ele>438.39498901367</ele>
        <time>2009-08-12T16:27:15Z</time>
      </trkpt>
      <trkpt lat="45.158" lon="4.71822">
        <ele>439.52099609375</ele>
        <time>2009-08-12T16:27:24Z</time>
      </trkpt>
      <trkpt lat="45.15796" lon="4.71925">
        <ele>438.38400268555</ele>
        <time>2009-08-12T16:27:36Z</time>
      </trkpt>
      <trkpt lat="45.15792" lon="4.71944">
        <ele>437.96899414062</ele>
        <time>2009-08-12T16:27:38Z</time>
      </trkpt>
      <trkpt lat="45.15786" lon="4.71999">
        <ele>435.38198852539</ele>
        <time>2009-08-12T16:27:43Z</time>
      </trkpt>
      <trkpt lat="45.15786" lon="4.72034">
        <ele>434.09298706055</ele>
        <time>2009-08-12T16:27:46Z</time>
      </trkpt>
      <trkpt lat="45.15791" lon="4.72064">
        <ele>433.25601196289</ele>
        <time>2009-08-12T16:27:49Z</time>
      </trkpt>
      <trkpt lat="45.15799" lon="4.72085">
        <ele>433.91799926758</ele>
        <time>2009-08-12T16:27:52Z</time>
      </trkpt>
      <trkpt lat="45.15798" lon="4.72091">
        <ele>434.12200927734</ele>
        <time>2009-08-12T16:27:53Z</time>
      </trkpt>
      <trkpt lat="45.15796" lon="4.72096">
        <ele>434.19900512695</ele>
        <time>2009-08-12T16:27:54Z</time>
      </trkpt>
      <trkpt lat="45.15788" lon="4.72163">
        <ele>432.65701293945</ele>
        <time>2009-08-12T16:28:03Z</time>
      </trkpt>
      <trkpt lat="45.15817" lon="4.72314">
        <ele>431.47799682617</ele>
        <time>2009-08-12T16:28:18Z</time>
      </trkpt>
      <trkpt lat="45.15826" lon="4.72358">
        <ele>428.88101196289</ele>
        <time>2009-08-12T16:28:22Z</time>
      </trkpt>
      <trkpt lat="45.15856" lon="4.72514">
        <ele>425.26599121094</ele>
        <time>2009-08-12T16:28:34Z</time>
      </trkpt>
      <trkpt lat="45.15888" lon="4.72705">
        <ele>422.85800170898</ele>
        <time>2009-08-12T16:28:49Z</time>
      </trkpt>
      <trkpt lat="45.15915" lon="4.72858">
        <ele>424.87200927734</ele>
        <time>2009-08-12T16:29:04Z</time>
      </trkpt>
      <trkpt lat="45.15917" lon="4.7291">
        <ele>426.32699584961</ele>
        <time>2009-08-12T16:29:10Z</time>
      </trkpt>
      <trkpt lat="45.15911" lon="4.7294">
        <ele>427.89700317383</ele>
        <time>2009-08-12T16:29:14Z</time>
      </trkpt>
      <trkpt lat="45.15873" lon="4.7305">
        <ele>430.25</ele>
        <time>2009-08-12T16:29:30Z</time>
      </trkpt>
      <trkpt lat="45.15868" lon="4.73064">
        <ele>431.15600585938</ele>
        <time>2009-08-12T16:29:32Z</time>
      </trkpt>
      <trkpt lat="45.15852" lon="4.73088">
        <ele>431.875</ele>
        <time>2009-08-12T16:29:36Z</time>
      </trkpt>
      <trkpt lat="45.15814" lon="4.73114">
        <ele>433.24700927734</ele>
        <time>2009-08-12T16:29:43Z</time>
      </trkpt>
      <trkpt lat="45.15753" lon="4.73152">
        <ele>435.19799804688</ele>
        <time>2009-08-12T16:29:54Z</time>
      </trkpt>
      <trkpt lat="45.15724" lon="4.73223">
        <ele>436.33099365234</ele>
        <time>2009-08-12T16:30:04Z</time>
      </trkpt>
      <trkpt lat="45.15746" lon="4.73285">
        <ele>437.58099365234</ele>
        <time>2009-08-12T16:30:13Z</time>
      </trkpt>
      <trkpt lat="45.15761" lon="4.73298">
        <ele>438.36898803711</ele>
        <time>2009-08-12T16:30:16Z</time>
      </trkpt>
      <trkpt lat="45.15851" lon="4.7335">
        <ele>441.93099975586</ele>
        <time>2009-08-12T16:30:34Z</time>
      </trkpt>
      <trkpt lat="45.15878" lon="4.73376">
        <ele>441.07400512695</ele>
        <time>2009-08-12T16:30:40Z</time>
      </trkpt>
      <trkpt lat="45.15895" lon="4.73447">
        <ele>443.54000854492</ele>
        <time>2009-08-12T16:30:50Z</time>
      </trkpt>
      <trkpt lat="45.15887" lon="4.73488">
        <ele>444.70999145508</ele>
        <time>2009-08-12T16:30:56Z</time>
      </trkpt>
      <trkpt lat="45.1588" lon="4.73505">
        <ele>445.69000244141</ele>
        <time>2009-08-12T16:30:59Z</time>
      </trkpt>
      <trkpt lat="45.1587" lon="4.73521">
        <ele>446.32998657227</ele>
        <time>2009-08-12T16:31:02Z</time>
      </trkpt>
      <trkpt lat="45.15799" lon="4.73599">
        <ele>449.76300048828</ele>
        <time>2009-08-12T16:31:21Z</time>
      </trkpt>
      <trkpt lat="45.15787" lon="4.73671">
        <ele>451.58401489258</ele>
        <time>2009-08-12T16:31:32Z</time>
      </trkpt>
      <trkpt lat="45.15794" lon="4.73689">
        <ele>451.6369934082</ele>
        <time>2009-08-12T16:31:35Z</time>
      </trkpt>
      <trkpt lat="45.15818" lon="4.73733">
        <ele>453.16101074219</ele>
        <time>2009-08-12T16:31:43Z</time>
      </trkpt>
      <trkpt lat="45.15821" lon="4.73745">
        <ele>453.31900024414</ele>
        <time>2009-08-12T16:31:45Z</time>
      </trkpt>
      <trkpt lat="45.15824" lon="4.73786">
        <ele>454.73901367188</ele>
        <time>2009-08-12T16:31:51Z</time>
      </trkpt>
      <trkpt lat="45.15806" lon="4.73869">
        <ele>456.25201416016</ele>
        <time>2009-08-12T16:32:04Z</time>
      </trkpt>
      <trkpt lat="45.15805" lon="4.73936">
        <ele>457.33099365234</ele>
        <time>2009-08-12T16:32:15Z</time>
      </trkpt>
      <trkpt lat="45.15823" lon="4.73977">
        <ele>458.30700683594</ele>
        <time>2009-08-12T16:32:23Z</time>
      </trkpt>
      <trkpt lat="45.15851" lon="4.74007">
        <ele>459.67999267578</ele>
        <time>2009-08-12T16:32:31Z</time>
      </trkpt>
      <trkpt lat="45.15857" lon="4.74015">
        <ele>460.17199707031</ele>
        <time>2009-08-12T16:32:33Z</time>
      </trkpt>
      <trkpt lat="45.15865" lon="4.74029">
        <ele>460.07800292969</ele>
        <time>2009-08-12T16:32:36Z</time>
      </trkpt>
      <trkpt lat="45.1587" lon="4.74041">
        <ele>459.59698486328</ele>
        <time>2009-08-12T16:32:38Z</time>
      </trkpt>
      <trkpt lat="45.15877" lon="4.74069">
        <ele>458.05200195312</ele>
        <time>2009-08-12T16:32:42Z</time>
      </trkpt>
      <trkpt lat="45.15905" lon="4.74171">
        <ele>455.90399169922</ele>
        <time>2009-08-12T16:32:54Z</time>
      </trkpt>
      <trkpt lat="45.15925" lon="4.74207">
        <ele>455.83599853516</ele>
        <time>2009-08-12T16:32:59Z</time>
      </trkpt>
      <trkpt lat="45.15968" lon="4.74253">
        <ele>454.02398681641</ele>
        <time>2009-08-12T16:33:07Z</time>
      </trkpt>
      <trkpt lat="45.16006" lon="4.74291">
        <ele>452.79598999023</ele>
        <time>2009-08-12T16:33:13Z</time>
      </trkpt>
      <trkpt lat="45.16059" lon="4.74342">
        <ele>451.57598876953</ele>
        <time>2009-08-12T16:33:21Z</time>
      </trkpt>
      <trkpt lat="45.16158" lon="4.7444">
        <ele>447.98098754883</ele>
        <time>2009-08-12T16:33:36Z</time>
      </trkpt>
      <trkpt lat="45.16223" lon="4.74515">
        <ele>447.03298950195</ele>
        <time>2009-08-12T16:33:47Z</time>
      </trkpt>
      <trkpt lat="45.16239" lon="4.746">
        <ele>447.02600097656</ele>
        <time>2009-08-12T16:33:55Z</time>
      </trkpt>
      <trkpt lat="45.16234" lon="4.74734">
        <ele>450.73400878906</ele>
        <time>2009-08-12T16:34:08Z</time>
      </trkpt>
      <trkpt lat="45.16235" lon="4.74745">
        <ele>451.03298950195</ele>
        <time>2009-08-12T16:34:09Z</time>
      </trkpt>
      <trkpt lat="45.16246" lon="4.74844">
        <ele>451.60598754883</ele>
        <time>2009-08-12T16:34:19Z</time>
      </trkpt>
      <trkpt lat="45.16287" lon="4.74943">
        <ele>450.87799072266</ele>
        <time>2009-08-12T16:34:31Z</time>
      </trkpt>
      <trkpt lat="45.16291" lon="4.74951">
        <ele>450.62799072266</ele>
        <time>2009-08-12T16:34:32Z</time>
      </trkpt>
      <trkpt lat="45.16323" lon="4.75016">
        <ele>452.27301025391</ele>
        <time>2009-08-12T16:34:40Z</time>
      </trkpt>
      <trkpt lat="45.16398" lon="4.75176">
        <ele>452.9469909668</ele>
        <time>2009-08-12T16:35:00Z</time>
      </trkpt>
      <trkpt lat="45.16467" lon="4.75316">
        <ele>449.8030090332</ele>
        <time>2009-08-12T16:35:17Z</time>
      </trkpt>
      <trkpt lat="45.16541" lon="4.75468">
        <ele>445.94799804688</ele>
        <time>2009-08-12T16:35:33Z</time>
      </trkpt>
      <trkpt lat="45.16598" lon="4.75599">
        <ele>439.71899414062</ele>
        <time>2009-08-12T16:35:45Z</time>
      </trkpt>
      <trkpt lat="45.16658" lon="4.75735">
        <ele>437.03100585938</ele>
        <time>2009-08-12T16:35:57Z</time>
      </trkpt>
      <trkpt lat="45.1667" lon="4.75784">
        <ele>436.16799926758</ele>
        <time>2009-08-12T16:36:01Z</time>
      </trkpt>
      <trkpt lat="45.1668" lon="4.75888">
        <ele>433.96798706055</ele>
        <time>2009-08-12T16:36:09Z</time>
      </trkpt>
      <trkpt lat="45.16687" lon="4.75929">
        <ele>431.71200561523</ele>
        <time>2009-08-12T16:36:12Z</time>
      </trkpt>
      <trkpt lat="45.16722" lon="4.75996">
        <ele>430.25100708008</ele>
        <time>2009-08-12T16:36:18Z</time>
      </trkpt>
      <trkpt lat="45.16829" lon="4.761">
        <ele>429.86898803711</ele>
        <time>2009-08-12T16:36:33Z</time>
      </trkpt>
      <trkpt lat="45.16932" lon="4.76156">
        <ele>423.47100830078</ele>
        <time>2009-08-12T16:36:45Z</time>
      </trkpt>
      <trkpt lat="45.16942" lon="4.76159">
        <ele>423.17401123047</ele>
        <time>2009-08-12T16:36:46Z</time>
      </trkpt>
      <trkpt lat="45.16962" lon="4.76164">
        <ele>421.58999633789</ele>
        <time>2009-08-12T16:36:48Z</time>
      </trkpt>
      <trkpt lat="45.16983" lon="4.76173">
        <ele>420.81399536133</ele>
        <time>2009-08-12T16:36:50Z</time>
      </trkpt>
      <trkpt lat="45.1701" lon="4.76198">
        <ele>419.73599243164</ele>
        <time>2009-08-12T16:36:53Z</time>
      </trkpt>
      <trkpt lat="45.17026" lon="4.7622">
        <ele>418.27499389648</ele>
        <time>2009-08-12T16:36:55Z</time>
      </trkpt>
      <trkpt lat="45.17051" lon="4.76273">
        <ele>415.75299072266</ele>
        <time>2009-08-12T16:36:59Z</time>
      </trkpt>
      <trkpt lat="45.17097" lon="4.76416">
        <ele>413.19799804688</ele>
        <time>2009-08-12T16:37:10Z</time>
      </trkpt>
      <trkpt lat="45.1713" lon="4.76572">
        <ele>412.0419921875</ele>
        <time>2009-08-12T16:37:22Z</time>
      </trkpt>
      <trkpt lat="45.17121" lon="4.76651">
        <ele>410.54800415039</ele>
        <time>2009-08-12T16:37:28Z</time>
      </trkpt>
      <trkpt lat="45.17082" lon="4.76727">
        <ele>409.79800415039</ele>
        <time>2009-08-12T16:37:35Z</time>
      </trkpt>
      <trkpt lat="45.1696" lon="4.76825">
        <ele>407.93499755859</ele>
        <time>2009-08-12T16:37:49Z</time>
      </trkpt>
      <trkpt lat="45.16942" lon="4.76839">
        <ele>408.12298583984</ele>
        <time>2009-08-12T16:37:51Z</time>
      </trkpt>
      <trkpt lat="45.16909" lon="4.76926">
        <ele>403.67300415039</ele>
        <time>2009-08-12T16:37:58Z</time>
      </trkpt>
      <trkpt lat="45.16911" lon="4.76941">
        <ele>403.49200439453</ele>
        <time>2009-08-12T16:37:59Z</time>
      </trkpt>
      <trkpt lat="45.16918" lon="4.76968">
        <ele>403.06201171875</ele>
        <time>2009-08-12T16:38:01Z</time>
      </trkpt>
      <trkpt lat="45.16932" lon="4.77008">
        <ele>400.88400268555</ele>
        <time>2009-08-12T16:38:04Z</time>
      </trkpt>
      <trkpt lat="45.16948" lon="4.77049">
        <ele>399.14999389648</ele>
        <time>2009-08-12T16:38:07Z</time>
      </trkpt>
      <trkpt lat="45.16987" lon="4.77151">
        <ele>393.8330078125</ele>
        <time>2009-08-12T16:38:14Z</time>
      </trkpt>
      <trkpt lat="45.16993" lon="4.77165">
        <ele>393.56298828125</ele>
        <time>2009-08-12T16:38:15Z</time>
      </trkpt>
      <trkpt lat="45.17048" lon="4.7722">
        <ele>390.4700012207</ele>
        <time>2009-08-12T16:38:21Z</time>
      </trkpt>
      <trkpt lat="45.17107" lon="4.77291">
        <ele>385.55899047852</ele>
        <time>2009-08-12T16:38:28Z</time>
      </trkpt>
      <trkpt lat="45.17107" lon="4.77341">
        <ele>382.69000244141</ele>
        <time>2009-08-12T16:38:31Z</time>
      </trkpt>
      <trkpt lat="45.17102" lon="4.77373">
        <ele>381.9880065918</ele>
        <time>2009-08-12T16:38:33Z</time>
      </trkpt>
      <trkpt lat="45.17101" lon="4.77389">
        <ele>381.29400634766</ele>
        <time>2009-08-12T16:38:34Z</time>
      </trkpt>
      <trkpt lat="45.17109" lon="4.77436">
        <ele>378.21499633789</ele>
        <time>2009-08-12T16:38:37Z</time>
      </trkpt>
      <trkpt lat="45.17125" lon="4.77458">
        <ele>378.11401367188</ele>
        <time>2009-08-12T16:38:39Z</time>
      </trkpt>
      <trkpt lat="45.17181" lon="4.7751">
        <ele>374.19500732422</ele>
        <time>2009-08-12T16:38:45Z</time>
      </trkpt>
      <trkpt lat="45.17198" lon="4.77529">
        <ele>373.05599975586</ele>
        <time>2009-08-12T16:38:47Z</time>
      </trkpt>
      <trkpt lat="45.17219" lon="4.77582">
        <ele>371.30700683594</ele>
        <time>2009-08-12T16:38:51Z</time>
      </trkpt>
      <trkpt lat="45.17231" lon="4.77641">
        <ele>369.6669921875</ele>
        <time>2009-08-12T16:38:55Z</time>
      </trkpt>
      <trkpt lat="45.17263" lon="4.77729">
        <ele>365.65399169922</ele>
        <time>2009-08-12T16:39:01Z</time>
      </trkpt>
      <trkpt lat="45.17273" lon="4.7776">
        <ele>363.83099365234</ele>
        <time>2009-08-12T16:39:03Z</time>
      </trkpt>
      <trkpt lat="45.17279" lon="4.7781">
        <ele>362.48699951172</ele>
        <time>2009-08-12T16:39:06Z</time>
      </trkpt>
      <trkpt lat="45.17279" lon="4.77828">
        <ele>362.06298828125</ele>
        <time>2009-08-12T16:39:07Z</time>
      </trkpt>
      <trkpt lat="45.17289" lon="4.77894">
        <ele>359.19900512695</ele>
        <time>2009-08-12T16:39:11Z</time>
      </trkpt>
      <trkpt lat="45.17302" lon="4.77923">
        <ele>357.58898925781</ele>
        <time>2009-08-12T16:39:13Z</time>
      </trkpt>
      <trkpt lat="45.17311" lon="4.77971">
        <ele>356.00201416016</ele>
        <time>2009-08-12T16:39:16Z</time>
      </trkpt>
      <trkpt lat="45.1733" lon="4.78033">
        <ele>353.47198486328</ele>
        <time>2009-08-12T16:39:20Z</time>
      </trkpt>
      <trkpt lat="45.17363" lon="4.78085">
        <ele>350.34799194336</ele>
        <time>2009-08-12T16:39:24Z</time>
      </trkpt>
      <trkpt lat="45.1738" lon="4.78147">
        <ele>349.5950012207</ele>
        <time>2009-08-12T16:39:28Z</time>
      </trkpt>
      <trkpt lat="45.17398" lon="4.78211">
        <ele>346.2080078125</ele>
        <time>2009-08-12T16:39:32Z</time>
      </trkpt>
      <trkpt lat="45.17417" lon="4.78234">
        <ele>345.82501220703</ele>
        <time>2009-08-12T16:39:34Z</time>
      </trkpt>
      <trkpt lat="45.17437" lon="4.78256">
        <ele>345.78100585938</ele>
        <time>2009-08-12T16:39:36Z</time>
      </trkpt>
      <trkpt lat="45.17467" lon="4.78314">
        <ele>340.53698730469</ele>
        <time>2009-08-12T16:39:40Z</time>
      </trkpt>
      <trkpt lat="45.17487" lon="4.784">
        <ele>336.98901367188</ele>
        <time>2009-08-12T16:39:45Z</time>
      </trkpt>
      <trkpt lat="45.17524" lon="4.78465">
        <ele>334.01300048828</ele>
        <time>2009-08-12T16:39:50Z</time>
      </trkpt>
      <trkpt lat="45.17583" lon="4.78446">
        <ele>330.01501464844</ele>
        <time>2009-08-12T16:39:55Z</time>
      </trkpt>
      <trkpt lat="45.17598" lon="4.78401">
        <ele>328.82299804688</ele>
        <time>2009-08-12T16:39:58Z</time>
      </trkpt>
      <trkpt lat="45.17614" lon="4.78337">
        <ele>326.11898803711</ele>
        <time>2009-08-12T16:40:02Z</time>
      </trkpt>
      <trkpt lat="45.17626" lon="4.7824">
        <ele>323.43399047852</ele>
        <time>2009-08-12T16:40:08Z</time>
      </trkpt>
      <trkpt lat="45.17622" lon="4.78224">
        <ele>322.64199829102</ele>
        <time>2009-08-12T16:40:09Z</time>
      </trkpt>
      <trkpt lat="45.17611" lon="4.78157">
        <ele>320.16900634766</ele>
        <time>2009-08-12T16:40:13Z</time>
      </trkpt>
      <trkpt lat="45.17642" lon="4.78081">
        <ele>316.34799194336</ele>
        <time>2009-08-12T16:40:19Z</time>
      </trkpt>
      <trkpt lat="45.17664" lon="4.78133">
        <ele>315.16400146484</ele>
        <time>2009-08-12T16:40:23Z</time>
      </trkpt>
      <trkpt lat="45.17686" lon="4.78219">
        <ele>311.89599609375</ele>
        <time>2009-08-12T16:40:29Z</time>
      </trkpt>
      <trkpt lat="45.17693" lon="4.78282">
        <ele>310.14199829102</ele>
        <time>2009-08-12T16:40:33Z</time>
      </trkpt>
      <trkpt lat="45.1768" lon="4.78394">
        <ele>306.98098754883</ele>
        <time>2009-08-12T16:40:40Z</time>
      </trkpt>
      <trkpt lat="45.1767" lon="4.78459">
        <ele>305.32598876953</ele>
        <time>2009-08-12T16:40:44Z</time>
      </trkpt>
      <trkpt lat="45.17653" lon="4.78629">
        <ele>298.41000366211</ele>
        <time>2009-08-12T16:40:54Z</time>
      </trkpt>
      <trkpt lat="45.17672" lon="4.7871">
        <ele>295.88500976562</ele>
        <time>2009-08-12T16:40:59Z</time>
      </trkpt>
      <trkpt lat="45.17704" lon="4.78825">
        <ele>290.64300537109</ele>
        <time>2009-08-12T16:41:06Z</time>
      </trkpt>
      <trkpt lat="45.17722" lon="4.78892">
        <ele>287.43499755859</ele>
        <time>2009-08-12T16:41:10Z</time>
      </trkpt>
      <trkpt lat="45.17726" lon="4.78946">
        <ele>285.37100219727</ele>
        <time>2009-08-12T16:41:13Z</time>
      </trkpt>
      <trkpt lat="45.1772" lon="4.79">
        <ele>283.67300415039</ele>
        <time>2009-08-12T16:41:16Z</time>
      </trkpt>
      <trkpt lat="45.17723" lon="4.79016">
        <ele>282.80499267578</ele>
        <time>2009-08-12T16:41:17Z</time>
      </trkpt>
      <trkpt lat="45.17742" lon="4.79098">
        <ele>279.2200012207</ele>
        <time>2009-08-12T16:41:22Z</time>
      </trkpt>
      <trkpt lat="45.17782" lon="4.79187">
        <ele>275.82699584961</ele>
        <time>2009-08-12T16:41:28Z</time>
      </trkpt>
      <trkpt lat="45.17799" lon="4.79213">
        <ele>274.70999145508</ele>
        <time>2009-08-12T16:41:30Z</time>
      </trkpt>
      <trkpt lat="45.17809" lon="4.79224">
        <ele>273.90600585938</ele>
        <time>2009-08-12T16:41:31Z</time>
      </trkpt>
      <trkpt lat="45.1783" lon="4.7929">
        <ele>270.86401367188</ele>
        <time>2009-08-12T16:41:35Z</time>
      </trkpt>
      <trkpt lat="45.1786" lon="4.79384">
        <ele>266.56799316406</ele>
        <time>2009-08-12T16:41:41Z</time>
      </trkpt>
      <trkpt lat="45.179" lon="4.79453">
        <ele>263.53698730469</ele>
        <time>2009-08-12T16:41:46Z</time>
      </trkpt>
      <trkpt lat="45.17916" lon="4.79481">
        <ele>261.12799072266</ele>
        <time>2009-08-12T16:41:48Z</time>
      </trkpt>
      <trkpt lat="45.17936" lon="4.79502">
        <ele>259.93200683594</ele>
        <time>2009-08-12T16:41:50Z</time>
      </trkpt>
      <trkpt lat="45.17974" lon="4.79502">
        <ele>257.49700927734</ele>
        <time>2009-08-12T16:41:53Z</time>
      </trkpt>
      <trkpt lat="45.17998" lon="4.79498">
        <ele>256.07800292969</ele>
        <time>2009-08-12T16:41:55Z</time>
      </trkpt>
      <trkpt lat="45.18079" lon="4.79514">
        <ele>251.50799560547</ele>
        <time>2009-08-12T16:42:02Z</time>
      </trkpt>
      <trkpt lat="45.181" lon="4.79528">
        <ele>250.87399291992</ele>
        <time>2009-08-12T16:42:04Z</time>
      </trkpt>
      <trkpt lat="45.18158" lon="4.79584">
        <ele>246.53900146484</ele>
        <time>2009-08-12T16:42:10Z</time>
      </trkpt>
      <trkpt lat="45.18185" lon="4.79673">
        <ele>242.79400634766</ele>
        <time>2009-08-12T16:42:16Z</time>
      </trkpt>
      <trkpt lat="45.18211" lon="4.79713">
        <ele>240.18699645996</ele>
        <time>2009-08-12T16:42:20Z</time>
      </trkpt>
      <trkpt lat="45.18222" lon="4.79713">
        <ele>239.65699768066</ele>
        <time>2009-08-12T16:42:21Z</time>
      </trkpt>
      <trkpt lat="45.18279" lon="4.79707">
        <ele>235.91000366211</ele>
        <time>2009-08-12T16:42:26Z</time>
      </trkpt>
      <trkpt lat="45.18302" lon="4.79699">
        <ele>234.50300598144</ele>
        <time>2009-08-12T16:42:28Z</time>
      </trkpt>
      <trkpt lat="45.18366" lon="4.79627">
        <ele>229.86500549316</ele>
        <time>2009-08-12T16:42:35Z</time>
      </trkpt>
      <trkpt lat="45.18391" lon="4.79549">
        <ele>226.19099426269</ele>
        <time>2009-08-12T16:42:40Z</time>
      </trkpt>
      <trkpt lat="45.18381" lon="4.79483">
        <ele>223.24200439453</ele>
        <time>2009-08-12T16:42:44Z</time>
      </trkpt>
      <trkpt lat="45.18304" lon="4.79435">
        <ele>218.32699584961</ele>
        <time>2009-08-12T16:42:51Z</time>
      </trkpt>
      <trkpt lat="45.18268" lon="4.79397">
        <ele>215.86700439453</ele>
        <time>2009-08-12T16:42:57Z</time>
      </trkpt>
      <trkpt lat="45.18279" lon="4.79378">
        <ele>214.64100646973</ele>
        <time>2009-08-12T16:42:59Z</time>
      </trkpt>
      <trkpt lat="45.18292" lon="4.79356">
        <ele>212.26400756836</ele>
        <time>2009-08-12T16:43:01Z</time>
      </trkpt>
      <trkpt lat="45.1829" lon="4.79257">
        <ele>208.60499572754</ele>
        <time>2009-08-12T16:43:08Z</time>
      </trkpt>
      <trkpt lat="45.18274" lon="4.79233">
        <ele>206.73199462891</ele>
        <time>2009-08-12T16:43:10Z</time>
      </trkpt>
      <trkpt lat="45.18253" lon="4.79193">
        <ele>204.95500183106</ele>
        <time>2009-08-12T16:43:13Z</time>
      </trkpt>
      <trkpt lat="45.18244" lon="4.79165">
        <ele>204.55400085449</ele>
        <time>2009-08-12T16:43:15Z</time>
      </trkpt>
      <trkpt lat="45.18232" lon="4.79118">
        <ele>202.65800476074</ele>
        <time>2009-08-12T16:43:18Z</time>
      </trkpt>
      <trkpt lat="45.18224" lon="4.7909">
        <ele>200.97500610352</ele>
        <time>2009-08-12T16:43:20Z</time>
      </trkpt>
      <trkpt lat="45.18208" lon="4.7905">
        <ele>199.01100158691</ele>
        <time>2009-08-12T16:43:23Z</time>
      </trkpt>
      <trkpt lat="45.18217" lon="4.79002">
        <ele>197.03100585938</ele>
        <time>2009-08-12T16:43:27Z</time>
      </trkpt>
      <trkpt lat="45.18254" lon="4.79026">
        <ele>195.49099731445</ele>
        <time>2009-08-12T16:43:31Z</time>
      </trkpt>
      <trkpt lat="45.18271" lon="4.79062">
        <ele>193.50199890137</ele>
        <time>2009-08-12T16:43:34Z</time>
      </trkpt>
      <trkpt lat="45.18322" lon="4.79172">
        <ele>187.42300415039</ele>
        <time>2009-08-12T16:43:42Z</time>
      </trkpt>
      <trkpt lat="45.18418" lon="4.79289">
        <ele>180.53100585938</ele>
        <time>2009-08-12T16:43:53Z</time>
      </trkpt>
      <trkpt lat="45.18458" lon="4.79323">
        <ele>177.84300231934</ele>
        <time>2009-08-12T16:43:57Z</time>
      </trkpt>
      <trkpt lat="45.1848" lon="4.79336">
        <ele>177.09199523926</ele>
        <time>2009-08-12T16:43:59Z</time>
      </trkpt>
      <trkpt lat="45.1852" lon="4.79368">
        <ele>174.44400024414</ele>
        <time>2009-08-12T16:44:03Z</time>
      </trkpt>
      <trkpt lat="45.18661" lon="4.795">
        <ele>165.29699707031</ele>
        <time>2009-08-12T16:44:17Z</time>
      </trkpt>
      <trkpt lat="45.18678" lon="4.79575">
        <ele>161.39500427246</ele>
        <time>2009-08-12T16:44:22Z</time>
      </trkpt>
      <trkpt lat="45.18676" lon="4.79591">
        <ele>160.74200439453</ele>
        <time>2009-08-12T16:44:23Z</time>
      </trkpt>
      <trkpt lat="45.18669" lon="4.79683">
        <ele>158.94299316406</ele>
        <time>2009-08-12T16:44:29Z</time>
      </trkpt>
      <trkpt lat="45.18663" lon="4.79741">
        <ele>157.35099792481</ele>
        <time>2009-08-12T16:44:33Z</time>
      </trkpt>
      <trkpt lat="45.1866" lon="4.79788">
        <ele>158.29100036621</ele>
        <time>2009-08-12T16:44:37Z</time>
      </trkpt>
      <trkpt lat="45.18661" lon="4.79819">
        <ele>157.91299438477</ele>
        <time>2009-08-12T16:44:41Z</time>
      </trkpt>
      <trkpt lat="45.18664" lon="4.79876">
        <ele>156.58599853516</ele>
        <time>2009-08-12T16:44:53Z</time>
      </trkpt>
      <trkpt lat="45.18662" lon="4.79897">
        <ele>155.82800292969</ele>
        <time>2009-08-12T16:45:03Z</time>
      </trkpt>
      <trkpt lat="45.1866" lon="4.79905">
        <ele>155.43600463867</ele>
        <time>2009-08-12T16:45:27Z</time>
      </trkpt>
      <trkpt lat="45.18663" lon="4.79912">
        <ele>155.03799438477</ele>
        <time>2009-08-12T16:45:29Z</time>
      </trkpt>
      <trkpt lat="45.18667" lon="4.80003">
        <ele>153.67500305176</ele>
        <time>2009-08-12T16:45:40Z</time>
      </trkpt>
      <trkpt lat="45.18668" lon="4.80081">
        <ele>152.25999450684</ele>
        <time>2009-08-12T16:45:47Z</time>
      </trkpt>
      <trkpt lat="45.18666" lon="4.80104">
        <ele>151.72300720215</ele>
        <time>2009-08-12T16:45:49Z</time>
      </trkpt>
      <trkpt lat="45.18628" lon="4.80192">
        <ele>154.0119934082</ele>
        <time>2009-08-12T16:45:58Z</time>
      </trkpt>
      <trkpt lat="45.18605" lon="4.80248">
        <ele>152.97700500488</ele>
        <time>2009-08-12T16:46:06Z</time>
      </trkpt>
      <trkpt lat="45.18559" lon="4.80361">
        <ele>150.85499572754</ele>
        <time>2009-08-12T16:46:18Z</time>
      </trkpt>
      <trkpt lat="45.18538" lon="4.80403">
        <ele>150.28399658203</ele>
        <time>2009-08-12T16:46:22Z</time>
      </trkpt>
      <trkpt lat="45.18475" lon="4.80555">
        <ele>149.82800292969</ele>
        <time>2009-08-12T16:46:36Z</time>
      </trkpt>
      <trkpt lat="45.18448" lon="4.80621">
        <ele>150.73899841309</ele>
        <time>2009-08-12T16:46:43Z</time>
      </trkpt>
      <trkpt lat="45.18405" lon="4.80727">
        <ele>150.99299621582</ele>
        <time>2009-08-12T16:46:55Z</time>
      </trkpt>
      <trkpt lat="45.18394" lon="4.80743">
        <ele>150.82400512695</ele>
        <time>2009-08-12T16:46:57Z</time>
      </trkpt>
      <trkpt lat="45.18382" lon="4.80784">
        <ele>150.50399780273</ele>
        <time>2009-08-12T16:47:01Z</time>
      </trkpt>
      <trkpt lat="45.18362" lon="4.80909">
        <ele>153.16999816894</ele>
        <time>2009-08-12T16:47:13Z</time>
      </trkpt>
      <trkpt lat="45.18372" lon="4.81039">
        <ele>155.82499694824</ele>
        <time>2009-08-12T16:47:27Z</time>
      </trkpt>
      <trkpt lat="45.18384" lon="4.81096">
        <ele>157.70399475098</ele>
        <time>2009-08-12T16:47:34Z</time>
      </trkpt>
      <trkpt lat="45.18416" lon="4.81265">
        <ele>159.50300598144</ele>
        <time>2009-08-12T16:47:55Z</time>
      </trkpt>
      <trkpt lat="45.18425" lon="4.81312">
        <ele>157.66299438477</ele>
        <time>2009-08-12T16:48:00Z</time>
      </trkpt>
      <trkpt lat="45.18432" lon="4.81345">
        <ele>156.38499450684</ele>
        <time>2009-08-12T16:48:04Z</time>
      </trkpt>
      <trkpt lat="45.1842" lon="4.81403">
        <ele>156.0950012207</ele>
        <time>2009-08-12T16:48:11Z</time>
      </trkpt>
      <trkpt lat="45.18401" lon="4.81411">
        <ele>156.00900268555</ele>
        <time>2009-08-12T16:48:14Z</time>
      </trkpt>
      <trkpt lat="45.18281" lon="4.8143">
        <ele>155.84700012207</ele>
        <time>2009-08-12T16:48:30Z</time>
      </trkpt>
      <trkpt lat="45.18238" lon="4.81438">
        <ele>155.47300720215</ele>
        <time>2009-08-12T16:48:36Z</time>
      </trkpt>
      <trkpt lat="45.18198" lon="4.81449">
        <ele>155.125</ele>
        <time>2009-08-12T16:48:43Z</time>
      </trkpt>
      <trkpt lat="45.18172" lon="4.81454">
        <ele>154.74099731445</ele>
        <time>2009-08-12T16:48:48Z</time>
      </trkpt>
      <trkpt lat="45.1815" lon="4.8146">
        <ele>154.63400268555</ele>
        <time>2009-08-12T16:48:52Z</time>
      </trkpt>
      <trkpt lat="45.18082" lon="4.81479">
        <ele>155.23399353027</ele>
        <time>2009-08-12T16:49:01Z</time>
      </trkpt>
      <trkpt lat="45.18074" lon="4.81481">
        <ele>155.10600280762</ele>
        <time>2009-08-12T16:49:02Z</time>
      </trkpt>
      <trkpt lat="45.18011" lon="4.81428">
        <ele>154.0950012207</ele>
        <time>2009-08-12T16:49:12Z</time>
      </trkpt>
      <trkpt lat="45.17996" lon="4.81417">
        <ele>153.78300476074</ele>
        <time>2009-08-12T16:49:14Z</time>
      </trkpt>
      <trkpt lat="45.17981" lon="4.81408">
        <ele>153.77799987793</ele>
        <time>2009-08-12T16:49:16Z</time>
      </trkpt>
      <trkpt lat="45.17874" lon="4.8138">
        <ele>150.27799987793</ele>
        <time>2009-08-12T16:49:28Z</time>
      </trkpt>
      <trkpt lat="45.17847" lon="4.81375">
        <ele>149.73699951172</ele>
        <time>2009-08-12T16:49:31Z</time>
      </trkpt>
      <trkpt lat="45.17813" lon="4.81387">
        <ele>149.33700561523</ele>
        <time>2009-08-12T16:49:35Z</time>
      </trkpt>
      <trkpt lat="45.17758" lon="4.81422">
        <ele>149.65600585938</ele>
        <time>2009-08-12T16:49:42Z</time>
      </trkpt>
      <trkpt lat="45.17744" lon="4.81435">
        <ele>149.9880065918</ele>
        <time>2009-08-12T16:49:44Z</time>
      </trkpt>
      <trkpt lat="45.1773" lon="4.81473">
        <ele>150.0950012207</ele>
        <time>2009-08-12T16:49:49Z</time>
      </trkpt>
      <trkpt lat="45.17726" lon="4.81496">
        <ele>149.67500305176</ele>
        <time>2009-08-12T16:49:51Z</time>
      </trkpt>
      <trkpt lat="45.17716" lon="4.8153">
        <ele>148.68499755859</ele>
        <time>2009-08-12T16:49:54Z</time>
      </trkpt>
      <trkpt lat="45.17709" lon="4.81567">
        <ele>147.75500488281</ele>
        <time>2009-08-12T16:49:57Z</time>
      </trkpt>
      <trkpt lat="45.17713" lon="4.81641">
        <ele>148.50399780273</ele>
        <time>2009-08-12T16:50:03Z</time>
      </trkpt>
      <trkpt lat="45.17712" lon="4.81743">
        <ele>149.96000671387</ele>
        <time>2009-08-12T16:50:11Z</time>
      </trkpt>
      <trkpt lat="45.1767" lon="4.81887">
        <ele>149.41000366211</ele>
        <time>2009-08-12T16:50:23Z</time>
      </trkpt>
      <trkpt lat="45.17662" lon="4.81908">
        <ele>149.5950012207</ele>
        <time>2009-08-12T16:50:25Z</time>
      </trkpt>
      <trkpt lat="45.17603" lon="4.82001">
        <ele>150.02000427246</ele>
        <time>2009-08-12T16:50:36Z</time>
      </trkpt>
      <trkpt lat="45.17574" lon="4.82061">
        <ele>151.09199523926</ele>
        <time>2009-08-12T16:50:43Z</time>
      </trkpt>
      <trkpt lat="45.17536" lon="4.82107">
        <ele>152.01100158691</ele>
        <time>2009-08-12T16:50:50Z</time>
      </trkpt>
      <trkpt lat="45.17515" lon="4.82114">
        <ele>151.7559967041</ele>
        <time>2009-08-12T16:50:53Z</time>
      </trkpt>
      <trkpt lat="45.17494" lon="4.82141">
        <ele>153.03500366211</ele>
        <time>2009-08-12T16:50:57Z</time>
      </trkpt>
      <trkpt lat="45.17484" lon="4.82153">
        <ele>153.10299682617</ele>
        <time>2009-08-12T16:50:59Z</time>
      </trkpt>
      <trkpt lat="45.17401" lon="4.82212">
        <ele>154.79499816894</ele>
        <time>2009-08-12T16:51:13Z</time>
      </trkpt>
      <trkpt lat="45.1734" lon="4.82256">
        <ele>157.12399291992</ele>
        <time>2009-08-12T16:51:25Z</time>
      </trkpt>
      <trkpt lat="45.17321" lon="4.82275">
        <ele>156.72799682617</ele>
        <time>2009-08-12T16:51:29Z</time>
      </trkpt>
      <trkpt lat="45.17296" lon="4.82325">
        <ele>155.52200317383</ele>
        <time>2009-08-12T16:51:36Z</time>
      </trkpt>
      <trkpt lat="45.17283" lon="4.82383">
        <ele>154.93299865723</ele>
        <time>2009-08-12T16:51:43Z</time>
      </trkpt>
      <trkpt lat="45.1729" lon="4.82389">
        <ele>154.78100585938</ele>
        <time>2009-08-12T16:51:44Z</time>
      </trkpt>
      <trkpt lat="45.17319" lon="4.82423">
        <ele>154.59599304199</ele>
        <time>2009-08-12T16:51:49Z</time>
      </trkpt>
      <trkpt lat="45.17392" lon="4.82557">
        <ele>154.00900268555</ele>
        <time>2009-08-12T16:52:05Z</time>
      </trkpt>
      <trkpt lat="45.17405" lon="4.8258">
        <ele>154.21299743652</ele>
        <time>2009-08-12T16:52:08Z</time>
      </trkpt>
      <trkpt lat="45.17418" lon="4.82625">
        <ele>154.35099792481</ele>
        <time>2009-08-12T16:52:13Z</time>
      </trkpt>
      <trkpt lat="45.17416" lon="4.82671">
        <ele>155.34300231934</ele>
        <time>2009-08-12T16:52:18Z</time>
      </trkpt>
      <trkpt lat="45.17379" lon="4.82782">
        <ele>157.38299560547</ele>
        <time>2009-08-12T16:52:33Z</time>
      </trkpt>
      <trkpt lat="45.1737" lon="4.82815">
        <ele>157.92399597168</ele>
        <time>2009-08-12T16:52:38Z</time>
      </trkpt>
      <trkpt lat="45.17362" lon="4.82856">
        <ele>159.18200683594</ele>
        <time>2009-08-12T16:52:45Z</time>
      </trkpt>
      <trkpt lat="45.17361" lon="4.82868">
        <ele>159.75999450684</ele>
        <time>2009-08-12T16:52:47Z</time>
      </trkpt>
      <trkpt lat="45.1736" lon="4.82886">
        <ele>159.60800170898</ele>
        <time>2009-08-12T16:52:50Z</time>
      </trkpt>
      <trkpt lat="45.17368" lon="4.82923">
        <ele>160.40800476074</ele>
        <time>2009-08-12T16:52:56Z</time>
      </trkpt>
      <trkpt lat="45.17381" lon="4.82951">
        <ele>161.92500305176</ele>
        <time>2009-08-12T16:53:01Z</time>
      </trkpt>
      <trkpt lat="45.17443" lon="4.83008">
        <ele>162.93499755859</ele>
        <time>2009-08-12T16:53:14Z</time>
      </trkpt>
      <trkpt lat="45.17476" lon="4.83021">
        <ele>162.50500488281</ele>
        <time>2009-08-12T16:53:19Z</time>
      </trkpt>
      <trkpt lat="45.175" lon="4.83018">
        <ele>162.02000427246</ele>
        <time>2009-08-12T16:53:23Z</time>
      </trkpt>
      <trkpt lat="45.1754" lon="4.83">
        <ele>161.48100280762</ele>
        <time>2009-08-12T16:53:34Z</time>
      </trkpt>
      <trkpt lat="45.17562" lon="4.82996">
        <ele>161.07099914551</ele>
        <time>2009-08-12T16:53:41Z</time>
      </trkpt>
      <trkpt lat="45.17563" lon="4.82996">
        <ele>161.08500671387</ele>
        <time>2009-08-12T16:53:43Z</time>
      </trkpt>
      <trkpt lat="45.17561" lon="4.82994">
        <ele>161.22500610352</ele>
        <time>2009-08-12T16:55:19Z</time>
      </trkpt>
      <trkpt lat="45.17564" lon="4.82993">
        <ele>161.25799560547</ele>
        <time>2009-08-12T16:55:20Z</time>
      </trkpt>
      <trkpt lat="45.17593" lon="4.82981">
        <ele>160.14399719238</ele>
        <time>2009-08-12T16:55:25Z</time>
      </trkpt>
      <trkpt lat="45.17617" lon="4.82971">
        <ele>159.84899902344</ele>
        <time>2009-08-12T16:55:28Z</time>
      </trkpt>
      <trkpt lat="45.17625" lon="4.82967">
        <ele>159.86099243164</ele>
        <time>2009-08-12T16:55:29Z</time>
      </trkpt>
      <trkpt lat="45.17642" lon="4.82962">
        <ele>160.18200683594</ele>
        <time>2009-08-12T16:55:31Z</time>
      </trkpt>
      <trkpt lat="45.17651" lon="4.82961">
        <ele>159.80599975586</ele>
        <time>2009-08-12T16:55:32Z</time>
      </trkpt>
      <trkpt lat="45.17669" lon="4.82964">
        <ele>159.91499328613</ele>
        <time>2009-08-12T16:55:34Z</time>
      </trkpt>
      <trkpt lat="45.17704" lon="4.83021">
        <ele>158.80999755859</ele>
        <time>2009-08-12T16:55:40Z</time>
      </trkpt>
      <trkpt lat="45.17707" lon="4.83048">
        <ele>159.91299438477</ele>
        <time>2009-08-12T16:55:42Z</time>
      </trkpt>
      <trkpt lat="45.17722" lon="4.83153">
        <ele>159.67100524902</ele>
        <time>2009-08-12T16:55:50Z</time>
      </trkpt>
      <trkpt lat="45.17762" lon="4.83277">
        <ele>161.60499572754</ele>
        <time>2009-08-12T16:56:01Z</time>
      </trkpt>
      <trkpt lat="45.1778" lon="4.83313">
        <ele>162.62699890137</ele>
        <time>2009-08-12T16:56:05Z</time>
      </trkpt>
      <trkpt lat="45.17817" lon="4.8334">
        <ele>162.61099243164</ele>
        <time>2009-08-12T16:56:10Z</time>
      </trkpt>
      <trkpt lat="45.17862" lon="4.83345">
        <ele>162.98300170898</ele>
        <time>2009-08-12T16:56:15Z</time>
      </trkpt>
      <trkpt lat="45.17948" lon="4.83311">
        <ele>165.69299316406</ele>
        <time>2009-08-12T16:56:26Z</time>
      </trkpt>
      <trkpt lat="45.17955" lon="4.83307">
        <ele>166.25900268555</ele>
        <time>2009-08-12T16:56:27Z</time>
      </trkpt>
      <trkpt lat="45.18006" lon="4.83326">
        <ele>167.44200134277</ele>
        <time>2009-08-12T16:56:35Z</time>
      </trkpt>
      <trkpt lat="45.18072" lon="4.83416">
        <ele>165.41700744629</ele>
        <time>2009-08-12T16:56:47Z</time>
      </trkpt>
      <trkpt lat="45.18093" lon="4.83505">
        <ele>161.84700012207</ele>
        <time>2009-08-12T16:56:54Z</time>
      </trkpt>
      <trkpt lat="45.18066" lon="4.83546">
        <ele>161.81300354004</ele>
        <time>2009-08-12T16:56:58Z</time>
      </trkpt>
      <trkpt lat="45.17978" lon="4.83656">
        <ele>163.12899780273</ele>
        <time>2009-08-12T16:57:11Z</time>
      </trkpt>
      <trkpt lat="45.17933" lon="4.83792">
        <ele>164.78799438477</ele>
        <time>2009-08-12T16:57:24Z</time>
      </trkpt>
      <trkpt lat="45.17901" lon="4.8393">
        <ele>167.5299987793</ele>
        <time>2009-08-12T16:57:39Z</time>
      </trkpt>
      <trkpt lat="45.17899" lon="4.84028">
        <ele>170.20599365234</ele>
        <time>2009-08-12T16:57:51Z</time>
      </trkpt>
      <trkpt lat="45.17916" lon="4.84093">
        <ele>173.23100280762</ele>
        <time>2009-08-12T16:58:01Z</time>
      </trkpt>
      <trkpt lat="45.17929" lon="4.84104">
        <ele>173.83299255371</ele>
        <time>2009-08-12T16:58:05Z</time>
      </trkpt>
      <trkpt lat="45.179" lon="4.84192">
        <ele>175.78199768066</ele>
        <time>2009-08-12T16:58:17Z</time>
      </trkpt>
      <trkpt lat="45.17892" lon="4.8421">
        <ele>176.58299255371</ele>
        <time>2009-08-12T16:58:20Z</time>
      </trkpt>
      <trkpt lat="45.17859" lon="4.8428">
        <ele>178.86599731445</ele>
        <time>2009-08-12T16:58:33Z</time>
      </trkpt>
      <trkpt lat="45.17852" lon="4.84311">
        <ele>178.83399963379</ele>
        <time>2009-08-12T16:58:37Z</time>
      </trkpt>
      <trkpt lat="45.17868" lon="4.84432">
        <ele>177.52699279785</ele>
        <time>2009-08-12T16:58:49Z</time>
      </trkpt>
      <trkpt lat="45.17919" lon="4.84574">
        <ele>176.50500488281</ele>
        <time>2009-08-12T16:59:03Z</time>
      </trkpt>
      <trkpt lat="45.17975" lon="4.84726">
        <ele>177.29400634766</ele>
        <time>2009-08-12T16:59:19Z</time>
      </trkpt>
      <trkpt lat="45.17979" lon="4.84743">
        <ele>177.69799804688</ele>
        <time>2009-08-12T16:59:21Z</time>
      </trkpt>
      <trkpt lat="45.17984" lon="4.84885">
        <ele>179.94900512695</ele>
        <time>2009-08-12T16:59:39Z</time>
      </trkpt>
      <trkpt lat="45.17983" lon="4.849">
        <ele>180.44900512695</ele>
        <time>2009-08-12T16:59:41Z</time>
      </trkpt>
      <trkpt lat="45.17984" lon="4.84922">
        <ele>180.55400085449</ele>
        <time>2009-08-12T16:59:44Z</time>
      </trkpt>
      <trkpt lat="45.1797" lon="4.85064">
        <ele>183.58099365234</ele>
        <time>2009-08-12T17:00:02Z</time>
      </trkpt>
      <trkpt lat="45.17968" lon="4.85071">
        <ele>183.9940032959</ele>
        <time>2009-08-12T17:00:03Z</time>
      </trkpt>
      <trkpt lat="45.17921" lon="4.85146">
        <ele>187.59300231934</ele>
        <time>2009-08-12T17:00:19Z</time>
      </trkpt>
      <trkpt lat="45.1788" lon="4.85203">
        <ele>189.14500427246</ele>
        <time>2009-08-12T17:00:31Z</time>
      </trkpt>
      <trkpt lat="45.17866" lon="4.85243">
        <ele>189.65400695801</ele>
        <time>2009-08-12T17:00:37Z</time>
      </trkpt>
      <trkpt lat="45.17859" lon="4.85297">
        <ele>190.82200622559</ele>
        <time>2009-08-12T17:00:44Z</time>
      </trkpt>
      <trkpt lat="45.17872" lon="4.85403">
        <ele>193.52400207519</ele>
        <time>2009-08-12T17:00:58Z</time>
      </trkpt>
      <trkpt lat="45.17878" lon="4.85433">
        <ele>194.32499694824</ele>
        <time>2009-08-12T17:01:02Z</time>
      </trkpt>
      <trkpt lat="45.17867" lon="4.85503">
        <ele>191.72399902344</ele>
        <time>2009-08-12T17:01:09Z</time>
      </trkpt>
      <trkpt lat="45.17857" lon="4.85523">
        <ele>190.91499328613</ele>
        <time>2009-08-12T17:01:11Z</time>
      </trkpt>
      <trkpt lat="45.17823" lon="4.85588">
        <ele>188.52499389648</ele>
        <time>2009-08-12T17:01:17Z</time>
      </trkpt>
      <trkpt lat="45.17715" lon="4.85694">
        <ele>186.39999389648</ele>
        <time>2009-08-12T17:01:30Z</time>
      </trkpt>
      <trkpt lat="45.1764" lon="4.85742">
        <ele>183.92799377441</ele>
        <time>2009-08-12T17:01:38Z</time>
      </trkpt>
      <trkpt lat="45.1763" lon="4.85748">
        <ele>183.89199829102</ele>
        <time>2009-08-12T17:01:39Z</time>
      </trkpt>
      <trkpt lat="45.17588" lon="4.85814">
        <ele>181.39900207519</ele>
        <time>2009-08-12T17:01:45Z</time>
      </trkpt>
      <trkpt lat="45.17535" lon="4.85977">
        <ele>181.68499755859</ele>
        <time>2009-08-12T17:01:57Z</time>
      </trkpt>
      <trkpt lat="45.17459" lon="4.86121">
        <ele>185.95799255371</ele>
        <time>2009-08-12T17:02:13Z</time>
      </trkpt>
      <trkpt lat="45.1739" lon="4.86245">
        <ele>185.7440032959</ele>
        <time>2009-08-12T17:02:28Z</time>
      </trkpt>
      <trkpt lat="45.17307" lon="4.86453">
        <ele>186.32600402832</ele>
        <time>2009-08-12T17:02:49Z</time>
      </trkpt>
      <trkpt lat="45.1722" lon="4.86664">
        <ele>187.76899719238</ele>
        <time>2009-08-12T17:03:10Z</time>
      </trkpt>
      <trkpt lat="45.17154" lon="4.86819">
        <ele>188.04200744629</ele>
        <time>2009-08-12T17:03:26Z</time>
      </trkpt>
      <trkpt lat="45.1708" lon="4.86996">
        <ele>185.90899658203</ele>
        <time>2009-08-12T17:03:43Z</time>
      </trkpt>
      <trkpt lat="45.1701" lon="4.87166">
        <ele>187.63200378418</ele>
        <time>2009-08-12T17:03:59Z</time>
      </trkpt>
      <trkpt lat="45.17" lon="4.87192">
        <ele>187.76699829102</ele>
        <time>2009-08-12T17:04:02Z</time>
      </trkpt>
      <trkpt lat="45.16998" lon="4.87248">
        <ele>187.97999572754</ele>
        <time>2009-08-12T17:04:08Z</time>
      </trkpt>
      <trkpt lat="45.17015" lon="4.8741">
        <ele>185.87100219727</ele>
        <time>2009-08-12T17:04:23Z</time>
      </trkpt>
      <trkpt lat="45.17024" lon="4.87572">
        <ele>185.34300231934</ele>
        <time>2009-08-12T17:04:36Z</time>
      </trkpt>
      <trkpt lat="45.17008" lon="4.87701">
        <ele>185.6130065918</ele>
        <time>2009-08-12T17:04:47Z</time>
      </trkpt>
      <trkpt lat="45.16997" lon="4.87727">
        <ele>185.51800537109</ele>
        <time>2009-08-12T17:04:50Z</time>
      </trkpt>
      <trkpt lat="45.1699" lon="4.87786">
        <ele>185.17300415039</ele>
        <time>2009-08-12T17:04:56Z</time>
      </trkpt>
      <trkpt lat="45.16986" lon="4.87816">
        <ele>186.46499633789</ele>
        <time>2009-08-12T17:04:59Z</time>
      </trkpt>
      <trkpt lat="45.16965" lon="4.8797">
        <ele>187.61500549316</ele>
        <time>2009-08-12T17:05:15Z</time>
      </trkpt>
      <trkpt lat="45.16978" lon="4.88146">
        <ele>188.87899780273</ele>
        <time>2009-08-12T17:05:32Z</time>
      </trkpt>
      <trkpt lat="45.16975" lon="4.88324">
        <ele>191.51600646973</ele>
        <time>2009-08-12T17:05:51Z</time>
      </trkpt>
      <trkpt lat="45.16941" lon="4.88519">
        <ele>192.23100280762</ele>
        <time>2009-08-12T17:06:11Z</time>
      </trkpt>
      <trkpt lat="45.16921" lon="4.88633">
        <ele>196.10299682617</ele>
        <time>2009-08-12T17:06:26Z</time>
      </trkpt>
      <trkpt lat="45.16902" lon="4.88733">
        <ele>201.05000305176</ele>
        <time>2009-08-12T17:06:44Z</time>
      </trkpt>
      <trkpt lat="45.16887" lon="4.88815">
        <ele>204.94299316406</ele>
        <time>2009-08-12T17:07:00Z</time>
      </trkpt>
      <trkpt lat="45.16868" lon="4.88923">
        <ele>206.10299682617</ele>
        <time>2009-08-12T17:07:17Z</time>
      </trkpt>
      <trkpt lat="45.1684" lon="4.89061">
        <ele>206.93499755859</ele>
        <time>2009-08-12T17:07:34Z</time>
      </trkpt>
      <trkpt lat="45.16782" lon="4.89142">
        <ele>206.95599365234</ele>
        <time>2009-08-12T17:07:46Z</time>
      </trkpt>
      <trkpt lat="45.16679" lon="4.89181">
        <ele>207.43499755859</ele>
        <time>2009-08-12T17:08:00Z</time>
      </trkpt>
      <trkpt lat="45.16589" lon="4.89236">
        <ele>206.11000061035</ele>
        <time>2009-08-12T17:08:13Z</time>
      </trkpt>
      <trkpt lat="45.16542" lon="4.89354">
        <ele>205.2559967041</ele>
        <time>2009-08-12T17:08:25Z</time>
      </trkpt>
      <trkpt lat="45.16512" lon="4.89486">
        <ele>209.53199768066</ele>
        <time>2009-08-12T17:08:40Z</time>
      </trkpt>
      <trkpt lat="45.1649" lon="4.8958">
        <ele>213.60200500488</ele>
        <time>2009-08-12T17:08:54Z</time>
      </trkpt>
      <trkpt lat="45.1646" lon="4.89706">
        <ele>217.4109954834</ele>
        <time>2009-08-12T17:09:15Z</time>
      </trkpt>
      <trkpt lat="45.16455" lon="4.89725">
        <ele>217.86099243164</ele>
        <time>2009-08-12T17:09:18Z</time>
      </trkpt>
      <trkpt lat="45.16436" lon="4.89802">
        <ele>220.59599304199</ele>
        <time>2009-08-12T17:09:30Z</time>
      </trkpt>
      <trkpt lat="45.16393" lon="4.89919">
        <ele>224.35400390625</ele>
        <time>2009-08-12T17:09:49Z</time>
      </trkpt>
      <trkpt lat="45.16337" lon="4.90045">
        <ele>223.12699890137</ele>
        <time>2009-08-12T17:10:05Z</time>
      </trkpt>
      <trkpt lat="45.16241" lon="4.90196">
        <ele>225.67799377441</ele>
        <time>2009-08-12T17:10:26Z</time>
      </trkpt>
      <trkpt lat="45.1617" lon="4.90339">
        <ele>228.22999572754</ele>
        <time>2009-08-12T17:10:46Z</time>
      </trkpt>
      <trkpt lat="45.16099" lon="4.90489">
        <ele>232.69599914551</ele>
        <time>2009-08-12T17:11:08Z</time>
      </trkpt>
      <trkpt lat="45.16062" lon="4.90604">
        <ele>236.11599731445</ele>
        <time>2009-08-12T17:11:25Z</time>
      </trkpt>
      <trkpt lat="45.16022" lon="4.90718">
        <ele>237.14700317383</ele>
        <time>2009-08-12T17:11:41Z</time>
      </trkpt>
      <trkpt lat="45.1596" lon="4.90886">
        <ele>241.92700195312</ele>
        <time>2009-08-12T17:12:05Z</time>
      </trkpt>
      <trkpt lat="45.15901" lon="4.90977">
        <ele>243.9700012207</ele>
        <time>2009-08-12T17:12:20Z</time>
      </trkpt>
      <trkpt lat="45.15808" lon="4.91045">
        <ele>247.36099243164</ele>
        <time>2009-08-12T17:12:37Z</time>
      </trkpt>
      <trkpt lat="45.15699" lon="4.9112">
        <ele>251.59100341797</ele>
        <time>2009-08-12T17:12:58Z</time>
      </trkpt>
      <trkpt lat="45.15598" lon="4.91197">
        <ele>256.39898681641</ele>
        <time>2009-08-12T17:13:18Z</time>
      </trkpt>
      <trkpt lat="45.15519" lon="4.91286">
        <ele>256.10800170898</ele>
        <time>2009-08-12T17:13:34Z</time>
      </trkpt>
      <trkpt lat="45.15453" lon="4.91373">
        <ele>250.79600524902</ele>
        <time>2009-08-12T17:13:45Z</time>
      </trkpt>
      <trkpt lat="45.15403" lon="4.91362">
        <ele>248.75199890137</ele>
        <time>2009-08-12T17:13:51Z</time>
      </trkpt>
      <trkpt lat="45.1539" lon="4.91316">
        <ele>248.50100708008</ele>
        <time>2009-08-12T17:13:55Z</time>
      </trkpt>
      <trkpt lat="45.15385" lon="4.91306">
        <ele>248.63499450684</ele>
        <time>2009-08-12T17:13:56Z</time>
      </trkpt>
      <trkpt lat="45.15359" lon="4.9127">
        <ele>247.77900695801</ele>
        <time>2009-08-12T17:14:00Z</time>
      </trkpt>
      <trkpt lat="45.15277" lon="4.91219">
        <ele>246.17799377441</ele>
        <time>2009-08-12T17:14:10Z</time>
      </trkpt>
      <trkpt lat="45.1521" lon="4.91187">
        <ele>244.59599304199</ele>
        <time>2009-08-12T17:14:18Z</time>
      </trkpt>
      <trkpt lat="45.15171" lon="4.91189">
        <ele>242.58999633789</ele>
        <time>2009-08-12T17:14:22Z</time>
      </trkpt>
      <trkpt lat="45.15092" lon="4.91204">
        <ele>239.79800415039</ele>
        <time>2009-08-12T17:14:30Z</time>
      </trkpt>
      <trkpt lat="45.14933" lon="4.91235">
        <ele>235.82899475098</ele>
        <time>2009-08-12T17:14:44Z</time>
      </trkpt>
      <trkpt lat="45.14815" lon="4.91257">
        <ele>233.70100402832</ele>
        <time>2009-08-12T17:14:54Z</time>
      </trkpt>
      <trkpt lat="45.14722" lon="4.91295">
        <ele>231.54299926758</ele>
        <time>2009-08-12T17:15:02Z</time>
      </trkpt>
      <trkpt lat="45.14605" lon="4.91346">
        <ele>230.22300720215</ele>
        <time>2009-08-12T17:15:12Z</time>
      </trkpt>
      <trkpt lat="45.14466" lon="4.91373">
        <ele>229.02200317383</ele>
        <time>2009-08-12T17:15:24Z</time>
      </trkpt>
      <trkpt lat="45.14272" lon="4.91408">
        <ele>231.89799499512</ele>
        <time>2009-08-12T17:15:43Z</time>
      </trkpt>
      <trkpt lat="45.14209" lon="4.91431">
        <ele>232.77400207519</ele>
        <time>2009-08-12T17:15:50Z</time>
      </trkpt>
      <trkpt lat="45.14168" lon="4.91482">
        <ele>233.27799987793</ele>
        <time>2009-08-12T17:15:56Z</time>
      </trkpt>
      <trkpt lat="45.14071" lon="4.9167">
        <ele>234.44700622559</ele>
        <time>2009-08-12T17:16:15Z</time>
      </trkpt>
      <trkpt lat="45.13966" lon="4.91851">
        <ele>237.40600585938</ele>
        <time>2009-08-12T17:16:35Z</time>
      </trkpt>
      <trkpt lat="45.13865" lon="4.91934">
        <ele>238.32699584961</ele>
        <time>2009-08-12T17:16:49Z</time>
      </trkpt>
      <trkpt lat="45.13733" lon="4.91987">
        <ele>240.54899597168</ele>
        <time>2009-08-12T17:17:05Z</time>
      </trkpt>
      <trkpt lat="45.13593" lon="4.92039">
        <ele>240.07800292969</ele>
        <time>2009-08-12T17:17:22Z</time>
      </trkpt>
      <trkpt lat="45.13468" lon="4.92112">
        <ele>238.36799621582</ele>
        <time>2009-08-12T17:17:37Z</time>
      </trkpt>
      <trkpt lat="45.13335" lon="4.92227">
        <ele>235.46800231934</ele>
        <time>2009-08-12T17:17:53Z</time>
      </trkpt>
      <trkpt lat="45.13227" lon="4.9224">
        <ele>233.35699462891</ele>
        <time>2009-08-12T17:18:03Z</time>
      </trkpt>
      <trkpt lat="45.13026" lon="4.92268">
        <ele>230.57299804688</ele>
        <time>2009-08-12T17:18:21Z</time>
      </trkpt>
      <trkpt lat="45.12923" lon="4.92343">
        <ele>227.92100524902</ele>
        <time>2009-08-12T17:18:31Z</time>
      </trkpt>
      <trkpt lat="45.12753" lon="4.92509">
        <ele>226.61000061035</ele>
        <time>2009-08-12T17:18:49Z</time>
      </trkpt>
      <trkpt lat="45.1264" lon="4.92633">
        <ele>228.43699645996</ele>
        <time>2009-08-12T17:19:04Z</time>
      </trkpt>
      <trkpt lat="45.12538" lon="4.92745">
        <ele>232.31199645996</ele>
        <time>2009-08-12T17:19:20Z</time>
      </trkpt>
      <trkpt lat="45.12502" lon="4.92787">
        <ele>233.32499694824</ele>
        <time>2009-08-12T17:19:27Z</time>
      </trkpt>
      <trkpt lat="45.12469" lon="4.92882">
        <ele>235.125</ele>
        <time>2009-08-12T17:19:38Z</time>
      </trkpt>
      <trkpt lat="45.12437" lon="4.92948">
        <ele>233.28700256348</ele>
        <time>2009-08-12T17:19:45Z</time>
      </trkpt>
      <trkpt lat="45.12418" lon="4.92977">
        <ele>231.87699890137</ele>
        <time>2009-08-12T17:19:48Z</time>
      </trkpt>
      <trkpt lat="45.12344" lon="4.93132">
        <ele>227.82800292969</ele>
        <time>2009-08-12T17:20:01Z</time>
      </trkpt>
      <trkpt lat="45.12148" lon="4.93523">
        <ele>229.7559967041</ele>
        <time>2009-08-12T17:20:37Z</time>
      </trkpt>
      <trkpt lat="45.12056" lon="4.93608">
        <ele>232.45899963379</ele>
        <time>2009-08-12T17:20:53Z</time>
      </trkpt>
      <trkpt lat="45.11985" lon="4.9371">
        <ele>231.98699951172</ele>
        <time>2009-08-12T17:21:08Z</time>
      </trkpt>
      <trkpt lat="45.11918" lon="4.93818">
        <ele>228.77600097656</ele>
        <time>2009-08-12T17:21:20Z</time>
      </trkpt>
      <trkpt lat="45.11854" lon="4.93908">
        <ele>225.63000488281</ele>
        <time>2009-08-12T17:21:29Z</time>
      </trkpt>
      <trkpt lat="45.11832" lon="4.93961">
        <ele>223.61599731445</ele>
        <time>2009-08-12T17:21:33Z</time>
      </trkpt>
      <trkpt lat="45.11784" lon="4.94188">
        <ele>224.04899597168</ele>
        <time>2009-08-12T17:21:50Z</time>
      </trkpt>
      <trkpt lat="45.11781" lon="4.94284">
        <ele>224.54100036621</ele>
        <time>2009-08-12T17:21:58Z</time>
      </trkpt>
      <trkpt lat="45.11779" lon="4.9432">
        <ele>223.51499938965</ele>
        <time>2009-08-12T17:22:01Z</time>
      </trkpt>
      <trkpt lat="45.11762" lon="4.94368">
        <ele>223.94999694824</ele>
        <time>2009-08-12T17:22:06Z</time>
      </trkpt>
      <trkpt lat="45.11736" lon="4.94404">
        <ele>225.38600158691</ele>
        <time>2009-08-12T17:22:11Z</time>
      </trkpt>
      <trkpt lat="45.11718" lon="4.94417">
        <ele>225.89799499512</ele>
        <time>2009-08-12T17:22:14Z</time>
      </trkpt>
      <trkpt lat="45.11707" lon="4.94424">
        <ele>226.04200744629</ele>
        <time>2009-08-12T17:22:16Z</time>
      </trkpt>
      <trkpt lat="45.11691" lon="4.94426">
        <ele>227.28799438477</ele>
        <time>2009-08-12T17:22:19Z</time>
      </trkpt>
      <trkpt lat="45.11679" lon="4.94427">
        <ele>227.91200256348</ele>
        <time>2009-08-12T17:22:21Z</time>
      </trkpt>
      <trkpt lat="45.11664" lon="4.94431">
        <ele>229.23899841309</ele>
        <time>2009-08-12T17:22:24Z</time>
      </trkpt>
      <trkpt lat="45.11637" lon="4.94448">
        <ele>231.36399841309</ele>
        <time>2009-08-12T17:22:30Z</time>
      </trkpt>
      <trkpt lat="45.11609" lon="4.94462">
        <ele>233.11099243164</ele>
        <time>2009-08-12T17:22:37Z</time>
      </trkpt>
      <trkpt lat="45.11598" lon="4.94474">
        <ele>234.30999755859</ele>
        <time>2009-08-12T17:22:40Z</time>
      </trkpt>
      <trkpt lat="45.11591" lon="4.94482">
        <ele>235.22700500488</ele>
        <time>2009-08-12T17:22:42Z</time>
      </trkpt>
      <trkpt lat="45.11575" lon="4.94504">
        <ele>236.28300476074</ele>
        <time>2009-08-12T17:22:47Z</time>
      </trkpt>
      <trkpt lat="45.11568" lon="4.94514">
        <ele>236.90100097656</ele>
        <time>2009-08-12T17:22:49Z</time>
      </trkpt>
      <trkpt lat="45.11563" lon="4.94525">
        <ele>237.50500488281</ele>
        <time>2009-08-12T17:22:51Z</time>
      </trkpt>
      <trkpt lat="45.11557" lon="4.94567">
        <ele>238.50799560547</ele>
        <time>2009-08-12T17:22:57Z</time>
      </trkpt>
      <trkpt lat="45.11557" lon="4.94591">
        <ele>238.60000610352</ele>
        <time>2009-08-12T17:23:00Z</time>
      </trkpt>
      <trkpt lat="45.11555" lon="4.94653">
        <ele>238.90199279785</ele>
        <time>2009-08-12T17:23:08Z</time>
      </trkpt>
      <trkpt lat="45.11564" lon="4.94811">
        <ele>241.25399780273</ele>
        <time>2009-08-12T17:23:28Z</time>
      </trkpt>
      <trkpt lat="45.11586" lon="4.94921">
        <ele>242.85499572754</ele>
        <time>2009-08-12T17:23:43Z</time>
      </trkpt>
      <trkpt lat="45.1163" lon="4.95034">
        <ele>242.08000183106</ele>
        <time>2009-08-12T17:23:57Z</time>
      </trkpt>
      <trkpt lat="45.11678" lon="4.95162">
        <ele>238.93600463867</ele>
        <time>2009-08-12T17:24:10Z</time>
      </trkpt>
      <trkpt lat="45.11718" lon="4.95284">
        <ele>236.46899414062</ele>
        <time>2009-08-12T17:24:21Z</time>
      </trkpt>
      <trkpt lat="45.1172" lon="4.95334">
        <ele>233.70899963379</ele>
        <time>2009-08-12T17:24:25Z</time>
      </trkpt>
      <trkpt lat="45.1173" lon="4.95411">
        <ele>228.4640045166</ele>
        <time>2009-08-12T17:24:31Z</time>
      </trkpt>
      <trkpt lat="45.11762" lon="4.95426">
        <ele>226.46000671387</ele>
        <time>2009-08-12T17:24:34Z</time>
      </trkpt>
      <trkpt lat="45.11798" lon="4.95432">
        <ele>223.25900268555</ele>
        <time>2009-08-12T17:24:37Z</time>
      </trkpt>
      <trkpt lat="45.11819" lon="4.95444">
        <ele>222.02299499512</ele>
        <time>2009-08-12T17:24:39Z</time>
      </trkpt>
      <trkpt lat="45.11827" lon="4.955">
        <ele>220.99899291992</ele>
        <time>2009-08-12T17:24:43Z</time>
      </trkpt>
      <trkpt lat="45.1181" lon="4.95528">
        <ele>223.72599792481</ele>
        <time>2009-08-12T17:24:46Z</time>
      </trkpt>
      <trkpt lat="45.11794" lon="4.9556">
        <ele>226.53799438477</ele>
        <time>2009-08-12T17:24:51Z</time>
      </trkpt>
      <trkpt lat="45.11795" lon="4.95572">
        <ele>227.52299499512</ele>
        <time>2009-08-12T17:24:53Z</time>
      </trkpt>
      <trkpt lat="45.11799" lon="4.95589">
        <ele>228.56100463867</ele>
        <time>2009-08-12T17:24:56Z</time>
      </trkpt>
      <trkpt lat="45.11788" lon="4.95621">
        <ele>231.16799926758</ele>
        <time>2009-08-12T17:25:04Z</time>
      </trkpt>
      <trkpt lat="45.11747" lon="4.95649">
        <ele>234.75700378418</ele>
        <time>2009-08-12T17:25:17Z</time>
      </trkpt>
      <trkpt lat="45.11744" lon="4.95707">
        <ele>238.45899963379</ele>
        <time>2009-08-12T17:25:29Z</time>
      </trkpt>
      <trkpt lat="45.11744" lon="4.95712">
        <ele>238.58500671387</ele>
        <time>2009-08-12T17:25:30Z</time>
      </trkpt>
      <trkpt lat="45.11744" lon="4.95736">
        <ele>239.65600585938</ele>
        <time>2009-08-12T17:25:35Z</time>
      </trkpt>
      <trkpt lat="45.11743" lon="4.9576">
        <ele>240.56799316406</ele>
        <time>2009-08-12T17:25:40Z</time>
      </trkpt>
      <trkpt lat="45.11755" lon="4.95848">
        <ele>240.25399780273</ele>
        <time>2009-08-12T17:25:54Z</time>
      </trkpt>
      <trkpt lat="45.11772" lon="4.95917">
        <ele>237.96800231934</ele>
        <time>2009-08-12T17:26:03Z</time>
      </trkpt>
      <trkpt lat="45.11755" lon="4.95924">
        <ele>237.81399536133</ele>
        <time>2009-08-12T17:26:09Z</time>
      </trkpt>
      <trkpt lat="45.11732" lon="4.95909">
        <ele>238.99000549316</ele>
        <time>2009-08-12T17:26:15Z</time>
      </trkpt>
      <trkpt lat="45.11697" lon="4.95885">
        <ele>240.21000671387</ele>
        <time>2009-08-12T17:26:23Z</time>
      </trkpt>
      <trkpt lat="45.11661" lon="4.95896">
        <ele>242.67900085449</ele>
        <time>2009-08-12T17:26:32Z</time>
      </trkpt>
      <trkpt lat="45.11657" lon="4.9592">
        <ele>242.74600219727</ele>
        <time>2009-08-12T17:26:35Z</time>
      </trkpt>
      <trkpt lat="45.11618" lon="4.96033">
        <ele>234.68899536133</ele>
        <time>2009-08-12T17:26:46Z</time>
      </trkpt>
      <trkpt lat="45.11592" lon="4.96148">
        <ele>229.45700073242</ele>
        <time>2009-08-12T17:26:54Z</time>
      </trkpt>
      <trkpt lat="45.11555" lon="4.96178">
        <ele>228.43600463867</ele>
        <time>2009-08-12T17:26:59Z</time>
      </trkpt>
      <trkpt lat="45.11529" lon="4.96181">
        <ele>227.2380065918</ele>
        <time>2009-08-12T17:27:02Z</time>
      </trkpt>
      <trkpt lat="45.11531" lon="4.96209">
        <ele>223.23599243164</ele>
        <time>2009-08-12T17:27:07Z</time>
      </trkpt>
      <trkpt lat="45.11574" lon="4.96266">
        <ele>216.65899658203</ele>
        <time>2009-08-12T17:27:14Z</time>
      </trkpt>
      <trkpt lat="45.11584" lon="4.96346">
        <ele>209.05299377441</ele>
        <time>2009-08-12T17:27:19Z</time>
      </trkpt>
      <trkpt lat="45.11584" lon="4.96396">
        <ele>207.41799926758</ele>
        <time>2009-08-12T17:27:22Z</time>
      </trkpt>
      <trkpt lat="45.11583" lon="4.96423">
        <ele>206.62600708008</ele>
        <time>2009-08-12T17:27:24Z</time>
      </trkpt>
      <trkpt lat="45.11582" lon="4.96448">
        <ele>207.24099731445</ele>
        <time>2009-08-12T17:27:27Z</time>
      </trkpt>
      <trkpt lat="45.11578" lon="4.96449">
        <ele>206.95599365234</ele>
        <time>2009-08-12T17:27:29Z</time>
      </trkpt>
    </trkseg>
  </trk>
</gpx>